
Distance (Route):
Temperature : 20.9°C
Humidity : 53.2%
Pressure : 957.7hPa| Receiver | Frames | First received | Last received |
|---|---|---|---|
| DB0DAN | 271 | 2026-08-30 16:51:10 | 2026-08-30 18:06:10 |
| AA1-15 | 212 | 2026-08-30 17:02:24 | 2026-08-30 18:00:53 |
| KRY50SP-1 | 168 | 2026-08-30 17:03:42 | 2026-08-30 18:08:07 |
| SONDE2-12 | 144 | 2026-08-30 16:46:26 | 2026-08-30 18:08:41 |
| DL1XH-west | 98 | 2026-08-30 17:35:24 | 2026-08-30 17:56:30 |
| EDDB2-12 | 78 | 2026-08-30 16:45:46 | 2026-08-30 18:09:34 |
| EDDB2-11 | 75 | 2026-08-30 16:45:41 | 2026-08-30 18:09:57 |
| DL1XH1-15 | 74 | 2026-08-30 17:35:51 | 2026-08-30 17:55:59 |
| 13BRC | 52 | 2026-08-30 16:52:16 | 2026-08-30 18:03:12 |
| DL2RXE-15 | 50 | 2026-08-30 16:51:22 | 2026-08-30 18:01:21 |
| SP3WXH-11 | 50 | 2026-08-30 17:15:14 | 2026-08-30 18:09:32 |
| S3001 | 45 | 2026-08-30 16:54:34 | 2026-08-30 18:01:50 |
| SONDE2-11 | 42 | 2026-08-30 16:45:28 | 2026-08-30 18:10:19 |
| SP6BVK | 42 | 2026-08-30 17:02:46 | 2026-08-30 18:07:50 |
| SP3BTT-10 | 36 | 2026-08-30 16:51:25 | 2026-08-30 18:11:12 |
| DM0DOS-11 | 36 | 2026-08-30 17:44:36 | 2026-08-30 17:57:40 |
| DF8AY | 32 | 2026-08-30 17:31:37 | 2026-08-30 17:52:22 |
| SQ2ODE-11 | 30 | 2026-08-30 17:37:18 | 2026-08-30 17:56:42 |
| SONCRA | 23 | 2026-08-30 17:13:56 | 2026-08-30 18:01:02 |
| DAC517 | 13 | 2026-08-30 16:53:05 | 2026-08-30 17:17:18 |
| OE3JTB-15 | 9 | 2026-08-30 17:32:46 | 2026-08-30 17:50:50 |
| NBG1-10 | 7 | 2026-08-30 17:19:14 | 2026-08-30 17:54:35 |
| D01LWL | 7 | 2026-08-30 17:38:30 | 2026-08-30 17:52:59 |
| DC4HF-4 | 7 | 2026-08-30 17:42:44 | 2026-08-30 17:52:57 |
| DO3MHA-11 | 7 | 2026-08-30 17:50:19 | 2026-08-30 17:54:39 |
| MECKS9 | 6 | 2026-08-30 17:14:43 | 2026-08-30 17:19:13 |
| DJ2DS-15 | 4 | 2026-08-30 17:48:25 | 2026-08-30 17:53:21 |
| DL1JHR | 1 | 2026-08-30 17:32:47 | 2026-08-30 17:32:47 |
| Receiver | Date | Latitude | Longitude | Direction | Speed | Altitude | Climb | Temperature | Humidity | Pressure | Voltage | Killtimer | Uptime | BKT | XDATA |
|---|---|---|---|---|---|---|---|---|---|---|---|---|---|---|---|
| SP3BTT-10 | 2026-08-30 18:11:12 | 52.27500 | 15.43994 | 54° | 38km/h | 516m | -14.5m/s | 20.9°C | 53.2% | 957.7hPa | 2.7V | 00:00:00 | 00:00:00 | 00:00:00 | |
| SP3BTT-10 | 2026-08-30 18:11:06 | 52.27472 | 15.43914 | 54° | 38km/h | 600m | -14.4m/s | 20.1°C | 54.9% | 948.5hPa | 2.7V | 00:00:00 | 00:00:00 | 00:00:00 | |
| SP3BTT-10 | 2026-08-30 18:11:00 | 52.27445 | 15.43831 | 60° | 38km/h | 686m | -13.9m/s | 19.3°C | 56.2% | 938.9hPa | 2.7V | 00:00:00 | 00:00:00 | 00:00:00 | |
| SP3BTT-10 | 2026-08-30 18:10:54 | 52.27419 | 15.43745 | 59° | 38km/h | 771m | -14.8m/s | 18.6°C | 57.7% | 929.7hPa | 2.7V | 00:00:00 | 00:00:00 | 00:00:00 | |
| SP3BTT-10 | 2026-08-30 18:10:48 | 52.27395 | 15.43660 | 65° | 38km/h | 860m | -15.3m/s | 17.7°C | 60.3% | 920.3hPa | 2.7V | 00:00:00 | 00:00:00 | 00:00:00 | |
| SP3BTT-10 | 2026-08-30 18:10:42 | 52.27372 | 15.43572 | 70° | 40km/h | 950m | -14.8m/s | 17.0°C | 61.2% | 910.4hPa | 2.7V | 00:00:00 | 00:00:00 | 00:00:00 | |
| SP3BTT-10 | 2026-08-30 18:10:36 | 52.27351 | 15.43480 | 72° | 42km/h | 1039m | -14.9m/s | 16.2°C | 62.9% | 901.0hPa | 2.7V | 00:00:00 | 00:00:00 | 00:00:00 | |
| SP3BTT-10 | 2026-08-30 18:10:30 | 52.27333 | 15.43381 | 74° | 42km/h | 1129m | -15.3m/s | 15.4°C | 63.9% | 891.6hPa | 2.7V | 00:00:00 | 00:00:00 | 00:00:00 | |
| SONDE2-11 | 2026-08-30 18:10:19 | 52.27298 | 15.43162 | 76° | 38km/h | 1321m | -15.4m/s | 13.7°C | 68.9% | 871.6hPa | 2.7V | 00:00:00 | 00:00:00 | 00:00:00 | |
| SP3BTT-10 | 2026-08-30 18:10:16 | 52.27296 | 15.43145 | 79° | 46km/h | 1337m | -15.2m/s | 13.5°C | 69.5% | 870.0hPa | 2.7V | 08:13:00 | 00:00:00 | 00:00:00 | |
| EDDB2-11 | 2026-08-30 18:09:57 | 52.27259 | 15.42796 | 78° | 44km/h | 1620m | -15.3m/s | 10.9°C | 75.9% | 840.8hPa | 2.7V | 00:00:00 | 00:00:00 | 00:00:00 | |
| SONDE2-11 | 2026-08-30 18:09:48 | 52.27243 | 15.42634 | 80° | 46km/h | 1756m | -15.9m/s | 9.8°C | 74.2% | 827.5hPa | 2.7V | 00:00:00 | 00:00:00 | 00:00:00 | |
| SP3BTT-10 | 2026-08-30 18:09:36 | 52.27223 | 15.42407 | 82° | 42km/h | 1944m | -16.0m/s | 8.5°C | 69.5% | 808.9hPa | 2.7V | 00:00:00 | 00:00:00 | 00:00:00 | |
| EDDB2-12 | 2026-08-30 18:09:34 | 52.27217 | 15.42352 | 76° | 40km/h | 1991m | -16.2m/s | 8.1°C | 70.6% | 804.3hPa | 2.7V | 00:00:00 | 00:00:00 | 00:00:00 | |
| SP3WXH-11 | 2026-08-30 18:09:32 | 52.27216 | 15.42335 | 84° | 44km/h | 2007m | -15.9m/s | 8.0°C | 71.6% | 802.8hPa | 2.7V | 00:00:00 | 00:00:00 | 00:00:00 | |
| EDDB2-11 | 2026-08-30 18:09:26 | 52.27207 | 15.42225 | 83° | 42km/h | 2103m | -16.1m/s | 7.1°C | 77.4% | 793.6hPa | 2.7V | 00:00:00 | 00:00:00 | 00:00:00 | |
| SONDE2-11 | 2026-08-30 18:09:17 | 52.27198 | 15.42069 | 85° | 40km/h | 2246m | -16.1m/s | 6.0°C | 82.4% | 779.9hPa | 2.7V | 00:00:00 | 00:00:00 | 00:00:00 | |
| SP3BTT-10 | 2026-08-30 18:09:16 | 52.27197 | 15.42053 | 86° | 38km/h | 2261m | -15.3m/s | 5.8°C | 83.8% | 778.4hPa | 2.7V | 00:00:00 | 00:00:00 | 00:00:00 | |
| EDDB2-12 | 2026-08-30 18:09:03 | 52.27184 | 15.41837 | 81° | 38km/h | 2473m | -14.7m/s | 4.5°C | 74.0% | 758.4hPa | 2.6V | 00:00:00 | 00:00:00 | 00:00:00 | |
| SP3WXH-11 | 2026-08-30 18:09:01 | 52.27182 | 15.41820 | 78° | 40km/h | 2487m | -15.3m/s | 4.3°C | 74.0% | 757.0hPa | 2.6V | 00:00:00 | 00:00:00 | 00:00:00 | |
| EDDB2-11 | 2026-08-30 18:08:55 | 52.27172 | 15.41716 | 82° | 46km/h | 2578m | -15.4m/s | 3.7°C | 67.4% | 748.6hPa | 2.6V | 00:00:00 | 00:00:00 | 00:00:00 | |
| SONDE2-11 | 2026-08-30 18:08:46 | 52.27144 | 15.41551 | 68° | 46km/h | 2711m | -15.0m/s | 4.4°C | 37.0% | 736.2hPa | 2.6V | 00:00:00 | 00:00:00 | 00:00:00 | |
| SONDE2-12 | 2026-08-30 18:08:41 | 52.27040 | 15.41082 | 75° | 40km/h | 3111m | -16.0m/s | 4.3°C | 14.0% | 701.3hPa | 2.6V | 00:00:00 | 00:00:00 | 00:00:00 | |
| SP3BTT-10 | 2026-08-30 18:08:36 | 52.27097 | 15.41373 | 70° | 46km/h | 2859m | -16.0m/s | 4.7°C | 20.2% | 723.0hPa | 2.6V | 00:00:00 | 00:00:00 | 00:00:00 | |
| EDDB2-12 | 2026-08-30 18:08:32 | 52.27076 | 15.41281 | 71° | 46km/h | 2939m | -15.7m/s | 4.6°C | 18.8% | 716.3hPa | 2.6V | 00:00:00 | 00:00:00 | 00:00:00 | |
| SP3WXH-11 | 2026-08-30 18:08:30 | 52.27072 | 15.41262 | 68° | 47km/h | 2955m | -15.2m/s | 4.5°C | 19.0% | 714.8hPa | 2.6V | 00:00:00 | 00:00:00 | 00:00:00 | |
| SONDE2-12 | 2026-08-30 18:08:10 | 52.27012 | 15.40893 | 76° | 42km/h | 3280m | -14.7m/s | 3.7°C | 14.7% | 686.9hPa | 2.6V | 00:00:00 | 00:00:00 | 00:00:00 | |
| KRY50SP-1 | 2026-08-30 18:08:07 | 52.27009 | 15.40875 | 78° | 46km/h | 3294m | -15.0m/s | 3.5°C | 15.6% | 685.5hPa | 2.6V | 08:16:00 | 00:00:00 | 00:00:00 | |
| EDDB2-12 | 2026-08-30 18:08:01 | 52.26991 | 15.40729 | 79° | 46km/h | 3414m | -15.1m/s | 2.7°C | 18.7% | 675.1hPa | 2.6V | 00:00:00 | 00:00:00 | 00:00:00 | |
| SP3WXH-11 | 2026-08-30 18:07:59 | 52.26988 | 15.40710 | 76° | 46km/h | 3429m | -14.8m/s | 2.6°C | 17.7% | 673.9hPa | 2.6V | 00:00:00 | 00:00:00 | 00:00:00 | |
| EDDB2-11 | 2026-08-30 18:07:53 | 52.26973 | 15.40593 | 75° | 44km/h | 3517m | -14.8m/s | 2.5°C | 15.9% | 666.6hPa | 2.6V | 00:00:00 | 00:00:00 | 00:00:00 | |
| KRY50SP-1 | 2026-08-30 18:07:51 | 52.26970 | 15.40575 | 74° | 44km/h | 3532m | -14.6m/s | 2.4°C | 16.0% | 665.5hPa | 2.6V | 08:16:00 | 00:00:00 | 00:00:00 | |
| SP6BVK | 2026-08-30 18:07:50 | 52.26967 | 15.40556 | 78° | 47km/h | 3546m | -14.2m/s | 2.3°C | 16.3% | 664.4hPa | 2.6V | 00:00:00 | 00:00:00 | 00:00:00 | |
| SP3BTT-10 | 2026-08-30 18:07:46 | 52.26956 | 15.40461 | 82° | 49km/h | 3619m | -15.3m/s | 1.8°C | 15.3% | 658.3hPa | 2.6V | 00:00:00 | 00:00:00 | 00:00:00 | |
| SONDE2-11 | 2026-08-30 18:07:44 | 52.26953 | 15.40423 | 80° | 44km/h | 3649m | -14.9m/s | 1.6°C | 14.9% | 656.1hPa | 2.6V | 00:00:00 | 00:00:00 | 00:00:00 | |
| KRY50SP-1 | 2026-08-30 18:07:40 | 52.26949 | 15.40365 | 85° | 46km/h | 3694m | -15.7m/s | 1.3°C | 13.2% | 652.5hPa | 2.6V | 08:16:00 | 00:00:00 | 00:00:00 | |
| KRY50SP-1 | 2026-08-30 18:07:35 | 52.26943 | 15.40267 | 87° | 47km/h | 3773m | -16.1m/s | 0.9°C | 11.8% | 646.2hPa | 2.6V | 08:16:00 | 00:00:00 | 00:00:00 | |
| SP6BVK | 2026-08-30 18:07:29 | 52.26936 | 15.40145 | 82° | 49km/h | 3867m | -15.7m/s | 0.5°C | 10.8% | 638.7hPa | 2.6V | 00:00:00 | 00:00:00 | 00:00:00 | |
| SP3WXH-11 | 2026-08-30 18:07:28 | 52.26933 | 15.40103 | 83° | 47km/h | 3897m | -15.6m/s | 0.3°C | 11.1% | 636.2hPa | 2.6V | 00:00:00 | 00:00:00 | 00:00:00 | |
| KRY50SP-1 | 2026-08-30 18:07:23 | 52.26929 | 15.40019 | 85° | 51km/h | 3959m | -15.5m/s | -0.1°C | 10.3% | 631.3hPa | 2.6V | 08:16:00 | 00:00:00 | 00:00:00 | |
| EDDB2-11 | 2026-08-30 18:07:22 | 52.26928 | 15.39977 | 87° | 47km/h | 3988m | -15.3m/s | -0.3°C | 10.3% | 629.0hPa | 2.6V | 00:00:00 | 00:00:00 | 00:00:00 | |
| KRY50SP-1 | 2026-08-30 18:07:17 | 52.26925 | 15.39892 | 84° | 51km/h | 4050m | -15.4m/s | -0.6°C | 10.7% | 624.2hPa | 2.6V | 08:17:00 | 00:00:00 | 00:00:00 | |
| SP3BTT-10 | 2026-08-30 18:07:16 | 52.26922 | 15.39849 | 85° | 57km/h | 4080m | -15.4m/s | -0.6°C | 10.8% | 621.8hPa | 2.6V | 00:00:00 | 00:00:00 | 00:00:00 | |
| SONDE2-11 | 2026-08-30 18:07:13 | 52.26917 | 15.39787 | 84° | 51km/h | 4125m | -15.7m/s | -1.0°C | 10.2% | 618.3hPa | 2.6V | 00:00:00 | 00:00:00 | 00:00:00 | |
| KRY50SP-1 | 2026-08-30 18:07:12 | 52.26918 | 15.39787 | 85° | 53km/h | 4125m | -15.7m/s | -1.0°C | 10.2% | 618.3hPa | 2.6V | 08:17:00 | 00:00:00 | 00:00:00 | |
| SONDE2-12 | 2026-08-30 18:07:08 | 52.26882 | 15.39260 | 82° | 58km/h | 4484m | -15.9m/s | -3.7°C | 12.5% | 590.7hPa | 2.6V | 00:00:00 | 00:00:00 | 00:00:00 | |
| KRY50SP-1 | 2026-08-30 18:07:03 | 52.26907 | 15.39594 | 85° | 51km/h | 4261m | -15.4m/s | -2.2°C | 10.9% | 607.8hPa | 2.6V | 08:17:00 | 00:00:00 | 00:00:00 | |
| EDDB2-12 | 2026-08-30 18:06:58 | 52.26898 | 15.39465 | 81° | 53km/h | 4351m | -15.4m/s | -2.8°C | 11.1% | 600.9hPa | 2.6V | 00:00:00 | 00:00:00 | 00:00:00 | |
| SP3WXH-11 | 2026-08-30 18:06:57 | 52.26896 | 15.39443 | 82° | 51km/h | 4365m | -14.8m/s | -2.9°C | 11.0% | 599.7hPa | 2.6V | 00:00:00 | 00:00:00 | 00:00:00 | |
| EDDB2-11 | 2026-08-30 18:06:51 | 52.26886 | 15.39308 | 80° | 55km/h | 4453m | -14.8m/s | -3.5°C | 12.0% | 593.1hPa | 2.6V | 00:00:00 | 00:00:00 | 00:00:00 | |
| SONDE2-12 | 2026-08-30 18:06:37 | 52.26857 | 15.38897 | 83° | 58km/h | 4714m | -15.4m/s | -5.3°C | 11.0% | 573.9hPa | 2.6V | 00:00:00 | 00:00:00 | 00:00:00 | |
| KRY50SP-1 | 2026-08-30 18:06:36 | 52.26862 | 15.38972 | 83° | 60km/h | 4668m | -15.5m/s | -5.1°C | 10.7% | 577.3hPa | 2.6V | 08:17:00 | 00:00:00 | 00:00:00 | |
| SP3BTT-10 | 2026-08-30 18:06:31 | 52.26852 | 15.38821 | 85° | 58km/h | 4759m | -15.3m/s | -5.7°C | 11.5% | 570.6hPa | 2.6V | 08:17:00 | 00:00:00 | 00:00:00 | |
| KRY50SP-1 | 2026-08-30 18:06:27 | 52.26845 | 15.38719 | 85° | 62km/h | 4819m | -15.3m/s | -6.1°C | 8.3% | 566.3hPa | 2.6V | 08:18:00 | 00:00:00 | 00:00:00 | |
| SP3WXH-11 | 2026-08-30 18:06:26 | 52.26845 | 15.38693 | 84° | 62km/h | 4835m | -15.6m/s | -6.3°C | 7.7% | 565.1hPa | 2.6V | 00:00:00 | 00:00:00 | 00:00:00 | |
| KRY50SP-1 | 2026-08-30 18:06:21 | 52.26840 | 15.38592 | 87° | 60km/h | 4896m | -15.3m/s | -6.7°C | 7.3% | 560.8hPa | 2.6V | 08:18:00 | 00:00:00 | 00:00:00 | |
| EDDB2-11 | 2026-08-30 18:06:20 | 52.26839 | 15.38541 | 88° | 62km/h | 4926m | -16.0m/s | -7.0°C | 7.3% | 558.6hPa | 2.6V | 00:00:00 | 00:00:00 | 00:00:00 | |
| KRY50SP-1 | 2026-08-30 18:06:15 | 52.26838 | 15.38440 | 90° | 62km/h | 4988m | -15.3m/s | -7.5°C | 7.3% | 554.2hPa | 2.6V | 08:18:00 | 00:00:00 | 00:00:00 | |
| DB0DAN | 2026-08-30 18:06:10 | 52.26840 | 15.38289 | 91° | 58km/h | 5079m | -15.4m/s | -8.2°C | 5.4% | 547.65hPa | 2.6V | 00:00:00 | 00:00:00 | 00:00:00 | |
| SONDE2-12 | 2026-08-30 18:06:06 | 52.26842 | 15.38163 | 88° | 57km/h | 5155m | -15.0m/s | -8.2°C | 4.0% | 542.3hPa | 2.5V | 00:00:00 | 00:00:00 | 00:00:00 | |
| KRY50SP-1 | 2026-08-30 18:06:04 | 52.26842 | 15.38163 | 90° | 58km/h | 5155m | -15.0m/s | -8.2°C | 3.9% | 542.3hPa | 2.5V | 08:18:00 | 00:00:00 | 00:00:00 | |
| EDDB2-12 | 2026-08-30 18:05:56 | 52.26841 | 15.37953 | 91° | 57km/h | 5293m | -16.2m/s | -9.0°C | 3.6% | 532.8hPa | 2.5V | 00:00:00 | 00:00:00 | 00:00:00 | |
| DB0DAN | 2026-08-30 18:05:55 | 52.26842 | 15.37929 | 91° | 53km/h | 5308m | -16m/s | -9.1°C | 3.4% | 531.67hPa | 2.5V | 00:00:00 | 00:00:00 | 00:00:00 | |
| SP3WXH-11 | 2026-08-30 18:05:55 | 52.26842 | 15.37929 | 90° | 53km/h | 5308m | -16.0m/s | -9.1°C | 3.4% | 531.7hPa | 2.6V | 00:00:00 | 00:00:00 | 00:00:00 | |
| KRY50SP-1 | 2026-08-30 18:05:52 | 52.26842 | 15.37884 | 91° | 55km/h | 5339m | -15.3m/s | -9.3°C | 3.4% | 529.5hPa | 2.6V | 08:18:00 | 00:00:00 | 00:00:00 | |
| SP3BTT-10 | 2026-08-30 18:05:46 | 52.26847 | 15.37718 | 92° | 57km/h | 5447m | -15.0m/s | -10.0°C | 4.4% | 522.1hPa | 2.6V | 00:00:00 | 00:00:00 | 00:00:00 | |
| DB0DAN | 2026-08-30 18:05:40 | 52.26853 | 15.37572 | 94° | 55km/h | 5539m | -15.7m/s | -10.4°C | 3.2% | 515.97hPa | 2.6V | 00:00:00 | 00:00:00 | 00:00:00 | |
| SONDE2-12 | 2026-08-30 18:05:35 | 52.26855 | 15.37432 | 91° | 58km/h | 5631m | -15.6m/s | -10.9°C | 3.0% | 509.8hPa | 2.5V | 00:00:00 | 00:00:00 | 00:00:00 | |
| KRY50SP-1 | 2026-08-30 18:05:30 | 52.26856 | 15.37360 | 92° | 55km/h | 5678m | -15.8m/s | -11.3°C | 2.9% | 506.9hPa | 2.5V | 08:19:00 | 00:00:00 | 00:00:00 | |
| DB0DAN | 2026-08-30 18:05:25 | 52.26855 | 15.37224 | 89° | 55km/h | 5768m | -14.9m/s | -12°C | 2.9% | 500.81hPa | 2.5V | 00:00:00 | 00:00:00 | 00:00:00 | |
| SP3WXH-11 | 2026-08-30 18:05:24 | 52.26855 | 15.37200 | 88° | 57km/h | 5783m | -15.5m/s | -12.1°C | 3.0% | 499.8hPa | 2.7V | 00:00:00 | 00:00:00 | 00:00:00 | |
| EDDB2-11 | 2026-08-30 18:05:18 | 52.26855 | 15.37062 | 88° | 53km/h | 5874m | -15.2m/s | -12.8°C | 3.0% | 493.9hPa | 2.7V | 00:00:00 | 00:00:00 | 00:00:00 | |
| KRY50SP-1 | 2026-08-30 18:05:12 | 52.26851 | 15.36947 | 88° | 57km/h | 5949m | -15.4m/s | -13.2°C | 4.2% | 489.0hPa | 2.7V | 08:19:00 | 00:00:00 | 00:00:00 | |
| DB0DAN | 2026-08-30 18:05:10 | 52.26849 | 15.36876 | 87° | 55km/h | 5994m | -15.8m/s | -13.7°C | 4.2% | 486.17hPa | 2.7V | 00:00:00 | 00:00:00 | 00:00:00 | |
| SONDE2-12 | 2026-08-30 18:05:04 | 52.26842 | 15.36715 | 82° | 55km/h | 6099m | -15.5m/s | -14.5°C | 4.6% | 479.3hPa | 2.5V | 00:00:00 | 00:00:00 | 00:00:00 | |
| SP3BTT-10 | 2026-08-30 18:05:02 | 52.26840 | 15.36692 | 84° | 64km/h | 6114m | -15.3m/s | -14.5°C | 4.9% | 478.3hPa | 2.5V | 00:00:00 | 00:00:00 | 00:00:00 | |
| KRY50SP-1 | 2026-08-30 18:04:57 | 52.26834 | 15.36596 | 87° | 58km/h | 6174m | -15.5m/s | -15.1°C | 5.0% | 474.6hPa | 2.5V | 08:19:00 | 00:00:00 | 00:00:00 | |
| DB0DAN | 2026-08-30 18:04:55 | 52.26831 | 15.36522 | 86° | 57km/h | 6219m | -15.9m/s | -15.5°C | 4.7% | 471.75hPa | 2.5V | 00:00:00 | 00:00:00 | 00:00:00 | |
| EDDB2-12 | 2026-08-30 18:04:54 | 52.26830 | 15.36497 | 86° | 57km/h | 6234m | -15.7m/s | -15.6°C | 4.7% | 470.8hPa | 2.7V | 00:00:00 | 00:00:00 | 00:00:00 | |
| SP3WXH-11 | 2026-08-30 18:04:53 | 52.26829 | 15.36473 | 86° | 57km/h | 6250m | -15.7m/s | -15.7°C | 5.0% | 469.9hPa | 2.7V | 00:00:00 | 00:00:00 | 00:00:00 | |
| EDDB2-11 | 2026-08-30 18:04:47 | 52.26825 | 15.36330 | 86° | 58km/h | 6340m | -15.4m/s | -16.4°C | 6.9% | 464.2hPa | 2.7V | 00:00:00 | 00:00:00 | 00:00:00 | |
| KRY50SP-1 | 2026-08-30 18:04:46 | 52.26825 | 15.36330 | 88° | 58km/h | 6340m | -15.4m/s | -16.4°C | 6.9% | 464.2hPa | 2.7V | 08:19:00 | 00:00:00 | 00:00:00 | |
| DB0DAN | 2026-08-30 18:04:40 | 52.26824 | 15.36148 | 90° | 62km/h | 6445m | -15.2m/s | -17.1°C | 12.2% | 457.79hPa | 2.7V | 00:00:00 | 00:00:00 | 00:00:00 | |
| SONDE2-12 | 2026-08-30 18:04:33 | 52.26823 | 15.35931 | 89° | 62km/h | 6566m | -15.7m/s | -18.0°C | 13.9% | 450.4hPa | 2.6V | 00:00:00 | 00:00:00 | 00:00:00 | |
| KRY50SP-1 | 2026-08-30 18:04:29 | 52.26822 | 15.35877 | 90° | 64km/h | 6597m | -15.5m/s | -18.3°C | 12.5% | 448.6hPa | 2.6V | 08:20:00 | 00:00:00 | 00:00:00 | |
| DB0DAN | 2026-08-30 18:04:25 | 52.26821 | 15.35741 | 88° | 60km/h | 6672m | -15.7m/s | -18.9°C | 10.9% | 444.13hPa | 2.6V | 00:00:00 | 00:00:00 | 00:00:00 | |
| SP6BVK | 2026-08-30 18:04:24 | 52.26821 | 15.35741 | 89° | 64km/h | 6672m | -15.7m/s | -18.9°C | 10.9% | 444.1hPa | 2.5V | 08:20:00 | 00:00:00 | 00:00:00 | |
| EDDB2-12 | 2026-08-30 18:04:23 | 52.26820 | 15.35686 | 89° | 64km/h | 6703m | -15.4m/s | -19.1°C | 15.6% | 442.3hPa | 2.5V | 00:00:00 | 00:00:00 | 00:00:00 | |
| SP3WXH-11 | 2026-08-30 18:04:22 | 52.26820 | 15.35659 | 90° | 66km/h | 6717m | -15.5m/s | -19.2°C | 19.4% | 441.4hPa | 2.5V | 00:00:00 | 00:00:00 | 00:00:00 | |
| SONDE2-12 | 2026-08-30 18:04:02 | 52.26814 | 15.35055 | 85° | 68km/h | 7035m | -16.1m/s | -22.0°C | 41.7% | 423.0hPa | 2.5V | 00:00:00 | 00:00:00 | 00:00:00 | |
| DB0DAN | 2026-08-30 18:03:55 | 52.26807 | 15.34879 | 88° | 68km/h | 7126m | -15.2m/s | -22.8°C | 37.8% | 417.68hPa | 2.5V | 00:00:00 | 00:00:00 | 00:00:00 | |
| EDDB2-12 | 2026-08-30 18:03:52 | 52.26805 | 15.34790 | 89° | 71km/h | 7171m | -15.5m/s | -23.1°C | 38.2% | 415.1hPa | 2.5V | 00:00:00 | 00:00:00 | 00:00:00 | |
| SP3WXH-11 | 2026-08-30 18:03:51 | 52.26805 | 15.34761 | 88° | 69km/h | 7186m | -15.7m/s | -23.2°C | 38.5% | 414.1hPa | 2.5V | 00:00:00 | 00:00:00 | 00:00:00 | |
| EDDB2-11 | 2026-08-30 18:03:45 | 52.26800 | 15.34587 | 88° | 71km/h | 7279m | -15.5m/s | -24.0°C | 37.4% | 409.0hPa | 2.5V | 00:00:00 | 00:00:00 | 00:00:00 | |
| KRY50SP-1 | 2026-08-30 18:03:43 | 52.26800 | 15.34558 | 89° | 71km/h | 7294m | -15.7m/s | -24.1°C | 38.0% | 408.0hPa | 2.5V | 08:20:00 | 00:00:00 | 00:00:00 | |
| DB0DAN | 2026-08-30 18:03:40 | 52.26797 | 15.34439 | 87° | 69km/h | 7356m | -15.9m/s | -24.2°C | 27.7% | 404.63hPa | 2.5V | 00:00:00 | 00:00:00 | 00:00:00 | |
| SONDE2-12 | 2026-08-30 18:03:31 | 52.26782 | 15.34139 | 84° | 73km/h | 7512m | -15.6m/s | -25.2°C | 31.4% | 396.2hPa | 2.5V | 00:00:00 | 00:00:00 | 00:00:00 | |
| DB0DAN | 2026-08-30 18:03:25 | 52.26773 | 15.33988 | 84° | 69km/h | 7588m | -15.3m/s | -25.9°C | 34.6% | 392.12hPa | 2.5V | 00:00:00 | 00:00:00 | 00:00:00 | |
| EDDB2-12 | 2026-08-30 18:03:21 | 52.26767 | 15.33867 | 83° | 69km/h | 7648m | -15.4m/s | -26.4°C | 35.4% | 388.9hPa | 2.6V | 00:00:00 | 00:00:00 | 00:00:00 | |
| KRY50SP-1 | 2026-08-30 18:03:20 | 52.26767 | 15.33867 | 85° | 71km/h | 7648m | -15.4m/s | -26.4°C | 35.4% | 388.9hPa | 2.6V | 08:20:00 | 00:00:00 | 00:00:00 | |
| KRY50SP-1 | 2026-08-30 18:03:15 | 52.26757 | 15.33720 | 86° | 73km/h | 7724m | -15.2m/s | -27.1°C | 41.0% | 384.8hPa | 2.6V | 08:20:00 | 00:00:00 | 00:00:00 | |
| EDDB2-11 | 2026-08-30 18:03:14 | 52.26755 | 15.33659 | 87° | 75km/h | 7755m | -15.4m/s | -27.3°C | 41.4% | 383.1hPa | 2.6V | 00:00:00 | 00:00:00 | 00:00:00 | |
| 13BRC | 2026-08-30 18:03:12 | 52.26754 | 15.33628 | 89° | 75km/h | 7770m | -15.5m/s | -27.5°C | 41.0% | 382.3hPa | 2.6V | 08:20:00 | 00:00:00 | 00:00:00 | |
| DB0DAN | 2026-08-30 18:03:10 | 52.26752 | 15.33532 | 89° | 75km/h | 7816m | -15.8m/s | -27.7°C | 36.2% | 379.88hPa | 2.6V | 00:00:00 | 00:00:00 | 00:00:00 | |
| SONDE2-12 | 2026-08-30 18:03:00 | 52.26742 | 15.33166 | 86° | 80km/h | 7991m | -15.9m/s | -28.7°C | 30.0% | 370.9hPa | 2.5V | 00:00:00 | 00:00:00 | 00:00:00 | |
| KRY50SP-1 | 2026-08-30 18:02:59 | 52.26744 | 15.33199 | 87° | 82km/h | 7975m | -16.0m/s | -28.6°C | 27.3% | 371.7hPa | 2.5V | 08:21:00 | 00:00:00 | 00:00:00 | |
| DB0DAN | 2026-08-30 18:02:55 | 52.26737 | 15.33033 | 86° | 77km/h | 8053m | -16.1m/s | -29.2°C | 35.5% | 367.6hPa | 2.5V | 00:00:00 | 00:00:00 | 00:00:00 | |
| EDDB2-12 | 2026-08-30 18:02:50 | 52.26729 | 15.32869 | 87° | 78km/h | 8130m | -15.4m/s | -30.0°C | 38.9% | 363.6hPa | 2.7V | 00:00:00 | 00:00:00 | 00:00:00 | |
| SP3WXH-11 | 2026-08-30 18:02:49 | 52.26728 | 15.32836 | 87° | 78km/h | 8145m | -15.3m/s | -30.1°C | 39.7% | 362.9hPa | 2.7V | 00:00:00 | 00:00:00 | 00:00:00 | |
| EDDB2-11 | 2026-08-30 18:02:43 | 52.26724 | 15.32640 | 88° | 77km/h | 8236m | -15.8m/s | -31.0°C | 44.8% | 358.1hPa | 2.7V | 00:00:00 | 00:00:00 | 00:00:00 | |
| DB0DAN | 2026-08-30 18:02:40 | 52.26723 | 15.32544 | 89° | 73km/h | 8282m | -16.1m/s | -31.5°C | 45.4% | 355.89hPa | 2.7V | 00:00:00 | 00:00:00 | 00:00:00 | |
| SONDE2-12 | 2026-08-30 18:02:29 | 52.26721 | 15.32162 | 88° | 73km/h | 8469m | -16.1m/s | -33.0°C | 46.7% | 346.5hPa | 2.5V | 00:00:00 | 00:00:00 | 00:00:00 | |
| DB0DAN | 2026-08-30 18:02:25 | 52.26721 | 15.32068 | 90° | 73km/h | 8517m | -16.5m/s | -33.3°C | 43.8% | 344.18hPa | 2.5V | 00:00:00 | 00:00:00 | 00:00:00 | |
| KRY50SP-1 | 2026-08-30 18:02:20 | 52.26723 | 15.31936 | 91° | 82km/h | 8581m | -15.7m/s | -33.8°C | 42.6% | 341.2hPa | 2.5V | 08:21:00 | 00:00:00 | 00:00:00 | |
| EDDB2-12 | 2026-08-30 18:02:19 | 52.26723 | 15.31868 | 88° | 78km/h | 8612m | -15.6m/s | -34.1°C | 42.4% | 339.7hPa | 2.5V | 00:00:00 | 00:00:00 | 00:00:00 | |
| SP3WXH-11 | 2026-08-30 18:02:18 | 52.26722 | 15.31836 | 88° | 75km/h | 8627m | -15.7m/s | -34.2°C | 42.0% | 338.9hPa | 2.5V | 00:00:00 | 00:00:00 | 00:00:00 | |
| KRY50SP-1 | 2026-08-30 18:02:14 | 52.26722 | 15.31740 | 93° | 77km/h | 8673m | -15.3m/s | -34.6°C | 39.9% | 336.6hPa | 2.5V | 08:21:00 | 00:00:00 | 00:00:00 | |
| DB0DAN | 2026-08-30 18:02:10 | 52.26727 | 15.31580 | 91° | 77km/h | 8751m | -16.2m/s | -35.1°C | 34.7% | 332.97hPa | 2.5V | 00:00:00 | 00:00:00 | 00:00:00 | |
| SONDE2-12 | 2026-08-30 18:01:58 | 52.26731 | 15.31148 | 91° | 82km/h | 8958m | -16.1m/s | -36.6°C | 35.8% | 323.4hPa | 2.5V | 00:00:00 | 00:00:00 | 00:00:00 | |
| DB0DAN | 2026-08-30 18:01:55 | 52.26731 | 15.31078 | 91° | 80km/h | 8990m | -15.7m/s | -36.9°C | 36.1% | 321.88hPa | 2.5V | 00:00:00 | 00:00:00 | 00:00:00 | |
| S3001 | 2026-08-30 18:01:50 | 52.26731 | 15.30904 | 91° | 80km/h | 9067m | -15.5m/s | -37.6°C | 37.4% | 318.4hPa | 2.7V | 00:00:00 | 00:00:00 | 00:00:00 | |
| EDDB2-12 | 2026-08-30 18:01:48 | 52.26733 | 15.30835 | 93° | 82km/h | 9098m | -15.5m/s | -37.9°C | 37.0% | 316.9hPa | 2.7V | 00:00:00 | 00:00:00 | 00:00:00 | |
| SP3WXH-11 | 2026-08-30 18:01:47 | 52.26736 | 15.30766 | 94° | 82km/h | 9128m | -15.7m/s | -38.2°C | 36.5% | 315.4hPa | 2.7V | 00:00:00 | 00:00:00 | 00:00:00 | |
| DB0DAN | 2026-08-30 18:01:40 | 52.26744 | 15.30554 | 93° | 82km/h | 9225m | -17m/s | -39°C | 38.3% | 311.12hPa | 2.7V | 00:00:00 | 00:00:00 | 00:00:00 | |
| SP6BVK | 2026-08-30 18:01:37 | 52.26746 | 15.30483 | 94° | 88km/h | 9259m | -17.1m/s | -39.3°C | 40.5% | 309.6hPa | 2.7V | 08:22:00 | 00:00:00 | 00:00:00 | |
| KRY50SP-1 | 2026-08-30 18:01:35 | 52.26749 | 15.30410 | 95° | 88km/h | 9293m | -16.9m/s | -39.6°C | 42.6% | 308.0hPa | 2.7V | 08:22:00 | 00:00:00 | 00:00:00 | |
| SONDE2-11 | 2026-08-30 18:01:31 | 52.26757 | 15.30228 | 94° | 88km/h | 9375m | -16.2m/s | -40.3°C | 50.4% | 304.2hPa | 2.7V | 00:00:00 | 00:00:00 | 00:00:00 | |
| KRY50SP-1 | 2026-08-30 18:01:29 | 52.26759 | 15.30192 | 96° | 89km/h | 9391m | -16.4m/s | -40.4°C | 52.2% | 303.5hPa | 2.7V | 08:22:00 | 00:00:00 | 00:00:00 | |
| 13BRC | 2026-08-30 18:01:27 | 52.26764 | 15.30116 | 97° | 93km/h | 9424m | -16.1m/s | -40.6°C | 55.6% | 302.1hPa | 2.7V | 08:22:00 | 00:00:00 | 00:00:00 | |
| DB0DAN | 2026-08-30 18:01:25 | 52.26773 | 15.29997 | 96° | 97km/h | 9472m | -16.9m/s | -40.9°C | 60.7% | 299.93hPa | 2.7V | 00:00:00 | 00:00:00 | 00:00:00 | |
| KRY50SP-1 | 2026-08-30 18:01:24 | 52.26773 | 15.29997 | 97° | 100km/h | 9473m | -16.9m/s | -40.9°C | 60.7% | 299.9hPa | 2.5V | 08:22:00 | 00:00:00 | 00:00:00 | |
| DL2RXE-15 | 2026-08-30 18:01:21 | 52.26780 | 15.29871 | 95° | 102km/h | 9521m | -15.6m/s | -41.2°C | 62.6% | 297.7hPa | 2.5V | 08:22:00 | 00:00:00 | 00:00:00 | |
| KRY50SP-1 | 2026-08-30 18:01:19 | 52.26783 | 15.29785 | 94° | 102km/h | 9552m | -15.9m/s | -41.5°C | 62.5% | 296.3hPa | 2.5V | 08:23:00 | 00:00:00 | 00:00:00 | |
| EDDB2-12 | 2026-08-30 18:01:17 | 52.26788 | 15.29660 | 92° | 100km/h | 9598m | -15.5m/s | -41.9°C | 61.2% | 294.2hPa | 2.5V | 00:00:00 | 00:00:00 | 00:00:00 | |
| SP3WXH-11 | 2026-08-30 18:01:16 | 52.26789 | 15.29619 | 93° | 100km/h | 9613m | -16.6m/s | -42.0°C | 60.6% | 293.6hPa | 2.5V | 00:00:00 | 00:00:00 | 00:00:00 | |
| SP3BTT-10 | 2026-08-30 18:01:15 | 52.26790 | 15.29577 | 95° | 113km/h | 9630m | -15.6m/s | -42.0°C | 66.1% | 292.9hPa | 2.5V | 00:00:00 | 00:00:00 | 00:00:00 | |
| KRY50SP-1 | 2026-08-30 18:01:14 | 52.26790 | 15.29577 | 95° | 104km/h | 9630m | -15.6m/s | -42.0°C | 60.4% | 293.0hPa | 2.5V | 08:23:00 | 00:00:00 | 00:00:00 | |
| EDDB2-11 | 2026-08-30 18:01:10 | 52.26800 | 15.29308 | 90° | 106km/h | 9724m | -16.6m/s | -42.6°C | 60.5% | 288.9hPa | 2.5V | 00:00:00 | 00:00:00 | 00:00:00 | |
| KRY50SP-1 | 2026-08-30 18:01:08 | 52.26801 | 15.29308 | 92° | 106km/h | 9724m | -16.6m/s | -42.6°C | 60.4% | 288.9hPa | 2.5V | 08:23:00 | 00:00:00 | 00:00:00 | |
| 13BRC | 2026-08-30 18:01:06 | 52.26802 | 15.29219 | 93° | 108km/h | 9757m | -16.5m/s | -42.8°C | 61.0% | 287.6hPa | 2.5V | 08:23:00 | 00:00:00 | 00:00:00 | |
| SONCRA | 2026-08-30 18:01:02 | 52.26814 | 15.28907 | 93° | 108km/h | 9870m | -16.8m/s | -43.8°C | 60.8% | 282.7hPa | 2.5V | 00:00:00 | 00:00:00 | 00:00:00 | |
| DL2RXE-15 | 2026-08-30 18:01:00 | 52.26812 | 15.28951 | 94° | 110km/h | 9854m | -17.2m/s | -43.6°C | 60.8% | 283.4hPa | 2.5V | 00:00:00 | 00:00:00 | 00:00:00 | |
| KRY50SP-1 | 2026-08-30 18:00:57 | 52.26818 | 15.28818 | 95° | 108km/h | 9904m | -16.9m/s | -44.1°C | 60.7% | 281.4hPa | 2.5V | 08:23:00 | 00:00:00 | 00:00:00 | |
| DB0DAN | 2026-08-30 18:00:55 | 52.26824 | 15.28686 | 95° | 102km/h | 9952m | -15.7m/s | -44.6°C | 60.7% | 279.33hPa | 2.5V | 00:00:00 | 00:00:00 | 00:00:00 | |
| AA1-15 | 2026-08-30 18:00:53 | 52.26829 | 15.28598 | 96° | 108km/h | 9984m | -16.2m/s | -44.9°C | 70.7% | 278hPa | 2.5V | 08:23:28 | 01:45:46 | 00:00:00 | |
| EDDB2-12 | 2026-08-30 18:00:46 | 52.26852 | 15.28279 | 96° | 117km/h | 10103m | -18.0m/s | -45.8°C | 57.1% | 273.1hPa | 2.5V | 00:00:00 | 00:00:00 | 00:00:00 | |
| SP3WXH-11 | 2026-08-30 18:00:45 | 52.26855 | 15.28230 | 95° | 117km/h | 10121m | -18.1m/s | -45.9°C | 56.9% | 272.4hPa | 2.5V | 00:00:00 | 00:00:00 | 00:00:00 | |
| AA1-15 | 2026-08-30 18:00:41 | 52.26868 | 15.28038 | 97° | 117km/h | 10190m | -17.6m/s | -46.4°C | 66.6% | 269.5hPa | 2.5V | 08:23:28 | 01:45:34 | 00:00:00 | |
| DB0DAN | 2026-08-30 18:00:40 | 52.26871 | 15.27990 | 96° | 111km/h | 10207m | -18.1m/s | -46.4°C | 54.2% | 268.82hPa | 2.5V | 00:00:00 | 00:00:00 | 00:00:00 | |
| AA1-15 | 2026-08-30 18:00:31 | 52.26907 | 15.27551 | 97° | 119km/h | 10366m | -18.1m/s | -47.6°C | 65.9% | 262.6hPa | 2.5V | 08:23:28 | 01:45:24 | 00:00:00 | |
| SP3BTT-10 | 2026-08-30 18:00:29 | 52.26914 | 15.27452 | 98° | 135km/h | 10401m | -17.6m/s | -47.8°C | 58.7% | 261.1hPa | 2.5V | 00:00:00 | 00:00:00 | 00:00:00 | |
| DL2RXE-15 | 2026-08-30 18:00:27 | 52.26919 | 15.27401 | 99° | 122km/h | 10419m | -18.1m/s | -48.0°C | 51.7% | 260.4hPa | 2.5V | 08:24:00 | 00:00:00 | 00:00:00 | |
| DB0DAN | 2026-08-30 18:00:25 | 52.26933 | 15.27250 | 99° | 119km/h | 10473m | -18.1m/s | -48.5°C | 50.4% | 258.3hPa | 2.5V | 00:00:00 | 00:00:00 | 00:00:00 | |
| SONDE2-12 | 2026-08-30 18:00:24 | 52.26937 | 15.27199 | 98° | 124km/h | 10490m | -18.3m/s | -48.6°C | 53.4% | 257.6hPa | 2.5V | 00:00:00 | 00:00:00 | 00:00:00 | |
| AA1-15 | 2026-08-30 18:00:20 | 52.26955 | 15.26993 | 97° | 126km/h | 10560m | -18.2m/s | -49.2°C | 62.9% | 254.8hPa | 2.5V | 08:24:19 | 01:45:13 | 00:00:00 | |
| EDDB2-12 | 2026-08-30 18:00:15 | 52.26976 | 15.26727 | 96° | 133km/h | 10652m | -18.6m/s | -49.8°C | 49.1% | 251.3hPa | 2.5V | 00:00:00 | 00:00:00 | 00:00:00 | |
| SP6BVK | 2026-08-30 18:00:13 | 52.26980 | 15.26672 | 98° | 135km/h | 10670m | -18.9m/s | -49.9°C | 48.8% | 250.6hPa | 2.5V | 08:24:00 | 00:00:00 | 00:00:00 | |
| DB0DAN | 2026-08-30 18:00:10 | 52.26997 | 15.26450 | 97° | 128km/h | 10745m | -18.4m/s | -50.5°C | 47.7% | 247.76hPa | 2.5V | 00:00:00 | 00:00:00 | 00:00:00 | |
| AA1-15 | 2026-08-30 18:00:10 | 52.26997 | 15.26450 | 97° | 135km/h | 10745m | -18.4m/s | -50.5°C | 60.5% | 247.8hPa | 2.5V | 08:24:19 | 01:45:03 | 00:00:00 | |
| AA1-15 | 2026-08-30 17:59:57 | 52.27045 | 15.25740 | 98° | 133km/h | 10983m | -19.3m/s | -52.6°C | 57.6% | 238.9hPa | 2.5V | 08:24:19 | 01:44:50 | 00:00:00 | |
| DB0DAN | 2026-08-30 17:59:55 | 52.27054 | 15.25632 | 98° | 130km/h | 11021m | -18.7m/s | -53°C | 44.6% | 237.62hPa | 2.7V | 00:00:00 | 00:00:00 | 00:00:00 | |
| SONDE2-12 | 2026-08-30 17:59:53 | 52.27063 | 15.25520 | 96° | 137km/h | 11059m | -19.5m/s | -53.3°C | 46.9% | 236.2hPa | 2.5V | 00:00:00 | 00:00:00 | 00:00:00 | |
| AA1-15 | 2026-08-30 17:59:46 | 52.27088 | 15.25123 | 94° | 139km/h | 11192m | -19.4m/s | -54.3°C | 49.6% | 231.4hPa | 2.5V | 08:24:19 | 01:44:39 | 00:00:00 | |
| AA1-15 | 2026-08-30 17:59:36 | 52.27111 | 15.24546 | 93° | 137km/h | 11384m | -19.2m/s | -55.4°C | 43.4% | 224.6hPa | 2.7V | 08:25:10 | 01:44:29 | 00:00:00 | |
| SP6BVK | 2026-08-30 17:59:32 | 52.27118 | 15.24379 | 95° | 131km/h | 11442m | -19.3m/s | -55.9°C | 33.5% | 222.6hPa | 2.5V | 08:25:00 | 00:00:00 | 00:00:00 | |
| KRY50SP-1 | 2026-08-30 17:59:31 | 52.27120 | 15.24324 | 96° | 131km/h | 11461m | -19.2m/s | -56.1°C | 32.9% | 222.0hPa | 2.5V | 08:25:00 | 00:00:00 | 00:00:00 | |
| SONCRA | 2026-08-30 17:59:29 | 52.27133 | 15.24111 | 94° | 124km/h | 11539m | -19.5m/s | -56.6°C | 28.5% | 219.3hPa | 2.5V | 00:00:00 | 00:00:00 | 00:00:00 | |
| DB0DAN | 2026-08-30 17:59:25 | 52.27142 | 15.23960 | 94° | 111km/h | 11597m | -19.5m/s | -56.7°C | 25.1% | 217.2hPa | 2.5V | 00:00:00 | 00:00:00 | 00:00:00 | |
| AA1-15 | 2026-08-30 17:59:23 | 52.27147 | 15.23862 | 95° | 117km/h | 11636m | -19.7m/s | -56.9°C | 28.7% | 215.9hPa | 2.7V | 08:25:10 | 01:44:16 | 00:00:00 | |
| SONDE2-12 | 2026-08-30 17:59:22 | 52.27150 | 15.23814 | 94° | 115km/h | 11656m | -20.0m/s | -57.0°C | 24.8% | 215.2hPa | 2.7V | 00:00:00 | 00:00:00 | 00:00:00 | |
| AA1-15 | 2026-08-30 17:59:12 | 52.27162 | 15.23361 | 91° | 106km/h | 11852m | -20.1m/s | -57°C | 18.5% | 208.5hPa | 2.7V | 08:25:10 | 01:44:05 | 00:00:00 | |
| DB0DAN | 2026-08-30 17:59:10 | 52.27162 | 15.23274 | 89° | 97km/h | 11892m | -20.7m/s | -57°C | 13.5% | 207.3hPa | 2.6V | 00:00:00 | 00:00:00 | 00:00:00 | |
| AA1-15 | 2026-08-30 17:59:01 | 52.27158 | 15.22911 | 89° | 97km/h | 12075m | -20.4m/s | -55.7°C | 10.7% | 201.4hPa | 2.5V | 08:25:10 | 01:43:54 | 00:00:00 | |
| SONCRA | 2026-08-30 17:58:58 | 52.27157 | 15.22750 | 89° | 95km/h | 12157m | -20.6m/s | -55.1°C | 7.4% | 198.9hPa | 2.5V | 00:00:00 | 00:00:00 | 00:00:00 | |
| SONDE2-11 | 2026-08-30 17:58:56 | 52.27157 | 15.22711 | 90° | 93km/h | 12177m | -20.8m/s | -55.0°C | 7.3% | 198.2hPa | 2.5V | 00:00:00 | 00:00:00 | 00:00:00 | |
| DB0DAN | 2026-08-30 17:58:55 | 52.27158 | 15.22672 | 91° | 89km/h | 12198m | -20.2m/s | -55°C | 7.2% | 197.59hPa | 2.5V | 00:00:00 | 00:00:00 | 00:00:00 | |
| SONDE2-12 | 2026-08-30 17:58:51 | 52.27162 | 15.22515 | 92° | 91km/h | 12279m | -20.4m/s | -54.8°C | 7.2% | 195.1hPa | 2.5V | 00:00:00 | 00:00:00 | 00:00:00 | |
| AA1-15 | 2026-08-30 17:58:49 | 52.27164 | 15.22440 | 93° | 88km/h | 12320m | -21m/s | -54.7°C | 8.3% | 193.9hPa | 2.5V | 08:25:10 | 01:43:42 | 00:00:00 | |
| S3001 | 2026-08-30 17:58:44 | 52.27167 | 15.22269 | 89° | 78km/h | 12423m | -20.6m/s | -54.4°C | 5.9% | 190.7hPa | 2.7V | 00:00:00 | 00:00:00 | 00:00:00 | |
| 13BRC | 2026-08-30 17:58:42 | 52.27167 | 15.22236 | 90° | 78km/h | 12444m | -21.1m/s | -54.5°C | 5.8% | 190.1hPa | 2.7V | 08:26:00 | 00:00:00 | 00:00:00 | |
| DB0DAN | 2026-08-30 17:58:40 | 52.27165 | 15.22136 | 86° | 77km/h | 12507m | -21.5m/s | -54.7°C | 5.7% | 188.25hPa | 2.7V | 00:00:00 | 00:00:00 | 00:00:00 | |
| AA1-15 | 2026-08-30 17:58:23 | 52.27150 | 15.21549 | 89° | 78km/h | 12870m | -21.2m/s | -53.5°C | 3.4% | 178.1hPa | 2.7V | 08:26:01 | 01:43:16 | 00:00:00 | |
| SONDE2-12 | 2026-08-30 17:58:20 | 52.27149 | 15.21453 | 88° | 73km/h | 12933m | -21.2m/s | -53.0°C | 3.2% | 176.3hPa | 2.7V | 00:00:00 | 00:00:00 | 00:00:00 | |
| KRY50SP-1 | 2026-08-30 17:58:15 | 52.27142 | 15.21306 | 82° | 68km/h | 13042m | -22.2m/s | -53.1°C | 2.7% | 173.3hPa | 2.7V | 08:26:00 | 00:00:00 | 00:00:00 | |
| SP3BTT-10 | 2026-08-30 17:58:14 | 52.27140 | 15.21278 | 78° | 66km/h | 13065m | -21.6m/s | -53.0°C | 5.5% | 172.7hPa | 2.7V | 00:00:00 | 00:00:00 | 00:00:00 | |
| S3001 | 2026-08-30 17:58:13 | 52.27136 | 15.21251 | 77° | 68km/h | 13086m | -21.2m/s | -53.1°C | 2.7% | 172.2hPa | 2.7V | 00:00:00 | 00:00:00 | 00:00:00 | |
| DB0DAN | 2026-08-30 17:58:10 | 52.27124 | 15.21167 | 75° | 68km/h | 13149m | -21.9m/s | -52.4°C | 2.5% | 170.47hPa | 2.7V | 00:00:00 | 00:00:00 | 00:00:00 | |
| AA1-15 | 2026-08-30 17:57:57 | 52.27063 | 15.20783 | 80° | 71km/h | 13443m | -22.6m/s | -52.4°C | 2.2% | 163hPa | 2.5V | 08:26:52 | 01:42:50 | 00:00:00 | |
| SONDE2-12 | 2026-08-30 17:57:49 | 52.27042 | 15.20562 | 80° | 60km/h | 13627m | -23.1m/s | -52.5°C | 2.3% | 158.5hPa | 2.5V | 00:00:00 | 00:00:00 | 00:00:00 | |
| AA1-15 | 2026-08-30 17:57:45 | 52.27030 | 15.20461 | 75° | 60km/h | 13720m | -23.1m/s | -53.1°C | 2% | 156.2hPa | 2.5V | 08:26:52 | 01:42:38 | 00:00:00 | |
| DB0DAN | 2026-08-30 17:57:40 | 52.27007 | 15.20337 | 72° | 62km/h | 13836m | -23.3m/s | -53.4°C | 2.3% | 153.41hPa | 2.7V | 00:00:00 | 00:00:00 | 00:00:00 | |
| DM0DOS-11 | 2026-08-30 17:57:40 | 52.26997 | 15.20284 | 73° | 68km/h | 13883m | -23.5m/s | -53.7°C | 5.3% | 152.3hPa | 2.5V | 08:26:21 | 01:42:31 | 00:00:00 | |
| AA1-15 | 2026-08-30 17:57:34 | 52.26977 | 15.20173 | 72° | 71km/h | 13978m | -23.5m/s | -53.3°C | 1.9% | 150.1hPa | 2.5V | 08:26:52 | 01:42:27 | 00:00:00 | |
| EDDB2-11 | 2026-08-30 17:57:32 | 52.26966 | 15.20116 | 73° | 71km/h | 14026m | -23.3m/s | -53.6°C | 2.3% | 148.9hPa | 2.5V | 00:00:00 | 00:00:00 | 00:00:00 | |
| DM0DOS-11 | 2026-08-30 17:57:30 | 52.26949 | 15.20001 | 78° | 69km/h | 14119m | -23.1m/s | -53.1°C | 5% | 146.8hPa | 2.5V | 08:26:31 | 01:42:21 | 00:00:00 | |
| AA1-15 | 2026-08-30 17:57:22 | 52.26930 | 15.19825 | 83° | 71km/h | 14259m | -23.2m/s | -52°C | 1.8% | 143.7hPa | 2.5V | 08:26:52 | 01:42:15 | 00:00:00 | |
| DM0DOS-11 | 2026-08-30 17:57:20 | 52.26923 | 15.19710 | 84° | 68km/h | 14351m | -23.1m/s | -52.1°C | 4.7% | 141.6hPa | 2.7V | 08:26:41 | 01:42:11 | 00:00:00 | |
| SONDE2-12 | 2026-08-30 17:57:18 | 52.26923 | 15.19710 | 84° | 66km/h | 14352m | -23.1m/s | -52.1°C | 2.2% | 141.6hPa | 2.5V | 00:00:00 | 00:00:00 | 00:00:00 | |
| AA1-15 | 2026-08-30 17:57:11 | 52.26917 | 15.19543 | 86° | 47km/h | 14515m | -24.8m/s | -51°C | 1.6% | 138.1hPa | 2.5V | 08:26:52 | 01:42:04 | 00:00:00 | |
| DB0DAN | 2026-08-30 17:57:10 | 52.26916 | 15.19525 | 84° | 42km/h | 14539m | -24.3m/s | -51.2°C | 1.9% | 137.56hPa | 2.6V | 00:00:00 | 00:00:00 | 00:00:00 | |
| EDDB2-12 | 2026-08-30 17:57:09 | 52.26913 | 15.19490 | 82° | 42km/h | 14586m | -22.7m/s | -51.9°C | 2.0% | 136.5hPa | 2.7V | 00:00:00 | 00:00:00 | 00:00:00 | |
| DM0DOS-11 | 2026-08-30 17:57:08 | 52.26898 | 15.19417 | 61° | 35km/h | 14704m | -23.8m/s | -52°C | 4.4% | 134.1hPa | 2.7V | 08:26:56 | 01:41:56 | 00:00:00 | |
| AA1-15 | 2026-08-30 17:57:00 | 52.26884 | 15.19380 | 59° | 38km/h | 14777m | -24.7m/s | -51.9°C | 1.5% | 132.6hPa | 2.6V | 08:27:43 | 01:41:53 | 00:00:00 | |
| AA1-15 | 2026-08-30 17:56:49 | 52.26815 | 15.19215 | 55° | 46km/h | 15041m | -24.3m/s | -52.5°C | 1.4% | 127.3hPa | 2.6V | 08:27:43 | 01:41:42 | 00:00:00 | |
| DM0DOS-11 | 2026-08-30 17:56:48 | 52.26773 | 15.19111 | 59° | 53km/h | 15188m | -24.6m/s | -53.1°C | 4.6% | 124.4hPa | 2.5V | 08:27:16 | 01:41:36 | 00:00:00 | |
| SONDE2-12 | 2026-08-30 17:56:47 | 52.26801 | 15.19182 | 55° | 47km/h | 15090m | -24.8m/s | -52.7°C | 2.0% | 126.4hPa | 2.7V | 00:00:00 | 00:00:00 | 00:00:00 | |
| SP6BVK | 2026-08-30 17:56:46 | 52.26801 | 15.19182 | 57° | 49km/h | 15090m | -24.8m/s | -52.7°C | 1.8% | 126.4hPa | 2.7V | 08:27:00 | 00:00:00 | 00:00:00 | |
| KRY50SP-1 | 2026-08-30 17:56:45 | 52.26787 | 15.19147 | 58° | 53km/h | 15140m | -25.2m/s | -52.8°C | 1.8% | 125.4hPa | 2.7V | 08:27:00 | 00:00:00 | 00:00:00 | |
| SP3BTT-10 | 2026-08-30 17:56:44 | 52.26780 | 15.19129 | 58° | 42km/h | 15165m | -24.2m/s | -53.0°C | 4.6% | 124.9hPa | 2.7V | 00:00:00 | 00:00:00 | 00:00:00 | |
| SQ2ODE-11 | 2026-08-30 17:56:42 | 52.26773 | 15.19111 | 60° | 53km/h | 15189m | -24.6m/s | -53.1°C | 1.8% | 124.4hPa | 2.7V | 08:27:00 | 00:00:00 | 00:00:00 | |
| DB0DAN | 2026-08-30 17:56:40 | 52.26752 | 15.19050 | 62° | 55km/h | 15262m | -24.4m/s | -53.4°C | 1.8% | 122.98hPa | 2.7V | 00:00:00 | 00:00:00 | 00:00:00 | |
| AA1-15 | 2026-08-30 17:56:39 | 52.26740 | 15.19007 | 65° | 57km/h | 15310m | -23.8m/s | -53.5°C | 1.3% | 122.1hPa | 2.6V | 08:27:43 | 01:41:31 | 00:00:00 | |
| DL1XH-west | 2026-08-30 17:56:30 | 52.26702 | 15.18821 | 78° | 53km/h | 15499m | -23.1m/s | -51.5°C | 0.8% | 118.6hPa | 2.6V | 08:28:34 | 01:41:23 | 00:00:00 | |
| AA1-15 | 2026-08-30 17:56:27 | 52.26694 | 15.18755 | 82° | 53km/h | 15572m | -24.2m/s | -51.1°C | 0.8% | 117.2hPa | 2.7V | 08:27:43 | 01:41:20 | 00:00:00 | |
| DB0DAN | 2026-08-30 17:56:25 | 52.26690 | 15.18713 | 80° | 47km/h | 15621m | -24.2m/s | -51.3°C | 1.4% | 116.46hPa | 2.6V | 00:00:00 | 00:00:00 | 00:00:00 | |
| KRY50SP-1 | 2026-08-30 17:56:22 | 52.26686 | 15.18674 | 82° | 46km/h | 15669m | -25.0m/s | -51.3°C | 1.4% | 115.5hPa | 2.6V | 08:27:00 | 00:00:00 | 00:00:00 | |
| SONDE2-11 | 2026-08-30 17:56:21 | 52.26682 | 15.18639 | 78° | 42km/h | 15719m | -24.8m/s | -51.2°C | 1.4% | 114.7hPa | 2.6V | 00:00:00 | 00:00:00 | 00:00:00 | |
| DM0DOS-11 | 2026-08-30 17:56:20 | 52.26675 | 15.18590 | 74° | 38km/h | 15795m | -26.8m/s | -51.6°C | 3.9% | 113.4hPa | 2.6V | 08:27:41 | 01:41:11 | 00:00:00 | |
| DL1XH-west | 2026-08-30 17:56:20 | 52.26680 | 15.18622 | 76° | 42km/h | 15744m | -24.9m/s | -51.2°C | 0.8% | 114.3hPa | 2.5V | 08:28:34 | 01:41:13 | 00:00:00 | |
| AA1-15 | 2026-08-30 17:56:16 | 52.26668 | 15.18560 | 71° | 40km/h | 15847m | -26.2m/s | -52°C | 0.9% | 112.5hPa | 2.7V | 08:27:43 | 01:41:09 | 00:00:00 | |
| SQ2ODE-11 | 2026-08-30 17:56:15 | 52.26669 | 15.18560 | 72° | 40km/h | 15847m | -26.2m/s | -52.0°C | 1.5% | 112.6hPa | 2.7V | 08:27:00 | 00:00:00 | 00:00:00 | |
| KRY50SP-1 | 2026-08-30 17:56:13 | 52.26657 | 15.18514 | 69° | 42km/h | 15925m | -25.3m/s | -52.3°C | 1.5% | 111.2hPa | 2.7V | 08:28:00 | 00:00:00 | 00:00:00 | |
| DB0DAN | 2026-08-30 17:56:10 | 52.26644 | 15.18466 | 61° | 38km/h | 16001m | -24.9m/s | -52.2°C | 1.5% | 109.88hPa | 2.7V | 00:00:00 | 00:00:00 | 00:00:00 | |
| DM0DOS-11 | 2026-08-30 17:56:10 | 52.26628 | 15.18408 | 70° | 37km/h | 16103m | -25.7m/s | -52.4°C | 4% | 108.2hPa | 2.5V | 08:27:53 | 01:40:59 | 00:00:00 | |
| DL1XH-west | 2026-08-30 17:56:09 | 52.26639 | 15.18452 | 64° | 38km/h | 16026m | -25.3m/s | -52.3°C | 0.9% | 109.5hPa | 2.7V | 08:28:34 | 01:41:02 | 00:00:00 | |
| AA1-15 | 2026-08-30 17:56:05 | 52.26625 | 15.18393 | 70° | 38km/h | 16129m | -25.6m/s | -52.5°C | 0.9% | 107.8hPa | 2.6V | 08:28:34 | 01:40:58 | 00:00:00 | |
| SQ2ODE-11 | 2026-08-30 17:56:05 | 52.26625 | 15.18393 | 71° | 38km/h | 16129m | -25.6m/s | -52.5°C | 1.4% | 107.8hPa | 2.7V | 00:00:00 | 00:00:00 | 00:00:00 | |
| SP6BVK | 2026-08-30 17:56:04 | 52.26625 | 15.18393 | 71° | 38km/h | 16129m | -25.6m/s | -52.5°C | 1.4% | 107.8hPa | 2.7V | 08:28:00 | 00:00:00 | 00:00:00 | |
| KRY50SP-1 | 2026-08-30 17:56:01 | 52.26614 | 15.18353 | 62° | 33km/h | 16203m | -24.6m/s | -51.6°C | 1.3% | 106.6hPa | 2.7V | 08:28:00 | 00:00:00 | 00:00:00 | |
| DM0DOS-11 | 2026-08-30 17:56:00 | 52.26588 | 15.18283 | 52° | 33km/h | 16353m | -25.6m/s | -52.1°C | 3.8% | 104.1hPa | 2.7V | 08:28:03 | 01:40:49 | 00:00:00 | |
| EDDB2-11 | 2026-08-30 17:56:00 | 52.26602 | 15.18317 | 58° | 31km/h | 16278m | -24.9m/s | -51.9°C | 1.4% | 105.2hPa | 2.5V | 00:00:00 | 00:00:00 | 00:00:00 | |
| DL1XH1-15 | 2026-08-30 17:55:59 | 52.26577 | 15.18265 | 42° | 27km/h | 16404m | -25.3m/s | -52°C | 3.9% | 103.3hPa | 2.5V | 08:28:05 | 01:40:47 | 00:00:00 | |
| DL1XH-west | 2026-08-30 17:55:57 | 52.26593 | 15.18294 | 55° | 35km/h | 16328m | -24.9m/s | -51.9°C | 0.7% | 104.6hPa | 2.7V | 08:28:34 | 01:40:50 | 00:00:00 | |
| DB0DAN | 2026-08-30 17:55:55 | 52.26583 | 15.18273 | 42° | 29km/h | 16378m | -25.9m/s | -52.2°C | 1.4% | 103.72hPa | 2.7V | 00:00:00 | 00:00:00 | 00:00:00 | |
| AA1-15 | 2026-08-30 17:55:54 | 52.26577 | 15.18265 | 42° | 27km/h | 16404m | -25.3m/s | -52.1°C | 0.8% | 103.3hPa | 2.5V | 08:28:34 | 01:40:47 | 00:00:00 | |
| SONCRA | 2026-08-30 17:55:51 | 52.26561 | 15.18243 | 37° | 26km/h | 16481m | -24.6m/s | -52.3°C | 1.3% | 102.0hPa | 2.6V | 00:00:00 | 00:00:00 | 00:00:00 | |
| DM0DOS-11 | 2026-08-30 17:55:50 | 52.26532 | 15.18204 | 42° | 33km/h | 16607m | -26.6m/s | -53.1°C | 4.1% | 100.2hPa | 2.6V | 08:28:13 | 01:40:39 | 00:00:00 | |
| DL1XH-west | 2026-08-30 17:55:47 | 52.26538 | 15.18213 | 44° | 29km/h | 16581m | -25.9m/s | -53°C | 0.9% | 100.5hPa | 2.5V | 08:28:34 | 01:40:40 | 00:00:00 | |
| SONDE2-12 | 2026-08-30 17:55:45 | 52.26525 | 15.18194 | 43° | 33km/h | 16634m | -26.9m/s | -53.3°C | 1.5% | 99.8hPa | 2.7V | 00:00:00 | 00:00:00 | 00:00:00 | |
| AA1-15 | 2026-08-30 17:55:44 | 52.26519 | 15.18184 | 43° | 35km/h | 16660m | -26.2m/s | -53.1°C | 0.8% | 99.4hPa | 2.7V | 08:28:34 | 01:40:37 | 00:00:00 | |
| DL1XH1-15 | 2026-08-30 17:55:43 | 52.26506 | 15.18163 | 45° | 35km/h | 16713m | -26.9m/s | -53.2°C | 4.2% | 98.6hPa | 2.7V | 08:28:17 | 01:40:35 | 00:00:00 | |
| DL1XH-west | 2026-08-30 17:55:37 | 52.26483 | 15.18109 | 63° | 31km/h | 16849m | -27.5m/s | -53.9°C | 1.1% | 96.4hPa | 2.7V | 08:28:34 | 01:40:30 | 00:00:00 | |
| EDDB2-12 | 2026-08-30 17:55:36 | 52.26477 | 15.18086 | 65° | 29km/h | 16903m | -26.5m/s | -53.9°C | 1.5% | 95.6hPa | 2.5V | 00:00:00 | 00:00:00 | 00:00:00 | |
| DM0DOS-11 | 2026-08-30 17:55:35 | 52.26461 | 15.18029 | 60° | 29km/h | 17035m | -26.1m/s | -53.5°C | 4.3% | 93.7hPa | 2.5V | 08:28:29 | 01:40:23 | 00:00:00 | |
| AA1-15 | 2026-08-30 17:55:34 | 52.26474 | 15.18074 | 68° | 31km/h | 16929m | -26.1m/s | -53.7°C | 1% | 95.2hPa | 2.6V | 08:28:34 | 01:40:27 | 00:00:00 | |
| DL1XH1-15 | 2026-08-30 17:55:33 | 52.26468 | 15.18051 | 62° | 29km/h | 16982m | -27.1m/s | -53.6°C | 4.3% | 94.5hPa | 2.7V | 08:28:27 | 01:40:25 | 00:00:00 | |
| DL1XH-west | 2026-08-30 17:55:26 | 52.26447 | 15.17989 | 63° | 29km/h | 17140m | -26.8m/s | -53.6°C | 0.9% | 92.2hPa | 2.7V | 08:28:34 | 01:40:19 | 00:00:00 | |
| DB0DAN | 2026-08-30 17:55:25 | 52.26444 | 15.17978 | 65° | 27km/h | 17167m | -26.2m/s | -53.6°C | 1.4% | 91.75hPa | 2.5V | 00:00:00 | 00:00:00 | 00:00:00 | |
| DM0DOS-11 | 2026-08-30 17:55:25 | 52.26427 | 15.17922 | 64° | 33km/h | 17295m | -26.7m/s | -53.7°C | 4.4% | 89.9hPa | 2.6V | 08:28:39 | 01:40:13 | 00:00:00 | |
| DL1XH1-15 | 2026-08-30 17:55:23 | 52.26434 | 15.17945 | 63° | 29km/h | 17243m | -26.1m/s | -53.9°C | 4.4% | 90.7hPa | 2.7V | 08:30:00 | 01:40:15 | 00:00:00 | |
| AA1-15 | 2026-08-30 17:55:23 | 52.26437 | 15.17956 | 60° | 31km/h | 17218m | -25m/s | -53.8°C | 0.9% | 91hPa | 2.7V | 08:29:25 | 01:40:16 | 00:00:00 | |
| DL1XH-west | 2026-08-30 17:55:16 | 52.26415 | 15.17872 | 66° | 31km/h | 17396m | -25.3m/s | -52.4°C | 0.8% | 88.5hPa | 2.7V | 08:29:25 | 01:40:09 | 00:00:00 | |
| SONDE2-12 | 2026-08-30 17:55:14 | 52.26409 | 15.17845 | 67° | 35km/h | 17449m | -28.1m/s | -52.1°C | 1.3% | 87.8hPa | 2.7V | 00:00:00 | 00:00:00 | 00:00:00 | |
| DL1XH1-15 | 2026-08-30 17:55:13 | 52.26401 | 15.17820 | 61° | 33km/h | 17507m | -27.7m/s | -52.2°C | 3.8% | 87.1hPa | 2.7V | 08:30:00 | 01:40:05 | 00:00:00 | |
| AA1-15 | 2026-08-30 17:55:12 | 52.26401 | 15.17820 | 62° | 33km/h | 17507m | -27.7m/s | -52.3°C | 0.7% | 87.1hPa | 2.7V | 08:29:25 | 01:40:05 | 00:00:00 | |
| DB0DAN | 2026-08-30 17:55:10 | 52.26393 | 15.17794 | 64° | 33km/h | 17562m | -27.5m/s | -52.5°C | 1.3% | 86.33hPa | 2.6V | 00:00:00 | 00:00:00 | 00:00:00 | |
| DL1XH-west | 2026-08-30 17:55:06 | 52.26376 | 15.17741 | 67° | 37km/h | 17674m | -28.3m/s | -53.4°C | 0.9% | 84.9hPa | 2.6V | 08:29:25 | 01:39:59 | 00:00:00 | |
| DM0DOS-11 | 2026-08-30 17:55:05 | 52.26354 | 15.17651 | 73° | 38km/h | 17845m | -28.8m/s | -53.9°C | 4.5% | 82.6hPa | 2.5V | 08:28:59 | 01:39:53 | 00:00:00 | |
| SQ2ODE-11 | 2026-08-30 17:55:04 | 52.26372 | 15.17726 | 68° | 40km/h | 17702m | -28.5m/s | -53.4°C | 1.4% | 84.6hPa | 2.7V | 00:00:00 | 00:00:00 | 00:00:00 | |
| DL1XH1-15 | 2026-08-30 17:55:03 | 52.26360 | 15.17681 | 67° | 37km/h | 17787m | -28.9m/s | -53.9°C | 4.4% | 83.4hPa | 2.7V | 08:30:00 | 01:39:55 | 00:00:00 | |
| AA1-15 | 2026-08-30 17:55:01 | 52.26357 | 15.17666 | 72° | 38km/h | 17816m | -29.3m/s | -54°C | 1.1% | 83.1hPa | 2.7V | 08:29:25 | 01:39:54 | 00:00:00 | |
| DL1XH-west | 2026-08-30 17:54:55 | 52.26347 | 15.17579 | 87° | 31km/h | 17987m | -27.3m/s | -54.1°C | 1% | 80.9hPa | 2.6V | 08:29:25 | 01:39:48 | 00:00:00 | |
| SQ2ODE-11 | 2026-08-30 17:54:54 | 52.26347 | 15.17579 | 88° | 31km/h | 17987m | -27.3m/s | -54.1°C | 1.4% | 80.9hPa | 2.7V | 00:00:00 | 00:00:00 | 00:00:00 | |
| DL1XH1-15 | 2026-08-30 17:54:53 | 52.26351 | 15.17542 | 101° | 29km/h | 18070m | -28.3m/s | -53.9°C | 4.4% | 79.8hPa | 2.7V | 08:30:00 | 01:39:45 | 00:00:00 | |
| AA1-15 | 2026-08-30 17:54:50 | 52.26355 | 15.17521 | 116° | 24km/h | 18124m | -26.8m/s | -53.3°C | 0.8% | 79.1hPa | 2.6V | 08:29:25 | 01:39:43 | 00:00:00 | |
| SONCRA | 2026-08-30 17:54:49 | 52.26358 | 15.17513 | 122° | 20km/h | 18151m | -26.5m/s | -53.1°C | 1.3% | 78.8hPa | 2.6V | 00:00:00 | 00:00:00 | 00:00:00 | |
| SONDE2-11 | 2026-08-30 17:54:48 | 52.26362 | 15.17507 | 132° | 16km/h | 18176m | -25.8m/s | -52.8°C | 1.3% | 78.5hPa | 2.6V | 00:00:00 | 00:00:00 | 00:00:00 | |
| DL1XH-west | 2026-08-30 17:54:44 | 52.26374 | 15.17496 | 184° | 11km/h | 18282m | -26.9m/s | -52.4°C | 0.7% | 77.2hPa | 2.6V | 08:29:25 | 01:39:37 | 00:00:00 | |
| DL1XH1-15 | 2026-08-30 17:54:43 | 52.26380 | 15.17498 | 194° | 15km/h | 18335m | -27.9m/s | -52.1°C | 3.7% | 76.5hPa | 2.7V | 08:30:00 | 01:39:35 | 00:00:00 | |
| DB0DAN | 2026-08-30 17:54:40 | 52.26386 | 15.17503 | 219° | 11km/h | 18389m | -26.7m/s | -52.5°C | 1.2% | 75.93hPa | 2.6V | 00:00:00 | 00:00:00 | 00:00:00 | |
| AA1-15 | 2026-08-30 17:54:39 | 52.26388 | 15.17506 | 219° | 11km/h | 18415m | -25.5m/s | -52.7°C | 0.8% | 75.6hPa | 2.6V | 08:29:25 | 01:39:32 | 00:00:00 | |
| DO3MHA-11 | 2026-08-30 17:54:39 | 52.26388 | 15.17506 | 219° | 11km/h | 18415m | -25.4m/s | -52.7°C | 4.0% | 75.6hPa | 2.6V | 00:00:00 | 01:39:32 | 00:00:00 | |
| S3001 | 2026-08-30 17:54:36 | 52.26395 | 15.17519 | 260° | 5km/h | 18516m | -24.3m/s | -53.4°C | 1.3% | 74.4hPa | 2.6V | 00:00:00 | 00:00:00 | 00:00:00 | |
| NBG1-10 | 2026-08-30 17:54:35 | 52.26395 | 15.17519 | 261° | 9km/h | 18516m | -24.2m/s | -53.4°C | 4.1% | 74.3hPa | 2.6V | 00:00:00 | 01:39:28 | 00:00:00 | |
| DM0DOS-11 | 2026-08-30 17:54:34 | 52.26384 | 15.17524 | 18° | 13km/h | 18666m | -23.8m/s | -54°C | 4.4% | 72.7hPa | 2.6V | 08:30:00 | 01:39:22 | 00:00:00 | |
| DL1XH-west | 2026-08-30 17:54:34 | 52.26395 | 15.17522 | 285° | 7km/h | 18540m | -25.8m/s | -53.6°C | 0.8% | 74.2hPa | 2.6V | 08:29:25 | 01:39:27 | 00:00:00 | |
| AA1-15 | 2026-08-30 17:54:28 | 52.26381 | 15.17521 | 23° | 15km/h | 18690m | -23.3m/s | -53.7°C | 0.9% | 72.4hPa | 2.6V | 18:12:15 | 01:39:21 | 00:00:00 | |
| DB0DAN | 2026-08-30 17:54:25 | 52.26369 | 15.17512 | 21° | 18km/h | 18759m | -22m/s | -53.8°C | 1.4% | 71.61hPa | 2.6V | 00:00:00 | 00:00:00 | 00:00:00 | |
| DM0DOS-11 | 2026-08-30 17:54:25 | 52.26345 | 15.17496 | 19° | 13km/h | 18901m | -25m/s | -53.5°C | 4.2% | 70.1hPa | 2.6V | 08:30:00 | 01:39:12 | 00:00:00 | |
| DL1XH-west | 2026-08-30 17:54:24 | 52.26365 | 15.17509 | 22° | 18km/h | 18782m | -23.2m/s | -53.8°C | 1% | 71.4hPa | 2.6V | 18:12:15 | 01:39:17 | 00:00:00 | |
| AA1-15 | 2026-08-30 17:54:18 | 52.26342 | 15.17494 | 26° | 13km/h | 18925m | -24.8m/s | -53.5°C | 0.9% | 69.8hPa | 2.7V | 18:12:15 | 01:39:11 | 00:00:00 | |
| DO3MHA-11 | 2026-08-30 17:54:17 | 52.26339 | 15.17492 | 20° | 18km/h | 18951m | -25.8m/s | -53.2°C | 4.1% | 69.5hPa | 2.7V | 00:00:00 | 01:39:10 | 08:30:00 | |
| KRY50SP-1 | 2026-08-30 17:54:16 | 52.26338 | 15.17492 | 21° | 13km/h | 18951m | -25.9m/s | -53.2°C | 1.3% | 69.6hPa | 2.7V | 00:00:00 | 00:00:00 | 00:00:00 | |
| 13BRC | 2026-08-30 17:54:14 | 52.26333 | 15.17487 | 32° | 13km/h | 19002m | -25.1m/s | -53.3°C | 1.3% | 69.0hPa | 2.7V | 00:00:00 | 00:00:00 | 00:00:00 | |
| DL1XH1-15 | 2026-08-30 17:54:13 | 52.26322 | 15.17475 | 39° | 20km/h | 19077m | -26.4m/s | -53.5°C | 4.2% | 68.2hPa | 2.7V | 08:30:00 | 01:39:05 | 00:00:00 | |
| DL1XH-west | 2026-08-30 17:54:13 | 52.26326 | 15.17480 | 32° | 18km/h | 19052m | -25.8m/s | -53.5°C | 0.9% | 68.5hPa | 2.6V | 18:12:15 | 01:39:06 | 00:00:00 | |
| SONDE2-12 | 2026-08-30 17:54:12 | 52.26322 | 15.17475 | 39° | 18km/h | 19077m | -26.4m/s | -53.5°C | 1.4% | 68.2hPa | 2.6V | 00:00:00 | 00:00:00 | 00:00:00 | |
| KRY50SP-1 | 2026-08-30 17:54:11 | 52.26322 | 15.17475 | 40° | 20km/h | 19077m | -26.4m/s | -53.5°C | 1.3% | 68.2hPa | 2.6V | 00:00:00 | 00:00:00 | 00:00:00 | |
| DM0DOS-11 | 2026-08-30 17:54:09 | 52.26296 | 15.17412 | 69° | 24km/h | 19277m | -23.9m/s | -53.6°C | 4.3% | 66.1hPa | 2.6V | 08:30:00 | 01:38:57 | 00:00:00 | |
| AA1-15 | 2026-08-30 17:54:08 | 52.26303 | 15.17439 | 62° | 24km/h | 19201m | -25.9m/s | -53.4°C | 0.9% | 66.9hPa | 2.7V | 18:12:15 | 01:39:00 | 00:00:00 | |
| DO3MHA-11 | 2026-08-30 17:54:07 | 52.26303 | 15.17439 | 62° | 24km/h | 19202m | -25.8m/s | -53.3°C | 4.2% | 66.9hPa | 2.7V | 00:00:00 | 01:39:00 | 00:00:00 | |
| KRY50SP-1 | 2026-08-30 17:54:06 | 52.26303 | 15.17439 | 63° | 24km/h | 19202m | -25.9m/s | -53.4°C | 1.3% | 66.9hPa | 2.7V | 00:00:00 | 00:00:00 | 00:00:00 | |
| SQ2ODE-11 | 2026-08-30 17:54:05 | 52.26301 | 15.17430 | 69° | 26km/h | 19227m | -26.3m/s | -53.4°C | 1.3% | 66.7hPa | 2.7V | 00:00:00 | 00:00:00 | 00:00:00 | |
| DL1XH1-15 | 2026-08-30 17:54:03 | 52.26292 | 15.17392 | 66° | 22km/h | 19326m | -25.8m/s | -53.7°C | 4.3% | 65.6hPa | 2.7V | 08:30:00 | 01:38:55 | 00:00:00 | |
| DL1XH-west | 2026-08-30 17:54:03 | 52.26294 | 15.17402 | 72° | 27km/h | 19301m | -24.9m/s | -53.6°C | 1% | 65.8hPa | 2.7V | 18:12:15 | 01:38:56 | 00:00:00 | |
| AA1-15 | 2026-08-30 17:53:56 | 52.26285 | 15.17347 | 69° | 15km/h | 19478m | -25.5m/s | -53.1°C | 0.9% | 64hPa | 2.7V | 18:12:15 | 01:38:49 | 00:00:00 | |
| DB0DAN | 2026-08-30 17:53:55 | 52.26284 | 15.17342 | 62° | 9km/h | 19504m | -25.6m/s | -53.1°C | 1.3% | 63.78hPa | 2.6V | 00:00:00 | 00:00:00 | 00:00:00 | |
| 13BRC | 2026-08-30 17:53:54 | 52.26284 | 15.17342 | 63° | 9km/h | 19504m | -25.6m/s | -53.1°C | 1.3% | 63.8hPa | 2.7V | 00:00:00 | 00:00:00 | 00:00:00 | |
| DL1XH1-15 | 2026-08-30 17:53:53 | 52.26283 | 15.17333 | 74° | 7km/h | 19581m | -26.4m/s | -53.2°C | 4.2% | 63hPa | 2.7V | 08:30:00 | 01:38:45 | 00:00:00 | |
| DL1XH-west | 2026-08-30 17:53:52 | 52.26283 | 15.17333 | 75° | 7km/h | 19581m | -26.4m/s | -53.2°C | 0.9% | 63.1hPa | 2.7V | 18:12:15 | 01:38:45 | 00:00:00 | |
| AA1-15 | 2026-08-30 17:53:45 | 52.26275 | 15.17298 | 58° | 18km/h | 19759m | -23.5m/s | -53.3°C | 0.9% | 61.3hPa | 2.6V | 18:12:15 | 01:38:38 | 00:00:00 | |
| DL1XH1-15 | 2026-08-30 17:53:43 | 52.26266 | 15.17276 | 55° | 20km/h | 19833m | -24.1m/s | -53.3°C | 4.1% | 60.6hPa | 2.7V | 08:30:00 | 01:38:35 | 00:00:00 | |
| DL1XH-west | 2026-08-30 17:53:42 | 52.26266 | 15.17276 | 55° | 20km/h | 19833m | -24.1m/s | -53.3°C | 0.9% | 60.6hPa | 2.7V | 18:12:15 | 01:38:35 | 00:00:00 | |
| SONDE2-12 | 2026-08-30 17:53:41 | 52.26264 | 15.17269 | 61° | 18km/h | 19857m | -24.7m/s | -53.3°C | 1.3% | 60.4hPa | 2.7V | 00:00:00 | 00:00:00 | 00:00:00 | |
| DB0DAN | 2026-08-30 17:53:40 | 52.26261 | 15.17262 | 59° | 18km/h | 19882m | -24.5m/s | -53.3°C | 1.2% | 60.18hPa | 2.7V | 00:00:00 | 00:00:00 | 00:00:00 | |
| DM0DOS-11 | 2026-08-30 17:53:39 | 52.26257 | 15.17250 | 51° | 15km/h | 19933m | -26.9m/s | -53.1°C | 4% | 59.7hPa | 2.6V | 08:30:00 | 01:38:31 | 00:00:00 | |
| AA1-15 | 2026-08-30 17:53:35 | 52.26253 | 15.17240 | 40° | 5km/h | 20009m | -21.6m/s | -52.8°C | 0.7% | 59hPa | 2.7V | 18:12:15 | 01:38:28 | 00:00:00 | |
| DL1XH1-15 | 2026-08-30 17:53:33 | 52.26250 | 15.17236 | 13° | 5km/h | 20063m | -14.9m/s | -53°C | 4% | 58.4hPa | 2.6V | 08:30:00 | 01:38:25 | 00:00:00 | |
| DL1XH-west | 2026-08-30 17:53:31 | 52.26249 | 15.17235 | 21° | 7km/h | 20077m | -13.8m/s | -53°C | 0.8% | 58.2hPa | 2.6V | 18:12:15 | 01:38:24 | 00:00:00 | |
| AA1-15 | 2026-08-30 17:53:24 | 52.26231 | 15.17219 | 42° | 15km/h | 20074m | 5.6m/s | -53°C | 0.9% | 58.2hPa | 2.6V | 18:12:15 | 01:38:17 | 00:00:00 | |
| DL1XH1-15 | 2026-08-30 17:53:23 | 52.26226 | 15.17211 | 50° | 11km/h | 20063m | 6.2m/s | -53°C | 4.1% | 58.3hPa | 2.7V | 08:30:00 | 01:38:15 | 00:00:00 | |
| DL1XH-west | 2026-08-30 17:53:21 | 52.26224 | 15.17208 | 54° | 9km/h | 20058m | 4.6m/s | -52.9°C | 0.8% | 58.3hPa | 2.6V | 18:12:15 | 01:38:14 | 00:00:00 | |
| DJ2DS-15 | 2026-08-30 17:53:21 | 52.26224 | 15.17208 | 54° | 11km/h | 20058m | 4.6m/s | -52.9°C | 4.1% | 58.3hPa | 2.7V | 00:00:00 | 01:38:14 | 00:00:00 | |
| DM0DOS-11 | 2026-08-30 17:53:19 | 52.26220 | 15.17203 | 11° | 5km/h | 20041m | 5.3m/s | -52.8°C | 4% | 58.5hPa | 2.7V | 08:30:00 | 01:38:11 | 00:00:00 | |
| AA1-15 | 2026-08-30 17:53:13 | 52.26215 | 15.17194 | 60° | 11km/h | 20014m | 5m/s | -53°C | 0.9% | 58.7hPa | 2.7V | 18:12:15 | 01:38:06 | 00:00:00 | |
| DL1XH1-15 | 2026-08-30 17:53:13 | 52.26213 | 15.17189 | 68° | 13km/h | 20009m | 5.9m/s | -53°C | 4.1% | 58.8hPa | 2.7V | 08:30:00 | 01:38:05 | 00:00:00 | |
| DL1XH-west | 2026-08-30 17:53:11 | 52.26212 | 15.17183 | 68° | 15km/h | 20003m | 5.1m/s | -53°C | 0.9% | 58.8hPa | 2.6V | 18:12:15 | 01:38:04 | 00:00:00 | |
| DB0DAN | 2026-08-30 17:53:10 | 52.26211 | 15.17178 | 64° | 15km/h | 19998m | 5.2m/s | -53°C | 1.3% | 58.87hPa | 2.6V | 00:00:00 | 00:00:00 | 00:00:00 | |
| SONDE2-12 | 2026-08-30 17:53:10 | 52.26211 | 15.17178 | 64° | 15km/h | 19998m | 5.2m/s | -53.0°C | 1.3% | 58.9hPa | 2.6V | 00:00:00 | 00:00:00 | 00:00:00 | |
| KRY50SP-1 | 2026-08-30 17:53:09 | 52.26211 | 15.17178 | 65° | 16km/h | 19998m | 5.2m/s | -53.0°C | 1.3% | 58.9hPa | 2.6V | 00:00:00 | 00:00:00 | 00:00:00 | |
| SQ2ODE-11 | 2026-08-30 17:53:07 | 52.26208 | 15.17165 | 73° | 16km/h | 19988m | 5.7m/s | -53.1°C | 1.3% | 58.9hPa | 2.6V | 00:00:00 | 00:00:00 | 00:00:00 | |
| DO3MHA-11 | 2026-08-30 17:53:06 | 52.26205 | 15.17153 | 66° | 18km/h | 19977m | 4.8m/s | -53.1°C | 4.1% | 59.0hPa | 2.6V | 00:00:00 | 01:37:59 | 00:00:00 | |
| DL1XH1-15 | 2026-08-30 17:53:03 | 52.26200 | 15.17129 | 75° | 15km/h | 19956m | 5.5m/s | -53.3°C | 4.2% | 59.2hPa | 2.6V | 08:30:00 | 01:37:55 | 00:00:00 | |
| AA1-15 | 2026-08-30 17:53:02 | 52.26201 | 15.17129 | 76° | 16km/h | 19956m | 5.5m/s | -53.3°C | 0.9% | 59.2hPa | 2.6V | 18:12:15 | 01:37:55 | 00:00:00 | |
| DL1XH-west | 2026-08-30 17:53:01 | 52.26199 | 15.17123 | 72° | 18km/h | 19951m | 4.8m/s | -53.3°C | 0.9% | 59.3hPa | 2.6V | 18:12:15 | 01:37:54 | 00:00:00 | |
| EDDB2-12 | 2026-08-30 17:53:01 | 52.26198 | 15.17115 | 75° | 18km/h | 19946m | 5.8m/s | -53.4°C | 1.3% | 59.3hPa | 2.6V | 00:00:00 | 00:00:00 | 00:00:00 | |
| D01LWL | 2026-08-30 17:52:59 | 52.26197 | 15.17107 | 81° | 20km/h | 19941m | 5.0m/s | -53.4°C | 1.3% | 59.4hPa | 2.6V | 00:00:00 | 00:00:00 | 00:00:00 | |
| DC4HF-4 | 2026-08-30 17:52:57 | 52.26193 | 15.17083 | 69° | 20km/h | 19925m | 5.2m/s | -53.4°C | 1.3% | 59.5hPa | 2.6V | 00:00:00 | 00:00:00 | 00:00:00 | |
| DB0DAN | 2026-08-30 17:52:55 | 52.26191 | 15.17075 | 70° | 18km/h | 19920m | 5.5m/s | -53.3°C | 1.3% | 59.59hPa | 2.6V | 00:00:00 | 00:00:00 | 00:00:00 | |
| DL1XH1-15 | 2026-08-30 17:52:53 | 52.26184 | 15.17054 | 51° | 20km/h | 19904m | 4.5m/s | -53.4°C | 4.2% | 59.7hPa | 2.7V | 08:30:00 | 01:37:45 | 00:00:00 | |
| AA1-15 | 2026-08-30 17:52:52 | 52.26184 | 15.17054 | 51° | 20km/h | 19904m | 4.6m/s | -53.4°C | 0.9% | 59.7hPa | 2.7V | 18:12:15 | 01:37:45 | 00:00:00 | |
| DL1XH-west | 2026-08-30 17:52:50 | 52.26178 | 15.17040 | 56° | 22km/h | 19894m | 5.5m/s | -53.5°C | 0.9% | 59.8hPa | 2.6V | 18:12:15 | 01:37:43 | 00:00:00 | |
| SONCRA | 2026-08-30 17:52:45 | 52.26162 | 15.17000 | 65° | 22km/h | 19868m | 3.9m/s | -53.5°C | 1.3% | 60.1hPa | 2.7V | 00:00:00 | 00:00:00 | 00:00:00 | |
| DM0DOS-11 | 2026-08-30 17:52:44 | 52.26145 | 15.16955 | 54° | 20km/h | 19837m | 5.3m/s | -53.5°C | 4.2% | 60.3hPa | 2.7V | 08:30:00 | 01:37:32 | 00:00:00 | |
| DL1XH1-15 | 2026-08-30 17:52:43 | 52.26154 | 15.16976 | 56° | 22km/h | 19853m | 4.8m/s | -53.5°C | 4.2% | 60.2hPa | 2.6V | 08:30:00 | 01:37:35 | 00:00:00 | |
| AA1-15 | 2026-08-30 17:52:41 | 52.26151 | 15.16969 | 59° | 20km/h | 19847m | 6m/s | -53.5°C | 0.9% | 60.2hPa | 2.6V | 18:12:15 | 01:37:34 | 00:00:00 | |
| DB0DAN | 2026-08-30 17:52:40 | 52.26148 | 15.16962 | 57° | 20km/h | 19842m | 5m/s | -53.6°C | 1.3% | 60.28hPa | 2.7V | 00:00:00 | 00:00:00 | 00:00:00 | |
| DL1XH-west | 2026-08-30 17:52:40 | 52.26148 | 15.16962 | 57° | 20km/h | 19842m | 5m/s | -53.6°C | 0.9% | 60.3hPa | 2.7V | 18:12:15 | 01:37:33 | 00:00:00 | |
| SONDE2-12 | 2026-08-30 17:52:39 | 52.26145 | 15.16955 | 54° | 20km/h | 19837m | 5.3m/s | -53.5°C | 1.4% | 60.3hPa | 2.7V | 00:00:00 | 00:00:00 | 00:00:00 | |
| DJ2DS-15 | 2026-08-30 17:52:37 | 52.26139 | 15.16941 | 61° | 18km/h | 19827m | 5.8m/s | -53.5°C | 1.3% | 60.4hPa | 2.7V | 00:00:00 | 00:00:00 | 00:00:00 | |
| DM0DOS-11 | 2026-08-30 17:52:34 | 52.26123 | 15.16876 | 69° | 18km/h | 19785m | 4.2m/s | -53.5°C | 4.2% | 60.8hPa | 2.7V | 08:30:00 | 01:37:22 | 00:00:00 | |
| DL1XH1-15 | 2026-08-30 17:52:33 | 52.26126 | 15.16892 | 75° | 22km/h | 19796m | 6.3m/s | -53.5°C | 4.2% | 60.7hPa | 2.6V | 08:30:00 | 01:37:24 | 00:00:00 | |
| AA1-15 | 2026-08-30 17:52:30 | 52.26125 | 15.16884 | 71° | 20km/h | 19790m | 5.2m/s | -53.5°C | 0.9% | 60.8hPa | 2.7V | 18:12:15 | 01:37:23 | 00:00:00 | |
| DL1XH-west | 2026-08-30 17:52:29 | 52.26123 | 15.16876 | 70° | 18km/h | 19785m | 4.2m/s | -53.5°C | 0.9% | 60.8hPa | 2.7V | 18:12:15 | 01:37:22 | 00:00:00 | |
| SP3WXH-11 | 2026-08-30 17:52:28 | 52.26121 | 15.16869 | 71° | 16km/h | 19780m | 6.0m/s | -53.5°C | 1.3% | 60.8hPa | 2.7V | 00:00:00 | 00:00:00 | 00:00:00 | |
| DB0DAN | 2026-08-30 17:52:25 | 52.26117 | 15.16851 | 60° | 15km/h | 19765m | 5.5m/s | -53.5°C | 1.3% | 61.01hPa | 2.7V | 00:00:00 | 00:00:00 | 00:00:00 | |
| DM0DOS-11 | 2026-08-30 17:52:24 | 52.26107 | 15.16823 | 72° | 13km/h | 19735m | 4.4m/s | -53.7°C | 4.2% | 61.3hPa | 2.7V | 08:30:00 | 01:37:12 | 00:00:00 | |
| DL1XH1-15 | 2026-08-30 17:52:23 | 52.26109 | 15.16832 | 65° | 11km/h | 19746m | 5m/s | -53.7°C | 4.2% | 61.2hPa | 2.6V | 08:30:00 | 01:37:14 | 00:00:00 | |
| DF8AY | 2026-08-30 17:52:22 | 52.26111 | 15.16837 | 58° | 13km/h | 19751m | 5.1m/s | 0°C | 0% | 0hPa | 2.6V | 18:12:15 | 01:37:15 | 00:00:00 | |
| AA1-15 | 2026-08-30 17:52:19 | 52.26107 | 15.16823 | 72° | 13km/h | 19735m | 4.4m/s | -53.7°C | 0.9% | 61.3hPa | 2.7V | 18:12:15 | 01:37:12 | 00:00:00 | |
| DL1XH-west | 2026-08-30 17:52:18 | 52.26106 | 15.16818 | 83° | 13km/h | 19730m | 6.2m/s | -53.7°C | 0.9% | 61.4hPa | 2.7V | 18:12:15 | 01:37:11 | 00:00:00 | |
| KRY50SP-1 | 2026-08-30 17:52:17 | 52.26106 | 15.16818 | 83° | 13km/h | 19730m | 6.2m/s | -53.7°C | 1.3% | 61.4hPa | 2.7V | 00:00:00 | 00:00:00 | 00:00:00 | |
| SQ2ODE-11 | 2026-08-30 17:52:15 | 52.26105 | 15.16804 | 81° | 9km/h | 19714m | 4.1m/s | -53.8°C | 1.3% | 61.5hPa | 2.7V | 00:00:00 | 00:00:00 | 00:00:00 | |
| SP3BTT-10 | 2026-08-30 17:52:14 | 52.26105 | 15.16801 | 85° | 13km/h | 19709m | 5.8m/s | -53.7°C | 4.3% | 61.5hPa | 2.7V | 00:00:00 | 00:00:00 | 00:00:00 | |
| DL1XH1-15 | 2026-08-30 17:52:13 | 52.26105 | 15.16791 | 80° | 9km/h | 19693m | 5.6m/s | -53.7°C | 4.3% | 61.7hPa | 2.7V | 08:30:00 | 01:37:04 | 00:00:00 | |
| AA1-15 | 2026-08-30 17:52:08 | 52.26104 | 15.16779 | 79° | 9km/h | 19677m | 5.1m/s | -53.8°C | 1% | 61.9hPa | 2.6V | 18:12:15 | 01:37:01 | 00:00:00 | |
| SONDE2-12 | 2026-08-30 17:52:08 | 52.26104 | 15.16779 | 79° | 9km/h | 19677m | 5.1m/s | -53.8°C | 1.4% | 61.9hPa | 2.6V | 00:00:00 | 00:00:00 | 00:00:00 | |
| DL1XH-west | 2026-08-30 17:52:07 | 52.26103 | 15.16775 | 67° | 9km/h | 19672m | 5.1m/s | -53.8°C | 0.9% | 61.9hPa | 2.6V | 18:12:15 | 01:37:00 | 00:00:00 | |
| KRY50SP-1 | 2026-08-30 17:52:06 | 52.26103 | 15.16775 | 68° | 9km/h | 19672m | 5.1m/s | -53.8°C | 1.3% | 61.9hPa | 2.6V | 00:00:00 | 00:00:00 | 00:00:00 | |
| DL1XH1-15 | 2026-08-30 17:52:03 | 52.26098 | 15.16764 | 59° | 5km/h | 19641m | 5.1m/s | -53.6°C | 4.2% | 62.2hPa | 2.6V | 08:30:00 | 01:36:54 | 00:00:00 | |
| AA1-15 | 2026-08-30 17:51:58 | 52.26097 | 15.16758 | 96° | 5km/h | 19626m | 4.1m/s | -53.5°C | 0.9% | 62.3hPa | 2.7V | 18:12:15 | 01:36:51 | 00:00:00 | |
| D01LWL | 2026-08-30 17:51:57 | 52.26097 | 15.16753 | 80° | 7km/h | 19616m | 4.3m/s | -53.4°C | 1.3% | 62.4hPa | 2.7V | 00:00:00 | 00:00:00 | 00:00:00 | |
| DL1XH-west | 2026-08-30 17:51:57 | 52.26097 | 15.16756 | 84° | 5km/h | 19621m | 6.1m/s | -53.5°C | 0.9% | 62.4hPa | 2.6V | 18:12:15 | 01:36:50 | 00:00:00 | |
| KRY50SP-1 | 2026-08-30 17:51:56 | 52.26097 | 15.16756 | 85° | 5km/h | 19621m | 6.1m/s | -53.5°C | 1.3% | 62.4hPa | 2.7V | 00:00:00 | 00:00:00 | 00:00:00 | |
| NBG1-10 | 2026-08-30 17:51:54 | 52.26097 | 15.16746 | 101° | 13km/h | 19605m | 4.6m/s | -53.3°C | 4.2% | 62.5hPa | 2.7V | 00:00:00 | 01:36:47 | 00:00:00 | |
| DL1XH1-15 | 2026-08-30 17:51:53 | 52.26097 | 15.16731 | 76° | 13km/h | 19590m | 4.3m/s | -53.4°C | 4.1% | 62.7hPa | 2.7V | 08:30:00 | 01:36:44 | 00:00:00 | |
| DL1XH-west | 2026-08-30 17:51:47 | 52.26094 | 15.16714 | 60° | 9km/h | 19569m | 5.4m/s | -53.4°C | 0.8% | 62.9hPa | 2.7V | 18:12:15 | 01:36:40 | 00:00:00 | |
| KRY50SP-1 | 2026-08-30 17:51:45 | 52.26092 | 15.16709 | 59° | 7km/h | 19557m | 4.9m/s | -53.4°C | 1.3% | 63.0hPa | 2.7V | 00:00:00 | 00:00:00 | 00:00:00 | |
| DC4HF-4 | 2026-08-30 17:51:44 | 52.26091 | 15.16706 | 62° | 7km/h | 19552m | 5.5m/s | -53.4°C | 1.3% | 63.1hPa | 2.7V | 00:00:00 | 00:00:00 | 00:00:00 | |
| SONCRA | 2026-08-30 17:51:43 | 52.26090 | 15.16703 | 64° | 11km/h | 19547m | 5.8m/s | -53.4°C | 1.3% | 63.1hPa | 2.7V | 00:00:00 | 00:00:00 | 00:00:00 | |
| DB0DAN | 2026-08-30 17:51:40 | 52.26087 | 15.16686 | 85° | 15km/h | 19531m | 5m/s | -53.4°C | 1.3% | 63.28hPa | 2.7V | 00:00:00 | 00:00:00 | 00:00:00 | |
| DL1XH-west | 2026-08-30 17:51:37 | 52.26086 | 15.16666 | 84° | 18km/h | 19515m | 5.5m/s | -53.5°C | 0.8% | 63.4hPa | 2.7V | 18:12:15 | 01:36:30 | 00:00:00 | |
| DL1XH-west | 2026-08-30 17:51:26 | 52.26075 | 15.16584 | 77° | 24km/h | 19456m | 5.8m/s | -53.9°C | 0.9% | 64hPa | 2.7V | 18:12:15 | 01:36:19 | 00:00:00 | |
| DB0DAN | 2026-08-30 17:51:25 | 52.26074 | 15.16574 | 78° | 26km/h | 19451m | 5.1m/s | -53.9°C | 1.3% | 64.08hPa | 2.7V | 00:00:00 | 00:00:00 | 00:00:00 | |
| DL1XH-west | 2026-08-30 17:51:16 | 52.26066 | 15.16482 | 72° | 27km/h | 19404m | 5.5m/s | -53.9°C | 0.9% | 64.5hPa | 2.6V | 18:12:15 | 01:36:09 | 00:00:00 | |
| AA1-15 | 2026-08-30 17:51:15 | 52.26063 | 15.16471 | 70° | 27km/h | 19398m | 5m/s | -53.8°C | 0.9% | 64.6hPa | 2.7V | 18:12:15 | 01:36:08 | 00:00:00 | |
| DB0DAN | 2026-08-30 17:51:10 | 52.26052 | 15.16415 | 77° | 26km/h | 19372m | 5.6m/s | -53.9°C | 1.3% | 64.86hPa | 2.6V | 00:00:00 | 00:00:00 | 00:00:00 | |
| SONDE2-12 | 2026-08-30 17:51:06 | 52.26047 | 15.16371 | 76° | 27km/h | 19353m | 4.5m/s | -54.0°C | 1.5% | 65.0hPa | 2.6V | 00:00:00 | 00:00:00 | 00:00:00 | |
| DL1XH-west | 2026-08-30 17:51:06 | 52.26047 | 15.16371 | 77° | 29km/h | 19353m | 4.5m/s | -54°C | 1% | 65hPa | 2.6V | 18:12:15 | 01:35:59 | 00:00:00 | |
| AA1-15 | 2026-08-30 17:51:04 | 52.26043 | 15.16349 | 74° | 26km/h | 19342m | 5m/s | -53.9°C | 0.9% | 65.2hPa | 2.6V | 18:12:15 | 01:35:57 | 00:00:00 | |
| DL1XH1-15 | 2026-08-30 17:51:03 | 52.26036 | 15.16319 | 62° | 26km/h | 19326m | 6m/s | -53.8°C | 4.3% | 65.3hPa | 2.6V | 08:30:00 | 01:35:54 | 00:00:00 | |
| DL1XH-west | 2026-08-30 17:50:56 | 52.26017 | 15.16274 | 55° | 26km/h | 19300m | 5.5m/s | -53.7°C | 0.9% | 65.6hPa | 2.6V | 18:12:15 | 01:35:49 | 00:00:00 | |
| DB0DAN | 2026-08-30 17:50:55 | 52.26013 | 15.16266 | 57° | 24km/h | 19294m | 4.9m/s | -53.7°C | 1.3% | 65.64hPa | 2.6V | 00:00:00 | 00:00:00 | 00:00:00 | |
| D01LWL | 2026-08-30 17:50:55 | 52.26010 | 15.16257 | 58° | 24km/h | 19289m | 6.1m/s | -53.7°C | 1.3% | 65.7hPa | 2.6V | 00:00:00 | 00:00:00 | 00:00:00 | |
| SP6BVK | 2026-08-30 17:50:54 | 52.26013 | 15.16266 | 58° | 24km/h | 19295m | 4.9m/s | -53.7°C | 1.3% | 65.6hPa | 2.6V | 00:00:00 | 00:00:00 | 00:00:00 | |
| DL1XH1-15 | 2026-08-30 17:50:53 | 52.26000 | 15.16232 | 57° | 24km/h | 19273m | 5.1m/s | -53.6°C | 4.3% | 65.8hPa | 2.6V | 08:30:00 | 01:35:44 | 00:00:00 | |
| AA1-15 | 2026-08-30 17:50:53 | 52.26006 | 15.16248 | 59° | 26km/h | 19284m | 4.1m/s | -53.7°C | 1% | 65.7hPa | 2.7V | 18:12:15 | 01:35:46 | 00:00:00 | |
| KRY50SP-1 | 2026-08-30 17:50:51 | 52.26003 | 15.16240 | 60° | 24km/h | 19279m | 5.9m/s | -53.6°C | 1.3% | 65.8hPa | 2.6V | 00:00:00 | 00:00:00 | 00:00:00 | |
| OE3JTB-15 | 2026-08-30 17:50:50 | 52.25997 | 15.16223 | 55° | 20km/h | 19268m | 6.3m/s | -53.5°C | 4.2% | 65.9hPa | 2.6V | 00:00:00 | 00:00:00 | 08:30:00 | |
| DO3MHA-11 | 2026-08-30 17:50:49 | 52.25993 | 15.16215 | 52° | 22km/h | 19263m | 3.7m/s | -53.5°C | 4.2% | 65.9hPa | 2.6V | 00:00:00 | 01:35:42 | 00:00:00 | |
| DM0DOS-11 | 2026-08-30 17:50:48 | 52.25974 | 15.16167 | 66° | 20km/h | 19233m | 5.8m/s | -53.6°C | 4.2% | 66.3hPa | 2.6V | 08:30:00 | 01:35:36 | 00:00:00 | |
| DL1XH-west | 2026-08-30 17:50:45 | 52.25979 | 15.16184 | 60° | 24km/h | 19242m | 5m/s | -53.6°C | 0.9% | 66.2hPa | 2.6V | 18:12:15 | 01:35:38 | 00:00:00 | |
| AA1-15 | 2026-08-30 17:50:42 | 52.25972 | 15.16159 | 67° | 20km/h | 19227m | 5.1m/s | -53.6°C | 0.9% | 66.3hPa | 2.7V | 18:12:15 | 01:35:35 | 00:00:00 | |
| DB0DAN | 2026-08-30 17:50:40 | 52.25968 | 15.16145 | 64° | 18km/h | 19217m | 4.7m/s | -53.5°C | 1.3% | 66.43hPa | 2.6V | 00:00:00 | 00:00:00 | 00:00:00 | |
| DL1XH-west | 2026-08-30 17:50:35 | 52.25956 | 15.16117 | 47° | 16km/h | 19191m | 5.3m/s | -53.7°C | 0.9% | 66.7hPa | 2.7V | 18:12:15 | 01:35:28 | 00:00:00 | |
| SONDE2-12 | 2026-08-30 17:50:35 | 52.25956 | 15.16117 | 46° | 16km/h | 19191m | 5.3m/s | -53.7°C | 1.4% | 66.7hPa | 2.6V | 00:00:00 | 00:00:00 | 00:00:00 | |
| NBG1-10 | 2026-08-30 17:50:34 | 52.25953 | 15.16112 | 47° | 16km/h | 19186m | 4.5m/s | -53.7°C | 4.2% | 66.7hPa | 2.6V | 00:00:00 | 01:35:27 | 00:00:00 | |
| DL1XH1-15 | 2026-08-30 17:50:33 | 52.25929 | 15.16074 | 42° | 24km/h | 19153m | 4.4m/s | -53.6°C | 4.2% | 67.1hPa | 2.6V | 08:30:00 | 01:35:21 | 00:00:00 | |
| AA1-15 | 2026-08-30 17:50:32 | 52.25946 | 15.16099 | 43° | 22km/h | 19175m | 5.5m/s | -53.8°C | 0.9% | 66.9hPa | 2.6V | 18:12:15 | 01:35:25 | 00:00:00 | |
| DO3MHA-11 | 2026-08-30 17:50:29 | 52.25934 | 15.16080 | 43° | 18km/h | 19159m | 6.3m/s | -53.6°C | 4.3% | 67.0hPa | 2.7V | 00:00:00 | 01:35:22 | 00:00:00 | |
| SQ2ODE-11 | 2026-08-30 17:50:27 | 52.25929 | 15.16074 | 44° | 24km/h | 19154m | 4.4m/s | -53.7°C | 1.3% | 67.1hPa | 2.7V | 00:00:00 | 00:00:00 | 00:00:00 | |
| DB0DAN | 2026-08-30 17:50:25 | 52.25918 | 15.16056 | 44° | 16km/h | 19138m | 5m/s | -53.5°C | 1.3% | 67.26hPa | 2.7V | 00:00:00 | 00:00:00 | 00:00:00 | |
| DL1XH-west | 2026-08-30 17:50:24 | 52.25915 | 15.16051 | 38° | 16km/h | 19133m | 5.6m/s | -53.5°C | 0.8% | 67.3hPa | 2.7V | 18:12:15 | 01:35:17 | 00:00:00 | |
| D01LWL | 2026-08-30 17:50:24 | 52.25911 | 15.16047 | 33° | 16km/h | 19128m | 5.1m/s | -53.5°C | 1.3% | 67.4hPa | 2.6V | 00:00:00 | 00:00:00 | 00:00:00 | |
| DL1XH1-15 | 2026-08-30 17:50:23 | 52.25893 | 15.16030 | 36° | 18km/h | 19102m | 4.6m/s | -53.8°C | 4.3% | 67.6hPa | 2.6V | 08:30:00 | 01:35:11 | 00:00:00 | |
| AA1-15 | 2026-08-30 17:50:21 | 52.25904 | 15.16040 | 27° | 16km/h | 19118m | 5.8m/s | -53.6°C | 0.9% | 67.5hPa | 2.7V | 18:12:15 | 01:35:14 | 00:00:00 | |
| DJ2DS-15 | 2026-08-30 17:50:21 | 52.25904 | 15.16040 | 27° | 13km/h | 19118m | 5.8m/s | -53.6°C | 4.2% | 67.4hPa | 2.7V | 00:00:00 | 01:35:14 | 00:00:00 | |
| SQ2ODE-11 | 2026-08-30 17:50:20 | 52.25904 | 15.16040 | 28° | 16km/h | 19118m | 5.8m/s | -53.6°C | 1.3% | 67.5hPa | 2.7V | 00:00:00 | 00:00:00 | 00:00:00 | |
| DO3MHA-11 | 2026-08-30 17:50:19 | 52.25897 | 15.16034 | 31° | 15km/h | 19108m | 6.3m/s | -53.7°C | 4.2% | 67.6hPa | 2.7V | 00:00:00 | 01:35:12 | 00:00:00 | |
| EDDB2-11 | 2026-08-30 17:50:18 | 52.25893 | 15.16030 | 36° | 18km/h | 19102m | 4.6m/s | -53.8°C | 1.4% | 67.6hPa | 2.7V | 00:00:00 | 00:00:00 | 00:00:00 | |
| DM0DOS-11 | 2026-08-30 17:50:14 | 52.25867 | 15.15998 | 2° | 13km/h | 19055m | 5.1m/s | -53.6°C | 4.3% | 68.1hPa | 2.7V | 08:30:00 | 01:35:02 | 00:00:00 | |
| DL1XH-west | 2026-08-30 17:50:14 | 52.25881 | 15.16010 | 51° | 16km/h | 19080m | 4.2m/s | -53.8°C | 1% | 67.9hPa | 2.7V | 18:12:15 | 01:35:07 | 00:00:00 | |
| AA1-15 | 2026-08-30 17:50:11 | 52.25873 | 15.16000 | 20° | 11km/h | 19065m | 5.2m/s | -53.7°C | 0.9% | 68hPa | 2.6V | 18:12:15 | 01:35:04 | 00:00:00 | |
| DB0DAN | 2026-08-30 17:50:10 | 52.25871 | 15.15998 | 10° | 13km/h | 19060m | 5.2m/s | -53.7°C | 1.3% | 68.1hPa | 2.7V | 00:00:00 | 00:00:00 | 00:00:00 | |
| DL1XH-west | 2026-08-30 17:50:04 | 52.25853 | 15.15992 | 34° | 13km/h | 19029m | 6m/s | -53.5°C | 0.9% | 68.4hPa | 2.7V | 18:12:15 | 01:34:57 | 00:00:00 | |
| SONDE2-12 | 2026-08-30 17:50:04 | 52.25853 | 15.15992 | 34° | 13km/h | 19029m | 6.0m/s | -53.5°C | 1.4% | 68.4hPa | 2.6V | 00:00:00 | 00:00:00 | 00:00:00 | |
| DL1XH1-15 | 2026-08-30 17:50:03 | 52.25838 | 15.15971 | 22° | 13km/h | 18998m | 5.4m/s | -53.3°C | 4.1% | 68.7hPa | 2.6V | 08:30:00 | 01:34:51 | 00:00:00 | |
| AA1-15 | 2026-08-30 17:50:00 | 52.25844 | 15.15976 | 44° | 13km/h | 19008m | 4.9m/s | -53.4°C | 0.9% | 68.6hPa | 2.7V | 18:12:15 | 01:34:53 | 00:00:00 | |
| S3001 | 2026-08-30 17:49:56 | 52.25832 | 15.15968 | 7° | 13km/h | 18988m | 4.9m/s | -53.3°C | 1.3% | 68.8hPa | 2.7V | 00:00:00 | 00:00:00 | 00:00:00 | |
| EDDB2-12 | 2026-08-30 17:49:54 | 52.25826 | 15.15967 | 8° | 11km/h | 18977m | 4.6m/s | -53.4°C | 1.3% | 69.0hPa | 2.7V | 00:00:00 | 00:00:00 | 00:00:00 | |
| DL1XH1-15 | 2026-08-30 17:49:53 | 52.25809 | 15.15953 | 52° | 13km/h | 18946m | 4.7m/s | -53.6°C | 4.2% | 69.3hPa | 2.7V | 08:30:00 | 01:34:41 | 00:00:00 | |
| DL1XH-west | 2026-08-30 17:49:53 | 52.25822 | 15.15966 | 13° | 15km/h | 18972m | 5.7m/s | -53.4°C | 0.8% | 69hPa | 2.7V | 18:12:15 | 01:34:46 | 00:00:00 | |
| D01LWL | 2026-08-30 17:49:53 | 52.25819 | 15.15964 | 18° | 13km/h | 18967m | 4.3m/s | -53.4°C | 1.3% | 69.1hPa | 2.6V | 00:00:00 | 00:00:00 | 00:00:00 | |
| OE3JTB-15 | 2026-08-30 17:49:52 | 52.25819 | 15.15964 | 19° | 15km/h | 18967m | 4.2m/s | -53.3°C | 4.2% | 69.0hPa | 2.6V | 00:00:00 | 01:34:45 | 00:00:00 | |
| KRY50SP-1 | 2026-08-30 17:49:51 | 52.25819 | 15.15964 | 19° | 15km/h | 18967m | 4.3m/s | -53.4°C | 1.3% | 69.1hPa | 2.6V | 00:00:00 | 00:00:00 | 00:00:00 | |
| DM0DOS-11 | 2026-08-30 17:49:49 | 52.25805 | 15.15939 | 68° | 13km/h | 18931m | 4.1m/s | -53.7°C | 4.2% | 69.5hPa | 2.6V | 08:30:00 | 01:34:38 | 00:00:00 | |
| AA1-15 | 2026-08-30 17:49:49 | 52.25811 | 15.15957 | 44° | 11km/h | 18951m | 5.2m/s | -53.5°C | 0.8% | 69.3hPa | 2.7V | 18:12:15 | 01:34:42 | 00:00:00 | |
| EDDB2-11 | 2026-08-30 17:49:47 | 52.25808 | 15.15949 | 60° | 11km/h | 18941m | 5.5m/s | -53.7°C | 1.3% | 69.4hPa | 2.7V | 00:00:00 | 00:00:00 | 00:00:00 | |
| SQ2ODE-11 | 2026-08-30 17:49:46 | 52.25808 | 15.15949 | 62° | 13km/h | 18941m | 5.5m/s | -53.7°C | 1.3% | 69.4hPa | 2.7V | 00:00:00 | 00:00:00 | 00:00:00 | |
| KRY50SP-1 | 2026-08-30 17:49:45 | 52.25806 | 15.15944 | 70° | 13km/h | 18935m | 5.1m/s | -53.7°C | 1.3% | 69.4hPa | 2.7V | 00:00:00 | 00:00:00 | 00:00:00 | |
| 13BRC | 2026-08-30 17:49:44 | 52.25805 | 15.15939 | 69° | 13km/h | 18931m | 4.1m/s | -53.7°C | 1.3% | 69.5hPa | 2.7V | 00:00:00 | 00:00:00 | 00:00:00 | |
| DL1XH1-15 | 2026-08-30 17:49:43 | 52.25789 | 15.15911 | 34° | 15km/h | 18894m | 5.2m/s | -53.7°C | 4.3% | 69.9hPa | 2.7V | 08:30:00 | 01:34:31 | 00:00:00 | |
| DL1XH-west | 2026-08-30 17:49:42 | 52.25799 | 15.15925 | 49° | 13km/h | 18915m | 6m/s | -53.7°C | 0.9% | 69.6hPa | 2.7V | 18:12:15 | 01:34:35 | 00:00:00 | |
| AA1-15 | 2026-08-30 17:49:38 | 52.25789 | 15.15911 | 34° | 15km/h | 18894m | 5.2m/s | -53.7°C | 0.9% | 69.9hPa | 2.7V | 18:12:15 | 01:34:31 | 00:00:00 | |
| SONDE2-12 | 2026-08-30 17:49:33 | 52.25773 | 15.15886 | 47° | 13km/h | 18862m | 4.5m/s | -53.7°C | 1.5% | 70.2hPa | 2.6V | 00:00:00 | 00:00:00 | 00:00:00 | |
| DL1XH-west | 2026-08-30 17:49:31 | 52.25770 | 15.15882 | 39° | 15km/h | 18857m | 4.5m/s | -53.7°C | 0.9% | 70.2hPa | 2.6V | 18:12:15 | 01:34:24 | 00:00:00 | |
| DM0DOS-11 | 2026-08-30 17:49:29 | 52.25759 | 15.15874 | 15° | 18km/h | 18842m | 5.8m/s | -53.7°C | 4.3% | 70.4hPa | 2.7V | 08:30:00 | 01:34:21 | 00:00:00 | |
| AA1-15 | 2026-08-30 17:49:27 | 52.25754 | 15.15872 | 14° | 20km/h | 18837m | 5m/s | -53.7°C | 0.9% | 70.5hPa | 2.7V | 18:12:15 | 01:34:20 | 00:00:00 | |
| DB0DAN | 2026-08-30 17:49:25 | 52.25744 | 15.15868 | 18° | 20km/h | 18826m | 4.5m/s | -53.6°C | 1.3% | 70.6hPa | 2.6V | 00:00:00 | 00:00:00 | 00:00:00 | |
| DL1XH-west | 2026-08-30 17:49:21 | 52.25720 | 15.15849 | 35° | 18km/h | 18800m | 4.8m/s | -53.6°C | 0.9% | 70.9hPa | 2.6V | 18:12:15 | 01:34:13 | 00:00:00 | |
| DM0DOS-11 | 2026-08-30 17:49:19 | 52.25713 | 15.15841 | 37° | 18km/h | 18789m | 4.6m/s | -53.7°C | 4.3% | 71hPa | 2.7V | 08:30:00 | 01:34:11 | 00:00:00 | |
| AA1-15 | 2026-08-30 17:49:16 | 52.25707 | 15.15832 | 42° | 15km/h | 18780m | 6m/s | -53.7°C | 0.9% | 71.1hPa | 2.6V | 18:12:15 | 01:34:09 | 00:00:00 | |
| SQ2ODE-11 | 2026-08-30 17:49:15 | 52.25707 | 15.15832 | 43° | 15km/h | 18780m | 6.0m/s | -53.7°C | 1.3% | 71.1hPa | 2.6V | 00:00:00 | 00:00:00 | 00:00:00 | |
| DB0DAN | 2026-08-30 17:49:10 | 52.25684 | 15.15819 | 9° | 20km/h | 18751m | 4.6m/s | -53.6°C | 1.3% | 71.44hPa | 2.6V | 00:00:00 | 00:00:00 | 00:00:00 | |
| DM0DOS-11 | 2026-08-30 17:49:09 | 52.25672 | 15.15817 | 2° | 26km/h | 18740m | 4.2m/s | -53.6°C | 4.2% | 71.6hPa | 2.6V | 08:30:00 | 01:34:01 | 00:00:00 | |
| DL1XH-west | 2026-08-30 17:49:09 | 52.25678 | 15.15817 | 6° | 24km/h | 18746m | 6.1m/s | -53.6°C | 0.9% | 71.5hPa | 2.6V | 18:12:15 | 01:34:02 | 00:00:00 | |
| AA1-15 | 2026-08-30 17:49:05 | 52.25654 | 15.15813 | 14° | 20km/h | 18725m | 4.5m/s | -53.6°C | 0.9% | 71.8hPa | 2.7V | 18:12:15 | 01:33:58 | 00:00:00 | |
| SONDE2-12 | 2026-08-30 17:49:02 | 52.25637 | 15.15805 | 18° | 13km/h | 18705m | 3.9m/s | -53.6°C | 1.4% | 72.0hPa | 2.6V | 00:00:00 | 00:00:00 | 00:00:00 | |
| DL1XH-west | 2026-08-30 17:48:59 | 52.25629 | 15.15803 | 360° | 16km/h | 18695m | 4.8m/s | -53.7°C | 0.9% | 72.1hPa | 2.6V | 18:12:15 | 01:33:52 | 00:00:00 | |
| DB0DAN | 2026-08-30 17:48:55 | 52.25609 | 15.15807 | 343° | 20km/h | 18674m | 6.6m/s | -53.9°C | 1.4% | 72.3hPa | 2.6V | 00:00:00 | 00:00:00 | 00:00:00 | |
| AA1-15 | 2026-08-30 17:48:54 | 52.25604 | 15.15810 | 336° | 20km/h | 18669m | 3.9m/s | -53.9°C | 0.9% | 72.3hPa | 2.6V | 18:12:15 | 01:33:47 | 00:00:00 | |
| OE3JTB-15 | 2026-08-30 17:48:54 | 52.25604 | 15.15810 | 336° | 13km/h | 18669m | 3.8m/s | -53.8°C | 4.2% | 72.3hPa | 2.7V | 00:00:00 | 00:00:00 | 00:00:00 | |
| DL1XH1-15 | 2026-08-30 17:48:53 | 52.25588 | 15.15818 | 349° | 13km/h | 18649m | 5.9m/s | -53.9°C | 4.2% | 72.6hPa | 2.7V | 08:30:00 | 01:33:43 | 00:00:00 | |
| DL1XH-west | 2026-08-30 17:48:48 | 52.25582 | 15.15819 | 3° | 11km/h | 18638m | 5.9m/s | -54.1°C | 1% | 72.7hPa | 2.6V | 18:12:15 | 01:33:41 | 00:00:00 | |
| EDDB2-11 | 2026-08-30 17:48:45 | 52.25575 | 15.15820 | 322° | 7km/h | 18622m | 4.6m/s | -54.1°C | 1.4% | 72.9hPa | 2.6V | 00:00:00 | 00:00:00 | 00:00:00 | |
| AA1-15 | 2026-08-30 17:48:43 | 52.25572 | 15.15825 | 320° | 9km/h | 18611m | 5.4m/s | -54.1°C | 1% | 73hPa | 2.6V | 18:12:15 | 01:33:36 | 00:00:00 | |
| DL1XH1-15 | 2026-08-30 17:48:43 | 52.25568 | 15.15834 | 276° | 7km/h | 18597m | 4.9m/s | -54°C | 4.5% | 73.2hPa | 2.7V | 08:30:00 | 01:33:33 | 00:00:00 | |
| SQ2ODE-11 | 2026-08-30 17:48:43 | 52.25572 | 15.15825 | 321° | 9km/h | 18612m | 5.4m/s | -54.1°C | 1.4% | 73.0hPa | 2.7V | 00:00:00 | 00:00:00 | 00:00:00 | |
| 13BRC | 2026-08-30 17:48:42 | 52.25572 | 15.15825 | 321° | 9km/h | 18612m | 5.4m/s | -54.1°C | 1.4% | 73.0hPa | 2.7V | 00:00:00 | 00:00:00 | 00:00:00 | |
| DB0DAN | 2026-08-30 17:48:40 | 52.25568 | 15.15834 | 277° | 7km/h | 18597m | 4.9m/s | -54°C | 1.4% | 73.17hPa | 2.7V | 00:00:00 | 00:00:00 | 00:00:00 | |
| DL1XH-west | 2026-08-30 17:48:38 | 52.25568 | 15.15839 | 279° | 4km/h | 18587m | 5.5m/s | -54°C | 1% | 73.3hPa | 2.6V | 18:12:15 | 01:33:31 | 00:00:00 | |
| DM0DOS-11 | 2026-08-30 17:48:38 | 52.25568 | 15.15839 | 278° | 4km/h | 18587m | 5.5m/s | -54°C | 4.4% | 73.3hPa | 2.6V | 08:30:00 | 01:33:31 | 00:00:00 | |
| SONCRA | 2026-08-30 17:48:37 | 52.25568 | 15.15842 | 244° | 4km/h | 18577m | 6.0m/s | -54.0°C | 1.4% | 73.4hPa | 2.6V | 00:00:00 | 00:00:00 | 00:00:00 | |
| SONDE2-11 | 2026-08-30 17:48:35 | 52.25569 | 15.15844 | 231° | 5km/h | 18571m | 5.1m/s | -53.9°C | 1.4% | 73.5hPa | 2.6V | 00:00:00 | 00:00:00 | 00:00:00 | |
| KRY50SP-1 | 2026-08-30 17:48:34 | 52.25569 | 15.15844 | 233° | 7km/h | 18572m | 5.1m/s | -53.9°C | 1.4% | 73.5hPa | 2.6V | 00:00:00 | 00:00:00 | 00:00:00 | |
| DM0DOS-11 | 2026-08-30 17:48:33 | 52.25576 | 15.15870 | 249° | 11km/h | 18534m | 5.4m/s | -53.5°C | 4.4% | 73.9hPa | 2.6V | 08:30:00 | 01:33:21 | 00:00:00 | |
| DL1XH1-15 | 2026-08-30 17:48:33 | 52.25575 | 15.15866 | 252° | 11km/h | 18540m | 5.7m/s | -53.6°C | 4.3% | 73.8hPa | 2.7V | 08:30:00 | 01:33:22 | 00:00:00 | |
| AA1-15 | 2026-08-30 17:48:33 | 52.25571 | 15.15850 | 249° | 9km/h | 18561m | 5.6m/s | -53.8°C | 1% | 73.6hPa | 2.6V | 18:12:15 | 01:33:26 | 00:00:00 | |
| SONDE2-12 | 2026-08-30 17:48:31 | 52.25574 | 15.15861 | 245° | 11km/h | 18545m | 4.9m/s | -53.7°C | 1.5% | 73.8hPa | 2.6V | 00:00:00 | 00:00:00 | 00:00:00 | |
| DL1XH-west | 2026-08-30 17:48:28 | 52.25576 | 15.15870 | 249° | 11km/h | 18534m | 5.4m/s | -53.6°C | 1% | 73.9hPa | 2.6V | 18:12:15 | 01:33:21 | 00:00:00 | |
| DB0DAN | 2026-08-30 17:48:25 | 52.25580 | 15.15881 | 235° | 9km/h | 18519m | 6.1m/s | -53.4°C | 1.4% | 74.07hPa | 2.7V | 00:00:00 | 00:00:00 | 00:00:00 | |
| DJ2DS-15 | 2026-08-30 17:48:25 | 52.25580 | 15.15881 | 234° | 9km/h | 18519m | 6.1m/s | -53.4°C | 1.4% | 74.1hPa | 2.7V | 00:00:00 | 00:00:00 | 00:00:00 | |
| OE3JTB-15 | 2026-08-30 17:48:24 | 52.25582 | 15.15884 | 227° | 13km/h | 18514m | 4.8m/s | -53.3°C | 4.3% | 74.1hPa | 2.7V | 00:00:00 | 01:33:17 | 00:00:00 | |
| DM0DOS-11 | 2026-08-30 17:48:23 | 52.25597 | 15.15899 | 202° | 15km/h | 18482m | 4.3m/s | -53.1°C | 4.2% | 74.5hPa | 2.7V | 08:30:00 | 01:33:11 | 00:00:00 | |
| DL1XH1-15 | 2026-08-30 17:48:23 | 52.25594 | 15.15897 | 204° | 13km/h | 18487m | 6.3m/s | -53.1°C | 4.3% | 74.4hPa | 2.7V | 08:30:00 | 01:33:12 | 00:00:00 | |
| AA1-15 | 2026-08-30 17:48:22 | 52.25586 | 15.15889 | 211° | 13km/h | 18503m | 4.7m/s | -53.2°C | 0.9% | 74.3hPa | 2.6V | 18:12:15 | 01:33:15 | 00:00:00 | |
| DL1XH-west | 2026-08-30 17:48:17 | 52.25600 | 15.15902 | 208° | 15km/h | 18477m | 5.7m/s | -53.1°C | 1% | 74.6hPa | 2.7V | 18:12:15 | 01:33:10 | 00:00:00 | |
| SQ2ODE-11 | 2026-08-30 17:48:16 | 52.25600 | 15.15901 | 209° | 15km/h | 18477m | 5.7m/s | -53.1°C | 1.4% | 74.6hPa | 2.6V | 00:00:00 | 00:00:00 | 00:00:00 | |
| EDDB2-11 | 2026-08-30 17:48:14 | 52.25608 | 15.15910 | 218° | 11km/h | 18461m | 5.4m/s | -53.0°C | 1.3% | 74.7hPa | 2.6V | 00:00:00 | 00:00:00 | 00:00:00 | |
| DM0DOS-11 | 2026-08-30 17:48:13 | 52.25615 | 15.15926 | 216° | 9km/h | 18428m | 5.5m/s | -52.8°C | 4.2% | 75.1hPa | 2.6V | 08:30:00 | 01:33:01 | 00:00:00 | |
| DL1XH1-15 | 2026-08-30 17:48:13 | 52.25614 | 15.15924 | 228° | 7km/h | 18434m | 5.8m/s | -52.9°C | 4.2% | 75hPa | 2.6V | 08:30:00 | 01:33:02 | 00:00:00 | |
| AA1-15 | 2026-08-30 17:48:11 | 52.25612 | 15.15919 | 256° | 5km/h | 18444m | 4.2m/s | -52.9°C | 0.9% | 74.9hPa | 2.7V | 18:12:15 | 01:33:04 | 00:00:00 | |
| DL1XH-west | 2026-08-30 17:48:06 | 52.25620 | 15.15931 | 212° | 11km/h | 18417m | 4.9m/s | -52.7°C | 0.9% | 75.3hPa | 2.7V | 18:12:15 | 01:32:59 | 00:00:00 | |
| AA1-15 | 2026-08-30 17:48:00 | 52.25643 | 15.15949 | 197° | 16km/h | 18385m | 5.2m/s | -52.7°C | 0.8% | 75.6hPa | 2.7V | 18:12:15 | 01:32:53 | 00:00:00 | |
| SONDE2-12 | 2026-08-30 17:48:00 | 52.25647 | 15.15951 | 195° | 15km/h | 18379m | 6.3m/s | -52.6°C | 1.4% | 75.7hPa | 2.7V | 00:00:00 | 00:00:00 | 00:00:00 | |
| DM0DOS-11 | 2026-08-30 17:47:58 | 52.25651 | 15.15952 | 199° | 13km/h | 18373m | 5.4m/s | -52.6°C | 0% | 75.7hPa | 2.7V | 08:30:00 | 01:32:51 | 00:00:00 | |
| DL1XH-west | 2026-08-30 17:47:55 | 52.25658 | 15.15958 | 203° | 9km/h | 18357m | 6.4m/s | -52.4°C | 0.8% | 76hPa | 2.6V | 18:12:15 | 01:32:48 | 00:00:00 | |
| AA1-15 | 2026-08-30 17:47:49 | 52.25675 | 15.15965 | 181° | 11km/h | 18324m | 5.8m/s | -52.4°C | 0.8% | 76.4hPa | 2.7V | 18:12:15 | 01:32:42 | 00:00:00 | |
| DM0DOS-11 | 2026-08-30 17:47:48 | 52.25678 | 15.15965 | 172° | 11km/h | 18320m | 3.4m/s | -52.4°C | 0% | 76.4hPa | 2.6V | 08:30:00 | 01:32:41 | 00:00:00 | |
| DL1XH-west | 2026-08-30 17:47:44 | 52.25688 | 15.15955 | 149° | 13km/h | 18299m | 6.3m/s | -52.4°C | 0.8% | 76.6hPa | 2.7V | 18:12:15 | 01:32:37 | 00:00:00 | |
| DL1XH1-15 | 2026-08-30 17:47:43 | 52.25705 | 15.15942 | 153° | 15km/h | 18272m | 5.5m/s | -52.5°C | 3.9% | 77hPa | 2.7V | 08:30:00 | 01:32:32 | 00:00:00 | |
| SP3BTT-10 | 2026-08-30 17:47:43 | 52.25691 | 15.15952 | 160° | 33km/h | 18293m | 4.7m/s | -52.4°C | 4.0% | 76.7hPa | 2.6V | 00:00:00 | 00:00:00 | 00:00:00 | |
| DB0DAN | 2026-08-30 17:47:40 | 52.25702 | 15.15945 | 150° | 15km/h | 18277m | 5.3m/s | -52.6°C | 1.3% | 76.9hPa | 2.6V | 00:00:00 | 00:00:00 | 00:00:00 | |
| AA1-15 | 2026-08-30 17:47:39 | 52.25705 | 15.15942 | 154° | 15km/h | 18272m | 5.5m/s | -52.5°C | 0.7% | 77hPa | 2.7V | 18:12:15 | 01:32:32 | 00:00:00 | |
| DL1XH-west | 2026-08-30 17:47:34 | 52.25724 | 15.15922 | 133° | 22km/h | 18243m | 6.4m/s | -52.8°C | 0.8% | 77.3hPa | 2.6V | 18:12:15 | 01:32:27 | 00:00:00 | |
| DL1XH1-15 | 2026-08-30 17:47:33 | 52.25738 | 15.15886 | 119° | 16km/h | 18217m | 5.7m/s | -52.8°C | 4% | 77.6hPa | 2.7V | 08:30:00 | 01:32:22 | 00:00:00 | |
| SONDE2-12 | 2026-08-30 17:47:29 | 52.25741 | 15.15881 | 132° | 16km/h | 18212m | 4.9m/s | -52.9°C | 1.4% | 77.7hPa | 2.7V | 00:00:00 | 00:00:00 | 00:00:00 | |
| AA1-15 | 2026-08-30 17:47:28 | 52.25741 | 15.15881 | 133° | 18km/h | 18211m | 4.9m/s | -52.9°C | 0.8% | 77.7hPa | 2.7V | 18:12:15 | 01:32:21 | 00:00:00 | |
| SQ2ODE-11 | 2026-08-30 17:47:27 | 52.25740 | 15.15881 | 134° | 16km/h | 18212m | 4.9m/s | -52.9°C | 1.3% | 77.7hPa | 2.6V | 00:00:00 | 00:00:00 | 00:00:00 | |
| DB0DAN | 2026-08-30 17:47:25 | 52.25753 | 15.15862 | 136° | 26km/h | 18196m | 4.3m/s | -53°C | 1.2% | 77.84hPa | 2.6V | 00:00:00 | 00:00:00 | 00:00:00 | |
| DL1XH-west | 2026-08-30 17:47:23 | 52.25762 | 15.15847 | 135° | 26km/h | 18186m | 4.9m/s | -53.3°C | 0.8% | 78hPa | 2.7V | 18:12:15 | 01:32:16 | 00:00:00 | |
| DL1XH1-15 | 2026-08-30 17:47:23 | 52.25779 | 15.15809 | 117° | 31km/h | 18165m | 5.6m/s | -53.4°C | 4.1% | 78.2hPa | 2.6V | 08:30:00 | 01:32:12 | 00:00:00 | |
| AA1-15 | 2026-08-30 17:47:17 | 52.25785 | 15.15786 | 109° | 31km/h | 18154m | 5.3m/s | -53.4°C | 0.8% | 78.4hPa | 2.7V | 18:12:15 | 01:32:10 | 00:00:00 | |
| DL1XH-west | 2026-08-30 17:47:13 | 52.25791 | 15.15737 | 96° | 29km/h | 18133m | 4.1m/s | -54°C | 0.9% | 78.6hPa | 2.6V | 18:12:15 | 01:32:06 | 00:00:00 | |
| DB0DAN | 2026-08-30 17:47:10 | 52.25793 | 15.15698 | 101° | 31km/h | 18118m | 5.1m/s | -54.3°C | 1.4% | 78.8hPa | 2.7V | 00:00:00 | 00:00:00 | 00:00:00 | |
| DM0DOS-11 | 2026-08-30 17:47:09 | 52.25797 | 15.15672 | 105° | 35km/h | 18108m | 3.7m/s | -54.4°C | 0% | 0hPa | 2.6V | 08:30:00 | 01:32:01 | 00:00:00 | |
| AA1-15 | 2026-08-30 17:47:06 | 52.25802 | 15.15643 | 100° | 38km/h | 18098m | 4.8m/s | -54.4°C | 1% | 79hPa | 2.7V | 18:12:15 | 01:31:59 | 00:00:00 | |
| SQ2ODE-11 | 2026-08-30 17:47:05 | 52.25802 | 15.15642 | 101° | 38km/h | 18098m | 4.8m/s | -54.4°C | 1.4% | 79.1hPa | 2.6V | 00:00:00 | 00:00:00 | 00:00:00 | |
| SONCRA | 2026-08-30 17:47:04 | 52.25805 | 15.15595 | 93° | 38km/h | 18083m | 4.6m/s | -54.5°C | 1.5% | 79.2hPa | 2.6V | 00:00:00 | 00:00:00 | 00:00:00 | |
| DM0DOS-11 | 2026-08-30 17:47:03 | 52.25805 | 15.15514 | 83° | 40km/h | 18057m | 6m/s | 0°C | 0% | 0hPa | 2.6V | 08:30:00 | 01:31:51 | 00:00:00 | |
| DL1XH-west | 2026-08-30 17:47:03 | 52.25805 | 15.15595 | 94° | 38km/h | 18083m | 4.6m/s | -54.5°C | 1% | 79.2hPa | 2.6V | 18:12:15 | 01:31:56 | 00:00:00 | |
| SONDE2-11 | 2026-08-30 17:47:02 | 52.25806 | 15.15579 | 92° | 40km/h | 18078m | 5.6m/s | -54.6°C | 1.5% | 79.3hPa | 2.6V | 00:00:00 | 00:00:00 | 00:00:00 | |
| SQ2ODE-11 | 2026-08-30 17:47:00 | 52.25806 | 15.15562 | 92° | 40km/h | 18073m | 4.7m/s | -54.6°C | 1.5% | 79.4hPa | 2.6V | 00:00:00 | 00:00:00 | 00:00:00 | |
| DL1XH1-15 | 2026-08-30 17:46:59 | 52.25799 | 15.15451 | 80° | 37km/h | 18036m | 6m/s | -54.5°C | 4.4% | 79.8hPa | 2.6V | 08:30:00 | 01:31:47 | 00:00:00 | |
| SONDE2-12 | 2026-08-30 17:46:57 | 52.25803 | 15.15497 | 81° | 38km/h | 18053m | 4.0m/s | -54.5°C | 1.6% | 79.6hPa | 2.7V | 00:00:00 | 00:00:00 | 00:00:00 | |
| DC4HF-4 | 2026-08-30 17:46:56 | 52.25800 | 15.15466 | 81° | 37km/h | 18042m | 5.1m/s | -54.5°C | 1.4% | 79.8hPa | 2.7V | 00:00:00 | 00:00:00 | 00:00:00 | |
| DB0DAN | 2026-08-30 17:46:55 | 52.25800 | 15.15466 | 81° | 35km/h | 18042m | 5.1m/s | -54.5°C | 1.4% | 79.76hPa | 2.7V | 00:00:00 | 00:00:00 | 00:00:00 | |
| AA1-15 | 2026-08-30 17:46:55 | 52.25800 | 15.15466 | 81° | 37km/h | 18042m | 5.1m/s | -54.5°C | 1% | 79.8hPa | 2.7V | 18:12:15 | 01:31:48 | 00:00:00 | |
| DM0DOS-11 | 2026-08-30 17:46:53 | 52.25787 | 15.15358 | 78° | 44km/h | 18007m | 4m/s | 0°C | 0% | 0hPa | 2.6V | 00:00:00 | 01:31:41 | 00:00:00 | |
| DL1XH-west | 2026-08-30 17:46:52 | 52.25795 | 15.15421 | 79° | 37km/h | 18026m | 5.5m/s | -54.4°C | 1% | 80hPa | 2.6V | 18:12:15 | 01:31:45 | 00:00:00 | |
| S3001 | 2026-08-30 17:46:50 | 52.25792 | 15.15391 | 78° | 37km/h | 18017m | 4.2m/s | -54.5°C | 1.5% | 80.1hPa | 2.7V | 00:00:00 | 00:00:00 | 00:00:00 | |
| DL1XH1-15 | 2026-08-30 17:46:49 | 52.25780 | 15.15288 | 78° | 44km/h | 17987m | 5.3m/s | -54.5°C | 4.5% | 80.5hPa | 2.7V | 08:30:00 | 01:31:37 | 00:00:00 | |
| AA1-15 | 2026-08-30 17:46:45 | 52.25782 | 15.15306 | 80° | 42km/h | 17992m | 4.9m/s | -54.5°C | 1.1% | 80.4hPa | 2.7V | 18:12:15 | 01:31:38 | 00:00:00 | |
| DL1XH-west | 2026-08-30 17:46:41 | 52.25772 | 15.15240 | 72° | 38km/h | 17972m | 4.4m/s | -54.5°C | 1.1% | 80.6hPa | 2.6V | 18:12:15 | 01:31:34 | 00:00:00 | |
| DB0DAN | 2026-08-30 17:46:40 | 52.25769 | 15.15225 | 71° | 37km/h | 17967m | 5.8m/s | -54.5°C | 1.5% | 80.68hPa | 2.6V | 00:00:00 | 00:00:00 | 00:00:00 | |
| AA1-15 | 2026-08-30 17:46:34 | 52.25753 | 15.15135 | 76° | 40km/h | 17936m | 4.6m/s | -54.5°C | 1% | 81.1hPa | 2.7V | 18:12:15 | 01:31:27 | 00:00:00 | |
| DL1XH-west | 2026-08-30 17:46:31 | 52.25746 | 15.15088 | 76° | 38km/h | 17921m | 5.5m/s | -54.4°C | 1% | 81.3hPa | 2.6V | 18:12:15 | 01:31:24 | 00:00:00 | |
| SONDE2-12 | 2026-08-30 17:46:26 | 52.25735 | 15.15011 | 78° | 38km/h | 17895m | 5.3m/s | -54.3°C | 1.6% | 81.6hPa | 2.6V | 00:00:00 | 00:00:00 | 00:00:00 | |
| DB0DAN | 2026-08-30 17:46:25 | 52.25733 | 15.14996 | 77° | 37km/h | 17891m | 4.3m/s | -54.3°C | 1.4% | 81.69hPa | 2.6V | 00:00:00 | 00:00:00 | 00:00:00 | |
| AA1-15 | 2026-08-30 17:46:23 | 52.25728 | 15.14966 | 71° | 37km/h | 17881m | 4.6m/s | -54.4°C | 1.1% | 81.8hPa | 2.7V | 18:12:15 | 01:31:16 | 00:00:00 | |
| DL1XH-west | 2026-08-30 17:46:21 | 52.25721 | 15.14936 | 68° | 40km/h | 17871m | 4.5m/s | -54.4°C | 1.1% | 81.9hPa | 2.6V | 18:12:15 | 01:31:14 | 00:00:00 | |
| DC4HF-4 | 2026-08-30 17:46:20 | 52.25713 | 15.14906 | 65° | 38km/h | 17861m | 4.2m/s | -54.4°C | 1.5% | 82.0hPa | 2.6V | 00:00:00 | 00:00:00 | 00:00:00 | |
| KRY50SP-1 | 2026-08-30 17:46:18 | 52.25713 | 15.14906 | 66° | 38km/h | 17861m | 4.2m/s | -54.4°C | 1.5% | 82.0hPa | 2.6V | 00:00:00 | 00:00:00 | 00:00:00 | |
| EDDB2-12 | 2026-08-30 17:46:17 | 52.25705 | 15.14876 | 64° | 42km/h | 17850m | 5.1m/s | -54.4°C | 1.5% | 82.2hPa | 2.6V | 00:00:00 | 00:00:00 | 00:00:00 | |
| SP3WXH-11 | 2026-08-30 17:46:16 | 52.25700 | 15.14861 | 63° | 42km/h | 17845m | 3.7m/s | -54.3°C | 1.5% | 82.2hPa | 2.6V | 00:00:00 | 00:00:00 | 00:00:00 | |
| D01LWL | 2026-08-30 17:46:15 | 52.25695 | 15.14846 | 61° | 40km/h | 17841m | 5.4m/s | -54.3°C | 1.5% | 82.3hPa | 2.6V | 00:00:00 | 00:00:00 | 00:00:00 | |
| SP3BTT-10 | 2026-08-30 17:46:14 | 52.25690 | 15.14831 | 60° | 35km/h | 17836m | 4.7m/s | -54.2°C | 4.5% | 82.3hPa | 2.6V | 00:00:00 | 00:00:00 | 08:30:00 | |
| KRY50SP-1 | 2026-08-30 17:46:13 | 52.25690 | 15.14831 | 61° | 40km/h | 17836m | 4.8m/s | -54.2°C | 1.5% | 82.4hPa | 2.7V | 00:00:00 | 00:00:00 | 00:00:00 | |
| DL1XH1-15 | 2026-08-30 17:46:12 | 52.25658 | 15.14736 | 63° | 37km/h | 17800m | 3.9m/s | -54°C | 4.3% | 82.8hPa | 2.7V | 08:30:00 | 01:31:00 | 00:00:00 | |
| AA1-15 | 2026-08-30 17:46:12 | 52.25680 | 15.14803 | 59° | 40km/h | 17825m | 4.3m/s | -54.2°C | 1% | 82.5hPa | 2.7V | 18:12:15 | 01:31:05 | 00:00:00 | |
| DB0DAN | 2026-08-30 17:46:10 | 52.25670 | 15.14776 | 62° | 35km/h | 17814m | 4.7m/s | -54.1°C | 1.4% | 82.67hPa | 2.6V | 00:00:00 | 00:00:00 | 00:00:00 | |
| DL1XH-west | 2026-08-30 17:46:10 | 52.25670 | 15.14776 | 62° | 37km/h | 17814m | 4.7m/s | -54.1°C | 1% | 82.7hPa | 2.6V | 18:12:15 | 01:31:03 | 00:00:00 | |
| SQ2ODE-11 | 2026-08-30 17:46:10 | 52.25670 | 15.14776 | 63° | 37km/h | 17814m | 4.7m/s | 0°C | 0% | 82.7hPa | 2.7V | 00:00:00 | 00:00:00 | 00:00:00 | |
| KRY50SP-1 | 2026-08-30 17:46:08 | 52.25666 | 15.14762 | 65° | 37km/h | 17809m | 5.0m/s | -54.0°C | 1.4% | 82.7hPa | 2.7V | 00:00:00 | 00:00:00 | 00:00:00 | |
| SP6BVK | 2026-08-30 17:46:07 | 52.25662 | 15.14749 | 65° | 37km/h | 17804m | 5.0m/s | -54.0°C | 1.4% | 82.8hPa | 2.7V | 00:00:00 | 00:00:00 | 00:00:00 | |
| SQ2ODE-11 | 2026-08-30 17:46:04 | 52.25650 | 15.14709 | 68° | 35km/h | 17790m | 4.4m/s | 0°C | 0% | 83.0hPa | 2.7V | 00:00:00 | 00:00:00 | 00:00:00 | |
| KRY50SP-1 | 2026-08-30 17:46:03 | 52.25647 | 15.14695 | 67° | 37km/h | 17785m | 5.8m/s | -53.8°C | 1.4% | 83.0hPa | 2.7V | 00:00:00 | 00:00:00 | 00:00:00 | |
| DL1XH1-15 | 2026-08-30 17:46:02 | 52.25615 | 15.14595 | 60° | 37km/h | 17748m | 6.3m/s | -53.8°C | 4.4% | 83.5hPa | 2.7V | 08:30:00 | 01:30:50 | 00:00:00 | |
| AA1-15 | 2026-08-30 17:46:01 | 52.25633 | 15.14652 | 63° | 40km/h | 17770m | 5.7m/s | -53.8°C | 1% | 83.2hPa | 2.6V | 18:12:15 | 01:30:54 | 00:00:00 | |
| DL1XH-west | 2026-08-30 17:45:59 | 52.25624 | 15.14623 | 62° | 40km/h | 17759m | 6.1m/s | -53.8°C | 1% | 83.3hPa | 2.7V | 18:12:15 | 01:30:52 | 00:00:00 | |
| SONDE2-12 | 2026-08-30 17:45:55 | 52.25606 | 15.14571 | 58° | 31km/h | 17738m | 5.5m/s | -53.8°C | 1.5% | 83.6hPa | 2.6V | 00:00:00 | 00:00:00 | 00:00:00 | |
| DB0DAN | 2026-08-30 17:45:55 | 52.25606 | 15.14571 | 58° | 31km/h | 17738m | 5.5m/s | -53.8°C | 1.4% | 83.62hPa | 2.6V | 00:00:00 | 00:00:00 | 00:00:00 | |
| AA1-15 | 2026-08-30 17:45:50 | 52.25585 | 15.14514 | 62° | 37km/h | 17712m | 4.9m/s | -53.8°C | 1% | 84hPa | 2.6V | 18:12:15 | 01:30:43 | 00:00:00 | |
| DL1XH-west | 2026-08-30 17:45:48 | 52.25577 | 15.14487 | 66° | 38km/h | 17701m | 4.9m/s | -53.8°C | 1% | 84.1hPa | 2.6V | 18:12:15 | 01:30:41 | 00:00:00 | |
| S3001 | 2026-08-30 17:45:48 | 52.25572 | 15.14472 | 63° | 40km/h | 17696m | 4.7m/s | -53.8°C | 1.5% | 84.2hPa | 2.7V | 00:00:00 | 00:00:00 | 00:00:00 | |
| EDDB2-12 | 2026-08-30 17:45:46 | 52.25567 | 15.14457 | 61° | 42km/h | 17691m | 5.2m/s | -53.7°C | 1.5% | 84.2hPa | 2.7V | 00:00:00 | 00:00:00 | 00:00:00 | |
| SP3WXH-11 | 2026-08-30 17:45:45 | 52.25562 | 15.14441 | 58° | 42km/h | 17686m | 4.6m/s | -53.7°C | 1.5% | 84.3hPa | 2.7V | 00:00:00 | 00:00:00 | 00:00:00 | |
| DC4HF-4 | 2026-08-30 17:45:44 | 52.25551 | 15.14414 | 52° | 37km/h | 17676m | 4.6m/s | -53.6°C | 1.4% | 84.5hPa | 2.7V | 00:00:00 | 00:00:00 | 00:00:00 | |
| SQ2ODE-11 | 2026-08-30 17:45:42 | 52.25551 | 15.14414 | 54° | 38km/h | 17676m | 4.6m/s | 0°C | 0% | 0hPa | 2.7V | 00:00:00 | 00:00:00 | 00:00:00 | |
| DB0DAN | 2026-08-30 17:45:40 | 52.25533 | 15.14380 | 49° | 31km/h | 17660m | 6.4m/s | -53.4°C | 1.5% | 84.63hPa | 2.7V | 00:00:00 | 00:00:00 | 00:00:00 | |
| AA1-15 | 2026-08-30 17:45:39 | 52.25528 | 15.14370 | 52° | 31km/h | 17655m | 4.1m/s | -53.4°C | 1% | 84.7hPa | 2.6V | 18:12:15 | 01:30:32 | 00:00:00 | |
| DL1XH1-15 | 2026-08-30 17:45:39 | 52.25505 | 15.14313 | 58° | 35km/h | 17628m | 5.5m/s | -53.1°C | 4.3% | 85.1hPa | 2.6V | 08:30:00 | 01:30:27 | 00:00:00 | |
| DL1XH-west | 2026-08-30 17:45:38 | 52.25523 | 15.14359 | 53° | 33km/h | 17650m | 5.9m/s | -53.4°C | 1% | 84.8hPa | 2.6V | 18:12:15 | 01:30:31 | 00:00:00 | |
| DL1XH-west | 2026-08-30 17:45:28 | 52.25478 | 15.14241 | 60° | 33km/h | 17596m | 5.8m/s | -52.8°C | 0.9% | 85.5hPa | 2.6V | 18:12:15 | 01:30:21 | 00:00:00 | |
| DB0DAN | 2026-08-30 17:45:25 | 52.25467 | 15.14204 | 67° | 33km/h | 17580m | 5m/s | -52.7°C | 1.4% | 85.71hPa | 2.7V | 00:00:00 | 00:00:00 | 00:00:00 | |
| SONDE2-12 | 2026-08-30 17:45:24 | 52.25463 | 15.14191 | 71° | 35km/h | 17575m | 6.2m/s | -52.6°C | 1.5% | 85.8hPa | 2.6V | 00:00:00 | 00:00:00 | 00:00:00 | |
| DL1XH-west | 2026-08-30 17:45:17 | 52.25446 | 15.14100 | 62° | 31km/h | 17539m | 5.4m/s | -52.3°C | 0.8% | 86.2hPa | 2.6V | 18:12:15 | 01:30:10 | 00:00:00 | |
| S3001 | 2026-08-30 17:45:17 | 52.25442 | 15.14089 | 57° | 31km/h | 17534m | 5.1m/s | -52.3°C | 1.4% | 86.3hPa | 2.6V | 00:00:00 | 00:00:00 | 00:00:00 | |
| 13BRC | 2026-08-30 17:45:15 | 52.25437 | 15.14078 | 54° | 31km/h | 17528m | 5.5m/s | -52.2°C | 1.3% | 86.4hPa | 2.6V | 00:00:00 | 00:00:00 | 00:00:00 | |
| SP3WXH-11 | 2026-08-30 17:45:14 | 52.25432 | 15.14069 | 49° | 29km/h | 17523m | 5.1m/s | -52.2°C | 1.3% | 86.5hPa | 2.6V | 00:00:00 | 00:00:00 | 00:00:00 | |
| KRY50SP-1 | 2026-08-30 17:45:13 | 52.25427 | 15.14059 | 51° | 33km/h | 17518m | 5.8m/s | -52.2°C | 1.3% | 86.5hPa | 2.6V | 00:00:00 | 00:00:00 | 00:00:00 | |
| SQ2ODE-11 | 2026-08-30 17:45:12 | 52.25427 | 15.14059 | 51° | 33km/h | 17518m | 5.8m/s | 0°C | 0% | 0hPa | 2.6V | 00:00:00 | 00:00:00 | 00:00:00 | |
| DB0DAN | 2026-08-30 17:45:10 | 52.25412 | 15.14026 | 59° | 31km/h | 17501m | 4.6m/s | -52.1°C | 1.3% | 86.77hPa | 2.6V | 00:00:00 | 00:00:00 | 00:00:00 | |
| AA1-15 | 2026-08-30 17:45:06 | 52.25398 | 15.13970 | 71° | 37km/h | 17480m | 5.8m/s | -52.2°C | 0.8% | 87.1hPa | 2.6V | 18:12:15 | 01:29:59 | 00:00:00 | |
| DL1XH1-15 | 2026-08-30 17:45:03 | 52.25382 | 15.13903 | 60° | 29km/h | 17452m | 5.3m/s | -52.2°C | 3.9% | 87.4hPa | 2.6V | 08:30:00 | 01:29:54 | 00:00:00 | |
| DL1XH-west | 2026-08-30 17:44:56 | 52.25362 | 15.13854 | 58° | 29km/h | 17425m | 6.2m/s | -52.1°C | 0.7% | 87.8hPa | 2.6V | 18:12:15 | 01:29:49 | 00:00:00 | |
| DB0DAN | 2026-08-30 17:44:55 | 52.25358 | 15.13843 | 63° | 31km/h | 17419m | 5m/s | -52.2°C | 1.3% | 87.88hPa | 2.7V | 00:00:00 | 00:00:00 | 00:00:00 | |
| AA1-15 | 2026-08-30 17:44:55 | 52.25358 | 15.13843 | 63° | 33km/h | 17419m | 5m/s | -52.2°C | 0.7% | 87.9hPa | 2.7V | 18:12:15 | 01:29:48 | 00:00:00 | |
| SONDE2-12 | 2026-08-30 17:44:53 | 52.25352 | 15.13818 | 69° | 31km/h | 17409m | 5.8m/s | -52.5°C | 1.4% | 88.0hPa | 2.6V | 00:00:00 | 00:00:00 | 00:00:00 | |
| DL1XH-west | 2026-08-30 17:44:45 | 52.25339 | 15.13714 | 85° | 27km/h | 17365m | 6.2m/s | -52.7°C | 0.8% | 88.6hPa | 2.6V | 18:12:15 | 01:29:38 | 00:00:00 | |
| AA1-15 | 2026-08-30 17:44:44 | 52.25338 | 15.13703 | 85° | 27km/h | 17360m | 4.5m/s | -52.8°C | 0.8% | 88.6hPa | 2.6V | 18:12:15 | 01:29:37 | 00:00:00 | |
| EDDB2-12 | 2026-08-30 17:44:44 | 52.25338 | 15.13703 | 84° | 26km/h | 17360m | 4.5m/s | -52.8°C | 1.4% | 88.6hPa | 2.6V | 00:00:00 | 00:00:00 | 00:00:00 | |
| SP3BTT-10 | 2026-08-30 17:44:43 | 52.25337 | 15.13692 | 84° | 31km/h | 17355m | 6.1m/s | -52.7°C | 4.0% | 88.7hPa | 2.6V | 00:00:00 | 00:00:00 | 00:00:00 | |
| DB0DAN | 2026-08-30 17:44:40 | 52.25334 | 15.13659 | 83° | 24km/h | 17339m | 5.1m/s | -52.9°C | 1.4% | 88.96hPa | 2.6V | 00:00:00 | 00:00:00 | 00:00:00 | |
| KRY50SP-1 | 2026-08-30 17:44:39 | 52.25334 | 15.13658 | 84° | 26km/h | 17339m | 5.1m/s | -52.9°C | 1.4% | 89.0hPa | 2.6V | 00:00:00 | 00:00:00 | 00:00:00 | |
| SQ2ODE-11 | 2026-08-30 17:44:38 | 52.25332 | 15.13637 | 81° | 27km/h | 17328m | 5.6m/s | 0°C | 0% | 0hPa | 2.6V | 00:00:00 | 00:00:00 | 00:00:00 | |
| DM0DOS-11 | 2026-08-30 17:44:36 | 52.25327 | 15.13596 | 74° | 26km/h | 17308m | 5.6m/s | 0°C | 0% | 0hPa | 2.6V | 00:00:00 | 01:29:27 | 00:00:00 | |
| DL1XH-west | 2026-08-30 17:44:35 | 52.25328 | 15.13606 | 75° | 24km/h | 17313m | 4.5m/s | -53.2°C | 0.9% | 89.3hPa | 2.7V | 18:12:15 | 01:29:28 | 00:00:00 | |
| AA1-15 | 2026-08-30 17:44:34 | 52.25327 | 15.13596 | 75° | 26km/h | 17308m | 5.6m/s | -53.2°C | 0.8% | 89.4hPa | 2.6V | 18:12:15 | 01:29:27 | 00:00:00 | |
| DL1XH1-15 | 2026-08-30 17:44:33 | 52.25317 | 15.13538 | 71° | 29km/h | 17276m | 5.3m/s | -54.1°C | 4.4% | 89.8hPa | 2.6V | 08:30:00 | 01:29:21 | 00:00:00 | |
| DL1XH-west | 2026-08-30 17:44:24 | 52.25305 | 15.13490 | 67° | 37km/h | 17256m | 5.4m/s | -54°C | 1.1% | 90.1hPa | 2.7V | 18:12:15 | 01:29:17 | 00:00:00 | |
| AA1-15 | 2026-08-30 17:44:23 | 52.25301 | 15.13476 | 67° | 37km/h | 17250m | 5.8m/s | -54°C | 1.1% | 90.2hPa | 2.6V | 18:12:15 | 01:29:16 | 00:00:00 | |
| SONDE2-12 | 2026-08-30 17:44:22 | 52.25297 | 15.13463 | 64° | 35km/h | 17245m | 4.1m/s | -53.9°C | 1.6% | 90.2hPa | 2.6V | 00:00:00 | 00:00:00 | 00:00:00 | |
| DL1XH-west | 2026-08-30 17:44:14 | 52.25266 | 15.13370 | 58° | 31km/h | 17200m | 5.3m/s | -53.6°C | 1% | 90.9hPa | 2.6V | 18:12:15 | 01:29:07 | 00:00:00 | |
| AA1-15 | 2026-08-30 17:44:12 | 52.25257 | 15.13347 | 58° | 35km/h | 17189m | 3.7m/s | -53.5°C | 1% | 91hPa | 2.7V | 18:12:15 | 01:29:05 | 00:00:00 | |
| DL1XH1-15 | 2026-08-30 17:44:11 | 52.25232 | 15.13277 | 61° | 29km/h | 17158m | 5.8m/s | -53.3°C | 4.2% | 91.5hPa | 2.7V | 08:30:00 | 01:28:59 | 00:00:00 | |
| DL1XH-west | 2026-08-30 17:44:03 | 52.25223 | 15.13245 | 67° | 27km/h | 17142m | 4.4m/s | -53.4°C | 1% | 91.7hPa | 2.6V | 18:12:15 | 01:28:56 | 00:00:00 | |
| AA1-15 | 2026-08-30 17:44:01 | 52.25216 | 15.13225 | 58° | 27km/h | 17131m | 4.8m/s | -53.3°C | 0.9% | 91.9hPa | 2.6V | 18:12:15 | 01:28:54 | 00:00:00 | |
| DL1XH1-15 | 2026-08-30 17:44:00 | 52.25190 | 15.13162 | 60° | 35km/h | 17098m | 4.4m/s | -53.3°C | 4.2% | 92.4hPa | 2.6V | 08:30:00 | 01:28:48 | 00:00:00 | |
| SONCRA | 2026-08-30 17:43:57 | 52.25199 | 15.13184 | 52° | 31km/h | 17108m | 4.8m/s | -53.3°C | 1.4% | 92.2hPa | 2.6V | 00:00:00 | 00:00:00 | 00:00:00 | |
| DC4HF-4 | 2026-08-30 17:43:56 | 52.25190 | 15.13162 | 60° | 33km/h | 17098m | 4.4m/s | -53.3°C | 1.4% | 92.4hPa | 2.6V | 00:00:00 | 00:00:00 | 00:00:00 | |
| DB0DAN | 2026-08-30 17:43:55 | 52.25190 | 15.13162 | 60° | 33km/h | 17098m | 4.4m/s | -53.3°C | 1.4% | 92.36hPa | 2.6V | 00:00:00 | 00:00:00 | 00:00:00 | |
| DL1XH-west | 2026-08-30 17:43:52 | 52.25179 | 15.13128 | 66° | 27km/h | 17082m | 4.2m/s | -53.3°C | 1% | 92.6hPa | 2.7V | 18:12:15 | 01:28:45 | 00:00:00 | |
| SONDE2-12 | 2026-08-30 17:43:51 | 52.25177 | 15.13117 | 71° | 26km/h | 17077m | 6.2m/s | -53.4°C | 1.5% | 92.6hPa | 2.6V | 00:00:00 | 00:00:00 | 00:00:00 | |
| AA1-15 | 2026-08-30 17:43:50 | 52.25175 | 15.13107 | 74° | 26km/h | 17072m | 4.9m/s | -53.4°C | 0.9% | 92.7hPa | 2.6V | 18:12:15 | 01:28:43 | 00:00:00 | |
| DL1XH-west | 2026-08-30 17:43:41 | 52.25160 | 15.13021 | 70° | 33km/h | 17025m | 6.1m/s | -53.5°C | 1% | 93.4hPa | 2.7V | 18:12:15 | 01:28:34 | 00:00:00 | |
| DB0DAN | 2026-08-30 17:43:40 | 52.25157 | 15.13008 | 66° | 33km/h | 17019m | 4.9m/s | -53.5°C | 1.5% | 93.47hPa | 2.6V | 00:00:00 | 00:00:00 | 00:00:00 | |
| AA1-15 | 2026-08-30 17:43:39 | 52.25154 | 15.12995 | 66° | 35km/h | 17015m | 4.4m/s | -53.6°C | 1% | 93.5hPa | 2.6V | 18:12:15 | 01:28:32 | 00:00:00 | |
| KRY50SP-1 | 2026-08-30 17:43:37 | 52.25150 | 15.12982 | 70° | 35km/h | 17010m | 5.0m/s | -53.6°C | 1.5% | 93.6hPa | 2.7V | 00:00:00 | 00:00:00 | 00:00:00 | |
| SQ2ODE-11 | 2026-08-30 17:43:34 | 52.25142 | 15.12947 | 70° | 27km/h | 16995m | 4.7m/s | 0°C | 0% | 0hPa | 2.7V | 00:00:00 | 00:00:00 | 00:00:00 | |
| 13BRC | 2026-08-30 17:43:32 | 52.25137 | 15.12927 | 75° | 26km/h | 16986m | 4.1m/s | -53.6°C | 1.5% | 94.0hPa | 2.7V | 00:00:00 | 00:00:00 | 00:00:00 | |
| DL1XH1-15 | 2026-08-30 17:43:31 | 52.25116 | 15.12832 | 69° | 35km/h | 16946m | 5.7m/s | -53.4°C | 4.3% | 94.6hPa | 2.7V | 08:30:00 | 01:28:18 | 00:00:00 | |
| DL1XH-west | 2026-08-30 17:43:30 | 52.25131 | 15.12897 | 70° | 29km/h | 16971m | 5.5m/s | -53.5°C | 1% | 94.2hPa | 2.7V | 18:12:15 | 01:28:23 | 00:00:00 | |
| AA1-15 | 2026-08-30 17:43:28 | 52.25126 | 15.12872 | 71° | 35km/h | 16961m | 5.1m/s | -53.4°C | 1% | 94.3hPa | 2.6V | 18:12:15 | 01:28:21 | 00:00:00 | |
| DB0DAN | 2026-08-30 17:43:25 | 52.25116 | 15.12832 | 70° | 33km/h | 16946m | 5.7m/s | -53.4°C | 1.5% | 94.57hPa | 2.7V | 00:00:00 | 00:00:00 | 00:00:00 | |
| SONDE2-11 | 2026-08-30 17:43:25 | 52.25116 | 15.12832 | 69° | 35km/h | 16946m | 5.7m/s | -53.4°C | 1.5% | 94.6hPa | 2.6V | 00:00:00 | 00:00:00 | 00:00:00 | |
| KRY50SP-1 | 2026-08-30 17:43:22 | 52.25108 | 15.12793 | 69° | 33km/h | 16931m | 4.3m/s | -53.3°C | 1.5% | 94.8hPa | 2.6V | 00:00:00 | 00:00:00 | 00:00:00 | |
| OE3JTB-15 | 2026-08-30 17:43:21 | 52.25105 | 15.12780 | 70° | 31km/h | 16926m | 4.9m/s | -53.3°C | 4.2% | 94.8hPa | 2.6V | 00:00:00 | 01:28:14 | 00:00:00 | |
| DL1XH1-15 | 2026-08-30 17:43:20 | 52.25085 | 15.12714 | 60° | 29km/h | 16896m | 4m/s | -53.5°C | 4.2% | 95.3hPa | 2.6V | 08:30:00 | 01:28:08 | 00:00:00 | |
| SONDE2-12 | 2026-08-30 17:43:20 | 52.25102 | 15.12769 | 71° | 29km/h | 16921m | 5.0m/s | -53.4°C | 1.5% | 94.9hPa | 2.7V | 00:00:00 | 00:00:00 | 00:00:00 | |
| DL1XH-west | 2026-08-30 17:43:19 | 52.25099 | 15.12757 | 69° | 29km/h | 16916m | 5.4m/s | -53.4°C | 1% | 95hPa | 2.7V | 18:12:15 | 01:28:12 | 00:00:00 | |
| AA1-15 | 2026-08-30 17:43:17 | 52.25093 | 15.12735 | 61° | 29km/h | 16906m | 4.8m/s | -53.4°C | 1% | 95.2hPa | 2.7V | 18:12:15 | 01:28:10 | 00:00:00 | |
| KRY50SP-1 | 2026-08-30 17:43:15 | 52.25089 | 15.12725 | 62° | 29km/h | 16901m | 5.7m/s | -53.5°C | 1.5% | 95.3hPa | 2.6V | 00:00:00 | 00:00:00 | 00:00:00 | |
| 13BRC | 2026-08-30 17:43:12 | 52.25077 | 15.12694 | 55° | 31km/h | 16886m | 4.3m/s | -53.6°C | 1.5% | 95.5hPa | 2.6V | 00:00:00 | 00:00:00 | 00:00:00 | |
| DB0DAN | 2026-08-30 17:43:10 | 52.25064 | 15.12660 | 61° | 33km/h | 16871m | 4m/s | -53.7°C | 1.5% | 95.69hPa | 2.6V | 00:00:00 | 00:00:00 | 00:00:00 | |
| DL1XH1-15 | 2026-08-30 17:43:10 | 52.25042 | 15.12590 | 62° | 44km/h | 16846m | 5.2m/s | -53.7°C | 4.3% | 96.1hPa | 2.7V | 08:30:00 | 01:27:58 | 00:00:00 | |
| DL1XH-west | 2026-08-30 17:43:09 | 52.25060 | 15.12648 | 60° | 37km/h | 16866m | 5.5m/s | -53.7°C | 1% | 95.8hPa | 2.6V | 18:12:15 | 01:28:02 | 00:00:00 | |
| AA1-15 | 2026-08-30 17:43:06 | 52.25047 | 15.12606 | 64° | 42km/h | 16851m | 5m/s | -53.7°C | 1% | 96hPa | 2.7V | 18:12:15 | 01:27:59 | 00:00:00 | |
| EDDB2-11 | 2026-08-30 17:43:04 | 52.25031 | 15.12558 | 62° | 42km/h | 16838m | 5.4m/s | -53.7°C | 1.5% | 96.2hPa | 2.7V | 00:00:00 | 00:00:00 | 00:00:00 | |
| SP6BVK | 2026-08-30 17:43:01 | 52.25026 | 15.12542 | 65° | 40km/h | 16833m | 4.4m/s | -53.7°C | 1.5% | 96.3hPa | 2.7V | 00:00:00 | 00:00:00 | 00:00:00 | |
| DL1XH1-15 | 2026-08-30 17:43:00 | 52.24994 | 15.12454 | 53° | 35km/h | 16799m | 4.2m/s | -53.5°C | 4.3% | 96.8hPa | 2.7V | 08:30:00 | 01:27:48 | 00:00:00 | |
| DL1XH-west | 2026-08-30 17:42:58 | 52.25008 | 15.12490 | 59° | 35km/h | 16814m | 4.8m/s | -53.6°C | 1% | 96.6hPa | 2.6V | 18:12:15 | 01:27:51 | 00:00:00 | |
| DB0DAN | 2026-08-30 17:42:55 | 52.24993 | 15.12454 | 53° | 35km/h | 16799m | 4.2m/s | -53.5°C | 1.5% | 96.76hPa | 2.7V | 00:00:00 | 00:00:00 | 00:00:00 | |
| AA1-15 | 2026-08-30 17:42:55 | 52.24993 | 15.12454 | 53° | 35km/h | 16799m | 4.2m/s | -53.5°C | 1% | 96.8hPa | 2.7V | 18:12:15 | 01:27:48 | 00:00:00 | |
| SONDE2-11 | 2026-08-30 17:42:54 | 52.24988 | 15.12442 | 54° | 35km/h | 16794m | 6.4m/s | -53.5°C | 1.5% | 96.9hPa | 2.7V | 00:00:00 | 00:00:00 | 00:00:00 | |
| KRY50SP-1 | 2026-08-30 17:42:53 | 52.24988 | 15.12442 | 55° | 35km/h | 16794m | 6.4m/s | -53.5°C | 1.5% | 96.9hPa | 2.7V | 00:00:00 | 00:00:00 | 00:00:00 | |
| 13BRC | 2026-08-30 17:42:51 | 52.24978 | 15.12418 | 56° | 35km/h | 16785m | 4.9m/s | -53.4°C | 1.5% | 97.0hPa | 2.7V | 00:00:00 | 00:00:00 | 00:00:00 | |
| DL1XH1-15 | 2026-08-30 17:42:50 | 52.24941 | 15.12339 | 51° | 37km/h | 16749m | 5.8m/s | -53.3°C | 4.3% | 97.5hPa | 2.7V | 08:30:00 | 01:27:38 | 00:00:00 | |
| SONDE2-12 | 2026-08-30 17:42:49 | 52.24962 | 15.12385 | 53° | 33km/h | 16770m | 5.9m/s | -53.4°C | 1.6% | 97.2hPa | 2.6V | 00:00:00 | 00:00:00 | 00:00:00 | |
| DL1XH-west | 2026-08-30 17:42:47 | 52.24952 | 15.12362 | 53° | 35km/h | 16760m | 5.9m/s | -53.4°C | 1% | 97.4hPa | 2.6V | 18:12:15 | 01:27:40 | 00:00:00 | |
| AA1-15 | 2026-08-30 17:42:44 | 52.24935 | 15.12328 | 51° | 37km/h | 16744m | 4.1m/s | -53.3°C | 1% | 97.6hPa | 2.7V | 18:12:15 | 01:27:37 | 00:00:00 | |
| DC4HF-4 | 2026-08-30 17:42:44 | 52.24929 | 15.12316 | 48° | 37km/h | 16740m | 6.0m/s | 0°C | -1.0% | 97.7hPa | 2.7V | 00:00:00 | 00:00:00 | 00:00:00 | |
| SQ2ODE-11 | 2026-08-30 17:42:42 | 52.24929 | 15.12316 | 49° | 37km/h | 16740m | 6.0m/s | 0°C | 0% | 0hPa | 2.7V | 00:00:00 | 00:00:00 | 00:00:00 | |
| DB0DAN | 2026-08-30 17:42:40 | 52.24910 | 15.12281 | 49° | 35km/h | 16724m | 4.8m/s | -53.2°C | 1.5% | 97.89hPa | 2.7V | 00:00:00 | 00:00:00 | 00:00:00 | |
| DL1XH1-15 | 2026-08-30 17:42:40 | 52.24880 | 15.12229 | 48° | 35km/h | 16700m | 4.5m/s | -53.1°C | 4.2% | 98.3hPa | 2.6V | 08:30:00 | 01:27:28 | 00:00:00 | |
| DL1XH-west | 2026-08-30 17:42:36 | 52.24886 | 15.12239 | 50° | 35km/h | 16704m | 4.1m/s | -53.1°C | 1% | 98.2hPa | 2.7V | 18:12:15 | 01:27:29 | 00:00:00 | |
| AA1-15 | 2026-08-30 17:42:33 | 52.24868 | 15.12209 | 42° | 35km/h | 16690m | 4.7m/s | -53°C | 0.9% | 98.4hPa | 2.6V | 18:12:15 | 01:27:26 | 00:00:00 | |
| EDDB2-11 | 2026-08-30 17:42:33 | 52.24862 | 15.12199 | 43° | 35km/h | 16685m | 6.4m/s | -53.0°C | 1.5% | 98.5hPa | 2.7V | 00:00:00 | 00:00:00 | 00:00:00 | |
| 13BRC | 2026-08-30 17:42:31 | 52.24862 | 15.12199 | 44° | 35km/h | 16685m | 6.4m/s | -53.0°C | 1.5% | 98.5hPa | 2.7V | 00:00:00 | 00:00:00 | 00:00:00 | |
| DL1XH1-15 | 2026-08-30 17:42:30 | 52.24811 | 15.12126 | 36° | 38km/h | 16648m | 4.4m/s | -52.9°C | 4.2% | 99.1hPa | 2.7V | 08:30:00 | 01:27:18 | 00:00:00 | |
| DL1XH-west | 2026-08-30 17:42:25 | 52.24811 | 15.12126 | 37° | 38km/h | 16648m | 4.4m/s | -52.9°C | 1% | 99.1hPa | 2.7V | 18:12:15 | 01:27:18 | 00:00:00 | |
| AA1-15 | 2026-08-30 17:42:23 | 52.24797 | 15.12108 | 40° | 35km/h | 16638m | 5.3m/s | -53.1°C | 1% | 99.2hPa | 2.6V | 18:12:15 | 01:27:16 | 00:00:00 | |
| SQ2ODE-11 | 2026-08-30 17:42:21 | 52.24790 | 15.12098 | 41° | 35km/h | 16634m | 4.7m/s | 0°C | 0% | 0hPa | 2.6V | 00:00:00 | 00:00:00 | 00:00:00 | |
| DL1XH1-15 | 2026-08-30 17:42:20 | 52.24741 | 15.12038 | 39° | 38km/h | 16597m | 6.3m/s | -53.1°C | 4.2% | 99.8hPa | 2.6V | 08:30:00 | 01:27:08 | 00:00:00 | |
| SONDE2-12 | 2026-08-30 17:42:18 | 52.24763 | 15.12064 | 38° | 33km/h | 16613m | 4.3m/s | -53.2°C | 1.6% | 99.6hPa | 2.6V | 00:00:00 | 00:00:00 | 00:00:00 | |
| DF8AY | 2026-08-30 17:42:16 | 52.24748 | 15.12047 | 36° | 37km/h | 16602m | 4.5m/s | 0°C | 0% | 0hPa | 2.6V | 18:12:15 | 01:27:09 | 00:00:00 | |
| DL1XH-west | 2026-08-30 17:42:15 | 52.24741 | 15.12038 | 39° | 38km/h | 16597m | 6.3m/s | -53.1°C | 1% | 0hPa | 2.6V | 18:12:15 | 01:27:08 | 00:00:00 | |
| AA1-15 | 2026-08-30 17:42:12 | 52.24719 | 15.12005 | 43° | 40km/h | 16581m | 4.4m/s | -53°C | 1% | 100.1hPa | 2.7V | 18:12:15 | 01:27:05 | 00:00:00 | |
| DL1XH-west | 2026-08-30 17:42:04 | 52.24668 | 15.11929 | 36° | 31km/h | 16540m | 5m/s | -52.8°C | 1% | 0hPa | 2.6V | 18:12:15 | 01:26:57 | 00:00:00 | |
| AA1-15 | 2026-08-30 17:42:01 | 52.24650 | 15.11906 | 36° | 31km/h | 16525m | 5.9m/s | -52.7°C | 1% | 101hPa | 2.7V | 18:12:15 | 01:26:54 | 00:00:00 | |
| SP6BVK | 2026-08-30 17:41:58 | 52.24637 | 15.11890 | 39° | 33km/h | 16515m | 6.0m/s | -52.7°C | 1.5% | 101.1hPa | 2.7V | 00:00:00 | 00:00:00 | 00:00:00 | |
| KRY50SP-1 | 2026-08-30 17:41:57 | 52.24630 | 15.11882 | 42° | 31km/h | 16509m | 4.4m/s | -52.6°C | 1.5% | 101.2hPa | 2.7V | 00:00:00 | 00:00:00 | 00:00:00 | |
| DB0DAN | 2026-08-30 17:41:55 | 52.24613 | 15.11859 | 41° | 26km/h | 16495m | 4.3m/s | -52.5°C | 1.5% | 101.4hPa | 2.7V | 00:00:00 | 00:00:00 | 00:00:00 | |
| DL1XH-west | 2026-08-30 17:41:54 | 52.24608 | 15.11851 | 46° | 27km/h | 16490m | 5.2m/s | 0°C | 0% | 0hPa | 2.7V | 18:12:15 | 01:26:47 | 00:00:00 | |
| SONCRA | 2026-08-30 17:41:53 | 52.24604 | 15.11843 | 47° | 27km/h | 16486m | 3.9m/s | -52.4°C | 1.4% | 101.5hPa | 2.6V | 00:00:00 | 00:00:00 | 00:00:00 | |
| SONDE2-11 | 2026-08-30 17:41:52 | 52.24594 | 15.11826 | 45° | 27km/h | 16476m | 4.6m/s | -52.3°C | 1.4% | 101.7hPa | 2.6V | 00:00:00 | 00:00:00 | 00:00:00 | |
| DL1XH1-15 | 2026-08-30 17:41:50 | 52.24564 | 15.11773 | 50° | 27km/h | 16445m | 4.4m/s | -52.1°C | 4% | 102.2hPa | 2.6V | 08:30:00 | 01:26:38 | 00:00:00 | |
| AA1-15 | 2026-08-30 17:41:50 | 52.24589 | 15.11817 | 50° | 29km/h | 16470m | 6.1m/s | -52.3°C | 0.9% | 101.8hPa | 2.7V | 18:12:15 | 01:26:43 | 00:00:00 | |
| SONDE2-12 | 2026-08-30 17:41:47 | 52.24568 | 15.11782 | 47° | 27km/h | 16450m | 5.8m/s | -52.2°C | 1.5% | 102.1hPa | 2.7V | 00:00:00 | 00:00:00 | 00:00:00 | |
| DL1XH-west | 2026-08-30 17:41:43 | 52.24555 | 15.11756 | 48° | 27km/h | 16435m | 4.5m/s | 0°C | 0% | 0hPa | 2.7V | 18:12:15 | 01:26:36 | 00:00:00 | |
| DB0DAN | 2026-08-30 17:41:40 | 52.24542 | 15.11729 | 56° | 27km/h | 16421m | 4.3m/s | -52°C | 1.4% | 102.57hPa | 2.7V | 00:00:00 | 00:00:00 | 00:00:00 | |
| DL1XH1-15 | 2026-08-30 17:41:40 | 52.24520 | 15.11682 | 50° | 29km/h | 16395m | 6.4m/s | -52.1°C | 4.1% | 103hPa | 2.7V | 08:30:00 | 01:26:28 | 00:00:00 | |
| AA1-15 | 2026-08-30 17:41:39 | 52.24538 | 15.11719 | 52° | 27km/h | 16416m | 6m/s | -52°C | 0.9% | 102.6hPa | 2.7V | 18:12:15 | 01:26:32 | 00:00:00 | |
| DL1XH-west | 2026-08-30 17:41:33 | 52.24510 | 15.11663 | 50° | 31km/h | 16386m | 4.9m/s | 0°C | 0% | 0hPa | 2.6V | 18:12:15 | 01:26:26 | 00:00:00 | |
| EDDB2-11 | 2026-08-30 17:41:31 | 52.24498 | 15.11633 | 62° | 26km/h | 16371m | 4.6m/s | -52.3°C | 1.5% | 103.3hPa | 2.7V | 00:00:00 | 00:00:00 | 00:00:00 | |
| DL1XH1-15 | 2026-08-30 17:41:30 | 52.24487 | 15.11576 | 71° | 31km/h | 16345m | 5.2m/s | -52.3°C | 4.2% | 103.8hPa | 2.7V | 08:30:00 | 01:26:18 | 00:00:00 | |
| AA1-15 | 2026-08-30 17:41:29 | 52.24496 | 15.11622 | 69° | 27km/h | 16365m | 5.4m/s | -52.3°C | 0.9% | 103.4hPa | 2.6V | 18:12:15 | 01:26:22 | 00:00:00 | |
| SQ2ODE-11 | 2026-08-30 17:41:28 | 52.24496 | 15.11622 | 70° | 27km/h | 16366m | 5.4m/s | 0°C | 0% | 0hPa | 2.7V | 00:00:00 | 00:00:00 | 00:00:00 | |
| DB0DAN | 2026-08-30 17:41:25 | 52.24487 | 15.11576 | 71° | 31km/h | 16345m | 5.2m/s | -52.3°C | 1.5% | 103.76hPa | 2.7V | 00:00:00 | 00:00:00 | 00:00:00 | |
| OE3JTB-15 | 2026-08-30 17:41:24 | 52.24484 | 15.11563 | 70° | 38km/h | 16340m | 5.2m/s | -52.2°C | 4.2% | 103.8hPa | 2.7V | 00:00:00 | 00:00:00 | 00:00:00 | |
| KRY50SP-1 | 2026-08-30 17:41:23 | 52.24484 | 15.11563 | 71° | 33km/h | 16340m | 5.2m/s | -52.3°C | 1.5% | 103.9hPa | 2.7V | 00:00:00 | 00:00:00 | 00:00:00 | |
| SONDE2-11 | 2026-08-30 17:41:21 | 52.24468 | 15.11512 | 62° | 37km/h | 16320m | 5.1m/s | -52.2°C | 1.5% | 104.2hPa | 2.7V | 00:00:00 | 00:00:00 | 00:00:00 | |
| DL1XH1-15 | 2026-08-30 17:41:20 | 52.24447 | 15.11443 | 64° | 40km/h | 16297m | 3.7m/s | -52.2°C | 4% | 104.6hPa | 2.7V | 08:30:00 | 01:26:08 | 00:00:00 | |
| AA1-15 | 2026-08-30 17:41:18 | 52.24460 | 15.11485 | 63° | 37km/h | 16311m | 5.2m/s | -52.2°C | 1% | 104.3hPa | 2.6V | 18:12:15 | 01:26:11 | 00:00:00 | |
| SONDE2-12 | 2026-08-30 17:41:16 | 52.24452 | 15.11457 | 64° | 38km/h | 16302m | 5.9m/s | -52.2°C | 1.6% | 104.5hPa | 2.6V | 00:00:00 | 00:00:00 | 00:00:00 | |
| SQ2ODE-11 | 2026-08-30 17:41:12 | 52.24438 | 15.11413 | 63° | 40km/h | 16288m | 3.9m/s | 0°C | 0% | 0hPa | 2.6V | 00:00:00 | 00:00:00 | 00:00:00 | |
| DB0DAN | 2026-08-30 17:41:10 | 52.24423 | 15.11369 | 59° | 38km/h | 16273m | 4.4m/s | -52°C | 1.4% | 104.94hPa | 2.6V | 00:00:00 | 00:00:00 | 00:00:00 | |
| DL1XH1-15 | 2026-08-30 17:41:10 | 52.24399 | 15.11299 | 63° | 37km/h | 16249m | 4.8m/s | -52°C | 0% | 105.3hPa | 2.6V | 08:30:00 | 01:25:58 | 00:00:00 | |
| AA1-15 | 2026-08-30 17:41:08 | 52.24413 | 15.11340 | 60° | 42km/h | 16263m | 4m/s | -51.9°C | 0.9% | 105.1hPa | 2.7V | 18:12:15 | 01:26:01 | 00:00:00 | |
| EDDB2-12 | 2026-08-30 17:41:07 | 52.24403 | 15.11312 | 61° | 37km/h | 16253m | 4.3m/s | -52.0°C | 1.5% | 105.3hPa | 2.7V | 00:00:00 | 00:00:00 | 00:00:00 | |
| SP3WXH-11 | 2026-08-30 17:41:06 | 52.24403 | 15.11312 | 61° | 37km/h | 16253m | 4.3m/s | -52.0°C | 1.5% | 105.3hPa | 2.7V | 00:00:00 | 00:00:00 | 00:00:00 | |
| DL2RXE-15 | 2026-08-30 17:41:02 | 52.24391 | 15.11271 | 69° | 37km/h | 16240m | 3.5m/s | -52.1°C | 1.5% | 105.5hPa | 2.7V | 00:00:00 | 00:00:00 | 00:00:00 | |
| KRY50SP-1 | 2026-08-30 17:41:01 | 52.24388 | 15.11257 | 69° | 37km/h | 16235m | 5.8m/s | -52.2°C | 1.5% | 105.6hPa | 2.7V | 00:00:00 | 00:00:00 | 00:00:00 | |
| DL1XH1-15 | 2026-08-30 17:41:00 | 52.24359 | 15.11159 | 65° | 42km/h | 16200m | 4.9m/s | -52.9°C | 0% | 106.1hPa | 2.7V | 08:30:00 | 01:25:48 | 00:00:00 | |
| AA1-15 | 2026-08-30 17:40:57 | 52.24368 | 15.11188 | 63° | 38km/h | 16210m | 4.7m/s | -52.8°C | 1.1% | 106hPa | 2.7V | 18:12:15 | 01:25:50 | 00:00:00 | |
| DB0DAN | 2026-08-30 17:40:55 | 52.24359 | 15.11159 | 65° | 40km/h | 16200m | 4.9m/s | -52.9°C | 1.6% | 106.12hPa | 2.7V | 00:00:00 | 00:00:00 | 00:00:00 | |
| SONCRA | 2026-08-30 17:40:51 | 52.24346 | 15.11097 | 78° | 38km/h | 16182m | 5.4m/s | -52.9°C | 1.6% | 106.4hPa | 2.7V | 00:00:00 | 00:00:00 | 00:00:00 | |
| DL1XH1-15 | 2026-08-30 17:40:50 | 52.24337 | 15.11002 | 76° | 38km/h | 16153m | 5.3m/s | -52.8°C | 0% | 0hPa | 2.7V | 08:30:00 | 01:25:38 | 00:00:00 | |
| AA1-15 | 2026-08-30 17:40:46 | 52.24339 | 15.11017 | 78° | 38km/h | 16157m | 4m/s | -52.9°C | 1.1% | 106.9hPa | 2.6V | 18:12:15 | 01:25:39 | 00:00:00 | |
| SONDE2-12 | 2026-08-30 17:40:45 | 52.24336 | 15.11002 | 76° | 37km/h | 16153m | 5.3m/s | -52.8°C | 1.7% | 106.9hPa | 2.6V | 00:00:00 | 00:00:00 | 00:00:00 | |
| SQ2ODE-11 | 2026-08-30 17:40:44 | 52.24336 | 15.11002 | 77° | 38km/h | 16153m | 5.3m/s | 0°C | 0% | 0hPa | 2.6V | 00:00:00 | 00:00:00 | 00:00:00 | |
| DL2RXE-15 | 2026-08-30 17:40:41 | 52.24329 | 15.10955 | 74° | 42km/h | 16138m | 4.6m/s | -52.7°C | 1.6% | 107.2hPa | 2.6V | 00:00:00 | 00:00:00 | 00:00:00 | |
| DL1XH1-15 | 2026-08-30 17:40:40 | 52.24306 | 15.10840 | 71° | 42km/h | 16103m | 5.6m/s | -52.5°C | 0% | 0hPa | 2.6V | 08:30:00 | 01:25:28 | 00:00:00 | |
| DB0DAN | 2026-08-30 17:40:40 | 52.24323 | 15.10923 | 73° | 38km/h | 16127m | 3.9m/s | -52.7°C | 1.6% | 107.34hPa | 2.6V | 00:00:00 | 00:00:00 | 00:00:00 | |
| AA1-15 | 2026-08-30 17:40:35 | 52.24306 | 15.10840 | 71° | 42km/h | 16103m | 5.6m/s | -52.6°C | 1.1% | 107.8hPa | 2.6V | 18:12:15 | 01:25:28 | 00:00:00 | |
| SP3WXH-11 | 2026-08-30 17:40:35 | 52.24306 | 15.10840 | 71° | 42km/h | 16103m | 5.6m/s | -52.6°C | 1.6% | 107.8hPa | 2.7V | 00:00:00 | 00:00:00 | 00:00:00 | |
| KRY50SP-1 | 2026-08-30 17:40:34 | 52.24306 | 15.10840 | 72° | 42km/h | 16103m | 5.6m/s | -52.6°C | 1.6% | 107.8hPa | 2.7V | 00:00:00 | 00:00:00 | 00:00:00 | |
| KRY50SP-1 | 2026-08-30 17:40:29 | 52.24289 | 15.10760 | 70° | 40km/h | 16079m | 6.0m/s | -52.5°C | 1.6% | 108.2hPa | 2.7V | 00:00:00 | 00:00:00 | 00:00:00 | |
| DL1XH1-15 | 2026-08-30 17:40:28 | 52.24266 | 15.10679 | 62° | 46km/h | 16055m | 5.1m/s | -52.7°C | 0% | 0hPa | 2.7V | 08:30:00 | 01:25:18 | 00:00:00 | |
| 13BRC | 2026-08-30 17:40:27 | 52.24281 | 15.10728 | 68° | 44km/h | 16070m | 4.5m/s | -52.6°C | 1.6% | 108.3hPa | 2.7V | 00:00:00 | 00:00:00 | 00:00:00 | |
| DB0DAN | 2026-08-30 17:40:25 | 52.24267 | 15.10679 | 62° | 44km/h | 16055m | 5.1m/s | -52.7°C | 1.6% | 108.58hPa | 2.7V | 00:00:00 | 00:00:00 | 00:00:00 | |
| AA1-15 | 2026-08-30 17:40:24 | 52.24261 | 15.10662 | 61° | 47km/h | 16050m | 4.5m/s | -52.7°C | 1.2% | 108.7hPa | 2.6V | 18:12:15 | 01:25:17 | 00:00:00 | |
| OE3JTB-15 | 2026-08-30 17:40:23 | 52.24255 | 15.10645 | 61° | 44km/h | 16045m | 5.9m/s | -52.6°C | 4.3% | 108.7hPa | 2.7V | 00:00:00 | 01:25:16 | 00:00:00 | |
| DL1XH1-15 | 2026-08-30 17:40:20 | 52.24208 | 15.10513 | 63° | 44km/h | 16005m | 5.6m/s | -52.5°C | 0% | 0hPa | 2.7V | 08:30:00 | 01:25:08 | 00:00:00 | |
| SONDE2-12 | 2026-08-30 17:40:14 | 52.24203 | 15.10496 | 65° | 42km/h | 16000m | 4.5m/s | -52.5°C | 1.6% | 109.5hPa | 2.7V | 00:00:00 | 00:00:00 | 00:00:00 | |
| AA1-15 | 2026-08-30 17:40:13 | 52.24199 | 15.10480 | 66° | 44km/h | 15995m | 6.2m/s | -52.6°C | 1.1% | 109.6hPa | 2.7V | 18:12:15 | 01:25:06 | 00:00:00 | |
| AA1-15 | 2026-08-30 17:40:02 | 52.24147 | 15.10306 | 64° | 38km/h | 15941m | 6.1m/s | -52.5°C | 1.1% | 110.5hPa | 2.7V | 18:12:15 | 01:24:55 | 00:00:00 | |
| AA1-15 | 2026-08-30 17:39:51 | 52.24104 | 15.10132 | 68° | 40km/h | 15888m | 5.8m/s | -52.4°C | 1.1% | 111.4hPa | 2.7V | 18:12:15 | 01:24:44 | 00:00:00 | |
| SONCRA | 2026-08-30 17:39:49 | 52.24096 | 15.10104 | 64° | 33km/h | 15878m | 5.4m/s | -52.4°C | 1.6% | 111.6hPa | 2.7V | 00:00:00 | 00:00:00 | 00:00:00 | |
| SONDE2-11 | 2026-08-30 17:39:48 | 52.24088 | 15.10079 | 63° | 33km/h | 15868m | 5.8m/s | -52.3°C | 1.6% | 111.7hPa | 2.7V | 00:00:00 | 00:00:00 | 00:00:00 | |
| DF8AY | 2026-08-30 17:39:44 | 52.24078 | 15.10039 | 72° | 37km/h | 15853m | 4.7m/s | -52.2°C | 1.1% | 112hPa | 2.7V | 18:12:15 | 01:24:37 | 00:00:00 | |
| SONDE2-12 | 2026-08-30 17:39:43 | 52.24075 | 15.10024 | 72° | 38km/h | 15848m | 5.6m/s | -52.2°C | 1.7% | 112.1hPa | 2.6V | 00:00:00 | 00:00:00 | 00:00:00 | |
| AA1-15 | 2026-08-30 17:39:40 | 52.24066 | 15.09976 | 75° | 38km/h | 15834m | 4m/s | -52.1°C | 1% | 112.3hPa | 2.6V | 18:12:15 | 01:24:33 | 00:00:00 | |
| DF8AY | 2026-08-30 17:39:34 | 52.24049 | 15.09887 | 73° | 37km/h | 15805m | 6.2m/s | -51.8°C | 1.1% | 112.8hPa | 2.6V | 18:12:15 | 01:24:27 | 00:00:00 | |
| AA1-15 | 2026-08-30 17:39:29 | 52.24037 | 15.09802 | 78° | 47km/h | 15780m | 4m/s | -51.7°C | 1.1% | 113.2hPa | 2.6V | 18:12:15 | 01:24:22 | 00:00:00 | |
| KRY50SP-1 | 2026-08-30 17:39:28 | 52.24037 | 15.09802 | 79° | 47km/h | 15780m | 4.0m/s | -51.7°C | 1.6% | 113.2hPa | 2.7V | 00:00:00 | 00:00:00 | 00:00:00 | |
| DB0DAN | 2026-08-30 17:39:25 | 52.24028 | 15.09730 | 76° | 40km/h | 15760m | 5.9m/s | -51.9°C | 1.6% | 113.59hPa | 2.7V | 00:00:00 | 00:00:00 | 00:00:00 | |
| DF8AY | 2026-08-30 17:39:19 | 52.24011 | 15.09630 | 76° | 46km/h | 15730m | 6m/s | -52°C | 1.1% | 114.1hPa | 2.7V | 18:12:15 | 01:24:12 | 00:00:00 | |
| AA1-15 | 2026-08-30 17:39:18 | 52.24009 | 15.09611 | 78° | 47km/h | 15726m | 3.9m/s | -52°C | 1.1% | 114.2hPa | 2.6V | 18:12:15 | 01:24:11 | 00:00:00 | |
| SONDE2-12 | 2026-08-30 17:39:12 | 52.23993 | 15.09484 | 76° | 55km/h | 15695m | 4.7m/s | -51.9°C | 1.7% | 114.7hPa | 2.6V | 00:00:00 | 00:00:00 | 00:00:00 | |
| DB0DAN | 2026-08-30 17:39:10 | 52.23987 | 15.09439 | 78° | 53km/h | 15685m | 4.6m/s | -51.9°C | 1.6% | 114.9hPa | 2.6V | 00:00:00 | 00:00:00 | 00:00:00 | |
| DF8AY | 2026-08-30 17:39:09 | 52.23984 | 15.09417 | 78° | 55km/h | 15680m | 4.7m/s | -51.9°C | 1.2% | 115hPa | 2.8V | 18:12:15 | 01:24:02 | 00:00:00 | |
| AA1-15 | 2026-08-30 17:39:08 | 52.23981 | 15.09395 | 76° | 55km/h | 15676m | 4.8m/s | -51.9°C | 1.2% | 115hPa | 2.7V | 18:12:15 | 01:24:01 | 00:00:00 | |
| AA1-15 | 2026-08-30 17:38:58 | 52.23948 | 15.09172 | 76° | 55km/h | 15630m | 4.5m/s | -51.6°C | 1.1% | 115.9hPa | 2.6V | 18:12:15 | 01:23:51 | 00:00:00 | |
| DB0DAN | 2026-08-30 17:38:55 | 52.23937 | 15.09109 | 72° | 51km/h | 15616m | 4.2m/s | -51.5°C | 1.6% | 116.17hPa | 2.7V | 00:00:00 | 00:00:00 | 00:00:00 | |
| DF8AY | 2026-08-30 17:38:51 | 52.23922 | 15.09026 | 73° | 53km/h | 15597m | 4.1m/s | -51.5°C | 1.1% | 116.5hPa | 2.8V | 18:12:15 | 01:23:44 | 00:00:00 | |
| AA1-15 | 2026-08-30 17:38:47 | 52.23908 | 15.08939 | 75° | 57km/h | 15577m | 4.4m/s | -51.5°C | 1.1% | 116.9hPa | 2.6V | 18:12:15 | 01:23:40 | 00:00:00 | |
| SONCRA | 2026-08-30 17:38:47 | 52.23904 | 15.08916 | 76° | 57km/h | 15573m | 4.6m/s | -51.6°C | 1.6% | 116.9hPa | 2.6V | 00:00:00 | 00:00:00 | 00:00:00 | |
| SONDE2-11 | 2026-08-30 17:38:45 | 52.23900 | 15.08893 | 74° | 57km/h | 15568m | 5.4m/s | -51.7°C | 1.6% | 117.0hPa | 2.6V | 00:00:00 | 00:00:00 | 00:00:00 | |
| SONDE2-12 | 2026-08-30 17:38:41 | 52.23884 | 15.08806 | 71° | 53km/h | 15549m | 5.0m/s | -51.8°C | 1.8% | 117.4hPa | 2.6V | 00:00:00 | 00:00:00 | 00:00:00 | |
| DB0DAN | 2026-08-30 17:38:40 | 52.23879 | 15.08785 | 69° | 49km/h | 15544m | 4.9m/s | -51.9°C | 1.7% | 117.46hPa | 2.6V | 00:00:00 | 00:00:00 | 00:00:00 | |
| AA1-15 | 2026-08-30 17:38:36 | 52.23862 | 15.08707 | 70° | 49km/h | 15527m | 5.3m/s | -51.9°C | 1.3% | 117.8hPa | 2.6V | 18:12:15 | 01:23:29 | 00:00:00 | |
| DF8AY | 2026-08-30 17:38:35 | 52.23853 | 15.08667 | 70° | 51km/h | 15517m | 5.4m/s | -52.1°C | 1.2% | 117.9hPa | 2.6V | 18:12:15 | 01:23:27 | 00:00:00 | |
| S3001 | 2026-08-30 17:38:33 | 52.23848 | 15.08647 | 69° | 53km/h | 15512m | 4.6m/s | -52.1°C | 1.7% | 118.0hPa | 2.7V | 00:00:00 | 00:00:00 | 00:00:00 | |
| EDDB2-12 | 2026-08-30 17:38:32 | 52.23837 | 15.08604 | 67° | 57km/h | 15503m | 4.2m/s | -52.3°C | 1.7% | 118.2hPa | 2.7V | 00:00:00 | 00:00:00 | 00:00:00 | |
| SP3WXH-11 | 2026-08-30 17:38:31 | 52.23832 | 15.08582 | 69° | 57km/h | 15498m | 5.4m/s | -52.3°C | 1.7% | 118.3hPa | 2.7V | 00:00:00 | 00:00:00 | 00:00:00 | |
| D01LWL | 2026-08-30 17:38:30 | 52.23827 | 15.08560 | 70° | 57km/h | 15494m | 3.6m/s | 0°C | -1.0% | -1.0hPa | 2.7V | 00:00:00 | 00:00:00 | 00:00:00 | |
| DB0DAN | 2026-08-30 17:38:25 | 52.23806 | 15.08469 | 70° | 58km/h | 15474m | 4.1m/s | -52.6°C | 1.8% | 118.74hPa | 2.7V | 00:00:00 | 00:00:00 | 00:00:00 | |
| AA1-15 | 2026-08-30 17:38:25 | 52.23806 | 15.08469 | 70° | 60km/h | 15474m | 4.1m/s | -52.6°C | 1.4% | 118.7hPa | 2.7V | 18:12:15 | 01:23:18 | 00:00:00 | |
| DF8AY | 2026-08-30 17:38:24 | 52.23800 | 15.08445 | 69° | 64km/h | 15469m | 6.4m/s | -52.6°C | 1.4% | 118.8hPa | 2.6V | 18:12:15 | 01:23:17 | 00:00:00 | |
| AA1-15 | 2026-08-30 17:38:14 | 52.23738 | 15.08185 | 67° | 66km/h | 15420m | 4.8m/s | -52.8°C | 1.5% | 119.7hPa | 2.7V | 18:12:15 | 01:23:07 | 00:00:00 | |
| DF8AY | 2026-08-30 17:38:13 | 52.23731 | 15.08160 | 68° | 64km/h | 15415m | 5.2m/s | -52.8°C | 1.5% | 119.8hPa | 2.7V | 18:12:15 | 01:23:06 | 00:00:00 | |
| DB0DAN | 2026-08-30 17:38:10 | 52.23711 | 15.08086 | 63° | 64km/h | 15400m | 3.4m/s | -52.7°C | 1.8% | 120.08hPa | 2.6V | 00:00:00 | 00:00:00 | 00:00:00 | |
| SONDE2-12 | 2026-08-30 17:38:10 | 52.23711 | 15.08086 | 63° | 68km/h | 15401m | 3.4m/s | -52.7°C | 2.0% | 120.1hPa | 2.8V | 00:00:00 | 00:00:00 | 00:00:00 | |
| AA1-15 | 2026-08-30 17:38:03 | 52.23660 | 15.07915 | 65° | 66km/h | 15366m | 6.2m/s | -52.9°C | 1.6% | 120.7hPa | 2.8V | 18:12:15 | 01:22:56 | 00:00:00 | |
| DF8AY | 2026-08-30 17:38:03 | 52.23652 | 15.07891 | 64° | 66km/h | 15361m | 3.7m/s | -52.9°C | 1.5% | 120.8hPa | 2.7V | 18:12:15 | 01:22:55 | 00:00:00 | |
| S3001 | 2026-08-30 17:38:02 | 52.23652 | 15.07891 | 64° | 66km/h | 15362m | 3.7m/s | -52.9°C | 1.8% | 120.8hPa | 2.7V | 00:00:00 | 00:00:00 | 00:00:00 | |
| SP3WXH-11 | 2026-08-30 17:38:00 | 52.23631 | 15.07819 | 63° | 62km/h | 15346m | 5.4m/s | -52.8°C | 1.9% | 121.1hPa | 2.7V | 00:00:00 | 00:00:00 | 00:00:00 | |
| KRY50SP-1 | 2026-08-30 17:37:58 | 52.23631 | 15.07819 | 64° | 64km/h | 15346m | 5.4m/s | -52.8°C | 1.8% | 121.1hPa | 2.7V | 00:00:00 | 00:00:00 | 00:00:00 | |
| DB0DAN | 2026-08-30 17:37:55 | 52.23602 | 15.07728 | 63° | 58km/h | 15328m | 3.2m/s | -52.7°C | 1.9% | 121.43hPa | 2.7V | 00:00:00 | 00:00:00 | 00:00:00 | |
| DF8AY | 2026-08-30 17:37:52 | 52.23580 | 15.07664 | 58° | 57km/h | 15313m | 4.2m/s | -52.6°C | 1.7% | 121.7hPa | 2.6V | 18:12:15 | 01:22:45 | 00:00:00 | |
| DL1XH-west | 2026-08-30 17:37:42 | 52.23499 | 15.07478 | 55° | 60km/h | 15265m | 5.1m/s | -52.4°C | 1.7% | 122.6hPa | 2.6V | 18:12:15 | 01:22:35 | 00:00:00 | |
| DB0DAN | 2026-08-30 17:37:40 | 52.23482 | 15.07436 | 58° | 57km/h | 15255m | 5.2m/s | -52.4°C | 1.9% | 122.79hPa | 2.6V | 00:00:00 | 00:00:00 | 00:00:00 | |
| SONDE2-12 | 2026-08-30 17:37:39 | 52.23474 | 15.07415 | 58° | 58km/h | 15251m | 3.9m/s | -52.4°C | 2.1% | 122.9hPa | 2.6V | 00:00:00 | 00:00:00 | 00:00:00 | |
| DL2RXE-15 | 2026-08-30 17:37:38 | 52.23474 | 15.07415 | 59° | 58km/h | 15251m | 3.9m/s | -52.4°C | 1.9% | 122.9hPa | 2.6V | 00:00:00 | 00:00:00 | 00:00:00 | |
| KRY50SP-1 | 2026-08-30 17:37:36 | 52.23458 | 15.07375 | 57° | 57km/h | 15242m | 3.5m/s | -52.4°C | 1.9% | 123.0hPa | 2.6V | 00:00:00 | 00:00:00 | 00:00:00 | |
| SQ2ODE-11 | 2026-08-30 17:37:35 | 52.23450 | 15.07356 | 57° | 57km/h | 15238m | 4.8m/s | 0°C | 0% | 0hPa | 2.6V | 00:00:00 | 00:00:00 | 00:00:00 | |
| DL1XH1-15 | 2026-08-30 17:37:34 | 52.23387 | 15.07219 | 54° | 64km/h | 15205m | 4.6m/s | -52.5°C | 0% | 0hPa | 2.6V | 08:30:00 | 01:22:22 | 00:00:00 | |
| DL1XH-west | 2026-08-30 17:37:31 | 52.23406 | 15.07260 | 53° | 60km/h | 15215m | 4.6m/s | -52.5°C | 1.7% | 123.5hPa | 2.7V | 18:12:15 | 01:22:24 | 00:00:00 | |
| SP6BVK | 2026-08-30 17:37:30 | 52.23405 | 15.07260 | 54° | 60km/h | 15215m | 4.6m/s | -52.5°C | 1.9% | 123.6hPa | 2.7V | 00:00:00 | 00:00:00 | 00:00:00 | |
| SP3WXH-11 | 2026-08-30 17:37:29 | 52.23378 | 15.07198 | 56° | 60km/h | 15201m | 4.9m/s | -52.6°C | 2.0% | 123.8hPa | 2.7V | 00:00:00 | 00:00:00 | 00:00:00 | |
| KRY50SP-1 | 2026-08-30 17:37:25 | 52.23361 | 15.07156 | 58° | 60km/h | 15191m | 5.3m/s | -52.6°C | 2.0% | 124.0hPa | 2.7V | 00:00:00 | 00:00:00 | 00:00:00 | |
| DL1XH1-15 | 2026-08-30 17:37:24 | 52.23307 | 15.07021 | 55° | 55km/h | 15158m | 5.5m/s | -52.6°C | 0% | 0hPa | 2.7V | 08:30:00 | 01:22:12 | 00:00:00 | |
| DL1XH-west | 2026-08-30 17:37:20 | 52.23314 | 15.07039 | 56° | 53km/h | 15163m | 4.6m/s | -52.5°C | 1.9% | 124.6hPa | 2.8V | 18:12:15 | 01:22:13 | 00:00:00 | |
| KRY50SP-1 | 2026-08-30 17:37:19 | 52.23314 | 15.07039 | 57° | 53km/h | 15163m | 4.6m/s | -52.5°C | 2.1% | 124.6hPa | 2.7V | 00:00:00 | 00:00:00 | 00:00:00 | |
| SQ2ODE-11 | 2026-08-30 17:37:18 | 52.23307 | 15.07021 | 57° | 55km/h | 15159m | 5.5m/s | 0°C | 0% | 0hPa | 2.7V | 00:00:00 | 00:00:00 | 00:00:00 | |
| SONCRA | 2026-08-30 17:37:14 | 52.23257 | 15.06910 | 52° | 57km/h | 15130m | 4.2m/s | -53.0°C | 2.2% | 125.2hPa | 2.7V | 00:00:00 | 00:00:00 | 00:00:00 | |
| DL1XH1-15 | 2026-08-30 17:37:12 | 52.23209 | 15.06801 | 57° | 53km/h | 15102m | 4.9m/s | -52.9°C | 0% | 0hPa | 2.7V | 08:30:00 | 01:22:00 | 00:00:00 | |
| DB0DAN | 2026-08-30 17:37:10 | 52.23232 | 15.06855 | 53° | 53km/h | 15116m | 4.1m/s | -53°C | 2.2% | 125.49hPa | 2.6V | 00:00:00 | 00:00:00 | 00:00:00 | |
| AA1-15 | 2026-08-30 17:37:09 | 52.23223 | 15.06837 | 54° | 55km/h | 15111m | 4.9m/s | -52.9°C | 2.1% | 125.6hPa | 2.8V | 18:12:15 | 01:22:02 | 00:00:00 | |
| SONDE2-12 | 2026-08-30 17:37:08 | 52.23187 | 15.06746 | 56° | 51km/h | 15089m | 5.6m/s | -52.9°C | 2.4% | 126.0hPa | 2.6V | 00:00:00 | 00:00:00 | 00:00:00 | |
| DL1XH-west | 2026-08-30 17:36:59 | 52.23154 | 15.06661 | 60° | 44km/h | 15065m | 4.2m/s | -52.7°C | 2% | 126.5hPa | 2.6V | 18:12:15 | 01:21:52 | 00:00:00 | |
| SP3WXH-11 | 2026-08-30 17:36:58 | 52.23142 | 15.06629 | 60° | 44km/h | 15056m | 4.9m/s | -52.6°C | 2.2% | 126.7hPa | 2.7V | 00:00:00 | 00:00:00 | 00:00:00 | |
| KRY50SP-1 | 2026-08-30 17:36:57 | 52.23148 | 15.06645 | 62° | 46km/h | 15060m | 4.6m/s | -52.6°C | 2.2% | 126.6hPa | 2.7V | 00:00:00 | 00:00:00 | 00:00:00 | |
| DB0DAN | 2026-08-30 17:36:55 | 52.23132 | 15.06598 | 61° | 42km/h | 15046m | 4.6m/s | -52.5°C | 2.1% | 126.85hPa | 2.7V | 00:00:00 | 00:00:00 | 00:00:00 | |
| DL1XH1-15 | 2026-08-30 17:36:55 | 52.23107 | 15.06517 | 61° | 42km/h | 15022m | 5.7m/s | -52.5°C | 0% | 0hPa | 2.8V | 08:30:00 | 01:21:43 | 00:00:00 | |
| DL1XH-west | 2026-08-30 17:36:48 | 52.23096 | 15.06487 | 57° | 44km/h | 15013m | 4.4m/s | -52.5°C | 2.2% | 127.5hPa | 2.6V | 18:12:15 | 01:21:41 | 00:00:00 | |
| KRY50SP-1 | 2026-08-30 17:36:46 | 52.23090 | 15.06472 | 56° | 42km/h | 15008m | 5.0m/s | -52.5°C | 2.2% | 127.6hPa | 2.6V | 00:00:00 | 00:00:00 | 00:00:00 | |
| DL1XH1-15 | 2026-08-30 17:36:45 | 52.23048 | 15.06367 | 58° | 46km/h | 14976m | 3.7m/s | 0°C | 0% | 0hPa | 2.6V | 08:30:00 | 01:21:33 | 00:00:00 | |
| DB0DAN | 2026-08-30 17:36:40 | 52.23048 | 15.06367 | 59° | 44km/h | 14976m | 3.7m/s | -52.5°C | 2.1% | 128.27hPa | 2.6V | 00:00:00 | 00:00:00 | 00:00:00 | |
| DL1XH-west | 2026-08-30 17:36:37 | 52.23029 | 15.06320 | 57° | 47km/h | 14960m | 5.7m/s | -52.5°C | 2.1% | 128.6hPa | 2.7V | 18:12:15 | 01:21:30 | 00:00:00 | |
| DL1XH1-15 | 2026-08-30 17:36:35 | 52.22988 | 15.06212 | 58° | 42km/h | 14928m | 5.1m/s | 0°C | 0% | 0hPa | 2.6V | 08:30:00 | 01:21:23 | 00:00:00 | |
| DL1XH-west | 2026-08-30 17:36:27 | 52.22972 | 15.06169 | 58° | 38km/h | 14914m | 4.9m/s | -52.6°C | 2.1% | 129.5hPa | 2.8V | 18:12:15 | 01:21:20 | 00:00:00 | |
| DB0DAN | 2026-08-30 17:36:25 | 52.22962 | 15.06143 | 57° | 35km/h | 14904m | 5.6m/s | -52.6°C | 2.2% | 129.71hPa | 2.8V | 00:00:00 | 00:00:00 | 00:00:00 | |
| DL1XH1-15 | 2026-08-30 17:36:23 | 52.22927 | 15.06061 | 53° | 35km/h | 14870m | 4.5m/s | 0°C | 0% | 0hPa | 2.6V | 08:30:00 | 01:21:11 | 00:00:00 | |
| DL1XH-west | 2026-08-30 17:36:17 | 52.22922 | 15.06050 | 55° | 35km/h | 14866m | 4.4m/s | -52.4°C | 2.2% | 130.5hPa | 2.6V | 18:12:15 | 01:21:10 | 00:00:00 | |
| AA1-15 | 2026-08-30 17:36:16 | 52.22917 | 15.06038 | 59° | 35km/h | 14861m | 5m/s | -52.3°C | 2.1% | 130.6hPa | 2.6V | 18:12:15 | 01:21:09 | 00:00:00 | |
| KRY50SP-1 | 2026-08-30 17:36:14 | 52.22912 | 15.06025 | 60° | 35km/h | 14857m | 4.4m/s | -52.3°C | 2.2% | 130.7hPa | 2.8V | 00:00:00 | 00:00:00 | 00:00:00 | |
| DL1XH1-15 | 2026-08-30 17:36:13 | 52.22880 | 15.05949 | 53° | 35km/h | 14820m | 4.8m/s | 0°C | 0% | 0hPa | 2.8V | 08:30:00 | 01:21:01 | 00:00:00 | |
| DB0DAN | 2026-08-30 17:36:10 | 52.22891 | 15.05971 | 51° | 31km/h | 14831m | 4.8m/s | -52.1°C | 2.2% | 131.21hPa | 2.6V | 00:00:00 | 00:00:00 | 00:00:00 | |
| DL1XH-west | 2026-08-30 17:36:06 | 52.22870 | 15.05925 | 55° | 35km/h | 14810m | 3.7m/s | -52°C | 2% | 131.6hPa | 2.6V | 18:12:15 | 01:20:59 | 00:00:00 | |
| AA1-15 | 2026-08-30 17:36:05 | 52.22865 | 15.05913 | 59° | 35km/h | 14805m | 5.7m/s | -52°C | 2.1% | 131.7hPa | 2.6V | 18:12:15 | 01:20:58 | 00:00:00 | |
| DL1XH-west | 2026-08-30 17:35:56 | 52.22829 | 15.05797 | 61° | 35km/h | 14758m | 6.7m/s | 0°C | 0% | 132.7hPa | 2.8V | 18:12:15 | 01:20:49 | 00:00:00 | |
| SP3WXH-11 | 2026-08-30 17:35:56 | 52.22824 | 15.05784 | 60° | 33km/h | 14752m | 4.8m/s | -51.7°C | 2.1% | 132.8hPa | 2.7V | 00:00:00 | 00:00:00 | 00:00:00 | |
| DB0DAN | 2026-08-30 17:35:55 | 52.22824 | 15.05784 | 60° | 31km/h | 14752m | 4.8m/s | -51.7°C | 2.1% | 132.77hPa | 2.7V | 00:00:00 | 00:00:00 | 00:00:00 | |
| AA1-15 | 2026-08-30 17:35:54 | 52.22820 | 15.05773 | 58° | 31km/h | 14746m | 5.5m/s | -51.6°C | 2% | 132.9hPa | 2.6V | 18:12:15 | 01:20:47 | 00:00:00 | |
| DL1XH1-15 | 2026-08-30 17:35:51 | 52.22795 | 15.05680 | 72° | 33km/h | 14703m | 4.3m/s | 0°C | 0% | 0hPa | 2.6V | 00:00:00 | 01:20:39 | 00:00:00 | |
| DL1XH-west | 2026-08-30 17:35:45 | 52.22793 | 15.05667 | 70° | 33km/h | 14697m | 6.8m/s | 0°C | 0% | 133.9hPa | 2.8V | 18:12:15 | 01:20:38 | 00:00:00 | |
| AA1-15 | 2026-08-30 17:35:43 | 52.22786 | 15.05642 | 61° | 35km/h | 14686m | 6.6m/s | -51.7°C | 1.9% | 134.1hPa | 2.7V | 18:12:15 | 01:20:36 | 00:00:00 | |
| DB0DAN | 2026-08-30 17:35:40 | 52.22771 | 15.05608 | 54° | 31km/h | 14672m | 2.9m/s | -51.7°C | 2.1% | 134.43hPa | 2.6V | 00:00:00 | 00:00:00 | 00:00:00 | |
| SONDE2-12 | 2026-08-30 17:35:35 | 52.22758 | 15.05522 | 83° | 44km/h | 14634m | 4.3m/s | -51.6°C | 2.3% | 135.2hPa | 2.6V | 00:00:00 | 00:00:00 | 00:00:00 | |
| DL1XH-west | 2026-08-30 17:35:34 | 52.22758 | 15.05522 | 83° | 44km/h | 14634m | 4.3m/s | 0°C | 0% | 0hPa | 2.6V | 18:12:15 | 01:20:27 | 00:00:00 | |
| AA1-15 | 2026-08-30 17:35:33 | 52.22757 | 15.05504 | 85° | 44km/h | 14629m | 6m/s | -51.7°C | 2% | 135.3hPa | 2.8V | 18:12:15 | 01:20:26 | 00:00:00 | |
| KRY50SP-1 | 2026-08-30 17:35:29 | 52.22753 | 15.05453 | 81° | 40km/h | 14614m | 4.1m/s | -51.6°C | 2.2% | 135.7hPa | 2.8V | 00:00:00 | 00:00:00 | 00:00:00 | |
| DL2RXE-15 | 2026-08-30 17:35:28 | 52.22751 | 15.05421 | 88° | 38km/h | 14602m | 5.7m/s | -51.6°C | 2.2% | 135.9hPa | 2.8V | 00:00:00 | 00:00:00 | 00:00:00 | |
| DB0DAN | 2026-08-30 17:35:25 | 52.22749 | 15.05373 | 89° | 37km/h | 14585m | 6.7m/s | -51.6°C | 2.2% | 136.19hPa | 2.8V | 00:00:00 | 00:00:00 | 00:00:00 | |
| DL1XH-west | 2026-08-30 17:35:24 | 52.22749 | 15.05358 | 92° | 38km/h | 14580m | 3.9m/s | 0°C | 0% | 0hPa | 2.6V | 18:12:15 | 01:20:17 | 00:00:00 | |
| AA1-15 | 2026-08-30 17:35:18 | 52.22753 | 15.05249 | 92° | 51km/h | 14548m | 6.6m/s | -51.3°C | 2% | 137hPa | 2.6V | 18:12:15 | 01:20:11 | 00:00:00 | |
| DF8AY | 2026-08-30 17:35:12 | 52.22751 | 15.05130 | 91° | 44km/h | 14515m | 4.3m/s | -51.2°C | 1.9% | 137.7hPa | 2.6V | 18:12:15 | 01:20:05 | 00:00:00 | |
| DB0DAN | 2026-08-30 17:35:10 | 52.22752 | 15.05091 | 94° | 49km/h | 14505m | 4.7m/s | -51.1°C | 2.1% | 137.88hPa | 2.8V | 00:00:00 | 00:00:00 | 00:00:00 | |
| AA1-15 | 2026-08-30 17:35:07 | 52.22756 | 15.05023 | 96° | 57km/h | 14487m | 7.3m/s | -51°C | 1.9% | 138.3hPa | 2.6V | 18:12:15 | 01:20:00 | 00:00:00 | |
| SONDE2-12 | 2026-08-30 17:35:04 | 52.22762 | 15.04926 | 92° | 58km/h | 14463m | 6.9m/s | -50.8°C | 2.2% | 138.8hPa | 2.8V | 00:00:00 | 00:00:00 | 00:00:00 | |
| DF8AY | 2026-08-30 17:35:01 | 52.22763 | 15.04879 | 91° | 55km/h | 14453m | 5.6m/s | -50.9°C | 1.8% | 139hPa | 2.8V | 18:12:15 | 01:19:54 | 00:00:00 | |
| AA1-15 | 2026-08-30 17:34:56 | 52.22764 | 15.04762 | 91° | 62km/h | 14424m | 7.5m/s | -51.4°C | 1.9% | 139.6hPa | 2.8V | 18:12:15 | 01:19:49 | 00:00:00 | |
| DF8AY | 2026-08-30 17:34:50 | 52.22764 | 15.04601 | 93° | 66km/h | 14386m | 6.1m/s | -51.7°C | 1.7% | 140.5hPa | 2.8V | 18:12:15 | 01:19:43 | 00:00:00 | |
| AA1-15 | 2026-08-30 17:34:46 | 52.22767 | 15.04492 | 92° | 69km/h | 14366m | 4.9m/s | -51.9°C | 1.7% | 140.8hPa | 2.8V | 18:12:15 | 01:19:39 | 00:00:00 | |
| KRY50SP-1 | 2026-08-30 17:34:45 | 52.22767 | 15.04492 | 93° | 69km/h | 14366m | 4.9m/s | -51.9°C | 2.0% | 140.8hPa | 2.8V | 00:00:00 | 00:00:00 | 00:00:00 | |
| DB0DAN | 2026-08-30 17:34:40 | 52.22771 | 15.04302 | 91° | 78km/h | 14335m | 5.7m/s | -52°C | 2% | 141.52hPa | 2.8V | 00:00:00 | 00:00:00 | 00:00:00 | |
| DF8AY | 2026-08-30 17:34:37 | 52.22771 | 15.04169 | 90° | 78km/h | 14315m | 5.9m/s | -52°C | 1.7% | 141.9hPa | 2.6V | 18:12:15 | 01:19:29 | 00:00:00 | |
| AA1-15 | 2026-08-30 17:34:35 | 52.22771 | 15.04137 | 91° | 77km/h | 14310m | 3.9m/s | -51.9°C | 1.6% | 142.1hPa | 2.6V | 18:12:15 | 01:19:28 | 00:00:00 | |
| SONDE2-12 | 2026-08-30 17:34:33 | 52.22771 | 15.04046 | 91° | 71km/h | 14294m | 4.6m/s | -51.9°C | 2.1% | 142.4hPa | 2.6V | 00:00:00 | 00:00:00 | 00:00:00 | |
| KRY50SP-1 | 2026-08-30 17:34:30 | 52.22771 | 15.04016 | 91° | 73km/h | 14289m | 5.0m/s | -51.9°C | 2.0% | 142.5hPa | 2.6V | 00:00:00 | 00:00:00 | 00:00:00 | |
| DB0DAN | 2026-08-30 17:34:25 | 52.22767 | 15.03835 | 86° | 69km/h | 14260m | 4.8m/s | -51.8°C | 2% | 143.11hPa | 2.6V | 00:00:00 | 00:00:00 | 00:00:00 | |
| DF8AY | 2026-08-30 17:34:24 | 52.22766 | 15.03806 | 87° | 71km/h | 14255m | 4.2m/s | -51.8°C | 1.6% | 143.2hPa | 2.6V | 18:12:15 | 01:19:17 | 00:00:00 | |
| DF8AY | 2026-08-30 17:34:14 | 52.22752 | 15.03508 | 84° | 73km/h | 14206m | 4.6m/s | -52.3°C | 1.8% | 144.3hPa | 2.8V | 18:12:15 | 01:19:07 | 00:00:00 | |
| AA1-15 | 2026-08-30 17:34:13 | 52.22750 | 15.03478 | 84° | 73km/h | 14202m | 4.7m/s | -52.4°C | 1.8% | 144.4hPa | 2.6V | 18:12:15 | 01:19:06 | 00:00:00 | |
| OE3JTB-15 | 2026-08-30 17:34:13 | 52.22750 | 15.03478 | 84° | 73km/h | 14202m | 4.6m/s | -52.3°C | 4.6% | 144.4hPa | 2.6V | 00:00:00 | 00:00:00 | 00:00:00 | |
| DB0DAN | 2026-08-30 17:34:10 | 52.22745 | 15.03390 | 83° | 68km/h | 14188m | 5.3m/s | -52.5°C | 2.1% | 144.78hPa | 2.8V | 00:00:00 | 00:00:00 | 00:00:00 | |
| DF8AY | 2026-08-30 17:34:04 | 52.22730 | 15.03224 | 82° | 69km/h | 14158m | 3.9m/s | -52.7°C | 1.9% | 145.4hPa | 2.8V | 18:12:15 | 01:18:57 | 00:00:00 | |
| AA1-15 | 2026-08-30 17:34:02 | 52.22724 | 15.03167 | 80° | 71km/h | 14148m | 4.4m/s | -52.6°C | 1.9% | 145.6hPa | 2.6V | 18:12:15 | 01:18:55 | 00:00:00 | |
| KRY50SP-1 | 2026-08-30 17:33:57 | 52.22708 | 15.03045 | 77° | 78km/h | 14130m | 5.2m/s | -52.5°C | 2.1% | 146.1hPa | 2.6V | 00:00:00 | 00:00:00 | 00:00:00 | |
| DB0DAN | 2026-08-30 17:33:55 | 52.22694 | 15.02952 | 74° | 73km/h | 14115m | 4.2m/s | -52.4°C | 2.1% | 146.42hPa | 2.6V | 00:00:00 | 00:00:00 | 00:00:00 | |
| DF8AY | 2026-08-30 17:33:54 | 52.22684 | 15.02893 | 75° | 73km/h | 14106m | 5.3m/s | -52.4°C | 1.9% | 146.6hPa | 2.8V | 18:12:15 | 01:18:46 | 00:00:00 | |
| AA1-15 | 2026-08-30 17:33:51 | 52.22674 | 15.02836 | 74° | 73km/h | 14096m | 5.6m/s | -52.5°C | 1.9% | 146.8hPa | 2.8V | 18:12:15 | 01:18:44 | 00:00:00 | |
| EDDB2-11 | 2026-08-30 17:33:45 | 52.22650 | 15.02662 | 78° | 69km/h | 14067m | 5.2m/s | -52.8°C | 2.3% | 147.5hPa | 2.6V | 00:00:00 | 00:00:00 | 00:00:00 | |
| DF8AY | 2026-08-30 17:33:43 | 52.22643 | 15.02607 | 76° | 68km/h | 14058m | 4.8m/s | -52.9°C | 2.1% | 147.7hPa | 2.6V | 18:12:15 | 01:18:36 | 00:00:00 | |
| DB0DAN | 2026-08-30 17:33:40 | 52.22631 | 15.02529 | 74° | 62km/h | 14042m | 6m/s | -53.3°C | 2.4% | 148.05hPa | 2.8V | 00:00:00 | 00:00:00 | 00:00:00 | |
| AA1-15 | 2026-08-30 17:33:40 | 52.22631 | 15.02529 | 75° | 66km/h | 14042m | 6m/s | -53.3°C | 2.3% | 148.1hPa | 2.8V | 18:12:15 | 01:18:33 | 00:00:00 | |
| DF8AY | 2026-08-30 17:33:33 | 52.22607 | 15.02327 | 82° | 78km/h | 14009m | 4.4m/s | -53.5°C | 2.3% | 148.8hPa | 2.8V | 18:12:15 | 01:18:26 | 00:00:00 | |
| SONDE2-12 | 2026-08-30 17:33:31 | 52.22597 | 15.02230 | 78° | 77km/h | 13995m | 5.5m/s | -53.4°C | 2.5% | 149.1hPa | 2.6V | 00:00:00 | 00:00:00 | 00:00:00 | |
| AA1-15 | 2026-08-30 17:33:30 | 52.22597 | 15.02230 | 78° | 78km/h | 13995m | 5.5m/s | -53.4°C | 2.3% | 149.1hPa | 2.6V | 18:12:15 | 01:18:23 | 00:00:00 | |
| DF8AY | 2026-08-30 17:33:28 | 52.22558 | 15.02028 | 71° | 75km/h | 13962m | 3.2m/s | -53.3°C | 0% | 149.9hPa | 2.8V | 18:12:15 | 01:18:16 | 00:00:00 | |
| DB0DAN | 2026-08-30 17:33:25 | 52.22570 | 15.02084 | 71° | 68km/h | 13971m | 3.9m/s | -53.3°C | 2.4% | 149.71hPa | 2.6V | 00:00:00 | 00:00:00 | 00:00:00 | |
| DF8AY | 2026-08-30 17:33:12 | 52.22510 | 15.01705 | 77° | 73km/h | 13912m | 4.1m/s | -53.7°C | 0% | 151.1hPa | 2.6V | 18:12:15 | 01:18:05 | 00:00:00 | |
| DB0DAN | 2026-08-30 17:33:10 | 52.22503 | 15.01648 | 78° | 68km/h | 13903m | 4.8m/s | -54.1°C | 2.6% | 151.29hPa | 2.8V | 00:00:00 | 00:00:00 | 00:00:00 | |
| DF8AY | 2026-08-30 17:33:01 | 52.22465 | 15.01396 | 72° | 68km/h | 13859m | 3.8m/s | -54°C | 0% | 152.3hPa | 2.6V | 18:12:15 | 01:17:54 | 00:00:00 | |
| SONDE2-12 | 2026-08-30 17:33:00 | 52.22455 | 15.01345 | 71° | 62km/h | 13850m | 3.7m/s | -53.9°C | 2.8% | 152.6hPa | 2.6V | 00:00:00 | 00:00:00 | 00:00:00 | |
| DF8AY | 2026-08-30 17:32:56 | 52.22416 | 15.01144 | 72° | 64km/h | 13813m | 5.7m/s | -54.1°C | 0% | 153.4hPa | 2.6V | 18:12:15 | 01:17:44 | 00:00:00 | |
| DB0DAN | 2026-08-30 17:32:55 | 52.22435 | 15.01244 | 74° | 62km/h | 13832m | 4.2m/s | -53.9°C | 2.7% | 152.96hPa | 2.6V | 00:00:00 | 00:00:00 | 00:00:00 | |
| S3001 | 2026-08-30 17:32:51 | 52.22416 | 15.01144 | 71° | 62km/h | 13813m | 5.7m/s | -54.1°C | 2.6% | 153.4hPa | 2.6V | 00:00:00 | 00:00:00 | 00:00:00 | |
| EDDB2-12 | 2026-08-30 17:32:50 | 52.22411 | 15.01119 | 71° | 62km/h | 13808m | 3.7m/s | -54.0°C | 2.7% | 153.6hPa | 2.6V | 00:00:00 | 00:00:00 | 00:00:00 | |
| SP3WXH-11 | 2026-08-30 17:32:49 | 52.22406 | 15.01094 | 72° | 62km/h | 13804m | 5.6m/s | -54.0°C | 2.6% | 153.6hPa | 2.6V | 00:00:00 | 00:00:00 | 00:00:00 | |
| DL1JHR | 2026-08-30 17:32:47 | 52.22401 | 15.01069 | 75° | 62km/h | 13799m | 4.5m/s | 0°C | 0% | 0hPa | 2.6V | 00:00:00 | 00:00:00 | 00:00:00 | |
| OE3JTB-15 | 2026-08-30 17:32:46 | 52.22393 | 15.01019 | 76° | 64km/h | 13789m | 4.2m/s | 0°C | 0% | 0hPa | 2.6V | 00:00:00 | 00:00:00 | 00:00:00 | |
| EDDB2-11 | 2026-08-30 17:32:43 | 52.22382 | 15.00942 | 77° | 64km/h | 13775m | 4.7m/s | -53.8°C | 2.6% | 154.3hPa | 2.6V | 00:00:00 | 00:00:00 | 00:00:00 | |
| DB0DAN | 2026-08-30 17:32:40 | 52.22372 | 15.00864 | 79° | 58km/h | 13760m | 4.7m/s | -53.7°C | 2.6% | 154.69hPa | 2.6V | 00:00:00 | 00:00:00 | 00:00:00 | |
| DF8AY | 2026-08-30 17:32:39 | 52.22369 | 15.00839 | 77° | 62km/h | 13756m | 4.8m/s | -53.7°C | 0% | 154.8hPa | 2.6V | 18:12:15 | 01:17:32 | 00:00:00 | |
| DF8AY | 2026-08-30 17:32:29 | 52.22344 | 15.00602 | 84° | 62km/h | 13708m | 3.6m/s | 0°C | 0% | 156hPa | 2.8V | 18:12:15 | 01:17:22 | 00:00:00 | |
| SONDE2-12 | 2026-08-30 17:32:29 | 52.22343 | 15.00577 | 83° | 60km/h | 13704m | 5.7m/s | -53.2°C | 2.8% | 156.1hPa | 2.6V | 00:00:00 | 00:00:00 | 00:00:00 | |
| DF8AY | 2026-08-30 17:32:17 | 52.22320 | 15.00297 | 82° | 64km/h | 13649m | 4.6m/s | 0°C | 0% | 0hPa | 2.6V | 18:12:15 | 01:17:10 | 00:00:00 | |
| KRY50SP-1 | 2026-08-30 17:32:15 | 52.22318 | 15.00271 | 83° | 64km/h | 13645m | 4.6m/s | -52.9°C | 2.6% | 157.5hPa | 2.8V | 00:00:00 | 00:00:00 | 00:00:00 | |
| DL2RXE-15 | 2026-08-30 17:32:13 | 52.22314 | 15.00219 | 86° | 64km/h | 13635m | 5.9m/s | -52.8°C | 2.6% | 157.7hPa | 2.8V | 00:00:00 | 00:00:00 | 00:00:00 | |
| 13BRC | 2026-08-30 17:32:12 | 52.22314 | 15.00193 | 89° | 64km/h | 13629m | 4.4m/s | -52.8°C | 2.6% | 157.9hPa | 2.8V | 00:00:00 | 00:00:00 | 00:00:00 | |
| DB0DAN | 2026-08-30 17:32:10 | 52.22312 | 15.00114 | 88° | 62km/h | 13616m | 4.7m/s | -52.9°C | 2.6% | 158.16hPa | 2.8V | 00:00:00 | 00:00:00 | 00:00:00 | |
| DF8AY | 2026-08-30 17:32:06 | 52.22309 | 15.00005 | 88° | 68km/h | 13597m | 4.6m/s | 0°C | 0% | 0hPa | 2.6V | 18:12:15 | 01:16:59 | 00:00:00 | |
| AA1-15 | 2026-08-30 17:32:02 | 52.22306 | 14.99895 | 86° | 66km/h | 13579m | 4.7m/s | -52.8°C | 2.7% | 159.1hPa | 2.8V | 18:12:15 | 01:16:55 | 00:00:00 | |
| SP6BVK | 2026-08-30 17:32:00 | 52.22305 | 14.99867 | 87° | 69km/h | 13574m | 5.1m/s | -52.8°C | 2.7% | 159.2hPa | 2.8V | 00:00:00 | 00:00:00 | 00:00:00 | |
| KRY50SP-1 | 2026-08-30 17:31:57 | 52.22300 | 14.99780 | 85° | 71km/h | 13560m | 4.4m/s | -52.8°C | 2.6% | 159.6hPa | 2.8V | 00:00:00 | 00:00:00 | 00:00:00 | |
| DB0DAN | 2026-08-30 17:31:55 | 52.22294 | 14.99691 | 83° | 71km/h | 13545m | 5m/s | -52.8°C | 2.8% | 159.96hPa | 2.8V | 00:00:00 | 00:00:00 | 00:00:00 | |
| DF8AY | 2026-08-30 17:31:55 | 52.22294 | 14.99691 | 83° | 75km/h | 13545m | 5m/s | 0°C | 0% | 0hPa | 2.8V | 18:12:15 | 01:16:48 | 00:00:00 | |
| AA1-15 | 2026-08-30 17:31:50 | 52.22282 | 14.99545 | 81° | 69km/h | 13522m | 4.9m/s | -52.7°C | 2.9% | 160.5hPa | 2.8V | 18:12:15 | 01:16:43 | 00:00:00 | |
| S3001 | 2026-08-30 17:31:49 | 52.22279 | 14.99517 | 80° | 69km/h | 13517m | 4.1m/s | -52.7°C | 2.7% | 160.6hPa | 2.8V | 00:00:00 | 00:00:00 | 00:00:00 | |
| SP3WXH-11 | 2026-08-30 17:31:47 | 52.22273 | 14.99459 | 80° | 71km/h | 13508m | 4.3m/s | -52.8°C | 2.8% | 160.8hPa | 2.8V | 00:00:00 | 00:00:00 | 00:00:00 | |
| KRY50SP-1 | 2026-08-30 17:31:46 | 52.22273 | 14.99459 | 81° | 71km/h | 13508m | 4.3m/s | -52.8°C | 2.8% | 160.8hPa | 2.8V | 00:00:00 | 00:00:00 | 00:00:00 | |
| DB0DAN | 2026-08-30 17:31:40 | 52.22250 | 14.99255 | 81° | 69km/h | 13476m | 4.6m/s | -52.8°C | 2.8% | 161.65hPa | 2.8V | 00:00:00 | 00:00:00 | 00:00:00 | |
| AA1-15 | 2026-08-30 17:31:39 | 52.22247 | 14.99225 | 80° | 73km/h | 13472m | 3.9m/s | -52.8°C | 3% | 161.8hPa | 2.8V | 18:12:15 | 01:16:32 | 00:00:00 | |
| DF8AY | 2026-08-30 17:31:37 | 52.22239 | 14.99165 | 77° | 77km/h | 13463m | 3.8m/s | 0°C | 0% | 0hPa | 2.6V | 18:12:15 | 01:16:30 | 00:00:00 | |
| AA1-15 | 2026-08-30 17:31:28 | 52.22196 | 14.98889 | 76° | 77km/h | 13421m | 3.9m/s | -52.8°C | 3% | 163hPa | 2.8V | 18:12:15 | 01:16:21 | 00:00:00 | |
| SONDE2-12 | 2026-08-30 17:31:26 | 52.22186 | 14.98828 | 74° | 77km/h | 13412m | 3.7m/s | -52.7°C | 3.0% | 163.3hPa | 2.6V | 00:00:00 | 00:00:00 | 00:00:00 | |
| DB0DAN | 2026-08-30 17:31:25 | 52.22181 | 14.98798 | 75° | 73km/h | 13408m | 5m/s | -52.7°C | 2.8% | 163.36hPa | 2.6V | 00:00:00 | 00:00:00 | 00:00:00 | |
| KRY50SP-1 | 2026-08-30 17:31:23 | 52.22176 | 14.98767 | 77° | 77km/h | 13403m | 4.1m/s | -52.7°C | 2.8% | 163.5hPa | 2.6V | 00:00:00 | 00:00:00 | 00:00:00 | |
| SP6BVK | 2026-08-30 17:31:19 | 52.22158 | 14.98650 | 78° | 73km/h | 13385m | 4.1m/s | -52.6°C | 2.7% | 163.9hPa | 2.6V | 00:00:00 | 00:00:00 | 00:00:00 | |
| S3001 | 2026-08-30 17:31:18 | 52.22150 | 14.98593 | 75° | 69km/h | 13376m | 3.8m/s | -52.6°C | 2.8% | 164.1hPa | 2.6V | 00:00:00 | 00:00:00 | 00:00:00 | |
| EDDB2-12 | 2026-08-30 17:31:17 | 52.22145 | 14.98565 | 75° | 71km/h | 13372m | 3.9m/s | -52.6°C | 2.7% | 164.2hPa | 2.6V | 00:00:00 | 00:00:00 | 00:00:00 | |
| SP3WXH-11 | 2026-08-30 17:31:16 | 52.22141 | 14.98536 | 75° | 73km/h | 13368m | 4.4m/s | -52.7°C | 2.8% | 164.4hPa | 2.6V | 00:00:00 | 00:00:00 | 00:00:00 | |
| KRY50SP-1 | 2026-08-30 17:31:13 | 52.22131 | 14.98477 | 75° | 75km/h | 13359m | 4.2m/s | -52.9°C | 2.8% | 164.6hPa | 2.6V | 00:00:00 | 00:00:00 | 00:00:00 | |
| DB0DAN | 2026-08-30 17:31:10 | 52.22109 | 14.98358 | 72° | 71km/h | 13341m | 4.4m/s | -52.9°C | 2.9% | 165.07hPa | 2.6V | 00:00:00 | 00:00:00 | 00:00:00 | |
| AA1-15 | 2026-08-30 17:31:01 | 52.22056 | 14.98097 | 71° | 75km/h | 13301m | 4.9m/s | -52.8°C | 3.1% | 166.1hPa | 2.8V | 18:12:15 | 01:15:54 | 00:00:00 | |
| SONDE2-11 | 2026-08-30 17:31:00 | 52.22050 | 14.98068 | 71° | 75km/h | 13296m | 4.6m/s | -52.8°C | 2.9% | 166.2hPa | 2.6V | 00:00:00 | 00:00:00 | 00:00:00 | |
| KRY50SP-1 | 2026-08-30 17:30:58 | 52.22044 | 14.98038 | 72° | 77km/h | 13292m | 3.7m/s | -52.8°C | 2.9% | 166.4hPa | 2.6V | 00:00:00 | 00:00:00 | 00:00:00 | |
| DB0DAN | 2026-08-30 17:30:55 | 52.22018 | 14.97919 | 71° | 73km/h | 13274m | 4.8m/s | -52.8°C | 2.9% | 166.81hPa | 2.6V | 00:00:00 | 00:00:00 | 00:00:00 | |
| AA1-15 | 2026-08-30 17:30:50 | 52.21990 | 14.97775 | 71° | 69km/h | 13251m | 4.6m/s | -52.8°C | 3.3% | 167.4hPa | 2.6V | 18:12:15 | 01:15:43 | 00:00:00 | |
| S3001 | 2026-08-30 17:30:47 | 52.21972 | 14.97694 | 70° | 68km/h | 13237m | 5.5m/s | -52.8°C | 3.1% | 167.8hPa | 2.8V | 00:00:00 | 00:00:00 | 00:00:00 | |
| EDDB2-12 | 2026-08-30 17:30:46 | 52.21967 | 14.97668 | 70° | 66km/h | 13232m | 3.9m/s | -52.8°C | 3.1% | 167.9hPa | 2.8V | 00:00:00 | 00:00:00 | 00:00:00 | |
| SP3WXH-11 | 2026-08-30 17:30:45 | 52.21961 | 14.97642 | 71° | 66km/h | 13227m | 5.8m/s | -52.8°C | 3.1% | 168.0hPa | 2.8V | 00:00:00 | 00:00:00 | 00:00:00 | |
| DL2RXE-15 | 2026-08-30 17:30:42 | 52.21951 | 14.97589 | 74° | 68km/h | 13218m | 4.6m/s | -52.8°C | 3.1% | 168.3hPa | 2.8V | 00:00:00 | 00:00:00 | 00:00:00 | |
| DB0DAN | 2026-08-30 17:30:40 | 52.21937 | 14.97511 | 75° | 64km/h | 13204m | 4.1m/s | -52.7°C | 3.1% | 168.63hPa | 2.8V | 00:00:00 | 00:00:00 | 00:00:00 | |
| AA1-15 | 2026-08-30 17:30:39 | 52.21932 | 14.97484 | 74° | 68km/h | 13200m | 5.2m/s | -52.7°C | 3.5% | 168.8hPa | 2.6V | 18:12:15 | 01:15:32 | 00:00:00 | |
| AA1-15 | 2026-08-30 17:30:28 | 52.21883 | 14.97172 | 80° | 71km/h | 13148m | 4.4m/s | -53°C | 3.9% | 170.1hPa | 2.6V | 18:12:15 | 01:15:21 | 00:00:00 | |
| DB0DAN | 2026-08-30 17:30:25 | 52.21873 | 14.97085 | 79° | 69km/h | 13134m | 5.8m/s | -53°C | 3.4% | 170.48hPa | 2.8V | 00:00:00 | 00:00:00 | 00:00:00 | |
| SONDE2-12 | 2026-08-30 17:30:24 | 52.21870 | 14.97056 | 79° | 73km/h | 13129m | 3.9m/s | -53.0°C | 3.7% | 170.6hPa | 2.6V | 00:00:00 | 00:00:00 | 00:00:00 | |
| AA1-15 | 2026-08-30 17:30:17 | 52.21843 | 14.96854 | 79° | 69km/h | 13096m | 5.7m/s | -53.3°C | 4.3% | 171.5hPa | 2.6V | 18:12:15 | 01:15:10 | 00:00:00 | |
| S3001 | 2026-08-30 17:30:16 | 52.21840 | 14.96827 | 79° | 68km/h | 13092m | 3.6m/s | -53.3°C | 3.7% | 171.6hPa | 2.6V | 00:00:00 | 00:00:00 | 00:00:00 | |
| EDDB2-12 | 2026-08-30 17:30:15 | 52.21837 | 14.96799 | 79° | 66km/h | 13087m | 5.3m/s | -53.3°C | 3.7% | 171.7hPa | 2.6V | 00:00:00 | 00:00:00 | 00:00:00 | |
| SP3WXH-11 | 2026-08-30 17:30:14 | 52.21834 | 14.96773 | 80° | 64km/h | 13083m | 3.5m/s | -53.3°C | 3.8% | 171.8hPa | 2.6V | 00:00:00 | 00:00:00 | 00:00:00 | |
| KRY50SP-1 | 2026-08-30 17:30:13 | 52.21834 | 14.96773 | 81° | 64km/h | 13083m | 3.5m/s | -53.3°C | 3.8% | 171.8hPa | 2.6V | 00:00:00 | 00:00:00 | 00:00:00 | |
| DL2RXE-15 | 2026-08-30 17:30:12 | 52.21832 | 14.96747 | 81° | 66km/h | 13079m | 5.5m/s | -53.3°C | 3.8% | 171.9hPa | 2.6V | 00:00:00 | 00:00:00 | 00:00:00 | |
| DB0DAN | 2026-08-30 17:30:10 | 52.21822 | 14.96665 | 79° | 64km/h | 13065m | 4.1m/s | -53.3°C | 3.8% | 172.3hPa | 2.6V | 00:00:00 | 00:00:00 | 00:00:00 | |
| AA1-15 | 2026-08-30 17:30:06 | 52.21811 | 14.96552 | 81° | 69km/h | 13048m | 4.6m/s | -53.2°C | 4.6% | 172.8hPa | 2.8V | 18:12:15 | 01:14:59 | 00:00:00 | |
| KRY50SP-1 | 2026-08-30 17:30:02 | 52.21805 | 14.96465 | 85° | 71km/h | 13035m | 3.7m/s | -53.1°C | 3.9% | 173.1hPa | 2.8V | 00:00:00 | 00:00:00 | 00:00:00 | |
| SONCRA | 2026-08-30 17:29:59 | 52.21797 | 14.96346 | 84° | 73km/h | 13017m | 3.8m/s | -53.0°C | 4.0% | 173.7hPa | 2.8V | 00:00:00 | 00:00:00 | 00:00:00 | |
| SONDE2-11 | 2026-08-30 17:29:58 | 52.21794 | 14.96286 | 86° | 73km/h | 13008m | 5.6m/s | -53.0°C | 4.1% | 173.9hPa | 2.8V | 00:00:00 | 00:00:00 | 00:00:00 | |
| SP6BVK | 2026-08-30 17:29:57 | 52.21795 | 14.96316 | 86° | 73km/h | 13013m | 4.7m/s | -53.0°C | 4.1% | 173.8hPa | 2.8V | 00:00:00 | 00:00:00 | 00:00:00 | |
| DB0DAN | 2026-08-30 17:29:55 | 52.21792 | 14.96226 | 88° | 69km/h | 12999m | 5m/s | -53°C | 4.1% | 174.1hPa | 2.8V | 00:00:00 | 00:00:00 | 00:00:00 | |
| AA1-15 | 2026-08-30 17:29:55 | 52.21792 | 14.96226 | 88° | 71km/h | 12999m | 5m/s | -53°C | 5.2% | 174.1hPa | 2.8V | 18:12:15 | 01:14:48 | 00:00:00 | |
| SONDE2-12 | 2026-08-30 17:29:53 | 52.21791 | 14.96167 | 86° | 71km/h | 12991m | 5.7m/s | -52.9°C | 4.5% | 174.4hPa | 2.8V | 00:00:00 | 00:00:00 | 00:00:00 | |
| S3001 | 2026-08-30 17:29:45 | 52.21783 | 14.95926 | 88° | 73km/h | 12953m | 5.6m/s | -53.0°C | 4.6% | 175.3hPa | 2.8V | 00:00:00 | 00:00:00 | 00:00:00 | |
| EDDB2-12 | 2026-08-30 17:29:44 | 52.21782 | 14.95895 | 88° | 75km/h | 12948m | 4.2m/s | -53.1°C | 4.7% | 175.5hPa | 2.8V | 00:00:00 | 00:00:00 | 00:00:00 | |
| SP3WXH-11 | 2026-08-30 17:29:43 | 52.21782 | 14.95864 | 89° | 73km/h | 12943m | 5.7m/s | -53.1°C | 4.8% | 175.6hPa | 2.8V | 00:00:00 | 00:00:00 | 00:00:00 | |
| KRY50SP-1 | 2026-08-30 17:29:40 | 52.21782 | 14.95803 | 91° | 77km/h | 12934m | 5.9m/s | -53.1°C | 4.9% | 175.9hPa | 2.8V | 00:00:00 | 00:00:00 | 00:00:00 | |
| EDDB2-11 | 2026-08-30 17:29:37 | 52.21784 | 14.95674 | 92° | 78km/h | 12914m | 4.5m/s | -53.1°C | 5.1% | 176.5hPa | 2.8V | 00:00:00 | 00:00:00 | 00:00:00 | |
| KRY50SP-1 | 2026-08-30 17:29:35 | 52.21784 | 14.95640 | 92° | 82km/h | 12909m | 5.2m/s | -53.2°C | 5.3% | 176.6hPa | 2.8V | 00:00:00 | 00:00:00 | 00:00:00 | |
| KRY50SP-1 | 2026-08-30 17:29:29 | 52.21783 | 14.95430 | 90° | 86km/h | 12880m | 5.4m/s | -54.0°C | 6.1% | 177.4hPa | 2.8V | 00:00:00 | 00:00:00 | 00:00:00 | |
| SP3BTT-10 | 2026-08-30 17:29:28 | 52.21783 | 14.95359 | 90° | 88km/h | 12870m | 4.9m/s | -54.0°C | 9.8% | 177.6hPa | 2.8V | 00:00:00 | 00:00:00 | 00:00:00 | |
| DB0DAN | 2026-08-30 17:29:25 | 52.21783 | 14.95255 | 91° | 80km/h | 12856m | 4.8m/s | -54.1°C | 6.6% | 177.98hPa | 2.8V | 00:00:00 | 00:00:00 | 00:00:00 | |
| SONDE2-12 | 2026-08-30 17:29:22 | 52.21782 | 14.95150 | 88° | 84km/h | 12842m | 4.2m/s | -54.0°C | 7.3% | 178.4hPa | 2.8V | 00:00:00 | 00:00:00 | 00:00:00 | |
| KRY50SP-1 | 2026-08-30 17:29:19 | 52.21780 | 14.95078 | 87° | 89km/h | 12834m | 4.9m/s | -54.0°C | 6.9% | 178.6hPa | 2.8V | 00:00:00 | 00:00:00 | 00:00:00 | |
| DL2RXE-15 | 2026-08-30 17:29:16 | 52.21774 | 14.94969 | 86° | 88km/h | 12820m | 4.0m/s | -54.1°C | 7.1% | 179.0hPa | 2.8V | 00:00:00 | 00:00:00 | 00:00:00 | |
| S3001 | 2026-08-30 17:29:14 | 52.21769 | 14.94862 | 85° | 84km/h | 12806m | 5.8m/s | -54.0°C | 7.1% | 179.4hPa | 2.8V | 00:00:00 | 00:00:00 | 00:00:00 | |
| KRY50SP-1 | 2026-08-30 17:29:13 | 52.21769 | 14.94862 | 86° | 84km/h | 12806m | 5.8m/s | -54.0°C | 7.1% | 179.4hPa | 2.8V | 00:00:00 | 00:00:00 | 00:00:00 | |
| DB0DAN | 2026-08-30 17:29:10 | 52.21763 | 14.94728 | 86° | 77km/h | 12789m | 4.6m/s | -54°C | 7.4% | 179.87hPa | 2.8V | 00:00:00 | 00:00:00 | 00:00:00 | |
| KRY50SP-1 | 2026-08-30 17:29:07 | 52.21760 | 14.94660 | 88° | 84km/h | 12780m | 4.3m/s | -54.0°C | 7.4% | 180.2hPa | 2.8V | 00:00:00 | 00:00:00 | 00:00:00 | |
| 13BRC | 2026-08-30 17:29:05 | 52.21758 | 14.94591 | 86° | 84km/h | 12771m | 4.3m/s | -54.1°C | 7.6% | 180.4hPa | 2.8V | 00:00:00 | 00:00:00 | 00:00:00 | |
| SONCRA | 2026-08-30 17:28:57 | 52.21749 | 14.94268 | 89° | 91km/h | 12728m | 5.4m/s | -54.6°C | 8.1% | 181.6hPa | 2.8V | 00:00:00 | 00:00:00 | 00:00:00 | |
| SONDE2-11 | 2026-08-30 17:28:56 | 52.21749 | 14.94192 | 88° | 89km/h | 12718m | 5.5m/s | -54.7°C | 8.1% | 181.9hPa | 2.8V | 00:00:00 | 00:00:00 | 00:00:00 | |
| DB0DAN | 2026-08-30 17:28:55 | 52.21749 | 14.94192 | 89° | 86km/h | 12718m | 5.5m/s | -54.7°C | 8.1% | 181.88hPa | 2.8V | 00:00:00 | 00:00:00 | 00:00:00 | |
| SONDE2-12 | 2026-08-30 17:28:51 | 52.21744 | 14.94044 | 85° | 88km/h | 12700m | 5.0m/s | -54.8°C | 8.5% | 182.4hPa | 2.7V | 00:00:00 | 00:00:00 | 00:00:00 | |
| AA1-15 | 2026-08-30 17:28:47 | 52.21737 | 14.93898 | 87° | 89km/h | 12680m | 5.3m/s | -55°C | 10.7% | 182.9hPa | 2.7V | 18:12:15 | 01:13:40 | 00:00:00 | |
| KRY50SP-1 | 2026-08-30 17:28:45 | 52.21735 | 14.93861 | 88° | 89km/h | 12675m | 4.6m/s | -55.0°C | 7.9% | 183.1hPa | 2.8V | 00:00:00 | 00:00:00 | 00:00:00 | |
| 13BRC | 2026-08-30 17:28:44 | 52.21734 | 14.93824 | 89° | 89km/h | 12671m | 4.0m/s | -55.1°C | 7.9% | 183.2hPa | 2.8V | 00:00:00 | 00:00:00 | 00:00:00 | |
| S3001 | 2026-08-30 17:28:43 | 52.21734 | 14.93752 | 88° | 86km/h | 12661m | 3.7m/s | -55.1°C | 7.9% | 183.5hPa | 2.8V | 00:00:00 | 00:00:00 | 00:00:00 | |
| DB0DAN | 2026-08-30 17:28:40 | 52.21732 | 14.93644 | 88° | 82km/h | 12647m | 5.2m/s | -55.1°C | 8.2% | 183.88hPa | 2.8V | 00:00:00 | 00:00:00 | 00:00:00 | |
| DL2RXE-15 | 2026-08-30 17:28:35 | 52.21724 | 14.93501 | 83° | 89km/h | 12629m | 5.1m/s | -55.3°C | 8.2% | 184.4hPa | 2.6V | 00:00:00 | 00:00:00 | 00:00:00 | |
| KRY50SP-1 | 2026-08-30 17:28:34 | 52.21721 | 14.93465 | 83° | 89km/h | 12624m | 4.9m/s | -55.3°C | 8.1% | 184.5hPa | 2.6V | 00:00:00 | 00:00:00 | 00:00:00 | |
| KRY50SP-1 | 2026-08-30 17:28:29 | 52.21706 | 14.93282 | 85° | 89km/h | 12602m | 4.4m/s | -55.2°C | 8.1% | 185.2hPa | 2.6V | 00:00:00 | 00:00:00 | 00:00:00 | |
| DB0DAN | 2026-08-30 17:28:25 | 52.21695 | 14.93107 | 84° | 80km/h | 12578m | 6m/s | -55.3°C | 8% | 185.88hPa | 2.6V | 00:00:00 | 00:00:00 | 00:00:00 | |
| SONDE2-12 | 2026-08-30 17:28:20 | 52.21682 | 14.92935 | 81° | 82km/h | 12555m | 4.0m/s | -55.2°C | 8.8% | 186.6hPa | 2.6V | 00:00:00 | 00:00:00 | 00:00:00 | |
| KRY50SP-1 | 2026-08-30 17:28:18 | 52.21679 | 14.92901 | 82° | 86km/h | 12550m | 5.0m/s | -55.2°C | 8.1% | 186.7hPa | 2.6V | 00:00:00 | 00:00:00 | 00:00:00 | |
| SP6BVK | 2026-08-30 17:28:14 | 52.21666 | 14.92765 | 83° | 84km/h | 12532m | 4.8m/s | -55.1°C | 7.9% | 187.2hPa | 2.6V | 00:00:00 | 00:00:00 | 00:00:00 | |
| KRY50SP-1 | 2026-08-30 17:28:13 | 52.21664 | 14.92731 | 84° | 82km/h | 12527m | 4.4m/s | -55.0°C | 8.0% | 187.4hPa | 2.6V | 00:00:00 | 00:00:00 | 00:00:00 | |
| DB0DAN | 2026-08-30 17:28:10 | 52.21656 | 14.92595 | 84° | 82km/h | 12510m | 4.1m/s | -54.9°C | 7.9% | 187.93hPa | 2.6V | 00:00:00 | 00:00:00 | 00:00:00 | |
| SP3WXH-11 | 2026-08-30 17:28:10 | 52.21656 | 14.92595 | 84° | 84km/h | 12510m | 4.1m/s | -54.9°C | 7.9% | 187.9hPa | 2.8V | 00:00:00 | 00:00:00 | 00:00:00 | |
| KRY50SP-1 | 2026-08-30 17:28:07 | 52.21651 | 14.92525 | 84° | 86km/h | 12500m | 4.8m/s | -54.9°C | 7.9% | 188.2hPa | 2.8V | 00:00:00 | 00:00:00 | 00:00:00 | |
| EDDB2-11 | 2026-08-30 17:28:04 | 52.21641 | 14.92384 | 84° | 84km/h | 12482m | 4.8m/s | -54.7°C | 8.0% | 188.8hPa | 2.8V | 00:00:00 | 00:00:00 | 00:00:00 | |
| 13BRC | 2026-08-30 17:28:03 | 52.21641 | 14.92384 | 86° | 86km/h | 12482m | 4.8m/s | -54.7°C | 8.0% | 188.8hPa | 2.8V | 00:00:00 | 00:00:00 | 00:00:00 | |
| SP3BTT-10 | 2026-08-30 17:27:58 | 52.21631 | 14.92175 | 87° | 89km/h | 12454m | 4.3m/s | -54.5°C | 12.0% | 189.5hPa | 2.8V | 00:00:00 | 00:00:00 | 00:00:00 | |
| KRY50SP-1 | 2026-08-30 17:27:57 | 52.21631 | 14.92175 | 87° | 84km/h | 12454m | 4.4m/s | -54.5°C | 8.2% | 189.6hPa | 2.8V | 00:00:00 | 00:00:00 | 00:00:00 | |
| DB0DAN | 2026-08-30 17:27:55 | 52.21628 | 14.92072 | 88° | 80km/h | 12440m | 4.2m/s | -54.4°C | 8.3% | 189.99hPa | 2.8V | 00:00:00 | 00:00:00 | 00:00:00 | |
| SONDE2-12 | 2026-08-30 17:27:49 | 52.21626 | 14.91865 | 89° | 84km/h | 12412m | 5.6m/s | -54.4°C | 9.1% | 190.9hPa | 2.8V | 00:00:00 | 00:00:00 | 00:00:00 | |
| AA1-15 | 2026-08-30 17:27:43 | 52.21623 | 14.91657 | 90° | 84km/h | 12384m | 4.6m/s | -54.6°C | 12% | 191.7hPa | 2.8V | 18:12:15 | 01:12:36 | 00:00:00 | |
| DL2RXE-15 | 2026-08-30 17:27:42 | 52.21623 | 14.91657 | 91° | 84km/h | 12384m | 4.6m/s | -54.6°C | 8.9% | 191.7hPa | 2.7V | 00:00:00 | 00:00:00 | 00:00:00 | |
| DB0DAN | 2026-08-30 17:27:40 | 52.21623 | 14.91551 | 91° | 84km/h | 12368m | 4.1m/s | -54.7°C | 9.1% | 192.13hPa | 2.7V | 00:00:00 | 00:00:00 | 00:00:00 | |
| EDDB2-12 | 2026-08-30 17:27:40 | 52.21624 | 14.91515 | 91° | 86km/h | 12364m | 5.4m/s | -54.6°C | 9.1% | 192.3hPa | 2.8V | 00:00:00 | 00:00:00 | 00:00:00 | |
| SP3WXH-11 | 2026-08-30 17:27:39 | 52.21624 | 14.91515 | 91° | 86km/h | 12364m | 5.4m/s | -54.6°C | 9.1% | 192.3hPa | 2.8V | 00:00:00 | 00:00:00 | 00:00:00 | |
| KRY50SP-1 | 2026-08-30 17:27:36 | 52.21625 | 14.91442 | 94° | 89km/h | 12355m | 5.9m/s | -54.6°C | 9.0% | 192.5hPa | 2.8V | 00:00:00 | 00:00:00 | 00:00:00 | |
| EDDB2-11 | 2026-08-30 17:27:33 | 52.21632 | 14.91260 | 92° | 91km/h | 12330m | 4.6m/s | -54.5°C | 9.1% | 193.3hPa | 2.8V | 00:00:00 | 00:00:00 | 00:00:00 | |
| KRY50SP-1 | 2026-08-30 17:27:30 | 52.21633 | 14.91222 | 93° | 91km/h | 12325m | 4.6m/s | -54.6°C | 9.3% | 193.5hPa | 2.8V | 00:00:00 | 00:00:00 | 00:00:00 | |
| SP3BTT-10 | 2026-08-30 17:27:28 | 52.21635 | 14.91104 | 92° | 97km/h | 12311m | 5.3m/s | -54.6°C | 13.1% | 193.8hPa | 2.8V | 00:00:00 | 00:00:00 | 00:00:00 | |
| DB0DAN | 2026-08-30 17:27:25 | 52.21638 | 14.90986 | 93° | 91km/h | 12296m | 4.3m/s | -54.7°C | 9.5% | 194.3hPa | 2.8V | 00:00:00 | 00:00:00 | 00:00:00 | |
| SONDE2-12 | 2026-08-30 17:27:18 | 52.21649 | 14.90705 | 93° | 100km/h | 12262m | 6.0m/s | -54.6°C | 10.4% | 195.3hPa | 2.8V | 00:00:00 | 00:00:00 | 00:00:00 | |
| AA1-15 | 2026-08-30 17:27:14 | 52.21653 | 14.90536 | 93° | 102km/h | 12242m | 4.6m/s | -54.5°C | 13.1% | 195.9hPa | 2.8V | 18:12:15 | 01:12:07 | 00:00:00 | |
| KRY50SP-1 | 2026-08-30 17:27:13 | 52.21653 | 14.90536 | 94° | 102km/h | 12242m | 4.6m/s | -54.5°C | 9.9% | 195.9hPa | 2.7V | 00:00:00 | 00:00:00 | 00:00:00 | |
| DB0DAN | 2026-08-30 17:27:10 | 52.21656 | 14.90369 | 91° | 97km/h | 12223m | 4.7m/s | -54.5°C | 10% | 196.53hPa | 2.7V | 00:00:00 | 00:00:00 | 00:00:00 | |
| AA1-15 | 2026-08-30 17:27:03 | 52.21660 | 14.90089 | 92° | 97km/h | 12191m | 4.9m/s | -54.4°C | 14% | 197.5hPa | 2.8V | 18:12:15 | 01:11:56 | 00:00:00 | |
| EDDB2-11 | 2026-08-30 17:27:02 | 52.21661 | 14.90008 | 91° | 97km/h | 12182m | 4.9m/s | -54.4°C | 10.3% | 197.8hPa | 2.7V | 00:00:00 | 00:00:00 | 00:00:00 | |
| SP3BTT-10 | 2026-08-30 17:26:58 | 52.21661 | 14.89886 | 90° | 97km/h | 12168m | 4.4m/s | -54.3°C | 14.5% | 198.2hPa | 2.7V | 00:00:00 | 00:00:00 | 08:30:00 | |
| DB0DAN | 2026-08-30 17:26:55 | 52.21660 | 14.89765 | 89° | 93km/h | 12154m | 5.3m/s | -54.3°C | 10.4% | 198.69hPa | 2.8V | 00:00:00 | 00:00:00 | 00:00:00 | |
| AA1-15 | 2026-08-30 17:26:52 | 52.21659 | 14.89647 | 90° | 93km/h | 12139m | 5.4m/s | -54.3°C | 14.7% | 199.1hPa | 2.7V | 18:12:15 | 01:11:45 | 00:00:00 | |
| SONDE2-12 | 2026-08-30 17:26:47 | 52.21660 | 14.89453 | 90° | 97km/h | 12117m | 3.8m/s | -54.4°C | 12.1% | 199.9hPa | 2.7V | 00:00:00 | 00:00:00 | 00:00:00 | |
| KRY50SP-1 | 2026-08-30 17:26:44 | 52.21659 | 14.89372 | 90° | 99km/h | 12108m | 4.4m/s | -54.4°C | 11.6% | 200.1hPa | 2.7V | 00:00:00 | 00:00:00 | 00:00:00 | |
| DB0DAN | 2026-08-30 17:26:40 | 52.21658 | 14.89168 | 90° | 95km/h | 12085m | 5.6m/s | -54.7°C | 12.2% | 200.85hPa | 2.7V | 00:00:00 | 00:00:00 | 00:00:00 | |
| S3001 | 2026-08-30 17:26:39 | 52.21658 | 14.89127 | 90° | 99km/h | 12080m | 3.6m/s | -54.8°C | 12.4% | 201.0hPa | 2.8V | 00:00:00 | 00:00:00 | 00:00:00 | |
| EDDB2-12 | 2026-08-30 17:26:38 | 52.21657 | 14.89046 | 88° | 97km/h | 12071m | 4.0m/s | -54.8°C | 12.8% | 201.3hPa | 2.8V | 00:00:00 | 00:00:00 | 00:00:00 | |
| SP3WXH-11 | 2026-08-30 17:26:37 | 52.21657 | 14.89046 | 88° | 97km/h | 12071m | 4.0m/s | -54.8°C | 12.8% | 201.3hPa | 2.8V | 00:00:00 | 00:00:00 | 00:00:00 | |
| SP6BVK | 2026-08-30 17:26:33 | 52.21655 | 14.88925 | 89° | 99km/h | 12058m | 5.5m/s | -54.8°C | 12.9% | 201.7hPa | 2.8V | 00:00:00 | 00:00:00 | 00:00:00 | |
| EDDB2-11 | 2026-08-30 17:26:31 | 52.21652 | 14.88767 | 87° | 93km/h | 12039m | 5.5m/s | -55.2°C | 13.7% | 202.3hPa | 2.8V | 00:00:00 | 00:00:00 | 00:00:00 | |
| DB0DAN | 2026-08-30 17:26:25 | 52.21647 | 14.88567 | 87° | 93km/h | 12016m | 4.4m/s | -55.2°C | 14.9% | 203.03hPa | 2.8V | 00:00:00 | 00:00:00 | 00:00:00 | |
| AA1-15 | 2026-08-30 17:26:25 | 52.21647 | 14.88567 | 87° | 99km/h | 12016m | 4.4m/s | -55.2°C | 19.5% | 203hPa | 2.8V | 18:12:15 | 01:11:18 | 00:00:00 | |
| SONDE2-12 | 2026-08-30 17:26:16 | 52.21629 | 14.88215 | 84° | 95km/h | 11976m | 5.2m/s | -55.2°C | 18.1% | 204.3hPa | 2.8V | 00:00:00 | 00:00:00 | 00:00:00 | |
| AA1-15 | 2026-08-30 17:26:15 | 52.21626 | 14.88175 | 85° | 97km/h | 11971m | 4.3m/s | -55.2°C | 22.6% | 204.4hPa | 2.8V | 18:12:15 | 01:11:08 | 00:00:00 | |
| DL2RXE-15 | 2026-08-30 17:26:12 | 52.21621 | 14.88097 | 85° | 95km/h | 11962m | 3.4m/s | -55.2°C | 17.8% | 204.8hPa | 2.8V | 00:00:00 | 00:00:00 | 00:00:00 | |
| DB0DAN | 2026-08-30 17:26:10 | 52.21615 | 14.87981 | 85° | 89km/h | 11950m | 4.6m/s | -55.2°C | 18.5% | 205.18hPa | 2.8V | 00:00:00 | 00:00:00 | 00:00:00 | |
| S3001 | 2026-08-30 17:26:08 | 52.21612 | 14.87904 | 86° | 95km/h | 11940m | 5.7m/s | -55.2°C | 18.9% | 205.4hPa | 2.8V | 00:00:00 | 00:00:00 | 00:00:00 | |
| EDDB2-12 | 2026-08-30 17:26:07 | 52.21609 | 14.87825 | 86° | 97km/h | 11931m | 5.4m/s | -55.2°C | 19.5% | 205.8hPa | 2.8V | 00:00:00 | 00:00:00 | 00:00:00 | |
| SP3WXH-11 | 2026-08-30 17:26:06 | 52.21609 | 14.87825 | 86° | 97km/h | 11931m | 5.4m/s | -55.2°C | 19.5% | 205.8hPa | 2.8V | 00:00:00 | 00:00:00 | 00:00:00 | |
| KRY50SP-1 | 2026-08-30 17:26:02 | 52.21604 | 14.87704 | 88° | 97km/h | 11916m | 4.6m/s | -55.2°C | 20.6% | 206.2hPa | 2.8V | 00:00:00 | 00:00:00 | 00:00:00 | |
| EDDB2-11 | 2026-08-30 17:26:00 | 52.21599 | 14.87547 | 86° | 93km/h | 11898m | 5.3m/s | -55.2°C | 22.8% | 206.8hPa | 2.8V | 00:00:00 | 00:00:00 | 00:00:00 | |
| DB0DAN | 2026-08-30 17:25:55 | 52.21596 | 14.87396 | 88° | 88km/h | 11881m | 4.2m/s | -55.6°C | 25.9% | 207.35hPa | 2.8V | 00:00:00 | 00:00:00 | 00:00:00 | |
| AA1-15 | 2026-08-30 17:25:52 | 52.21593 | 14.87283 | 87° | 91km/h | 11867m | 5.5m/s | -56.1°C | 35.1% | 207.8hPa | 2.7V | 18:12:15 | 01:10:45 | 00:00:00 | |
| SONDE2-12 | 2026-08-30 17:25:45 | 52.21587 | 14.87016 | 89° | 93km/h | 11836m | 4.6m/s | -56.4°C | 32.8% | 208.8hPa | 2.8V | 00:00:00 | 00:00:00 | 00:00:00 | |
| DL2RXE-15 | 2026-08-30 17:25:43 | 52.21587 | 14.86977 | 90° | 93km/h | 11831m | 4.7m/s | -56.4°C | 31.1% | 209.0hPa | 2.8V | 00:00:00 | 00:00:00 | 00:00:00 | |
| DB0DAN | 2026-08-30 17:25:40 | 52.21585 | 14.86820 | 88° | 93km/h | 11813m | 3.1m/s | -56.5°C | 32% | 209.58hPa | 2.8V | 00:00:00 | 00:00:00 | 00:00:00 | |
| AA1-15 | 2026-08-30 17:25:40 | 52.21585 | 14.86820 | 88° | 99km/h | 11813m | 3.1m/s | -56.5°C | 39.3% | 209.6hPa | 2.8V | 18:12:15 | 01:10:33 | 00:00:00 | |
| AA1-15 | 2026-08-30 17:25:29 | 52.21585 | 14.86349 | 90° | 108km/h | 11760m | 4.9m/s | -56.8°C | 41.3% | 211.3hPa | 2.8V | 18:12:15 | 01:10:22 | 00:00:00 | |
| EDDB2-11 | 2026-08-30 17:25:29 | 52.21585 | 14.86304 | 90° | 108km/h | 11755m | 4.8m/s | -56.8°C | 34.9% | 211.5hPa | 2.7V | 00:00:00 | 00:00:00 | 00:00:00 | |
| KRY50SP-1 | 2026-08-30 17:25:27 | 52.21585 | 14.86304 | 91° | 108km/h | 11756m | 4.8m/s | -56.8°C | 34.9% | 211.5hPa | 2.7V | 00:00:00 | 00:00:00 | 00:00:00 | |
| DB0DAN | 2026-08-30 17:25:25 | 52.21587 | 14.86169 | 91° | 106km/h | 11742m | 4.3m/s | -56.8°C | 35.4% | 211.92hPa | 2.7V | 00:00:00 | 00:00:00 | 00:00:00 | |
| AA1-15 | 2026-08-30 17:25:19 | 52.21592 | 14.85893 | 92° | 113km/h | 11715m | 4.8m/s | -56.7°C | 42.3% | 212.8hPa | 2.8V | 18:12:15 | 01:10:12 | 00:00:00 | |
| SONDE2-12 | 2026-08-30 17:25:14 | 52.21597 | 14.85659 | 91° | 111km/h | 11693m | 3.7m/s | -56.7°C | 39.8% | 213.6hPa | 2.8V | 00:00:00 | 00:00:00 | 00:00:00 | |
| DB0DAN | 2026-08-30 17:25:10 | 52.21600 | 14.85477 | 92° | 106km/h | 11674m | 4m/s | -56.7°C | 37.2% | 214.2hPa | 2.8V | 00:00:00 | 00:00:00 | 00:00:00 | |
| AA1-15 | 2026-08-30 17:24:59 | 52.21615 | 14.84957 | 91° | 115km/h | 11623m | 3.7m/s | -56.6°C | 44% | 215.9hPa | 2.8V | 18:12:15 | 01:09:52 | 00:00:00 | |
| EDDB2-11 | 2026-08-30 17:24:58 | 52.21617 | 14.84863 | 91° | 111km/h | 11614m | 4.5m/s | -56.5°C | 38.5% | 216.2hPa | 2.8V | 00:00:00 | 00:00:00 | 00:00:00 | |
| 13BRC | 2026-08-30 17:24:57 | 52.21616 | 14.84910 | 93° | 113km/h | 11619m | 5.1m/s | -56.5°C | 38.6% | 216.1hPa | 2.8V | 00:00:00 | 00:00:00 | 00:00:00 | |
| DB0DAN | 2026-08-30 17:24:55 | 52.21619 | 14.84771 | 93° | 108km/h | 11606m | 3.6m/s | -56.5°C | 38.9% | 216.5hPa | 2.8V | 00:00:00 | 00:00:00 | 00:00:00 | |
| AA1-15 | 2026-08-30 17:24:48 | 52.21632 | 14.84444 | 93° | 119km/h | 11574m | 4m/s | -56.2°C | 45.4% | 217.6hPa | 2.8V | 18:12:15 | 01:09:41 | 00:00:00 | |
| SONDE2-11 | 2026-08-30 17:24:47 | 52.21634 | 14.84395 | 93° | 119km/h | 11570m | 5.1m/s | -56.2°C | 40.0% | 217.7hPa | 2.8V | 00:00:00 | 00:00:00 | 00:00:00 | |
| SONDE2-12 | 2026-08-30 17:24:43 | 52.21641 | 14.84201 | 93° | 117km/h | 11551m | 6.0m/s | -56.2°C | 45.5% | 218.4hPa | 2.8V | 00:00:00 | 00:00:00 | 00:00:00 | |
| DB0DAN | 2026-08-30 17:24:40 | 52.21649 | 14.84053 | 96° | 117km/h | 11535m | 5.4m/s | -56.1°C | 43.5% | 218.94hPa | 2.8V | 00:00:00 | 00:00:00 | 00:00:00 | |
| AA1-15 | 2026-08-30 17:24:37 | 52.21659 | 14.83905 | 96° | 119km/h | 11521m | 3.9m/s | -56°C | 48.5% | 219.4hPa | 2.7V | 18:12:15 | 01:09:30 | 00:00:00 | |
| AA1-15 | 2026-08-30 17:24:26 | 52.21692 | 14.83356 | 95° | 133km/h | 11459m | 6.5m/s | -55.6°C | 50.5% | 221.5hPa | 2.7V | 18:12:15 | 01:09:19 | 00:00:00 | |
| DB0DAN | 2026-08-30 17:24:25 | 52.21695 | 14.83302 | 95° | 126km/h | 11452m | 6.8m/s | -55.5°C | 44.8% | 221.74hPa | 2.8V | 00:00:00 | 00:00:00 | 00:00:00 | |
| AA1-15 | 2026-08-30 17:24:16 | 52.21722 | 14.82817 | 94° | 133km/h | 11404m | 5.8m/s | -55.2°C | 49.6% | 223.4hPa | 2.7V | 18:12:15 | 01:09:09 | 00:00:00 | |
| SONDE2-12 | 2026-08-30 17:24:12 | 52.21732 | 14.82596 | 94° | 133km/h | 11383m | 5.2m/s | -55.2°C | 46.6% | 224.1hPa | 2.8V | 00:00:00 | 00:00:00 | 00:00:00 | |
| DB0DAN | 2026-08-30 17:24:10 | 52.21738 | 14.82486 | 96° | 128km/h | 11373m | 4.2m/s | -55.1°C | 44% | 224.5hPa | 2.8V | 00:00:00 | 00:00:00 | 00:00:00 | |
| AA1-15 | 2026-08-30 17:24:05 | 52.21752 | 14.82207 | 94° | 139km/h | 11349m | 5.2m/s | -55°C | 48.6% | 225.3hPa | 2.8V | 18:12:15 | 01:08:58 | 00:00:00 | |
| KRY50SP-1 | 2026-08-30 17:24:03 | 52.21754 | 14.82150 | 94° | 139km/h | 11345m | 4.0m/s | -54.9°C | 43.6% | 225.5hPa | 2.8V | 00:00:00 | 00:00:00 | 00:00:00 | |
| SP3WXH-11 | 2026-08-30 17:24:02 | 52.21759 | 14.82035 | 94° | 139km/h | 11336m | 4.0m/s | -54.9°C | 43.9% | 225.8hPa | 2.8V | 00:00:00 | 00:00:00 | 00:00:00 | |
| NBG1-10 | 2026-08-30 17:23:58 | 52.21770 | 14.81808 | 96° | 135km/h | 11318m | 4.4m/s | -54.7°C | 50.8% | 226.3hPa | 2.8V | 00:00:00 | 01:08:51 | 00:00:00 | |
| DB0DAN | 2026-08-30 17:23:55 | 52.21778 | 14.81638 | 95° | 131km/h | 11304m | 5.5m/s | -54.6°C | 43.2% | 226.89hPa | 2.8V | 00:00:00 | 00:00:00 | 00:00:00 | |
| AA1-15 | 2026-08-30 17:23:54 | 52.21781 | 14.81582 | 95° | 139km/h | 11299m | 4.5m/s | -54.6°C | 48.7% | 227.1hPa | 2.8V | 18:12:15 | 01:08:47 | 00:00:00 | |
| SONCRA | 2026-08-30 17:23:46 | 52.21803 | 14.81128 | 94° | 139km/h | 11261m | 4.2m/s | -54.4°C | 43.1% | 228.4hPa | 2.8V | 00:00:00 | 00:00:00 | 00:00:00 | |
| SONDE2-11 | 2026-08-30 17:23:45 | 52.21806 | 14.81071 | 94° | 137km/h | 11257m | 4.2m/s | -54.3°C | 43.3% | 228.6hPa | 2.8V | 00:00:00 | 00:00:00 | 00:00:00 | |
| AA1-15 | 2026-08-30 17:23:43 | 52.21811 | 14.80957 | 95° | 139km/h | 11247m | 3.7m/s | -54.2°C | 49.5% | 228.9hPa | 2.8V | 18:12:15 | 01:08:36 | 00:00:00 | |
| SONDE2-12 | 2026-08-30 17:23:41 | 52.21818 | 14.80845 | 95° | 135km/h | 11238m | 4.5m/s | -54.1°C | 47.9% | 229.3hPa | 2.8V | 00:00:00 | 00:00:00 | 00:00:00 | |
| DB0DAN | 2026-08-30 17:23:40 | 52.21821 | 14.80790 | 96° | 130km/h | 11232m | 5.6m/s | -54.1°C | 45.5% | 229.38hPa | 2.8V | 00:00:00 | 00:00:00 | 00:00:00 | |
| AA1-15 | 2026-08-30 17:23:32 | 52.21848 | 14.80341 | 95° | 139km/h | 11197m | 5.7m/s | -53.9°C | 48% | 230.6hPa | 2.8V | 18:12:15 | 01:08:25 | 00:00:00 | |
| SP3WXH-11 | 2026-08-30 17:23:31 | 52.21850 | 14.80283 | 94° | 139km/h | 11193m | 3.4m/s | -53.8°C | 42.7% | 230.8hPa | 2.8V | 00:00:00 | 00:00:00 | 00:00:00 | |
| KRY50SP-1 | 2026-08-30 17:23:30 | 52.21850 | 14.80283 | 95° | 139km/h | 11193m | 3.4m/s | -53.8°C | 42.6% | 230.8hPa | 2.8V | 00:00:00 | 00:00:00 | 00:00:00 | |
| SP6BVK | 2026-08-30 17:23:28 | 52.21856 | 14.80170 | 96° | 137km/h | 11184m | 3.2m/s | -53.8°C | 41.9% | 231.1hPa | 2.8V | 00:00:00 | 00:00:00 | 00:00:00 | |
| DB0DAN | 2026-08-30 17:23:25 | 52.21870 | 14.79948 | 97° | 128km/h | 11166m | 5.5m/s | -53.7°C | 41.5% | 231.69hPa | 2.8V | 00:00:00 | 00:00:00 | 00:00:00 | |
| AA1-15 | 2026-08-30 17:23:21 | 52.21884 | 14.79728 | 95° | 135km/h | 11149m | 4.5m/s | -53.7°C | 47.5% | 232.4hPa | 2.8V | 18:12:15 | 01:08:14 | 00:00:00 | |
| KRY50SP-1 | 2026-08-30 17:23:18 | 52.21890 | 14.79617 | 96° | 135km/h | 11139m | 3.9m/s | -53.6°C | 42.1% | 232.7hPa | 2.7V | 00:00:00 | 00:00:00 | 00:00:00 | |
| SONCRA | 2026-08-30 17:23:15 | 52.21904 | 14.79392 | 96° | 137km/h | 11119m | 3.1m/s | -53.5°C | 43.6% | 233.3hPa | 2.7V | 00:00:00 | 00:00:00 | 00:00:00 | |
| SONDE2-11 | 2026-08-30 17:23:14 | 52.21908 | 14.79335 | 96° | 137km/h | 11115m | 5.2m/s | -53.5°C | 43.6% | 233.5hPa | 2.7V | 00:00:00 | 00:00:00 | 00:00:00 | |
| KRY50SP-1 | 2026-08-30 17:23:13 | 52.21908 | 14.79335 | 97° | 139km/h | 11115m | 5.2m/s | -53.5°C | 43.6% | 233.5hPa | 2.7V | 00:00:00 | 00:00:00 | 00:00:00 | |
| 13BRC | 2026-08-30 17:23:12 | 52.21912 | 14.79279 | 97° | 139km/h | 11111m | 3.7m/s | -53.5°C | 44.0% | 233.7hPa | 2.7V | 00:00:00 | 00:00:00 | 00:00:00 | |
| DB0DAN | 2026-08-30 17:23:10 | 52.21923 | 14.79111 | 97° | 130km/h | 11097m | 4.8m/s | -53.4°C | 44.9% | 234.13hPa | 2.7V | 00:00:00 | 00:00:00 | 00:00:00 | |
| SONDE2-12 | 2026-08-30 17:23:10 | 52.21923 | 14.79111 | 96° | 135km/h | 11097m | 4.8m/s | -53.4°C | 48.0% | 234.1hPa | 2.8V | 00:00:00 | 00:00:00 | 00:00:00 | |
| AA1-15 | 2026-08-30 17:23:10 | 52.21923 | 14.79111 | 97° | 137km/h | 11097m | 4.8m/s | -53.4°C | 50% | 234.1hPa | 2.7V | 18:12:15 | 01:08:03 | 00:00:00 | |
| AA1-15 | 2026-08-30 17:22:59 | 52.21965 | 14.78507 | 96° | 135km/h | 11046m | 4.6m/s | -53°C | 53.8% | 236hPa | 2.8V | 18:12:15 | 01:07:52 | 00:00:00 | |
| DB0DAN | 2026-08-30 17:22:55 | 52.21979 | 14.78285 | 96° | 130km/h | 11026m | 3.4m/s | -52.9°C | 50.9% | 236.56hPa | 2.8V | 00:00:00 | 00:00:00 | 00:00:00 | |
| AA1-15 | 2026-08-30 17:22:48 | 52.22003 | 14.77893 | 96° | 137km/h | 10993m | 3.6m/s | -52.6°C | 57.8% | 237.7hPa | 2.8V | 18:12:15 | 01:07:41 | 00:00:00 | |
| SP6BVK | 2026-08-30 17:22:46 | 52.22006 | 14.77837 | 97° | 137km/h | 10988m | 5.2m/s | -52.6°C | 53.5% | 237.9hPa | 2.8V | 00:00:00 | 00:00:00 | 00:00:00 | |
| SONCRA | 2026-08-30 17:22:44 | 52.22016 | 14.77670 | 96° | 137km/h | 10974m | 3.9m/s | -52.5°C | 53.8% | 238.3hPa | 2.8V | 00:00:00 | 00:00:00 | 00:00:00 | |
| SONDE2-11 | 2026-08-30 17:22:43 | 52.22020 | 14.77614 | 96° | 135km/h | 10969m | 5.7m/s | -52.5°C | 53.9% | 238.5hPa | 2.8V | 00:00:00 | 00:00:00 | 00:00:00 | |
| DB0DAN | 2026-08-30 17:22:40 | 52.22030 | 14.77447 | 97° | 130km/h | 10953m | 4m/s | -52.3°C | 53.5% | 239.08hPa | 2.8V | 00:00:00 | 00:00:00 | 00:00:00 | |
| SONDE2-12 | 2026-08-30 17:22:39 | 52.22033 | 14.77392 | 99° | 137km/h | 10951m | -6.3m/s | -52.3°C | 57.2% | 239.2hPa | 2.8V | 00:00:00 | 00:00:00 | 00:00:00 | |
| AA1-15 | 2026-08-30 17:22:38 | 52.22040 | 14.77337 | 112° | 142km/h | 10955m | -8.2m/s | -52.3°C | 57.9% | 239.4hPa | 2.8V | 18:12:15 | 01:07:31 | 00:00:00 | |
| AA1-15 | 2026-08-30 17:22:27 | 52.22090 | 14.76727 | 97° | 139km/h | 10912m | 6.1m/s | -51.8°C | 57.2% | 241.2hPa | 2.7V | 18:12:15 | 01:07:20 | 00:00:00 | |
| DB0DAN | 2026-08-30 17:22:25 | 52.22099 | 14.76615 | 97° | 130km/h | 10903m | 5.4m/s | -51.8°C | 53.1% | 241.55hPa | 2.8V | 00:00:00 | 00:00:00 | 00:00:00 | |
| AA1-15 | 2026-08-30 17:22:17 | 52.22132 | 14.76169 | 97° | 139km/h | 10868m | 4.3m/s | -51.4°C | 58.7% | 242.9hPa | 2.8V | 18:12:15 | 01:07:10 | 00:00:00 | |
| KRY50SP-1 | 2026-08-30 17:22:12 | 52.22150 | 14.75943 | 99° | 139km/h | 10850m | 5.4m/s | -51.3°C | 55.4% | 243.5hPa | 2.7V | 00:00:00 | 00:00:00 | 00:00:00 | |
| DB0DAN | 2026-08-30 17:22:10 | 52.22165 | 14.75775 | 98° | 128km/h | 10837m | 3.8m/s | -51.2°C | 55.3% | 244.03hPa | 2.7V | 00:00:00 | 00:00:00 | 00:00:00 | |
| SONDE2-12 | 2026-08-30 17:22:08 | 52.22175 | 14.75665 | 98° | 135km/h | 10827m | 3.8m/s | -51.1°C | 58.7% | 244.4hPa | 2.8V | 00:00:00 | 00:00:00 | 00:00:00 | |
| AA1-15 | 2026-08-30 17:22:06 | 52.22184 | 14.75556 | 98° | 133km/h | 10817m | 4.3m/s | -51°C | 59.2% | 244.7hPa | 2.8V | 18:12:15 | 01:06:59 | 00:00:00 | |
| S3001 | 2026-08-30 17:21:59 | 52.22216 | 14.75168 | 96° | 139km/h | 10786m | 3.6m/s | -50.7°C | 54.8% | 245.9hPa | 2.8V | 00:00:00 | 00:00:00 | 00:00:00 | |
| SP3WXH-11 | 2026-08-30 17:21:58 | 52.22220 | 14.75110 | 97° | 141km/h | 10782m | 4.2m/s | -50.7°C | 54.8% | 246.1hPa | 2.8V | 00:00:00 | 00:00:00 | 00:00:00 | |
| DB0DAN | 2026-08-30 17:21:55 | 52.22233 | 14.74938 | 97° | 133km/h | 10768m | 5.4m/s | -50.6°C | 54.6% | 246.63hPa | 2.8V | 00:00:00 | 00:00:00 | 00:00:00 | |
| AA1-15 | 2026-08-30 17:21:55 | 52.22233 | 14.74938 | 97° | 139km/h | 10768m | 5.4m/s | -50.6°C | 58.5% | 246.6hPa | 2.8V | 18:12:15 | 01:06:48 | 00:00:00 | |
| EDDB2-11 | 2026-08-30 17:21:51 | 52.22250 | 14.74713 | 97° | 135km/h | 10750m | 4.0m/s | -50.4°C | 54.0% | 247.3hPa | 2.8V | 00:00:00 | 00:00:00 | 00:00:00 | |
| AA1-15 | 2026-08-30 17:21:44 | 52.22280 | 14.74322 | 97° | 141km/h | 10719m | 4.2m/s | -50.1°C | 57.7% | 248.5hPa | 2.8V | 18:12:15 | 01:06:37 | 00:00:00 | |
| DB0DAN | 2026-08-30 17:21:40 | 52.22298 | 14.74093 | 98° | 131km/h | 10702m | 4.3m/s | -50°C | 53.8% | 249.17hPa | 2.8V | 00:00:00 | 00:00:00 | 00:00:00 | |
| SONDE2-12 | 2026-08-30 17:21:37 | 52.22313 | 14.73927 | 98° | 133km/h | 10687m | 5.0m/s | -49.9°C | 56.5% | 249.7hPa | 2.8V | 00:00:00 | 00:00:00 | 00:00:00 | |
| AA1-15 | 2026-08-30 17:21:33 | 52.22332 | 14.73707 | 98° | 137km/h | 10669m | 3.6m/s | -49.7°C | 56.1% | 250.4hPa | 2.8V | 18:12:15 | 01:06:26 | 00:00:00 | |
| 13BRC | 2026-08-30 17:21:28 | 52.22349 | 14.73480 | 98° | 139km/h | 10650m | 4.5m/s | -49.6°C | 50.5% | 251.1hPa | 2.7V | 00:00:00 | 00:00:00 | 00:00:00 | |
| KRY50SP-1 | 2026-08-30 17:21:27 | 52.22353 | 14.73424 | 98° | 139km/h | 10646m | 4.5m/s | -49.6°C | 50.4% | 251.3hPa | 2.7V | 00:00:00 | 00:00:00 | 00:00:00 | |
| DB0DAN | 2026-08-30 17:21:25 | 52.22366 | 14.73253 | 97° | 133km/h | 10632m | 5.4m/s | -49.5°C | 50.6% | 251.82hPa | 2.7V | 00:00:00 | 00:00:00 | 00:00:00 | |
| AA1-15 | 2026-08-30 17:21:22 | 52.22379 | 14.73082 | 97° | 141km/h | 10618m | 5.4m/s | -49.4°C | 55.2% | 252.3hPa | 2.8V | 18:12:15 | 01:06:15 | 00:00:00 | |
| AA1-15 | 2026-08-30 17:21:11 | 52.22431 | 14.72466 | 98° | 135km/h | 10567m | 4m/s | -49°C | 55.2% | 254.3hPa | 2.8V | 18:12:15 | 01:06:04 | 00:00:00 | |
| DB0DAN | 2026-08-30 17:21:10 | 52.22436 | 14.72411 | 98° | 128km/h | 10562m | 5m/s | -49°C | 50.7% | 254.43hPa | 2.8V | 00:00:00 | 00:00:00 | 00:00:00 | |
| SONDE2-12 | 2026-08-30 17:21:06 | 52.22454 | 14.72191 | 97° | 133km/h | 10545m | 5.3m/s | -48.8°C | 53.1% | 255.1hPa | 2.8V | 00:00:00 | 00:00:00 | 00:00:00 | |
| SP6BVK | 2026-08-30 17:21:04 | 52.22458 | 14.72136 | 99° | 135km/h | 10540m | 4.4m/s | -48.8°C | 50.4% | 255.3hPa | 2.8V | 00:00:00 | 00:00:00 | 00:00:00 | |
| S3001 | 2026-08-30 17:20:57 | 52.22494 | 14.71700 | 97° | 133km/h | 10503m | 4.6m/s | -48.5°C | 50.3% | 256.7hPa | 2.8V | 00:00:00 | 00:00:00 | 00:00:00 | |
| SP3WXH-11 | 2026-08-30 17:20:56 | 52.22499 | 14.71645 | 97° | 133km/h | 10499m | 3.6m/s | -48.5°C | 50.4% | 256.9hPa | 2.8V | 00:00:00 | 00:00:00 | 00:00:00 | |
| DB0DAN | 2026-08-30 17:20:55 | 52.22503 | 14.71590 | 97° | 128km/h | 10495m | 4.5m/s | -48.5°C | 50.2% | 257.08hPa | 2.8V | 00:00:00 | 00:00:00 | 00:00:00 | |
| NBG1-10 | 2026-08-30 17:20:54 | 52.22507 | 14.71536 | 98° | 130km/h | 10490m | 4.4m/s | -48.4°C | 0% | 257.2hPa | 2.7V | 00:00:00 | 01:05:47 | 00:00:00 | |
| KRY50SP-1 | 2026-08-30 17:20:50 | 52.22521 | 14.71374 | 99° | 131km/h | 10476m | 5.3m/s | -48.3°C | 50.1% | 257.8hPa | 2.7V | 00:00:00 | 00:00:00 | 00:00:00 | |
| DL2RXE-15 | 2026-08-30 17:20:49 | 52.22525 | 14.71321 | 99° | 131km/h | 10471m | 3.8m/s | -48.3°C | 0% | 258.0hPa | 2.7V | 00:00:00 | 00:00:00 | 00:00:00 | |
| 13BRC | 2026-08-30 17:20:47 | 52.22534 | 14.71214 | 99° | 130km/h | 10463m | 3.0m/s | -48.2°C | 49.7% | 258.3hPa | 2.7V | 00:00:00 | 00:00:00 | 00:00:00 | |
| DB0DAN | 2026-08-30 17:20:40 | 52.22571 | 14.70787 | 97° | 124km/h | 10424m | 5.4m/s | -47.9°C | 48.9% | 259.71hPa | 2.7V | 00:00:00 | 00:00:00 | 00:00:00 | |
| AA1-15 | 2026-08-30 17:20:40 | 52.22571 | 14.70787 | 97° | 131km/h | 10424m | 5.4m/s | -47.9°C | 53.3% | 259.7hPa | 2.7V | 18:12:15 | 01:05:33 | 00:00:00 | |
| SONDE2-12 | 2026-08-30 17:20:35 | 52.22596 | 14.70471 | 97° | 126km/h | 10398m | 4.9m/s | -47.7°C | 51.8% | 260.8hPa | 2.9V | 00:00:00 | 00:00:00 | 00:00:00 | |
| KRY50SP-1 | 2026-08-30 17:20:34 | 52.22591 | 14.70523 | 99° | 128km/h | 10402m | 3.5m/s | -47.7°C | 49.2% | 260.6hPa | 2.9V | 00:00:00 | 00:00:00 | 00:00:00 | |
| KRY50SP-1 | 2026-08-30 17:20:29 | 52.22614 | 14.70263 | 99° | 126km/h | 10380m | 4.3m/s | -47.5°C | 49.5% | 261.5hPa | 2.9V | 00:00:00 | 00:00:00 | 00:00:00 | |
| DL2RXE-15 | 2026-08-30 17:20:28 | 52.22618 | 14.70212 | 98° | 128km/h | 10375m | 5.2m/s | -47.5°C | 49.4% | 261.7hPa | 2.9V | 00:00:00 | 00:00:00 | 00:00:00 | |
| 13BRC | 2026-08-30 17:20:27 | 52.22622 | 14.70159 | 98° | 128km/h | 10371m | 4.4m/s | -47.4°C | 50.0% | 261.9hPa | 2.9V | 00:00:00 | 00:00:00 | 00:00:00 | |
| DB0DAN | 2026-08-30 17:20:25 | 52.22634 | 14.70002 | 97° | 122km/h | 10358m | 5.2m/s | -47.3°C | 49.8% | 262.38hPa | 2.9V | 00:00:00 | 00:00:00 | 00:00:00 | |
| AA1-15 | 2026-08-30 17:20:23 | 52.22641 | 14.69898 | 96° | 128km/h | 10349m | 4.1m/s | -47.3°C | 53.8% | 262.8hPa | 2.8V | 18:12:15 | 01:05:16 | 00:00:00 | |
| AA1-15 | 2026-08-30 17:20:12 | 52.22682 | 14.69320 | 96° | 128km/h | 10301m | 4.8m/s | -46.9°C | 51.7% | 264.6hPa | 2.8V | 18:12:15 | 01:05:05 | 00:00:00 | |
| DB0DAN | 2026-08-30 17:20:10 | 52.22689 | 14.69215 | 97° | 120km/h | 10293m | 4.5m/s | -46.8°C | 47.2% | 264.94hPa | 2.7V | 00:00:00 | 00:00:00 | 00:00:00 | |
| SONDE2-12 | 2026-08-30 17:20:04 | 52.22715 | 14.68853 | 96° | 128km/h | 10263m | 4.2m/s | -46.6°C | 50.1% | 266.1hPa | 2.8V | 00:00:00 | 00:00:00 | 00:00:00 | |
| SP6BVK | 2026-08-30 17:20:03 | 52.22712 | 14.68905 | 97° | 128km/h | 10267m | 4.2m/s | -46.6°C | 47.0% | 266.0hPa | 2.8V | 00:00:00 | 00:00:00 | 00:00:00 | |
| KRY50SP-1 | 2026-08-30 17:20:01 | 52.22719 | 14.68800 | 97° | 128km/h | 10259m | 5.2m/s | -46.5°C | 47.3% | 266.3hPa | 2.8V | 00:00:00 | 00:00:00 | 00:00:00 | |
| DL2RXE-15 | 2026-08-30 17:20:00 | 52.22722 | 14.68748 | 97° | 126km/h | 10254m | 3.6m/s | -46.5°C | 0% | 266.5hPa | 2.8V | 00:00:00 | 00:00:00 | 00:00:00 | |
| DB0DAN | 2026-08-30 17:19:55 | 52.22748 | 14.68448 | 99° | 115km/h | 10229m | 5.1m/s | -46.3°C | 48.9% | 267.48hPa | 2.8V | 00:00:00 | 00:00:00 | 00:00:00 | |
| AA1-15 | 2026-08-30 17:19:55 | 52.22748 | 14.68448 | 99° | 122km/h | 10229m | 5.1m/s | -46.3°C | 53.1% | 267.5hPa | 2.8V | 18:12:15 | 01:04:48 | 00:00:00 | |
| SP3WXH-11 | 2026-08-30 17:19:54 | 52.22758 | 14.68348 | 99° | 124km/h | 10221m | 4.5m/s | -46.3°C | 49.5% | 267.8hPa | 2.7V | 00:00:00 | 00:00:00 | 00:00:00 | |
| KRY50SP-1 | 2026-08-30 17:19:50 | 52.22767 | 14.68245 | 98° | 126km/h | 10214m | 4.2m/s | -46.2°C | 50.0% | 268.2hPa | 2.7V | 00:00:00 | 00:00:00 | 00:00:00 | |
| NBG1-10 | 2026-08-30 17:19:47 | 52.22781 | 14.68037 | 96° | 122km/h | 10198m | 3.1m/s | 0°C | 0% | 0hPa | 2.7V | 00:00:00 | 01:04:40 | 00:00:00 | |
| KRY50SP-1 | 2026-08-30 17:19:45 | 52.22785 | 14.67986 | 97° | 126km/h | 10194m | 5.0m/s | -46.1°C | 51.2% | 269.0hPa | 2.7V | 00:00:00 | 00:00:00 | 00:00:00 | |
| SP6BVK | 2026-08-30 17:19:42 | 52.22795 | 14.67834 | 98° | 122km/h | 10183m | 3.9m/s | -46.0°C | 51.1% | 269.5hPa | 2.7V | 00:00:00 | 00:00:00 | 00:00:00 | |
| DB0DAN | 2026-08-30 17:19:40 | 52.22807 | 14.67683 | 97° | 119km/h | 10170m | 4.2m/s | -45.9°C | 51.2% | 269.98hPa | 2.7V | 00:00:00 | 00:00:00 | 00:00:00 | |
| SONDE2-12 | 2026-08-30 17:19:33 | 52.22836 | 14.67272 | 95° | 122km/h | 10137m | 3.3m/s | -45.7°C | 55.1% | 271.3hPa | 2.7V | 00:00:00 | 00:00:00 | 00:00:00 | |
| AA1-15 | 2026-08-30 17:19:27 | 52.22850 | 14.67021 | 96° | 122km/h | 10116m | 3.5m/s | -45.6°C | 57.2% | 272.2hPa | 2.7V | 18:12:15 | 01:04:20 | 00:00:00 | |
| DB0DAN | 2026-08-30 17:19:25 | 52.22856 | 14.66921 | 95° | 117km/h | 10108m | 3.1m/s | -45.5°C | 53.4% | 272.52hPa | 2.9V | 00:00:00 | 00:00:00 | 00:00:00 | |
| S3001 | 2026-08-30 17:19:24 | 52.22859 | 14.66870 | 94° | 122km/h | 10104m | 4.5m/s | -45.5°C | 53.5% | 272.7hPa | 2.7V | 00:00:00 | 00:00:00 | 00:00:00 | |
| SP3WXH-11 | 2026-08-30 17:19:23 | 52.22863 | 14.66769 | 94° | 120km/h | 10097m | 4.4m/s | -45.5°C | 54.6% | 273.0hPa | 2.7V | 00:00:00 | 00:00:00 | 00:00:00 | |
| SP6BVK | 2026-08-30 17:19:21 | 52.22863 | 14.66769 | 95° | 120km/h | 10097m | 4.4m/s | -45.5°C | 54.6% | 273.0hPa | 2.7V | 00:00:00 | 00:00:00 | 00:00:00 | |
| KRY50SP-1 | 2026-08-30 17:19:17 | 52.22874 | 14.66573 | 96° | 119km/h | 10081m | 3.5m/s | -45.4°C | 56.0% | 273.7hPa | 2.7V | 00:00:00 | 00:00:00 | 00:00:00 | |
| EDDB2-11 | 2026-08-30 17:19:16 | 52.22879 | 14.66475 | 95° | 120km/h | 10073m | 3.4m/s | -45.4°C | 56.7% | 274.0hPa | 2.7V | 00:00:00 | 00:00:00 | 00:00:00 | |
| NBG1-10 | 2026-08-30 17:19:14 | 52.22884 | 14.66375 | 95° | 120km/h | 10065m | 3.7m/s | 0°C | 0% | 0hPa | 2.7V | 00:00:00 | 01:04:07 | 00:00:00 | |
| MECKS9 | 2026-08-30 17:19:13 | 52.22884 | 14.66375 | 95° | 120km/h | 10065m | 3.7m/s | -45.3°C | 0% | 0hPa | 2.7V | 00:00:00 | 00:00:00 | 00:00:00 | |
| DB0DAN | 2026-08-30 17:19:10 | 52.22893 | 14.66174 | 93° | 115km/h | 10050m | 3.1m/s | -45.2°C | 60.4% | 274.95hPa | 2.7V | 00:00:00 | 00:00:00 | 00:00:00 | |
| SONDE2-12 | 2026-08-30 17:19:02 | 52.22914 | 14.65740 | 94° | 117km/h | 10014m | 5.0m/s | -45.0°C | 65.0% | 276.3hPa | 2.9V | 00:00:00 | 00:00:00 | 00:00:00 | |
| SP6BVK | 2026-08-30 17:19:01 | 52.22912 | 14.65788 | 95° | 117km/h | 10018m | 3.1m/s | -45.0°C | 61.5% | 276.2hPa | 2.9V | 00:00:00 | 00:00:00 | 00:00:00 | |
| KRY50SP-1 | 2026-08-30 17:19:00 | 52.22914 | 14.65740 | 96° | 117km/h | 10014m | 5.0m/s | -45.0°C | 61.5% | 276.3hPa | 2.9V | 00:00:00 | 00:00:00 | 00:00:00 | |
| DB0DAN | 2026-08-30 17:18:55 | 52.22926 | 14.65443 | 93° | 115km/h | 9990m | 4.8m/s | -44.8°C | 62.4% | 277.25hPa | 2.9V | 00:00:00 | 00:00:00 | 00:00:00 | |
| S3001 | 2026-08-30 17:18:53 | 52.22929 | 14.65345 | 93° | 119km/h | 9983m | 4.4m/s | -44.7°C | 62.7% | 277.6hPa | 2.9V | 00:00:00 | 00:00:00 | 00:00:00 | |
| SP3WXH-11 | 2026-08-30 17:18:52 | 52.22933 | 14.65247 | 93° | 117km/h | 9975m | 5.0m/s | -44.7°C | 63.0% | 277.9hPa | 2.9V | 00:00:00 | 00:00:00 | 00:00:00 | |
| EDDB2-11 | 2026-08-30 17:18:45 | 52.22947 | 14.64957 | 94° | 117km/h | 9952m | 4.0m/s | -44.5°C | 65.6% | 278.8hPa | 2.9V | 00:00:00 | 00:00:00 | 00:00:00 | |
| KRY50SP-1 | 2026-08-30 17:18:43 | 52.22949 | 14.64909 | 95° | 115km/h | 9948m | 3.8m/s | -44.5°C | 65.9% | 279.0hPa | 2.9V | 00:00:00 | 00:00:00 | 00:00:00 | |
| 13BRC | 2026-08-30 17:18:42 | 52.22951 | 14.64862 | 95° | 117km/h | 9944m | 4.3m/s | -44.5°C | 65.5% | 279.1hPa | 2.9V | 00:00:00 | 00:00:00 | 00:00:00 | |
| DB0DAN | 2026-08-30 17:18:40 | 52.22957 | 14.64718 | 94° | 111km/h | 9931m | 5.5m/s | -44.4°C | 65.8% | 279.72hPa | 2.9V | 00:00:00 | 00:00:00 | 00:00:00 | |
| SONDE2-12 | 2026-08-30 17:18:31 | 52.22976 | 14.64246 | 93° | 111km/h | 9891m | 2.8m/s | -44.0°C | 69.0% | 281.4hPa | 2.7V | 00:00:00 | 00:00:00 | 00:00:00 | |
| AA1-15 | 2026-08-30 17:18:30 | 52.22976 | 14.64246 | 94° | 113km/h | 9890m | 2.8m/s | -44°C | 67.8% | 281.4hPa | 2.7V | 18:12:15 | 01:03:23 | 00:00:00 | |
| KRY50SP-1 | 2026-08-30 17:18:27 | 52.22980 | 14.64153 | 94° | 115km/h | 9883m | 3.7m/s | -43.9°C | 65.6% | 281.7hPa | 2.7V | 00:00:00 | 00:00:00 | 00:00:00 | |
| DB0DAN | 2026-08-30 17:18:25 | 52.22983 | 14.64011 | 92° | 110km/h | 9872m | 3.5m/s | -43.8°C | 66.5% | 282.23hPa | 2.7V | 00:00:00 | 00:00:00 | 00:00:00 | |
| AA1-15 | 2026-08-30 17:18:19 | 52.22990 | 14.63730 | 93° | 113km/h | 9849m | 3.8m/s | -43.7°C | 68.7% | 283.1hPa | 2.9V | 18:12:15 | 01:03:12 | 00:00:00 | |
| KRY50SP-1 | 2026-08-30 17:18:16 | 52.22993 | 14.63636 | 94° | 115km/h | 9841m | 3.6m/s | -43.6°C | 66.8% | 283.5hPa | 2.9V | 00:00:00 | 00:00:00 | 00:00:00 | |
| EDDB2-11 | 2026-08-30 17:18:14 | 52.22998 | 14.63495 | 93° | 113km/h | 9829m | 3.8m/s | -43.5°C | 66.8% | 283.9hPa | 2.9V | 00:00:00 | 00:00:00 | 00:00:00 | |
| DB0DAN | 2026-08-30 17:18:10 | 52.23005 | 14.63309 | 93° | 108km/h | 9814m | 3.8m/s | -43.4°C | 67.1% | 284.58hPa | 2.9V | 00:00:00 | 00:00:00 | 00:00:00 | |
| SONDE2-12 | 2026-08-30 17:18:00 | 52.23018 | 14.62800 | 92° | 113km/h | 9774m | 5.0m/s | -43.2°C | 70.8% | 286.2hPa | 2.9V | 00:00:00 | 00:00:00 | 00:00:00 | |
| SP6BVK | 2026-08-30 17:17:59 | 52.23017 | 14.62847 | 93° | 113km/h | 9777m | 2.6m/s | -43.3°C | 67.8% | 286.2hPa | 2.9V | 00:00:00 | 00:00:00 | 00:00:00 | |
| DB0DAN | 2026-08-30 17:17:55 | 52.23023 | 14.62614 | 93° | 106km/h | 9757m | 3.8m/s | -43.1°C | 67.1% | 286.96hPa | 2.9V | 00:00:00 | 00:00:00 | 00:00:00 | |
| S3001 | 2026-08-30 17:17:51 | 52.23029 | 14.62430 | 93° | 110km/h | 9742m | 3.5m/s | -42.9°C | 66.4% | 287.6hPa | 2.9V | 00:00:00 | 00:00:00 | 00:00:00 | |
| SP3WXH-11 | 2026-08-30 17:17:50 | 52.23032 | 14.62339 | 92° | 110km/h | 9734m | 5.4m/s | -42.9°C | 66.2% | 287.9hPa | 2.9V | 00:00:00 | 00:00:00 | 00:00:00 | |
| KRY50SP-1 | 2026-08-30 17:17:49 | 52.23031 | 14.62384 | 94° | 111km/h | 9739m | 3.3m/s | -42.9°C | 66.5% | 287.8hPa | 2.9V | 00:00:00 | 00:00:00 | 00:00:00 | |
| KRY50SP-1 | 2026-08-30 17:17:44 | 52.23038 | 14.62158 | 94° | 110km/h | 9719m | 3.4m/s | -42.7°C | 67.1% | 288.6hPa | 2.9V | 00:00:00 | 00:00:00 | 00:00:00 | |
| EDDB2-11 | 2026-08-30 17:17:43 | 52.23041 | 14.62067 | 92° | 111km/h | 9712m | 3.0m/s | -42.7°C | 66.7% | 288.9hPa | 2.9V | 00:00:00 | 00:00:00 | 00:00:00 | |
| DB0DAN | 2026-08-30 17:17:40 | 52.23042 | 14.61929 | 90° | 108km/h | 9700m | 4m/s | -42.6°C | 64.8% | 289.37hPa | 2.9V | 00:00:00 | 00:00:00 | 00:00:00 | |
| SONDE2-12 | 2026-08-30 17:17:29 | 52.23067 | 14.61377 | 95° | 113km/h | 9646m | 4.2m/s | -42.3°C | 63.7% | 291.7hPa | 2.7V | 00:00:00 | 00:00:00 | 00:00:00 | |
| DB0DAN | 2026-08-30 17:17:25 | 52.23075 | 14.61235 | 96° | 110km/h | 9634m | 4.4m/s | -42.3°C | 59.6% | 292.19hPa | 2.7V | 00:00:00 | 00:00:00 | 00:00:00 | |
| S3001 | 2026-08-30 17:17:20 | 52.23090 | 14.61001 | 96° | 113km/h | 9615m | 5.2m/s | -42.2°C | 55.8% | 293.1hPa | 2.7V | 00:00:00 | 00:00:00 | 00:00:00 | |
| SP3WXH-11 | 2026-08-30 17:17:19 | 52.23097 | 14.60909 | 97° | 111km/h | 9606m | 4.0m/s | -42.1°C | 54.4% | 293.5hPa | 2.7V | 00:00:00 | 00:00:00 | 00:00:00 | |
| DAC517 | 2026-08-30 17:17:18 | 52.23101 | 14.60863 | 98° | 113km/h | 9602m | 5.1m/s | -42.1°C | 53.2% | 293.6hPa | 2.7V | 00:00:00 | 00:00:00 | 00:00:00 | |
| KRY50SP-1 | 2026-08-30 17:17:14 | 52.23108 | 14.60772 | 98° | 111km/h | 9594m | 5.7m/s | -42.0°C | 51.4% | 294.0hPa | 2.7V | 00:00:00 | 00:00:00 | 00:00:00 | |
| DB0DAN | 2026-08-30 17:17:10 | 52.23125 | 14.60549 | 98° | 102km/h | 9575m | 3.6m/s | -41.9°C | 48.5% | 294.81hPa | 2.7V | 00:00:00 | 00:00:00 | 00:00:00 | |
| KRY50SP-1 | 2026-08-30 17:17:08 | 52.23128 | 14.60505 | 98° | 108km/h | 9571m | 4.6m/s | -41.9°C | 47.7% | 295.0hPa | 2.9V | 00:00:00 | 00:00:00 | 00:00:00 | |
| SONCRA | 2026-08-30 17:17:03 | 52.23151 | 14.60201 | 96° | 104km/h | 9543m | 5.3m/s | -41.7°C | 42.7% | 296.2hPa | 2.9V | 00:00:00 | 00:00:00 | 00:00:00 | |
| SONDE2-11 | 2026-08-30 17:17:02 | 52.23154 | 14.60158 | 96° | 102km/h | 9539m | 3.0m/s | -41.7°C | 42.4% | 296.4hPa | 2.9V | 00:00:00 | 00:00:00 | 00:00:00 | |
| 13BRC | 2026-08-30 17:16:59 | 52.23157 | 14.60116 | 98° | 104km/h | 9535m | 6.1m/s | -41.7°C | 41.9% | 296.5hPa | 2.9V | 00:00:00 | 00:00:00 | 00:00:00 | |
| SP6BVK | 2026-08-30 17:16:58 | 52.23160 | 14.60073 | 97° | 104km/h | 9530m | 3.0m/s | -41.6°C | 41.6% | 296.7hPa | 2.9V | 00:00:00 | 00:00:00 | 00:00:00 | |
| KRY50SP-1 | 2026-08-30 17:16:57 | 52.23162 | 14.60031 | 97° | 102km/h | 9526m | 4.8m/s | -41.6°C | 40.9% | 296.9hPa | 2.9V | 00:00:00 | 00:00:00 | 00:00:00 | |
| DB0DAN | 2026-08-30 17:16:55 | 52.23171 | 14.59905 | 96° | 99km/h | 9514m | 5.4m/s | -41.6°C | 38.2% | 297.48hPa | 2.9V | 00:00:00 | 00:00:00 | 00:00:00 | |
| S3001 | 2026-08-30 17:16:49 | 52.23187 | 14.59659 | 96° | 99km/h | 9491m | 3.6m/s | -41.4°C | 37.0% | 298.6hPa | 2.9V | 00:00:00 | 00:00:00 | 00:00:00 | |
| SP3WXH-11 | 2026-08-30 17:16:48 | 52.23192 | 14.59577 | 95° | 99km/h | 9483m | 2.5m/s | -41.3°C | 37.4% | 298.9hPa | 2.9V | 00:00:00 | 00:00:00 | 00:00:00 | |
| KRY50SP-1 | 2026-08-30 17:16:46 | 52.23192 | 14.59577 | 97° | 100km/h | 9483m | 2.5m/s | -41.3°C | 37.4% | 298.9hPa | 2.9V | 00:00:00 | 00:00:00 | 00:00:00 | |
| DL2RXE-15 | 2026-08-30 17:16:42 | 52.23203 | 14.59413 | 97° | 100km/h | 9468m | 2.6m/s | -41.2°C | 0% | 299.5hPa | 2.9V | 00:00:00 | 00:00:00 | 00:00:00 | |
| DB0DAN | 2026-08-30 17:16:40 | 52.23212 | 14.59293 | 96° | 91km/h | 9457m | 4.4m/s | -41.1°C | 35.5% | 299.98hPa | 2.9V | 00:00:00 | 00:00:00 | 00:00:00 | |
| SONDE2-12 | 2026-08-30 17:16:26 | 52.23242 | 14.58744 | 95° | 95km/h | 9405m | 3.3m/s | -40.7°C | 42.9% | 302.3hPa | 2.9V | 00:00:00 | 00:00:00 | 00:00:00 | |
| DB0DAN | 2026-08-30 17:16:25 | 52.23244 | 14.58705 | 94° | 91km/h | 9401m | 4.1m/s | -40.7°C | 41.2% | 302.47hPa | 2.9V | 00:00:00 | 00:00:00 | 00:00:00 | |
| KRY50SP-1 | 2026-08-30 17:16:24 | 52.23244 | 14.58705 | 95° | 97km/h | 9401m | 4.1m/s | -40.7°C | 41.2% | 302.5hPa | 2.9V | 00:00:00 | 00:00:00 | 00:00:00 | |
| DL2RXE-15 | 2026-08-30 17:16:21 | 52.23249 | 14.58588 | 94° | 95km/h | 9390m | 5.0m/s | 0°C | 0% | 303.0hPa | 2.9V | 00:00:00 | 00:00:00 | 00:00:00 | |
| KRY50SP-1 | 2026-08-30 17:16:19 | 52.23252 | 14.58511 | 95° | 93km/h | 9381m | 4.2m/s | -40.5°C | 43.0% | 303.4hPa | 2.9V | 00:00:00 | 00:00:00 | 00:00:00 | |
| S3001 | 2026-08-30 17:16:18 | 52.23257 | 14.58394 | 94° | 95km/h | 9369m | 4.3m/s | -40.4°C | 43.0% | 303.9hPa | 2.9V | 00:00:00 | 00:00:00 | 00:00:00 | |
| EDDB2-12 | 2026-08-30 17:16:17 | 52.23257 | 14.58394 | 94° | 95km/h | 9369m | 4.3m/s | -40.4°C | 43.0% | 303.9hPa | 2.9V | 00:00:00 | 00:00:00 | 00:00:00 | |
| SP6BVK | 2026-08-30 17:16:16 | 52.23257 | 14.58394 | 96° | 95km/h | 9369m | 4.3m/s | -40.4°C | 43.0% | 303.9hPa | 2.9V | 00:00:00 | 00:00:00 | 00:00:00 | |
| MECKS9 | 2026-08-30 17:16:15 | 52.23259 | 14.58355 | 96° | 97km/h | 9365m | 4.2m/s | 0°C | 0% | 0hPa | 2.9V | 00:00:00 | 00:00:00 | 00:00:00 | |
| KRY50SP-1 | 2026-08-30 17:16:13 | 52.23264 | 14.58275 | 96° | 97km/h | 9357m | 4.4m/s | -40.3°C | 42.2% | 304.4hPa | 2.9V | 00:00:00 | 00:00:00 | 00:00:00 | |
| DB0DAN | 2026-08-30 17:16:10 | 52.23272 | 14.58117 | 93° | 91km/h | 9342m | 4.6m/s | -40.2°C | 41.2% | 305.07hPa | 2.9V | 00:00:00 | 00:00:00 | 00:00:00 | |
| EDDB2-11 | 2026-08-30 17:16:10 | 52.23272 | 14.58117 | 93° | 95km/h | 9342m | 4.6m/s | -40.2°C | 41.2% | 305.1hPa | 2.9V | 00:00:00 | 00:00:00 | 00:00:00 | |
| KRY50SP-1 | 2026-08-30 17:16:07 | 52.23275 | 14.58039 | 93° | 95km/h | 9335m | 4.0m/s | -40.1°C | 40.6% | 305.4hPa | 2.9V | 00:00:00 | 00:00:00 | 00:00:00 | |
| MECKS9 | 2026-08-30 17:16:04 | 52.23277 | 14.57925 | 93° | 91km/h | 9323m | 2.9m/s | 0°C | 0% | 0hPa | 2.9V | 00:00:00 | 00:00:00 | 00:00:00 | |
| SONCRA | 2026-08-30 17:16:01 | 52.23281 | 14.57734 | 93° | 93km/h | 9304m | 4.7m/s | -39.9°C | 41.3% | 306.8hPa | 2.9V | 00:00:00 | 00:00:00 | 00:00:00 | |
| SONDE2-11 | 2026-08-30 17:16:00 | 52.23283 | 14.57696 | 93° | 93km/h | 9300m | 3.2m/s | -39.9°C | 41.8% | 307.0hPa | 2.9V | 00:00:00 | 00:00:00 | 00:00:00 | |
| DAC517 | 2026-08-30 17:15:58 | 52.23284 | 14.57657 | 94° | 93km/h | 9297m | 4.0m/s | -39.8°C | 41.9% | 307.1hPa | 2.9V | 00:00:00 | 00:00:00 | 00:00:00 | |
| KRY50SP-1 | 2026-08-30 17:15:57 | 52.23284 | 14.57657 | 94° | 93km/h | 9297m | 4.0m/s | -39.8°C | 41.9% | 307.1hPa | 2.9V | 00:00:00 | 00:00:00 | 00:00:00 | |
| DB0DAN | 2026-08-30 17:15:55 | 52.23288 | 14.57540 | 93° | 89km/h | 9284m | 4.6m/s | -39.7°C | 42.1% | 307.67hPa | 2.9V | 00:00:00 | 00:00:00 | 00:00:00 | |
| S3001 | 2026-08-30 17:15:47 | 52.23297 | 14.57192 | 91° | 93km/h | 9247m | 4.3m/s | -39.4°C | 39.9% | 309.3hPa | 2.9V | 00:00:00 | 00:00:00 | 00:00:00 | |
| SP3WXH-11 | 2026-08-30 17:15:46 | 52.23298 | 14.57153 | 91° | 93km/h | 9243m | 3.9m/s | -39.4°C | 39.6% | 309.5hPa | 2.9V | 00:00:00 | 00:00:00 | 00:00:00 | |
| MECKS9 | 2026-08-30 17:15:42 | 52.23299 | 14.57075 | 92° | 95km/h | 9235m | 4.2m/s | 0°C | 0% | 0hPa | 2.9V | 00:00:00 | 00:00:00 | 00:00:00 | |
| DB0DAN | 2026-08-30 17:15:40 | 52.23301 | 14.56957 | 92° | 89km/h | 9223m | 3.3m/s | -39.2°C | 40% | 310.44hPa | 2.9V | 00:00:00 | 00:00:00 | 00:00:00 | |
| AA1-15 | 2026-08-30 17:15:34 | 52.23304 | 14.56728 | 91° | 93km/h | 9199m | 3.6m/s | -39°C | 43.2% | 311.5hPa | 2.9V | 18:12:15 | 01:00:27 | 00:00:00 | |
| DL2RXE-15 | 2026-08-30 17:15:33 | 52.23304 | 14.56727 | 92° | 93km/h | 9199m | 3.6m/s | 0°C | 0% | 311.5hPa | 2.9V | 00:00:00 | 00:00:00 | 00:00:00 | |
| MECKS9 | 2026-08-30 17:15:30 | 52.23305 | 14.56612 | 91° | 95km/h | 9186m | 3.1m/s | 0°C | 0% | 0hPa | 2.9V | 00:00:00 | 00:00:00 | 00:00:00 | |
| SONDE2-11 | 2026-08-30 17:15:29 | 52.23305 | 14.56497 | 89° | 91km/h | 9174m | 4.9m/s | -38.8°C | 39.6% | 312.6hPa | 2.9V | 00:00:00 | 00:00:00 | 00:00:00 | |
| DB0DAN | 2026-08-30 17:15:25 | 52.23306 | 14.56384 | 90° | 88km/h | 9161m | 5m/s | -38.7°C | 39.8% | 313.09hPa | 2.9V | 00:00:00 | 00:00:00 | 00:00:00 | |
| SONDE2-12 | 2026-08-30 17:15:24 | 52.23306 | 14.56346 | 91° | 91km/h | 9157m | 2.9m/s | -38.7°C | 42.4% | 313.4hPa | 2.9V | 00:00:00 | 00:00:00 | 00:00:00 | |
| AA1-15 | 2026-08-30 17:15:18 | 52.23312 | 14.56120 | 92° | 89km/h | 9132m | 3.7m/s | -38.5°C | 44.6% | 314.6hPa | 2.9V | 18:12:15 | 01:00:11 | 00:00:00 | |
| S3001 | 2026-08-30 17:15:16 | 52.23315 | 14.56008 | 92° | 89km/h | 9120m | 5.4m/s | -38.4°C | 42.9% | 315.0hPa | 2.9V | 00:00:00 | 00:00:00 | 00:00:00 | |
| EDDB2-12 | 2026-08-30 17:15:15 | 52.23315 | 14.56008 | 92° | 89km/h | 9120m | 5.4m/s | -38.4°C | 42.9% | 315.0hPa | 2.9V | 00:00:00 | 00:00:00 | 00:00:00 | |
| SP3WXH-11 | 2026-08-30 17:15:14 | 52.23315 | 14.55971 | 91° | 88km/h | 9116m | 3.2m/s | 0°C | -1.0% | -1.0hPa | 2.9V | 00:00:00 | 00:00:00 | 00:00:00 | |
| KRY50SP-1 | 2026-08-30 17:15:12 | 52.23316 | 14.55935 | 92° | 89km/h | 9112m | 5.2m/s | -38.3°C | 44.5% | 315.4hPa | 2.9V | 00:00:00 | 00:00:00 | 00:00:00 | |
| DB0DAN | 2026-08-30 17:15:10 | 52.23318 | 14.55825 | 92° | 84km/h | 9099m | 3.3m/s | -38.2°C | 45.7% | 315.98hPa | 2.9V | 00:00:00 | 00:00:00 | 00:00:00 | |
| AA1-15 | 2026-08-30 17:15:07 | 52.23321 | 14.55714 | 93° | 89km/h | 9087m | 4.6m/s | -38.1°C | 47.2% | 316.5hPa | 2.9V | 18:12:15 | 01:00:00 | 00:00:00 | |
| AA1-15 | 2026-08-30 17:14:56 | 52.23327 | 14.55307 | 90° | 91km/h | 9041m | 4.6m/s | -37.7°C | 47.1% | 318.7hPa | 2.9V | 18:12:15 | 00:59:49 | 00:00:00 | |
| DB0DAN | 2026-08-30 17:14:55 | 52.23327 | 14.55269 | 90° | 88km/h | 9037m | 3.7m/s | -37.7°C | 44.2% | 318.85hPa | 2.9V | 00:00:00 | 00:00:00 | 00:00:00 | |
| SONDE2-12 | 2026-08-30 17:14:53 | 52.23327 | 14.55195 | 91° | 89km/h | 9029m | 4.3m/s | -37.6°C | 46.9% | 319.2hPa | 2.9V | 00:00:00 | 00:00:00 | 00:00:00 | |
| AA1-15 | 2026-08-30 17:14:45 | 52.23335 | 14.54909 | 92° | 89km/h | 8994m | 3.2m/s | -37.4°C | 48.7% | 320.8hPa | 2.9V | 18:12:15 | 00:59:38 | 00:00:00 | |
| KRY50SP-1 | 2026-08-30 17:14:44 | 52.23335 | 14.54909 | 93° | 89km/h | 8995m | 3.2m/s | -37.4°C | 45.7% | 320.8hPa | 2.9V | 00:00:00 | 00:00:00 | 00:00:00 | |
| MECKS9 | 2026-08-30 17:14:43 | 52.23336 | 14.54873 | 92° | 89km/h | 8991m | 4.6m/s | 0°C | 0% | 0hPa | 2.9V | 00:00:00 | 00:00:00 | 00:00:00 | |
| DB0DAN | 2026-08-30 17:14:40 | 52.23336 | 14.54728 | 90° | 82km/h | 8975m | 4.6m/s | -37.3°C | 47.1% | 321.8hPa | 2.9V | 00:00:00 | 00:00:00 | 00:00:00 | |
| KRY50SP-1 | 2026-08-30 17:14:38 | 52.23336 | 14.54692 | 92° | 88km/h | 8971m | 4.8m/s | -37.3°C | 48.1% | 322.0hPa | 2.8V | 00:00:00 | 00:00:00 | 00:00:00 | |
| EDDB2-11 | 2026-08-30 17:14:37 | 52.23337 | 14.54620 | 90° | 86km/h | 8961m | 4.3m/s | -37.2°C | 49.8% | 322.4hPa | 2.8V | 00:00:00 | 00:00:00 | 00:00:00 | |
| 13BRC | 2026-08-30 17:14:35 | 52.23338 | 14.54584 | 92° | 88km/h | 8958m | 3.7m/s | -37.2°C | 50.4% | 322.6hPa | 2.8V | 00:00:00 | 00:00:00 | 00:00:00 | |
| SP6BVK | 2026-08-30 17:14:33 | 52.23339 | 14.54511 | 93° | 89km/h | 8950m | 3.7m/s | -37.1°C | 51.4% | 323.0hPa | 2.8V | 00:00:00 | 00:00:00 | 00:00:00 | |
| KRY50SP-1 | 2026-08-30 17:14:32 | 52.23339 | 14.54475 | 93° | 88km/h | 8946m | 4.6m/s | -37.1°C | 51.8% | 323.2hPa | 2.8V | 00:00:00 | 00:00:00 | 00:00:00 | |
| DB0DAN | 2026-08-30 17:14:25 | 52.23344 | 14.54186 | 92° | 86km/h | 8911m | 5.4m/s | -36.9°C | 54.8% | 324.78hPa | 2.8V | 00:00:00 | 00:00:00 | 00:00:00 | |
| SONDE2-12 | 2026-08-30 17:14:22 | 52.23345 | 14.54075 | 91° | 89km/h | 8898m | 3.4m/s | -36.8°C | 56.9% | 325.4hPa | 2.7V | 00:00:00 | 00:00:00 | 00:00:00 | |
| KRY50SP-1 | 2026-08-30 17:14:20 | 52.23345 | 14.54037 | 92° | 91km/h | 8893m | 5.5m/s | -36.8°C | 53.8% | 325.6hPa | 2.7V | 00:00:00 | 00:00:00 | 00:00:00 | |
| DL2RXE-15 | 2026-08-30 17:14:16 | 52.23347 | 14.53890 | 91° | 89km/h | 8876m | 5.9m/s | -36.6°C | 0% | 326.4hPa | 2.7V | 00:00:00 | 00:00:00 | 00:00:00 | |
| KRY50SP-1 | 2026-08-30 17:14:15 | 52.23347 | 14.53853 | 91° | 88km/h | 8871m | 4.4m/s | -36.6°C | 51.4% | 326.7hPa | 2.7V | 00:00:00 | 00:00:00 | 00:00:00 | |
| 13BRC | 2026-08-30 17:14:14 | 52.23347 | 14.53817 | 90° | 88km/h | 8867m | 3.8m/s | -36.5°C | 51.1% | 326.9hPa | 2.7V | 00:00:00 | 00:00:00 | 00:00:00 | |
| SP6BVK | 2026-08-30 17:14:13 | 52.23346 | 14.53781 | 90° | 88km/h | 8862m | 5.8m/s | -36.5°C | 50.9% | 327.1hPa | 2.7V | 00:00:00 | 00:00:00 | 00:00:00 | |
| DB0DAN | 2026-08-30 17:14:10 | 52.23346 | 14.53636 | 90° | 84km/h | 8844m | 5.1m/s | -36.3°C | 50.3% | 327.9hPa | 2.7V | 00:00:00 | 00:00:00 | 00:00:00 | |
| AA1-15 | 2026-08-30 17:13:59 | 52.23348 | 14.53240 | 91° | 88km/h | 8798m | 5.1m/s | -36°C | 53.5% | 330.1hPa | 2.9V | 18:12:15 | 00:58:52 | 00:00:00 | |
| SONCRA | 2026-08-30 17:13:56 | 52.23349 | 14.53133 | 88° | 86km/h | 8784m | 5.7m/s | -35.9°C | 51.0% | -1.0hPa | 2.9V | 00:00:00 | 00:00:00 | 00:00:00 | |
| DB0DAN | 2026-08-30 17:13:55 | 52.23348 | 14.53097 | 88° | 82km/h | 8779m | 3.6m/s | -35.8°C | 51.1% | 331.01hPa | 2.9V | 00:00:00 | 00:00:00 | 00:00:00 | |
| SONDE2-12 | 2026-08-30 17:13:51 | 52.23346 | 14.52956 | 89° | 84km/h | 8762m | 5.6m/s | -35.7°C | 52.8% | 331.9hPa | 2.9V | 00:00:00 | 00:00:00 | 00:00:00 | |
| AA1-15 | 2026-08-30 17:13:47 | 52.23347 | 14.52814 | 92° | 88km/h | 8743m | 4m/s | -35.5°C | 53.3% | 332.7hPa | 2.9V | 18:12:15 | 00:58:40 | 00:00:00 | |
| KRY50SP-1 | 2026-08-30 17:13:42 | 52.23349 | 14.52667 | 90° | 88km/h | 8724m | 5.4m/s | -35.3°C | 52.1% | 333.6hPa | 2.9V | 00:00:00 | 00:00:00 | 00:00:00 | |
| DB0DAN | 2026-08-30 17:13:40 | 52.23348 | 14.52561 | 88° | 80km/h | 8710m | 3.8m/s | -35.2°C | 54.7% | 334.32hPa | 2.9V | 00:00:00 | 00:00:00 | 00:00:00 | |
| KRY50SP-1 | 2026-08-30 17:13:36 | 52.23346 | 14.52458 | 91° | 84km/h | 8697m | 4.8m/s | -35.2°C | 56.2% | 334.8hPa | 2.9V | 00:00:00 | 00:00:00 | 00:00:00 | |
| EDDB2-11 | 2026-08-30 17:13:35 | 52.23347 | 14.52387 | 90° | 86km/h | 8688m | 5.1m/s | -35.1°C | 56.2% | 335.3hPa | 2.9V | 00:00:00 | 00:00:00 | 00:00:00 | |
| 13BRC | 2026-08-30 17:13:33 | 52.23347 | 14.52351 | 92° | 88km/h | 8684m | 3.8m/s | -35.1°C | 55.9% | 335.5hPa | 2.9V | 00:00:00 | 00:00:00 | 00:00:00 | |
| SP6BVK | 2026-08-30 17:13:31 | 52.23347 | 14.52279 | 91° | 89km/h | 8675m | 5.3m/s | -35.0°C | 55.4% | 336.0hPa | 2.9V | 00:00:00 | 00:00:00 | 00:00:00 | |
| KRY50SP-1 | 2026-08-30 17:13:30 | 52.23347 | 14.52242 | 90° | 89km/h | 8670m | 4.4m/s | -35.0°C | 55.1% | 336.2hPa | 2.9V | 00:00:00 | 00:00:00 | 00:00:00 | |
| DL2RXE-15 | 2026-08-30 17:13:29 | 52.23347 | 14.52205 | 91° | 88km/h | 8665m | 4.4m/s | -34.9°C | 0% | 336.4hPa | 2.9V | 00:00:00 | 00:00:00 | 00:00:00 | |
| DB0DAN | 2026-08-30 17:13:25 | 52.23347 | 14.52026 | 90° | 82km/h | 8642m | 5.4m/s | -34.8°C | 53.9% | 337.47hPa | 2.9V | 00:00:00 | 00:00:00 | 00:00:00 | |
| SONDE2-12 | 2026-08-30 17:13:20 | 52.23350 | 14.51849 | 92° | 84km/h | 8619m | 5.6m/s | -34.5°C | 54.7% | 338.6hPa | 2.9V | 00:00:00 | 00:00:00 | 00:00:00 | |
| KRY50SP-1 | 2026-08-30 17:13:15 | 52.23351 | 14.51709 | 90° | 84km/h | 8601m | 4.5m/s | -34.4°C | 51.7% | 339.6hPa | 2.9V | 00:00:00 | 00:00:00 | 00:00:00 | |
| 13BRC | 2026-08-30 17:13:13 | 52.23350 | 14.51639 | 89° | 86km/h | 8592m | 4.3m/s | -34.3°C | 50.8% | 340.0hPa | 2.9V | 00:00:00 | 00:00:00 | 00:00:00 | |
| DB0DAN | 2026-08-30 17:13:10 | 52.23348 | 14.51496 | 89° | 84km/h | 8573m | 5.7m/s | -34.1°C | 49.2% | 340.86hPa | 2.9V | 00:00:00 | 00:00:00 | 00:00:00 | |
| KRY50SP-1 | 2026-08-30 17:13:09 | 52.23348 | 14.51496 | 90° | 88km/h | 8573m | 5.7m/s | -34.1°C | 49.2% | 340.9hPa | 2.9V | 00:00:00 | 00:00:00 | 00:00:00 | |
| DL2RXE-15 | 2026-08-30 17:13:08 | 52.23348 | 14.51460 | 92° | 88km/h | 8569m | 3.4m/s | 0°C | 0% | 341.1hPa | 2.9V | 00:00:00 | 00:00:00 | 00:00:00 | |
| EDDB2-11 | 2026-08-30 17:13:04 | 52.23349 | 14.51279 | 88° | 84km/h | 8546m | 3.9m/s | -33.8°C | 47.4% | 342.3hPa | 2.9V | 00:00:00 | 00:00:00 | 00:00:00 | |
| KRY50SP-1 | 2026-08-30 17:12:58 | 52.23346 | 14.51105 | 90° | 84km/h | 8523m | 4.5m/s | -33.6°C | 45.9% | 343.4hPa | 2.9V | 00:00:00 | 00:00:00 | 00:00:00 | |
| DB0DAN | 2026-08-30 17:12:55 | 52.23343 | 14.50963 | 88° | 84km/h | 8502m | 4.7m/s | -33.4°C | 45.4% | 344.29hPa | 2.9V | 00:00:00 | 00:00:00 | 00:00:00 | |
| SONDE2-12 | 2026-08-30 17:12:49 | 52.23339 | 14.50752 | 88° | 82km/h | 8474m | 5.6m/s | -33.1°C | 46.7% | 345.7hPa | 2.9V | 00:00:00 | 00:00:00 | 00:00:00 | |
| KRY50SP-1 | 2026-08-30 17:12:47 | 52.23338 | 14.50718 | 90° | 84km/h | 8469m | 4.1m/s | -33.1°C | 44.9% | 345.9hPa | 2.9V | 00:00:00 | 00:00:00 | 00:00:00 | |
| DB0DAN | 2026-08-30 17:12:40 | 52.23334 | 14.50435 | 86° | 84km/h | 8433m | 4.9m/s | -32.7°C | 43.9% | 347.67hPa | 2.9V | 00:00:00 | 00:00:00 | 00:00:00 | |
| EDDB2-12 | 2026-08-30 17:12:40 | 52.23332 | 14.50399 | 85° | 86km/h | 8429m | 4.2m/s | -32.7°C | 43.5% | 348.0hPa | 2.9V | 00:00:00 | 00:00:00 | 00:00:00 | |
| KRY50SP-1 | 2026-08-30 17:12:36 | 52.23330 | 14.50328 | 89° | 86km/h | 8420m | 3.7m/s | -32.6°C | 42.8% | 348.4hPa | 2.9V | 00:00:00 | 00:00:00 | 00:00:00 | |
| EDDB2-11 | 2026-08-30 17:12:33 | 52.23330 | 14.50190 | 89° | 82km/h | 8400m | 5.9m/s | -32.4°C | 41.3% | 349.3hPa | 2.9V | 00:00:00 | 00:00:00 | 00:00:00 | |
| 13BRC | 2026-08-30 17:12:32 | 52.23330 | 14.50190 | 91° | 84km/h | 8401m | 5.9m/s | -32.4°C | 41.3% | 349.3hPa | 2.9V | 00:00:00 | 00:00:00 | 00:00:00 | |
| KRY50SP-1 | 2026-08-30 17:12:30 | 52.23330 | 14.50121 | 91° | 86km/h | 8391m | 5.0m/s | -32.3°C | 41.0% | 349.8hPa | 2.9V | 00:00:00 | 00:00:00 | 00:00:00 | |
| SP6BVK | 2026-08-30 17:12:29 | 52.23329 | 14.50085 | 89° | 88km/h | 8386m | 4.7m/s | -32.3°C | 40.8% | 350.0hPa | 2.9V | 00:00:00 | 00:00:00 | 00:00:00 | |
| DB0DAN | 2026-08-30 17:12:25 | 52.23325 | 14.49902 | 88° | 86km/h | 8363m | 3.8m/s | -32.1°C | 38.7% | 351.22hPa | 2.9V | 00:00:00 | 00:00:00 | 00:00:00 | |
| SONDE2-12 | 2026-08-30 17:12:18 | 52.23320 | 14.49650 | 87° | 86km/h | 8331m | 4.7m/s | -31.8°C | 35.7% | 352.8hPa | 2.9V | 00:00:00 | 00:00:00 | 00:00:00 | |
| KRY50SP-1 | 2026-08-30 17:12:15 | 52.23319 | 14.49579 | 90° | 86km/h | 8321m | 4.1m/s | -31.7°C | 33.2% | 353.3hPa | 2.9V | 00:00:00 | 00:00:00 | 00:00:00 | |
| DB0DAN | 2026-08-30 17:12:10 | 52.23316 | 14.49368 | 88° | 82km/h | 8293m | 5.2m/s | -31.5°C | 31.4% | 354.7hPa | 2.9V | 00:00:00 | 00:00:00 | 00:00:00 | |
| EDDB2-12 | 2026-08-30 17:12:09 | 52.23314 | 14.49297 | 88° | 88km/h | 8283m | 5.2m/s | -31.4°C | 30.5% | 355.2hPa | 2.9V | 00:00:00 | 00:00:00 | 00:00:00 | |
| KRY50SP-1 | 2026-08-30 17:12:05 | 52.23312 | 14.49224 | 89° | 88km/h | 8273m | 4.1m/s | -31.4°C | 30.0% | 355.7hPa | 2.9V | 00:00:00 | 00:00:00 | 00:00:00 | |
| EDDB2-11 | 2026-08-30 17:12:02 | 52.23307 | 14.49081 | 87° | 84km/h | 8254m | 3.6m/s | -31.3°C | 32.9% | 356.7hPa | 2.9V | 00:00:00 | 00:00:00 | 00:00:00 | |
| KRY50SP-1 | 2026-08-30 17:11:58 | 52.23303 | 14.48978 | 88° | 84km/h | 8240m | 3.7m/s | -31.3°C | 35.8% | 357.4hPa | 2.9V | 00:00:00 | 00:00:00 | 00:00:00 | |
| DB0DAN | 2026-08-30 17:11:55 | 52.23297 | 14.48835 | 86° | 86km/h | 8220m | 3.8m/s | -31.2°C | 39.1% | 358.35hPa | 2.9V | 00:00:00 | 00:00:00 | 00:00:00 | |
| SONDE2-12 | 2026-08-30 17:11:47 | 52.23284 | 14.48541 | 85° | 88km/h | 8180m | 4.7m/s | -31.0°C | 47.5% | 360.4hPa | 2.9V | 00:00:00 | 00:00:00 | 00:00:00 | |
| DB0DAN | 2026-08-30 17:11:40 | 52.23274 | 14.48288 | 86° | 84km/h | 8146m | 4.4m/s | -30.8°C | 48% | 362.04hPa | 2.9V | 00:00:00 | 00:00:00 | 00:00:00 | |
| EDDB2-12 | 2026-08-30 17:11:38 | 52.23269 | 14.48178 | 85° | 88km/h | 8132m | 4.2m/s | -30.7°C | 50.0% | 362.8hPa | 2.9V | 00:00:00 | 00:00:00 | 00:00:00 | |
| DL2RXE-15 | 2026-08-30 17:11:31 | 52.23260 | 14.47992 | 87° | 89km/h | 8108m | 4.0m/s | 0°C | 0% | 364.1hPa | 2.9V | 00:00:00 | 00:00:00 | 00:00:00 | |
| 13BRC | 2026-08-30 17:11:30 | 52.23259 | 14.47955 | 88° | 88km/h | 8103m | 5.0m/s | -30.5°C | 51.3% | 364.3hPa | 2.9V | 00:00:00 | 00:00:00 | 00:00:00 | |
| SP6BVK | 2026-08-30 17:11:27 | 52.23258 | 14.47851 | 90° | 82km/h | 8088m | 5.6m/s | -30.4°C | 51.4% | 365.1hPa | 2.9V | 00:00:00 | 00:00:00 | 00:00:00 | |
| DB0DAN | 2026-08-30 17:11:25 | 52.23256 | 14.47747 | 88° | 82km/h | 8075m | 3.6m/s | -30.3°C | 51.4% | 365.77hPa | 2.9V | 00:00:00 | 00:00:00 | 00:00:00 | |
| AA1-15 | 2026-08-30 17:11:25 | 52.23256 | 14.47747 | 88° | 86km/h | 8075m | 3.6m/s | -30.3°C | 53.2% | 365.8hPa | 2.9V | 18:12:15 | 00:56:18 | 00:00:00 | |
| SONDE2-12 | 2026-08-30 17:11:16 | 52.23243 | 14.47428 | 84° | 82km/h | 8033m | 5.5m/s | -29.9°C | 51.5% | 367.9hPa | 2.9V | 00:00:00 | 00:00:00 | 00:00:00 | |
| DB0DAN | 2026-08-30 17:11:10 | 52.23229 | 14.47219 | 86° | 82km/h | 8003m | 4.2m/s | -29.6°C | 48.4% | 369.53hPa | 2.9V | 00:00:00 | 00:00:00 | 00:00:00 | |
| 13BRC | 2026-08-30 17:11:09 | 52.23229 | 14.47219 | 87° | 88km/h | 8003m | 4.2m/s | -29.6°C | 48.4% | 369.5hPa | 2.9V | 00:00:00 | 00:00:00 | 00:00:00 | |
| EDDB2-12 | 2026-08-30 17:11:07 | 52.23223 | 14.47079 | 84° | 84km/h | 7983m | 5.6m/s | -29.5°C | 47.1% | 370.5hPa | 2.9V | 00:00:00 | 00:00:00 | 00:00:00 | |
| EDDB2-11 | 2026-08-30 17:11:00 | 52.23208 | 14.46839 | 83° | 80km/h | 7950m | 4.9m/s | -29.2°C | 45.2% | 372.2hPa | 2.9V | 00:00:00 | 00:00:00 | 00:00:00 | |
| DB0DAN | 2026-08-30 17:10:55 | 52.23198 | 14.46705 | 84° | 78km/h | 7930m | 5.8m/s | -29°C | 41.5% | 373.26hPa | 2.9V | 00:00:00 | 00:00:00 | 00:00:00 | |
| SONDE2-12 | 2026-08-30 17:10:45 | 52.23176 | 14.46379 | 84° | 77km/h | 7881m | 4.3m/s | -28.6°C | 39.3% | 375.8hPa | 2.9V | 00:00:00 | 00:00:00 | 00:00:00 | |
| KRY50SP-1 | 2026-08-30 17:10:44 | 52.23176 | 14.46379 | 85° | 78km/h | 7882m | 4.3m/s | -28.6°C | 38.0% | 375.8hPa | 2.9V | 00:00:00 | 00:00:00 | 00:00:00 | |
| DL2RXE-15 | 2026-08-30 17:10:42 | 52.23172 | 14.46314 | 85° | 80km/h | 7873m | 4.8m/s | 0°C | 0% | 376.3hPa | 2.9V | 00:00:00 | 00:00:00 | 00:00:00 | |
| DB0DAN | 2026-08-30 17:10:40 | 52.23166 | 14.46215 | 84° | 77km/h | 7859m | 5.1m/s | -28.4°C | 39.7% | 377hPa | 2.9V | 00:00:00 | 00:00:00 | 00:00:00 | |
| EDDB2-12 | 2026-08-30 17:10:36 | 52.23158 | 14.46053 | 84° | 77km/h | 7835m | 4.6m/s | -28.1°C | 38.9% | 378.3hPa | 2.9V | 00:00:00 | 00:00:00 | 00:00:00 | |
| KRY50SP-1 | 2026-08-30 17:10:31 | 52.23152 | 14.45957 | 84° | 78km/h | 7822m | 4.1m/s | -28.0°C | 36.9% | 379.0hPa | 2.9V | 00:00:00 | 00:00:00 | 00:00:00 | |
| DAC517 | 2026-08-30 17:10:29 | 52.23144 | 14.45858 | 83° | 82km/h | 7808m | 5.5m/s | -27.9°C | 34.7% | 379.8hPa | 2.9V | 00:00:00 | 00:00:00 | 00:00:00 | |
| 13BRC | 2026-08-30 17:10:28 | 52.23144 | 14.45858 | 83° | 82km/h | 7808m | 5.5m/s | -27.9°C | 34.7% | 379.8hPa | 2.9V | 00:00:00 | 00:00:00 | 00:00:00 | |
| DB0DAN | 2026-08-30 17:10:25 | 52.23135 | 14.45725 | 84° | 75km/h | 7788m | 4.4m/s | -27.7°C | 37.2% | 380.89hPa | 2.9V | 00:00:00 | 00:00:00 | 00:00:00 | |
| AA1-15 | 2026-08-30 17:10:17 | 52.23121 | 14.45468 | 85° | 80km/h | 7750m | 5m/s | -27.4°C | 41.4% | 382.8hPa | 2.9V | 18:12:15 | 00:55:10 | 00:00:00 | |
| SONDE2-12 | 2026-08-30 17:10:14 | 52.23115 | 14.45367 | 84° | 82km/h | 7736m | 4.1m/s | -27.2°C | 36.1% | 383.6hPa | 2.9V | 00:00:00 | 00:00:00 | 00:00:00 | |
| KRY50SP-1 | 2026-08-30 17:10:12 | 52.23112 | 14.45333 | 85° | 82km/h | 7731m | 6.1m/s | -27.2°C | 30.6% | 383.8hPa | 2.9V | 00:00:00 | 00:00:00 | 00:00:00 | |
| DB0DAN | 2026-08-30 17:10:10 | 52.23106 | 14.45234 | 84° | 75km/h | 7715m | 5.9m/s | -27°C | 27.6% | 384.61hPa | 2.9V | 00:00:00 | 00:00:00 | 00:00:00 | |
| AA1-15 | 2026-08-30 17:10:06 | 52.23098 | 14.45106 | 84° | 78km/h | 7695m | 4.4m/s | -26.9°C | 37.7% | 385.7hPa | 2.9V | 18:12:15 | 00:54:59 | 00:00:00 | |
| S3001 | 2026-08-30 17:10:05 | 52.23096 | 14.45073 | 83° | 78km/h | 7690m | 5.6m/s | -26.9°C | 33.6% | 386.0hPa | 2.9V | 00:00:00 | 00:00:00 | 00:00:00 | |
| EDDB2-12 | 2026-08-30 17:10:04 | 52.23094 | 14.45041 | 84° | 78km/h | 7686m | 3.6m/s | -26.8°C | 33.9% | 386.2hPa | 2.9V | 00:00:00 | 00:00:00 | 00:00:00 | |
| EDDB2-11 | 2026-08-30 17:09:58 | 52.23080 | 14.44815 | 85° | 77km/h | 7654m | 4.0m/s | -26.6°C | 43.3% | 388.0hPa | 2.9V | 00:00:00 | 00:00:00 | 00:00:00 | |
| DB0DAN | 2026-08-30 17:09:55 | 52.23077 | 14.44752 | 83° | 75km/h | 7644m | 3.5m/s | -26.5°C | 43.8% | 388.46hPa | 2.9V | 00:00:00 | 00:00:00 | 00:00:00 | |
| SONDE2-11 | 2026-08-30 17:09:47 | 52.23059 | 14.44493 | 85° | 77km/h | 7605m | 4.7m/s | -26.3°C | 42.2% | 390.6hPa | 2.8V | 00:00:00 | 00:00:00 | 00:00:00 | |
| KRY50SP-1 | 2026-08-30 17:09:44 | 52.23055 | 14.44430 | 84° | 78km/h | 7596m | 4.1m/s | -26.2°C | 0% | 391.0hPa | 2.8V | 00:00:00 | 00:00:00 | 00:00:00 | |
| DAC517 | 2026-08-30 17:09:43 | 52.23052 | 14.44366 | 87° | 77km/h | 7586m | 4.4m/s | -26.1°C | 41.3% | 391.5hPa | 2.8V | 00:00:00 | 00:00:00 | 00:00:00 | |
| DB0DAN | 2026-08-30 17:09:40 | 52.23048 | 14.44271 | 88° | 75km/h | 7571m | 4.2m/s | -26°C | 35.5% | 392.33hPa | 2.8V | 00:00:00 | 00:00:00 | 00:00:00 | |
| KRY50SP-1 | 2026-08-30 17:09:38 | 52.23047 | 14.44239 | 88° | 77km/h | 7566m | 4.7m/s | -26.0°C | 0% | 392.6hPa | 2.9V | 00:00:00 | 00:00:00 | 00:00:00 | |
| S3001 | 2026-08-30 17:09:34 | 52.23039 | 14.44081 | 83° | 77km/h | 7544m | 5.1m/s | -25.9°C | 30.5% | 393.8hPa | 2.9V | 00:00:00 | 00:00:00 | 00:00:00 | |
| EDDB2-12 | 2026-08-30 17:09:33 | 52.23037 | 14.44050 | 83° | 77km/h | 7540m | 3.9m/s | -25.8°C | 30.3% | 394.1hPa | 2.9V | 00:00:00 | 00:00:00 | 00:00:00 | |
| SP6BVK | 2026-08-30 17:09:32 | 52.23036 | 14.44049 | 85° | 78km/h | 7540m | 3.9m/s | -25.8°C | 30.3% | 394.1hPa | 2.9V | 00:00:00 | 00:00:00 | 00:00:00 | |
| KRY50SP-1 | 2026-08-30 17:09:27 | 52.23025 | 14.43888 | 86° | 80km/h | 7515m | 4.4m/s | -25.8°C | 0% | 395.4hPa | 2.9V | 00:00:00 | 00:00:00 | 00:00:00 | |
| DB0DAN | 2026-08-30 17:09:25 | 52.23021 | 14.43790 | 85° | 73km/h | 7500m | 4.5m/s | -25.7°C | 30.2% | 396.16hPa | 2.9V | 00:00:00 | 00:00:00 | 00:00:00 | |
| SONDE2-12 | 2026-08-30 17:09:12 | 52.22998 | 14.43384 | 85° | 77km/h | 7440m | 5.1m/s | -25.3°C | 43.7% | 399.5hPa | 2.9V | 00:00:00 | 00:00:00 | 00:00:00 | |
| DB0DAN | 2026-08-30 17:09:10 | 52.22996 | 14.43319 | 86° | 75km/h | 7431m | 4.3m/s | -25.2°C | 42.8% | 400.07hPa | 2.9V | 00:00:00 | 00:00:00 | 00:00:00 | |
| 13BRC | 2026-08-30 17:09:05 | 52.22988 | 14.43189 | 86° | 78km/h | 7411m | 6.0m/s | -25.0°C | 39.4% | 401.0hPa | 2.9V | 00:00:00 | 00:00:00 | 00:00:00 | |
| DL2RXE-15 | 2026-08-30 17:09:04 | 52.22987 | 14.43157 | 87° | 78km/h | 7406m | 3.9m/s | 0°C | 0% | 401.3hPa | 2.9V | 00:00:00 | 00:00:00 | 00:00:00 | |
| S3001 | 2026-08-30 17:09:03 | 52.22984 | 14.43092 | 85° | 77km/h | 7396m | 5.8m/s | -24.9°C | 39.0% | 401.9hPa | 2.9V | 00:00:00 | 00:00:00 | 00:00:00 | |
| EDDB2-12 | 2026-08-30 17:09:02 | 52.22982 | 14.43060 | 84° | 77km/h | 7391m | 3.8m/s | -24.8°C | 39.1% | 402.1hPa | 2.9V | 00:00:00 | 00:00:00 | 00:00:00 | |
| EDDB2-11 | 2026-08-30 17:08:56 | 52.22969 | 14.42836 | 86° | 78km/h | 7358m | 4.3m/s | -24.5°C | 34.6% | 404.0hPa | 2.9V | 00:00:00 | 00:00:00 | 00:00:00 | |
| DB0DAN | 2026-08-30 17:08:55 | 52.22969 | 14.42836 | 87° | 75km/h | 7358m | 4.3m/s | -24.5°C | 34.6% | 404.04hPa | 2.9V | 00:00:00 | 00:00:00 | 00:00:00 | |
| AA1-15 | 2026-08-30 17:08:46 | 52.22958 | 14.42546 | 86° | 77km/h | 7318m | 4.4m/s | -24.3°C | 36.3% | 406.3hPa | 2.9V | 18:12:15 | 00:53:39 | 00:00:00 | |
| SONDE2-11 | 2026-08-30 17:08:45 | 52.22957 | 14.42514 | 85° | 77km/h | 7313m | 5.4m/s | -24.3°C | 31.8% | 406.5hPa | 2.8V | 00:00:00 | 00:00:00 | 00:00:00 | |
| SONDE2-12 | 2026-08-30 17:08:41 | 52.22952 | 14.42387 | 86° | 77km/h | 7295m | 4.1m/s | -24.2°C | 34.7% | 407.6hPa | 2.8V | 00:00:00 | 00:00:00 | 00:00:00 | |
| DB0DAN | 2026-08-30 17:08:40 | 52.22951 | 14.42355 | 87° | 73km/h | 7290m | 5m/s | -24.2°C | 34.9% | 407.79hPa | 2.8V | 00:00:00 | 00:00:00 | 00:00:00 | |
| AA1-15 | 2026-08-30 17:08:31 | 52.22937 | 14.42065 | 83° | 77km/h | 7250m | 4.5m/s | -23.9°C | 38.2% | 410.1hPa | 2.9V | 18:12:15 | 00:53:24 | 00:00:00 | |
| SP6BVK | 2026-08-30 17:08:29 | 52.22935 | 14.42034 | 85° | 75km/h | 7246m | 4.0m/s | -23.9°C | 35.5% | 410.3hPa | 2.9V | 00:00:00 | 00:00:00 | 00:00:00 | |
| DB0DAN | 2026-08-30 17:08:25 | 52.22925 | 14.41883 | 85° | 73km/h | 7223m | 4.2m/s | -23.7°C | 35.3% | 411.71hPa | 2.9V | 00:00:00 | 00:00:00 | 00:00:00 | |
| AA1-15 | 2026-08-30 17:08:20 | 52.22916 | 14.41726 | 84° | 77km/h | 7202m | 3.5m/s | -23.5°C | 38% | 412.9hPa | 2.9V | 18:12:15 | 00:53:13 | 00:00:00 | |
| DL2RXE-15 | 2026-08-30 17:08:15 | 52.22910 | 14.41601 | 88° | 75km/h | 7184m | 6.0m/s | 0°C | 0% | 413.9hPa | 2.9V | 00:00:00 | 00:00:00 | 00:00:00 | |
| SONDE2-11 | 2026-08-30 17:08:14 | 52.22908 | 14.41541 | 84° | 71km/h | 7175m | 5.6m/s | -23.2°C | 38.8% | 414.5hPa | 2.9V | 00:00:00 | 00:00:00 | 00:00:00 | |
| DB0DAN | 2026-08-30 17:08:10 | 52.22902 | 14.41422 | 85° | 69km/h | 7158m | 4.8m/s | -23.1°C | 40.7% | 415.38hPa | 2.9V | 00:00:00 | 00:00:00 | 00:00:00 | |
| SONDE2-12 | 2026-08-30 17:08:10 | 52.22902 | 14.41422 | 84° | 73km/h | 7158m | 4.8m/s | -23.1°C | 41.8% | 415.4hPa | 2.9V | 00:00:00 | 00:00:00 | 00:00:00 | |
| AA1-15 | 2026-08-30 17:08:09 | 52.22900 | 14.41392 | 85° | 73km/h | 7153m | 4.4m/s | -23.1°C | 43.8% | 415.6hPa | 2.9V | 18:12:15 | 00:53:02 | 00:00:00 | |
| AA1-15 | 2026-08-30 17:07:58 | 52.22893 | 14.41058 | 88° | 73km/h | 7104m | 5m/s | -22.6°C | 43.6% | 418.4hPa | 2.8V | 18:12:15 | 00:52:51 | 00:00:00 | |
| DB0DAN | 2026-08-30 17:07:55 | 52.22890 | 14.40965 | 87° | 73km/h | 7089m | 5m/s | -22.5°C | 41.4% | 419.21hPa | 2.9V | 00:00:00 | 00:00:00 | 00:00:00 | |
| AA1-15 | 2026-08-30 17:07:47 | 52.22885 | 14.40716 | 89° | 75km/h | 7054m | 4.6m/s | -22.1°C | 42.8% | 421.3hPa | 2.9V | 18:12:15 | 00:52:40 | 00:00:00 | |
| SONDE2-11 | 2026-08-30 17:07:43 | 52.22881 | 14.40595 | 85° | 73km/h | 7035m | 4.2m/s | -21.9°C | 40.0% | 422.3hPa | 2.9V | 00:00:00 | 00:00:00 | 00:00:00 | |
| 13BRC | 2026-08-30 17:07:42 | 52.22880 | 14.40595 | 86° | 73km/h | 7035m | 4.2m/s | -21.9°C | 40.0% | 422.3hPa | 2.9V | 00:00:00 | 00:00:00 | 00:00:00 | |
| DB0DAN | 2026-08-30 17:07:40 | 52.22876 | 14.40504 | 87° | 73km/h | 7021m | 3.2m/s | -21.8°C | 37.1% | 423.16hPa | 2.9V | 00:00:00 | 00:00:00 | 00:00:00 | |
| SONDE2-12 | 2026-08-30 17:07:39 | 52.22875 | 14.40473 | 86° | 75km/h | 7017m | 5.1m/s | -21.8°C | 37.0% | 423.3hPa | 2.9V | 00:00:00 | 00:00:00 | 00:00:00 | |
| AA1-15 | 2026-08-30 17:07:35 | 52.22872 | 14.40346 | 89° | 77km/h | 6998m | 4.1m/s | -21.6°C | 37.4% | 424.5hPa | 2.9V | 18:12:15 | 00:52:28 | 00:00:00 | |
| DAC517 | 2026-08-30 17:07:32 | 52.22870 | 14.40252 | 88° | 77km/h | 6984m | 5.1m/s | -21.5°C | 32.9% | 425.2hPa | 2.9V | 00:00:00 | 00:00:00 | 00:00:00 | |
| S3001 | 2026-08-30 17:07:30 | 52.22868 | 14.40190 | 85° | 75km/h | 6975m | 5.4m/s | -21.4°C | 32.5% | 425.7hPa | 2.9V | 00:00:00 | 00:00:00 | 00:00:00 | |
| EDDB2-12 | 2026-08-30 17:07:29 | 52.22867 | 14.40160 | 86° | 75km/h | 6971m | 3.7m/s | -21.4°C | 32.8% | 426.0hPa | 2.9V | 00:00:00 | 00:00:00 | 00:00:00 | |
| SP6BVK | 2026-08-30 17:07:28 | 52.22867 | 14.40160 | 87° | 75km/h | 6971m | 3.7m/s | -21.4°C | 32.8% | 426.0hPa | 2.9V | 00:00:00 | 00:00:00 | 00:00:00 | |
| DL2RXE-15 | 2026-08-30 17:07:27 | 52.22866 | 14.40129 | 88° | 73km/h | 6967m | 4.2m/s | 0°C | 0% | 426.3hPa | 2.9V | 00:00:00 | 00:00:00 | 00:00:00 | |
| DB0DAN | 2026-08-30 17:07:25 | 52.22862 | 14.40036 | 86° | 71km/h | 6953m | 4.4m/s | -21.2°C | 31.6% | 427.04hPa | 2.9V | 00:00:00 | 00:00:00 | 00:00:00 | |
| EDDB2-11 | 2026-08-30 17:07:23 | 52.22857 | 14.39942 | 85° | 77km/h | 6939m | 5.1m/s | -21.1°C | 30.7% | 427.8hPa | 2.9V | 00:00:00 | 00:00:00 | 00:00:00 | |
| 13BRC | 2026-08-30 17:07:21 | 52.22857 | 14.39942 | 87° | 77km/h | 6939m | 5.1m/s | -21.1°C | 30.7% | 427.8hPa | 2.9V | 00:00:00 | 00:00:00 | 00:00:00 | |
| DB0DAN | 2026-08-30 17:07:10 | 52.22849 | 14.39574 | 88° | 71km/h | 6888m | 5.6m/s | -20.7°C | 26.3% | 430.93hPa | 2.9V | 00:00:00 | 00:00:00 | 00:00:00 | |
| SONDE2-12 | 2026-08-30 17:07:08 | 52.22849 | 14.39514 | 88° | 71km/h | 6879m | 5.2m/s | -20.6°C | 26.5% | 431.4hPa | 2.9V | 00:00:00 | 00:00:00 | 00:00:00 | |
| SP6BVK | 2026-08-30 17:07:07 | 52.22849 | 14.39514 | 89° | 73km/h | 6879m | 5.2m/s | -20.6°C | 25.8% | 431.4hPa | 2.9V | 00:00:00 | 00:00:00 | 00:00:00 | |
| S3001 | 2026-08-30 17:06:59 | 52.22841 | 14.39243 | 88° | 71km/h | 6841m | 3.7m/s | -20.3°C | 20.1% | 433.7hPa | 2.9V | 00:00:00 | 00:00:00 | 00:00:00 | |
| EDDB2-12 | 2026-08-30 17:06:58 | 52.22841 | 14.39212 | 89° | 73km/h | 6837m | 3.9m/s | -20.3°C | 19.6% | 433.9hPa | 2.9V | 00:00:00 | 00:00:00 | 00:00:00 | |
| DL2RXE-15 | 2026-08-30 17:06:57 | 52.22841 | 14.39212 | 91° | 73km/h | 6837m | 3.9m/s | 0°C | 0% | 433.9hPa | 2.9V | 00:00:00 | 00:00:00 | 00:00:00 | |
| DB0DAN | 2026-08-30 17:06:55 | 52.22840 | 14.39123 | 88° | 69km/h | 6823m | 4.1m/s | -20.2°C | 16.9% | 434.71hPa | 2.9V | 00:00:00 | 00:00:00 | 00:00:00 | |
| EDDB2-11 | 2026-08-30 17:06:51 | 52.22836 | 14.39005 | 87° | 71km/h | 6806m | 3.1m/s | -20.0°C | 12.1% | 435.7hPa | 2.9V | 00:00:00 | 00:00:00 | 00:00:00 | |
| SP6BVK | 2026-08-30 17:06:47 | 52.22832 | 14.38916 | 88° | 71km/h | 6793m | 4.3m/s | -19.9°C | 10.8% | 436.5hPa | 2.9V | 00:00:00 | 00:00:00 | 00:00:00 | |
| KRY50SP-1 | 2026-08-30 17:06:46 | 52.22831 | 14.38887 | 87° | 71km/h | 6788m | 5.8m/s | -19.9°C | 0% | 436.8hPa | 2.9V | 00:00:00 | 00:00:00 | 00:00:00 | |
| DB0DAN | 2026-08-30 17:06:40 | 52.22823 | 14.38687 | 87° | 66km/h | 6756m | 4.6m/s | -19.6°C | 10.8% | 438.63hPa | 2.9V | 00:00:00 | 00:00:00 | 00:00:00 | |
| AA1-15 | 2026-08-30 17:06:39 | 52.22823 | 14.38659 | 88° | 68km/h | 6752m | 4.1m/s | -19.6°C | 11.7% | 438.9hPa | 2.9V | 18:12:15 | 00:51:32 | 00:00:00 | |
| SONDE2-12 | 2026-08-30 17:06:37 | 52.22822 | 14.38601 | 88° | 69km/h | 6743m | 4.9m/s | -19.5°C | 10.2% | 439.4hPa | 2.8V | 00:00:00 | 00:00:00 | 00:00:00 | |
| KRY50SP-1 | 2026-08-30 17:06:28 | 52.22815 | 14.38372 | 88° | 68km/h | 6709m | 4.1m/s | !°C | 0% | 441.5hPa | 2.8V | 00:00:00 | 00:00:00 | 00:00:00 | |
| DB0DAN | 2026-08-30 17:06:25 | 52.22813 | 14.38259 | 87° | 66km/h | 6691m | 4.1m/s | -19.1°C | 14.7% | 442.38hPa | 2.8V | 00:00:00 | 00:00:00 | 00:00:00 | |
| SP3BTT-10 | 2026-08-30 17:06:25 | 52.22813 | 14.38259 | 88° | 68km/h | 6692m | 4.0m/s | -19.1°C | 15.7% | 442.3hPa | 2.9V | 00:00:00 | 00:00:00 | 00:00:00 | |
| 13BRC | 2026-08-30 17:06:20 | 52.22812 | 14.38144 | 92° | 69km/h | 6675m | 5.0m/s | -19.0°C | 15.1% | 443.4hPa | 2.9V | 00:00:00 | 00:00:00 | 00:00:00 | |
| KRY50SP-1 | 2026-08-30 17:06:14 | 52.22810 | 14.37977 | 90° | 68km/h | 6649m | 3.8m/s | -18.7°C | 0% | 445.0hPa | 2.9V | 00:00:00 | 00:00:00 | 00:00:00 | |
| DB0DAN | 2026-08-30 17:06:10 | 52.22809 | 14.37836 | 90° | 66km/h | 6627m | 3.3m/s | -18.5°C | 15.5% | 446.26hPa | 2.9V | 00:00:00 | 00:00:00 | 00:00:00 | |
| SONDE2-12 | 2026-08-30 17:06:06 | 52.22808 | 14.37725 | 89° | 64km/h | 6611m | 4.3m/s | -18.4°C | 15.9% | 447.3hPa | 2.9V | 00:00:00 | 00:00:00 | 00:00:00 | |
| DL2RXE-15 | 2026-08-30 17:06:04 | 52.22807 | 14.37698 | 90° | 66km/h | 6607m | 4.2m/s | 0°C | 0% | 447.5hPa | 2.9V | 00:00:00 | 00:00:00 | 00:00:00 | |
| SP6BVK | 2026-08-30 17:06:03 | 52.22807 | 14.37671 | 91° | 66km/h | 6602m | 4.7m/s | -18.3°C | 15.4% | 447.8hPa | 2.9V | 00:00:00 | 00:00:00 | 00:00:00 | |
| S3001 | 2026-08-30 17:05:57 | 52.22804 | 14.37476 | 89° | 68km/h | 6573m | 3.5m/s | -18.1°C | 14.8% | 449.6hPa | 2.9V | 00:00:00 | 00:00:00 | 00:00:00 | |
| EDDB2-12 | 2026-08-30 17:05:56 | 52.22804 | 14.37449 | 89° | 64km/h | 6569m | 4.0m/s | -18.0°C | 14.3% | 449.8hPa | 2.9V | 00:00:00 | 00:00:00 | 00:00:00 | |
| DB0DAN | 2026-08-30 17:05:55 | 52.22804 | 14.37422 | 89° | 62km/h | 6565m | 3.5m/s | -18°C | 13.8% | 450.02hPa | 2.9V | 00:00:00 | 00:00:00 | 00:00:00 | |
| AA1-15 | 2026-08-30 17:05:51 | 52.22803 | 14.37317 | 89° | 66km/h | 6550m | 3.5m/s | -17.8°C | 16% | 451hPa | 2.9V | 18:12:15 | 00:50:44 | 00:00:00 | |
| EDDB2-11 | 2026-08-30 17:05:49 | 52.22803 | 14.37261 | 89° | 68km/h | 6542m | 4.3m/s | -17.8°C | 14.5% | 451.5hPa | 2.9V | 00:00:00 | 00:00:00 | 00:00:00 | |
| KRY50SP-1 | 2026-08-30 17:05:48 | 52.22803 | 14.37261 | 91° | 69km/h | 6542m | 4.3m/s | -17.8°C | 0% | 0hPa | 2.9V | 00:00:00 | 00:00:00 | 00:00:00 | |
| DAC517 | 2026-08-30 17:05:47 | 52.22803 | 14.37233 | 91° | 68km/h | 6537m | 5.7m/s | -17.7°C | 14.8% | 451.8hPa | 2.9V | 00:00:00 | 00:00:00 | 00:00:00 | |
| DL2RXE-15 | 2026-08-30 17:05:44 | 52.22802 | 14.37147 | 89° | 69km/h | 6523m | 5.4m/s | 0°C | 0% | 452.5hPa | 2.9V | 00:00:00 | 00:00:00 | 00:00:00 | |
| KRY50SP-1 | 2026-08-30 17:05:43 | 52.22801 | 14.37092 | 90° | 68km/h | 6514m | 4.3m/s | -17.6°C | 0% | 0hPa | 2.9V | 00:00:00 | 00:00:00 | 00:00:00 | |
| SP6BVK | 2026-08-30 17:05:42 | 52.22801 | 14.37092 | 90° | 68km/h | 6514m | 4.3m/s | -17.6°C | 15.2% | 453.1hPa | 2.9V | 00:00:00 | 00:00:00 | 00:00:00 | |
| DB0DAN | 2026-08-30 17:05:40 | 52.22800 | 14.37011 | 88° | 62km/h | 6500m | 5.8m/s | -17.6°C | 16.1% | 453.9hPa | 2.9V | 00:00:00 | 00:00:00 | 00:00:00 | |
| AA1-15 | 2026-08-30 17:05:40 | 52.22800 | 14.37011 | 88° | 64km/h | 6500m | 5.8m/s | -17.6°C | 18.5% | 453.9hPa | 2.9V | 18:12:15 | 00:50:33 | 00:00:00 | |
| SONDE2-12 | 2026-08-30 17:05:35 | 52.22799 | 14.36848 | 90° | 64km/h | 6473m | 3.9m/s | -17.4°C | 12.3% | 455.5hPa | 2.9V | 00:00:00 | 00:00:00 | 00:00:00 | |
| AA1-15 | 2026-08-30 17:05:29 | 52.22799 | 14.36716 | 90° | 64km/h | 6452m | 3.5m/s | -17.3°C | 12.4% | 456.8hPa | 2.9V | 18:12:15 | 00:50:22 | 00:00:00 | |
| DB0DAN | 2026-08-30 17:05:25 | 52.22799 | 14.36609 | 90° | 64km/h | 6435m | 4.2m/s | -17.2°C | 11.2% | 457.79hPa | 2.8V | 00:00:00 | 00:00:00 | 00:00:00 | |
| AA1-15 | 2026-08-30 17:05:19 | 52.22799 | 14.36446 | 91° | 64km/h | 6411m | 3.6m/s | 0°C | 0% | 459.3hPa | 2.9V | 18:12:15 | 00:50:12 | 00:00:00 | |
| EDDB2-11 | 2026-08-30 17:05:18 | 52.22799 | 14.36420 | 90° | 64km/h | 6408m | 3.5m/s | -17.0°C | 9.7% | 459.6hPa | 2.9V | 00:00:00 | 00:00:00 | 00:00:00 | |
| KRY50SP-1 | 2026-08-30 17:05:17 | 52.22799 | 14.36420 | 92° | 64km/h | 6408m | 3.5m/s | 0°C | 0% | 0hPa | 2.9V | 00:00:00 | 00:00:00 | 00:00:00 | |
| DL2RXE-15 | 2026-08-30 17:05:13 | 52.22799 | 14.36315 | 92° | 64km/h | 6391m | 4.2m/s | 0°C | 0% | 460.6hPa | 2.9V | 00:00:00 | 00:00:00 | 00:00:00 | |
| DB0DAN | 2026-08-30 17:05:10 | 52.22799 | 14.36209 | 91° | 62km/h | 6375m | 3.9m/s | -16.7°C | 9.1% | 461.53hPa | 2.9V | 00:00:00 | 00:00:00 | 00:00:00 | |
| AA1-15 | 2026-08-30 17:05:08 | 52.22800 | 14.36156 | 90° | 64km/h | 6368m | 4.2m/s | 0°C | 0% | 462hPa | 2.9V | 18:12:15 | 00:50:01 | 00:00:00 | |
| SONDE2-12 | 2026-08-30 17:05:04 | 52.22799 | 14.36026 | 89° | 62km/h | 6346m | 4.7m/s | -16.5°C | 7.0% | 463.3hPa | 2.9V | 00:00:00 | 00:00:00 | 00:00:00 | |
| AA1-15 | 2026-08-30 17:04:57 | 52.22798 | 14.35875 | 89° | 62km/h | 6320m | 5.5m/s | 0°C | 0% | 0hPa | 2.9V | 18:12:15 | 00:49:50 | 00:00:00 | |
| DB0DAN | 2026-08-30 17:04:55 | 52.22797 | 14.35824 | 88° | 60km/h | 6311m | 5m/s | -16.2°C | 5.2% | 465.44hPa | 2.9V | 00:00:00 | 00:00:00 | 00:00:00 | |
| AA1-15 | 2026-08-30 17:04:46 | 52.22789 | 14.35595 | 87° | 60km/h | 6276m | 4.7m/s | 0°C | 0% | 0hPa | 2.9V | 18:12:15 | 00:49:39 | 00:00:00 | |
| KRY50SP-1 | 2026-08-30 17:04:45 | 52.22789 | 14.35595 | 88° | 60km/h | 6276m | 4.7m/s | 0°C | 0% | 0hPa | 2.9V | 00:00:00 | 00:00:00 | 00:00:00 | |
| DB0DAN | 2026-08-30 17:04:40 | 52.22780 | 14.35445 | 82° | 58km/h | 6252m | 2.9m/s | -15.8°C | 5.1% | 469.1hPa | 2.9V | 00:00:00 | 00:00:00 | 00:00:00 | |
| SONDE2-12 | 2026-08-30 17:04:33 | 52.22767 | 14.35249 | 83° | 57km/h | 6221m | 4.4m/s | -15.5°C | 5.2% | 471.0hPa | 2.9V | 00:00:00 | 00:00:00 | 00:00:00 | |
| KRY50SP-1 | 2026-08-30 17:04:31 | 52.22766 | 14.35249 | 84° | 57km/h | 6221m | 4.4m/s | 0°C | 0% | 0hPa | 2.9V | 00:00:00 | 00:00:00 | 00:00:00 | |
| DB0DAN | 2026-08-30 17:04:25 | 52.22758 | 14.35086 | 86° | 55km/h | 6192m | 5.2m/s | -15.2°C | 5% | 472.83hPa | 2.9V | 00:00:00 | 00:00:00 | 00:00:00 | |
| S3001 | 2026-08-30 17:04:24 | 52.22755 | 14.35039 | 83° | 57km/h | 6183m | 4.0m/s | -15.2°C | 4.9% | 473.4hPa | 2.9V | 00:00:00 | 00:00:00 | 00:00:00 | |
| EDDB2-12 | 2026-08-30 17:04:23 | 52.22755 | 14.35039 | 83° | 57km/h | 6183m | 4.0m/s | -15.2°C | 4.9% | 473.4hPa | 2.9V | 00:00:00 | 00:00:00 | 00:00:00 | |
| DL2RXE-15 | 2026-08-30 17:04:21 | 52.22753 | 14.35015 | 83° | 58km/h | 6180m | 3.8m/s | 0°C | 0% | 473.6hPa | 2.9V | 00:00:00 | 00:00:00 | 00:00:00 | |
| KRY50SP-1 | 2026-08-30 17:04:17 | 52.22745 | 14.34921 | 84° | 57km/h | 6162m | 3.7m/s | 0°C | 0% | 0hPa | 2.9V | 00:00:00 | 00:00:00 | 00:00:00 | |
| SP6BVK | 2026-08-30 17:04:16 | 52.22743 | 14.34897 | 85° | 57km/h | 6158m | 3.5m/s | -15.0°C | 5.1% | 474.8hPa | 2.9V | 00:00:00 | 00:00:00 | 00:00:00 | |
| KRY50SP-1 | 2026-08-30 17:04:12 | 52.22740 | 14.34805 | 89° | 55km/h | 6142m | 5.4m/s | 0°C | 0% | 0hPa | 2.9V | 00:00:00 | 00:00:00 | 00:00:00 | |
| DB0DAN | 2026-08-30 17:04:10 | 52.22738 | 14.34736 | 87° | 53km/h | 6131m | 3.9m/s | -14.8°C | 5.1% | 476.63hPa | 2.9V | 00:00:00 | 00:00:00 | 00:00:00 | |
| SONDE2-12 | 2026-08-30 17:04:02 | 52.22728 | 14.34525 | 86° | 53km/h | 6096m | 3.1m/s | -14.5°C | 5.2% | 478.9hPa | 2.9V | 00:00:00 | 00:00:00 | 00:00:00 | |
| DL2RXE-15 | 2026-08-30 17:04:01 | 52.22729 | 14.34548 | 87° | 53km/h | 6100m | 4.6m/s | 0°C | 0% | 478.7hPa | 2.9V | 00:00:00 | 00:00:00 | 00:00:00 | |
| KRY50SP-1 | 2026-08-30 17:04:00 | 52.22727 | 14.34525 | 87° | 55km/h | 6096m | 3.1m/s | 0°C | 0% | 0hPa | 2.9V | 00:00:00 | 00:00:00 | 00:00:00 | |
| DB0DAN | 2026-08-30 17:03:55 | 52.22724 | 14.34385 | 87° | 57km/h | 6071m | 4m/s | -14.3°C | 4.9% | 480.52hPa | 2.9V | 00:00:00 | 00:00:00 | 00:00:00 | |
| S3001 | 2026-08-30 17:03:53 | 52.22723 | 14.34314 | 89° | 55km/h | 6059m | 4.1m/s | -14.2°C | 4.6% | 481.2hPa | 2.9V | 00:00:00 | 00:00:00 | 00:00:00 | |
| EDDB2-12 | 2026-08-30 17:03:52 | 52.22723 | 14.34314 | 89° | 55km/h | 6059m | 4.1m/s | -14.2°C | 4.6% | 481.2hPa | 2.9V | 00:00:00 | 00:00:00 | 00:00:00 | |
| EDDB2-11 | 2026-08-30 17:03:45 | 52.22720 | 14.34155 | 88° | 53km/h | 6032m | 4.4m/s | -13.9°C | 4.4% | 482.9hPa | 2.9V | 00:00:00 | 00:00:00 | 00:00:00 | |
| KRY50SP-1 | 2026-08-30 17:03:42 | 52.22719 | 14.34109 | 90° | 55km/h | 6025m | 4.8m/s | 0°C | 0% | 0hPa | 2.9V | 00:00:00 | 00:00:00 | 00:00:00 | |
| DB0DAN | 2026-08-30 17:03:40 | 52.22718 | 14.34040 | 89° | 53km/h | 6011m | 5m/s | -13.8°C | 3.6% | 484.22hPa | 2.9V | 00:00:00 | 00:00:00 | 00:00:00 | |
| SONDE2-12 | 2026-08-30 17:03:31 | 52.22712 | 14.33805 | 87° | 55km/h | 5973m | 4.1m/s | -13.6°C | 3.0% | 486.7hPa | 2.9V | 00:00:00 | 00:00:00 | 00:00:00 | |
| DL2RXE-15 | 2026-08-30 17:03:29 | 52.22712 | 14.33805 | 88° | 57km/h | 5973m | 4.1m/s | 0°C | 0% | 486.7hPa | 2.9V | 00:00:00 | 00:00:00 | 00:00:00 | |
| DB0DAN | 2026-08-30 17:03:25 | 52.22708 | 14.33691 | 86° | 53km/h | 5952m | 4.6m/s | -13.5°C | 3.1% | 487.98hPa | 2.9V | 00:00:00 | 00:00:00 | 00:00:00 | |
| SP3BTT-10 | 2026-08-30 17:03:25 | 52.22708 | 14.33691 | 86° | 58km/h | 5952m | 4.5m/s | -13.4°C | 3.4% | 487.9hPa | 2.9V | 00:00:00 | 00:00:00 | 00:00:00 | |
| S3001 | 2026-08-30 17:03:22 | 52.22705 | 14.33601 | 87° | 53km/h | 5937m | 4.4m/s | -13.4°C | 3.2% | 489.1hPa | 2.9V | 00:00:00 | 00:00:00 | 00:00:00 | |
| EDDB2-12 | 2026-08-30 17:03:21 | 52.22705 | 14.33601 | 87° | 53km/h | 5937m | 4.4m/s | -13.4°C | 3.2% | 489.1hPa | 2.9V | 00:00:00 | 00:00:00 | 00:00:00 | |
| EDDB2-11 | 2026-08-30 17:03:14 | 52.22702 | 14.33435 | 87° | 57km/h | 5909m | 3.2m/s | -13.2°C | 3.3% | 490.8hPa | 2.9V | 00:00:00 | 00:00:00 | 00:00:00 | |
| 13BRC | 2026-08-30 17:03:13 | 52.22702 | 14.33435 | 89° | 58km/h | 5909m | 3.2m/s | -13.2°C | 3.3% | 490.8hPa | 2.9V | 00:00:00 | 00:00:00 | 00:00:00 | |
| DB0DAN | 2026-08-30 17:03:10 | 52.22700 | 14.33341 | 88° | 55km/h | 5893m | 5m/s | -13.2°C | 3.1% | 491.84hPa | 2.9V | 00:00:00 | 00:00:00 | 00:00:00 | |
| SONDE2-12 | 2026-08-30 17:03:00 | 52.22700 | 14.33079 | 91° | 57km/h | 5850m | 3.9m/s | -12.8°C | 3.4% | 494.7hPa | 2.9V | 00:00:00 | 00:00:00 | 00:00:00 | |
| DB0DAN | 2026-08-30 17:02:55 | 52.22700 | 14.32983 | 90° | 57km/h | 5833m | 4.7m/s | -12.7°C | 3.3% | 495.75hPa | 2.9V | 00:00:00 | 00:00:00 | 00:00:00 | |
| S3001 | 2026-08-30 17:02:51 | 52.22700 | 14.32862 | 88° | 57km/h | 5813m | 3.7m/s | -12.5°C | 3.2% | 497.1hPa | 2.9V | 00:00:00 | 00:00:00 | 00:00:00 | |
| EDDB2-12 | 2026-08-30 17:02:50 | 52.22700 | 14.32862 | 88° | 57km/h | 5813m | 3.7m/s | -12.5°C | 3.2% | 497.1hPa | 2.9V | 00:00:00 | 00:00:00 | 00:00:00 | |
| SP6BVK | 2026-08-30 17:02:46 | 52.22699 | 14.32789 | 91° | 57km/h | 5802m | 2.8m/s | 0°C | 0% | 0hPa | 2.9V | 00:00:00 | 00:00:00 | 00:00:00 | |
| EDDB2-11 | 2026-08-30 17:02:43 | 52.22701 | 14.32694 | 92° | 57km/h | 5787m | 4.2m/s | -12.3°C | 3.2% | 498.9hPa | 2.9V | 00:00:00 | 00:00:00 | 00:00:00 | |
| DB0DAN | 2026-08-30 17:02:40 | 52.22702 | 14.32622 | 91° | 55km/h | 5776m | 4.5m/s | -12.3°C | 3.2% | 499.61hPa | 2.9V | 00:00:00 | 00:00:00 | 00:00:00 | |
| SONDE2-12 | 2026-08-30 17:02:29 | 52.22702 | 14.32328 | 90° | 57km/h | 5729m | 2.7m/s | -11.9°C | 3.8% | 502.7hPa | 2.9V | 00:00:00 | 00:00:00 | 00:00:00 | |
| DB0DAN | 2026-08-30 17:02:25 | 52.22702 | 14.32258 | 88° | 53km/h | 5717m | 4.6m/s | -11.9°C | 3.6% | 503.46hPa | 2.9V | 00:00:00 | 00:00:00 | 00:00:00 | |
| AA1-15 | 2026-08-30 17:02:24 | 52.22701 | 14.32235 | 87° | 57km/h | 5713m | 2.2m/s | 0°C | 0% | 0hPa | 2.8V | 18:12:15 | 00:47:17 | 00:00:00 | |
| S3001 | 2026-08-30 17:02:20 | 52.22701 | 14.32114 | 91° | 58km/h | 5694m | 5.2m/s | -11.7°C | 3.5% | 505.1hPa | 3V | 00:00:00 | 00:00:00 | 00:00:00 | |
| EDDB2-12 | 2026-08-30 17:02:19 | 52.22701 | 14.32114 | 91° | 58km/h | 5694m | 5.2m/s | -11.7°C | 3.5% | 505.1hPa | 3V | 00:00:00 | 00:00:00 | 00:00:00 | |
| DL2RXE-15 | 2026-08-30 17:02:16 | 52.22701 | 14.32064 | 91° | 60km/h | 5685m | 5.6m/s | 0°C | 0% | 505.7hPa | 3V | 00:00:00 | 00:00:00 | 00:00:00 | |
| 13BRC | 2026-08-30 17:02:12 | 52.22702 | 14.31969 | 91° | 57km/h | 5668m | 3.3m/s | -11.5°C | 3.2% | 506.7hPa | 3V | 00:00:00 | 00:00:00 | 00:00:00 | |
| DB0DAN | 2026-08-30 17:02:10 | 52.22703 | 14.31899 | 91° | 55km/h | 5656m | 3.7m/s | -11.4°C | 3.2% | 507.48hPa | 3V | 00:00:00 | 00:00:00 | 00:00:00 | |
| SONDE2-12 | 2026-08-30 17:01:58 | 52.22708 | 14.31586 | 89° | 58km/h | 5604m | 4.9m/s | -11.2°C | 4.5% | 511.0hPa | 3V | 00:00:00 | 00:00:00 | 00:00:00 | |
| DB0DAN | 2026-08-30 17:01:55 | 52.22707 | 14.31538 | 88° | 57km/h | 5595m | 4m/s | -11.1°C | 4.4% | 511.62hPa | 3V | 00:00:00 | 00:00:00 | 00:00:00 | |
| EDDB2-12 | 2026-08-30 17:01:48 | 52.22705 | 14.31368 | 92° | 58km/h | 5567m | 4.2m/s | -11.0°C | 4.0% | 513.4hPa | 2.9V | 00:00:00 | 00:00:00 | 00:00:00 | |
| DAC517 | 2026-08-30 17:01:47 | 52.22707 | 14.31272 | 95° | 58km/h | 5550m | 3.5m/s | -10.9°C | 5.1% | 514.6hPa | 2.9V | 00:00:00 | 00:00:00 | 00:00:00 | |
| DL2RXE-15 | 2026-08-30 17:01:43 | 52.22707 | 14.31272 | 95° | 58km/h | 5550m | 3.5m/s | 0°C | 0% | 514.6hPa | 2.9V | 00:00:00 | 00:00:00 | 00:00:00 | |
| DB0DAN | 2026-08-30 17:01:40 | 52.22710 | 14.31178 | 91° | 53km/h | 5533m | 4.6m/s | -10.7°C | 4.8% | 515.76hPa | 2.9V | 00:00:00 | 00:00:00 | 00:00:00 | |
| SONDE2-12 | 2026-08-30 17:01:26 | 52.22716 | 14.30857 | 90° | 57km/h | 5471m | 3.4m/s | -10.3°C | 4.8% | 519.9hPa | 2.9V | 00:00:00 | 00:00:00 | 00:00:00 | |
| DB0DAN | 2026-08-30 17:01:25 | 52.22716 | 14.30833 | 89° | 57km/h | 5468m | 4.1m/s | -10.3°C | 5% | 520.27hPa | 2.9V | 00:00:00 | 00:00:00 | 00:00:00 | |
| DL2RXE-15 | 2026-08-30 17:01:23 | 52.22716 | 14.30809 | 91° | 58km/h | 5463m | 5.6m/s | 0°C | 0% | 520.5hPa | 2.8V | 00:00:00 | 00:00:00 | 00:00:00 | |
| EDDB2-12 | 2026-08-30 17:01:17 | 52.22716 | 14.30648 | 91° | 53km/h | 5431m | 3.7m/s | -10.1°C | 6.4% | 522.5hPa | 2.8V | 00:00:00 | 00:00:00 | 00:00:00 | |
| DB0DAN | 2026-08-30 17:01:10 | 52.22716 | 14.30489 | 90° | 53km/h | 5401m | 3.8m/s | -9.8°C | 6.5% | 524.59hPa | 2.8V | 00:00:00 | 00:00:00 | 00:00:00 | |
| SONDE2-11 | 2026-08-30 17:00:59 | 52.22714 | 14.30232 | 88° | 55km/h | 5351m | 5.3m/s | -9.5°C | 6.3% | 527.9hPa | 2.9V | 00:00:00 | 00:00:00 | 00:00:00 | |
| DB0DAN | 2026-08-30 17:00:55 | 52.22713 | 14.30141 | 90° | 51km/h | 5333m | 3.7m/s | -9.3°C | 6% | 529.13hPa | 2.9V | 00:00:00 | 00:00:00 | 00:00:00 | |
| EDDB2-12 | 2026-08-30 17:00:46 | 52.22712 | 14.29915 | 90° | 55km/h | 5288m | 3.6m/s | -8.9°C | 5.1% | 532.3hPa | 2.9V | 00:00:00 | 00:00:00 | 00:00:00 | |
| DB0DAN | 2026-08-30 17:00:40 | 52.22710 | 14.29801 | 89° | 51km/h | 5265m | 5.3m/s | -8.7°C | 4.6% | 533.78hPa | 2.9V | 00:00:00 | 00:00:00 | 00:00:00 | |
| EDDB2-11 | 2026-08-30 17:00:39 | 52.22710 | 14.29779 | 90° | 53km/h | 5260m | 3.9m/s | -8.7°C | 4.4% | 534.2hPa | 3V | 00:00:00 | 00:00:00 | 00:00:00 | |
| DL2RXE-15 | 2026-08-30 17:00:31 | 52.22712 | 14.29630 | 90° | 47km/h | 5230m | 4.1m/s | 0°C | 0% | 536.4hPa | 3V | 00:00:00 | 00:00:00 | 00:00:00 | |
| 13BRC | 2026-08-30 17:00:29 | 52.22710 | 14.29590 | 88° | 49km/h | 5221m | 4.6m/s | -8.4°C | 4.0% | 536.9hPa | 3V | 00:00:00 | 00:00:00 | 00:00:00 | |
| SONDE2-11 | 2026-08-30 17:00:28 | 52.22709 | 14.29549 | 87° | 49km/h | 5210m | 4.4m/s | -8.4°C | 3.9% | 537.6hPa | 3V | 00:00:00 | 00:00:00 | 00:00:00 | |
| DB0DAN | 2026-08-30 17:00:25 | 52.22707 | 14.29484 | 87° | 51km/h | 5198m | 3.7m/s | -8.3°C | 3.8% | 538.7hPa | 3V | 00:00:00 | 00:00:00 | 00:00:00 | |
| SONDE2-12 | 2026-08-30 17:00:24 | 52.22707 | 14.29462 | 86° | 53km/h | 5193m | 5.5m/s | -8.3°C | 3.9% | 539.0hPa | 3V | 00:00:00 | 00:00:00 | 00:00:00 | |
| S3001 | 2026-08-30 17:00:16 | 52.22699 | 14.29269 | 87° | 55km/h | 5153m | 3.5m/s | -8.0°C | 3.9% | 541.7hPa | 3V | 00:00:00 | 00:00:00 | 00:00:00 | |
| EDDB2-12 | 2026-08-30 17:00:15 | 52.22698 | 14.29245 | 86° | 57km/h | 5149m | 5.6m/s | -8.0°C | 3.8% | 542.0hPa | 3V | 00:00:00 | 00:00:00 | 00:00:00 | |
| DB0DAN | 2026-08-30 17:00:10 | 52.22692 | 14.29150 | 82° | 57km/h | 5128m | 4m/s | -7.8°C | 3.8% | 543.47hPa | 3V | 00:00:00 | 00:00:00 | 00:00:00 | |
| 13BRC | 2026-08-30 17:00:09 | 52.22692 | 14.29150 | 83° | 60km/h | 5128m | 4.0m/s | -7.8°C | 3.8% | 543.5hPa | 2.9V | 00:00:00 | 00:00:00 | 00:00:00 | |
| EDDB2-11 | 2026-08-30 17:00:08 | 52.22688 | 14.29103 | 84° | 55km/h | 5119m | 3.1m/s | -7.8°C | 3.8% | 544.1hPa | 2.9V | 00:00:00 | 00:00:00 | 00:00:00 | |
| DAC517 | 2026-08-30 17:00:06 | 52.22687 | 14.29080 | 86° | 57km/h | 5115m | 4.9m/s | -7.8°C | 3.7% | 544.4hPa | 2.9V | 00:00:00 | 00:00:00 | 00:00:00 | |
| SONDE2-11 | 2026-08-30 16:59:57 | 52.22677 | 14.28834 | 87° | 57km/h | 5068m | 5.7m/s | -7.7°C | 4.0% | 547.6hPa | 2.9V | 00:00:00 | 00:00:00 | 00:00:00 | |
| DB0DAN | 2026-08-30 16:59:55 | 52.22676 | 14.28786 | 88° | 57km/h | 5058m | 4.1m/s | -7.6°C | 4.2% | 548.25hPa | 2.9V | 00:00:00 | 00:00:00 | 00:00:00 | |
| SONDE2-12 | 2026-08-30 16:59:53 | 52.22675 | 14.28737 | 87° | 58km/h | 5049m | 3.8m/s | -7.6°C | 4.8% | 548.9hPa | 3V | 00:00:00 | 00:00:00 | 00:00:00 | |
| 13BRC | 2026-08-30 16:59:48 | 52.22676 | 14.28638 | 92° | 60km/h | 5030m | 5.6m/s | -7.5°C | 5.0% | 550.2hPa | 3V | 00:00:00 | 00:00:00 | 00:00:00 | |
| DAC517 | 2026-08-30 16:59:45 | 52.22676 | 14.28564 | 91° | 60km/h | 5017m | 4.5m/s | -7.5°C | 5.3% | 551.1hPa | 3V | 00:00:00 | 00:00:00 | 00:00:00 | |
| EDDB2-12 | 2026-08-30 16:59:44 | 52.22676 | 14.28489 | 88° | 60km/h | 5002m | 3.3m/s | -7.4°C | 5.7% | 552.1hPa | 3V | 00:00:00 | 00:00:00 | 00:00:00 | |
| DB0DAN | 2026-08-30 16:59:40 | 52.22675 | 14.28413 | 89° | 58km/h | 4990m | 5m/s | -7.3°C | 6.1% | 553.12hPa | 3V | 00:00:00 | 00:00:00 | 00:00:00 | |
| DB0DAN | 2026-08-30 16:59:25 | 52.22678 | 14.28025 | 91° | 60km/h | 4917m | 4.1m/s | -6.7°C | 7.1% | 558.25hPa | 3V | 00:00:00 | 00:00:00 | 00:00:00 | |
| SONDE2-12 | 2026-08-30 16:59:22 | 52.22678 | 14.27943 | 88° | 66km/h | 4904m | 3.4m/s | -6.6°C | 7.1% | 559.3hPa | 3V | 00:00:00 | 00:00:00 | 00:00:00 | |
| S3001 | 2026-08-30 16:59:13 | 52.22673 | 14.27700 | 86° | 66km/h | 4860m | 5.4m/s | -6.4°C | 6.9% | 562.3hPa | 3V | 00:00:00 | 00:00:00 | 00:00:00 | |
| DB0DAN | 2026-08-30 16:59:10 | 52.22671 | 14.27618 | 88° | 62km/h | 4847m | 3.8m/s | -6.2°C | 6.9% | 563.25hPa | 3V | 00:00:00 | 00:00:00 | 00:00:00 | |
| DL2RXE-15 | 2026-08-30 16:59:09 | 52.22671 | 14.27618 | 89° | 66km/h | 4847m | 3.8m/s | 0°C | 0% | 563.3hPa | 3V | 00:00:00 | 00:00:00 | 00:00:00 | |
| SONDE2-12 | 2026-08-30 16:58:51 | 52.22646 | 14.27140 | 84° | 60km/h | 4756m | 4.2m/s | -5.4°C | 6.7% | 569.8hPa | 3V | 00:00:00 | 00:00:00 | 00:00:00 | |
| DL2RXE-15 | 2026-08-30 16:58:48 | 52.22643 | 14.27089 | 86° | 62km/h | 4746m | 5.3m/s | 0°C | 0% | 570.6hPa | 3V | 00:00:00 | 00:00:00 | 00:00:00 | |
| 13BRC | 2026-08-30 16:58:46 | 52.22640 | 14.27040 | 86° | 58km/h | 4737m | 4.1m/s | -5.2°C | 6.5% | 571.2hPa | 3V | 00:00:00 | 00:00:00 | 00:00:00 | |
| DB0DAN | 2026-08-30 16:58:40 | 52.22632 | 14.26869 | 85° | 58km/h | 4703m | 3.9m/s | -5°C | 6.6% | 573.61hPa | 3V | 00:00:00 | 00:00:00 | 00:00:00 | |
| EDDB2-11 | 2026-08-30 16:58:35 | 52.22624 | 14.26746 | 84° | 58km/h | 4682m | 4.6m/s | -4.9°C | 6.6% | 575.2hPa | 3V | 00:00:00 | 00:00:00 | 00:00:00 | |
| DB0DAN | 2026-08-30 16:58:25 | 52.22608 | 14.26500 | 81° | 57km/h | 4636m | 5.4m/s | -4.5°C | 7.2% | 578.67hPa | 3V | 00:00:00 | 00:00:00 | 00:00:00 | |
| SONDE2-11 | 2026-08-30 16:58:24 | 52.22606 | 14.26476 | 81° | 58km/h | 4631m | 3.8m/s | -4.5°C | 7.3% | 579.0hPa | 3V | 00:00:00 | 00:00:00 | 00:00:00 | |
| DAC517 | 2026-08-30 16:58:20 | 52.22598 | 14.26380 | 84° | 57km/h | 4614m | 4.1m/s | -4.4°C | 7.2% | 580.2hPa | 3V | 00:00:00 | 00:00:00 | 00:00:00 | |
| DL2RXE-15 | 2026-08-30 16:58:17 | 52.22594 | 14.26334 | 81° | 57km/h | 4605m | 4.8m/s | 0°C | 0% | 581.0hPa | 3V | 00:00:00 | 00:00:00 | 00:00:00 | |
| DB0DAN | 2026-08-30 16:58:10 | 52.22573 | 14.26148 | 79° | 55km/h | 4567m | 4.5m/s | -4.2°C | 7.5% | 583.54hPa | 3V | 00:00:00 | 00:00:00 | 00:00:00 | |
| SP3BTT-10 | 2026-08-30 16:58:10 | 52.22573 | 14.26148 | 79° | 57km/h | 4567m | 4.5m/s | -4.1°C | 7.8% | 583.5hPa | 3V | 00:00:00 | 00:00:00 | 00:00:00 | |
| EDDB2-11 | 2026-08-30 16:58:04 | 52.22558 | 14.26008 | 80° | 57km/h | 4539m | 5.4m/s | -4.2°C | 8.7% | 585.6hPa | 3V | 00:00:00 | 00:00:00 | 00:00:00 | |
| DAC517 | 2026-08-30 16:57:58 | 52.22545 | 14.25867 | 83° | 58km/h | 4514m | 3.6m/s | -4.0°C | 8.5% | 587.5hPa | 3V | 00:00:00 | 00:00:00 | 00:00:00 | |
| DL2RXE-15 | 2026-08-30 16:57:57 | 52.22545 | 14.25867 | 83° | 58km/h | 4514m | 3.6m/s | 0°C | 0% | 587.5hPa | 3V | 00:00:00 | 00:00:00 | 00:00:00 | |
| DB0DAN | 2026-08-30 16:57:55 | 52.22538 | 14.25797 | 81° | 57km/h | 4501m | 5.1m/s | -3.9°C | 9% | 588.55hPa | 3V | 00:00:00 | 00:00:00 | 00:00:00 | |
| SONDE2-12 | 2026-08-30 16:57:49 | 52.22525 | 14.25653 | 80° | 55km/h | 4476m | 3.9m/s | -3.7°C | 9.2% | 590.5hPa | 3V | 00:00:00 | 00:00:00 | 00:00:00 | |
| 13BRC | 2026-08-30 16:57:44 | 52.22519 | 14.25568 | 86° | 47km/h | 4459m | 5.5m/s | -3.5°C | 8.9% | 591.7hPa | 3V | 00:00:00 | 00:00:00 | 00:00:00 | |
| DB0DAN | 2026-08-30 16:57:40 | 52.22512 | 14.25465 | 86° | 51km/h | 4433m | 5.6m/s | -3.2°C | 8.7% | 593.78hPa | 3V | 00:00:00 | 00:00:00 | 00:00:00 | |
| EDDB2-12 | 2026-08-30 16:57:40 | 52.22511 | 14.25442 | 82° | 55km/h | 4428m | 5.3m/s | -3.2°C | 8.7% | 594.3hPa | 3V | 00:00:00 | 00:00:00 | 00:00:00 | |
| EDDB2-11 | 2026-08-30 16:57:33 | 52.22495 | 14.25297 | 79° | 57km/h | 4396m | 5.4m/s | -2.9°C | 8.8% | 596.7hPa | 3V | 00:00:00 | 00:00:00 | 00:00:00 | |
| DB0DAN | 2026-08-30 16:57:25 | 52.22473 | 14.25109 | 79° | 55km/h | 4354m | 5.4m/s | -2.5°C | 9.2% | 599.81hPa | 3V | 00:00:00 | 00:00:00 | 00:00:00 | |
| SONDE2-12 | 2026-08-30 16:57:18 | 52.22453 | 14.24939 | 79° | 62km/h | 4324m | 5.8m/s | -2.3°C | 10.6% | 601.9hPa | 3V | 00:00:00 | 00:00:00 | 00:00:00 | |
| DB0DAN | 2026-08-30 16:57:10 | 52.22425 | 14.24748 | 78° | 57km/h | 4288m | 4.8m/s | -2.1°C | 8.3% | 604.94hPa | 3V | 00:00:00 | 00:00:00 | 00:00:00 | |
| EDDB2-12 | 2026-08-30 16:57:09 | 52.22418 | 14.24700 | 77° | 60km/h | 4277m | 4.4m/s | -2.0°C | 7.5% | 605.6hPa | 3V | 00:00:00 | 00:00:00 | 00:00:00 | |
| DL2RXE-15 | 2026-08-30 16:57:04 | 52.22408 | 14.24628 | 78° | 58km/h | 4263m | 4.1m/s | 0°C | 0% | 606.7hPa | 3V | 00:00:00 | 00:00:00 | 00:00:00 | |
| 13BRC | 2026-08-30 16:57:03 | 52.22406 | 14.24604 | 82° | 58km/h | 4259m | 5.2m/s | -1.9°C | 8.2% | 607.1hPa | 3V | 00:00:00 | 00:00:00 | 00:00:00 | |
| EDDB2-11 | 2026-08-30 16:57:02 | 52.22401 | 14.24557 | 82° | 55km/h | 4249m | 5.7m/s | -1.8°C | 9.6% | 607.8hPa | 3V | 00:00:00 | 00:00:00 | 00:00:00 | |
| DB0DAN | 2026-08-30 16:56:55 | 52.22392 | 14.24391 | 85° | 55km/h | 4220m | 5.7m/s | -1.6°C | 11.3% | 610.21hPa | 3V | 00:00:00 | 00:00:00 | 00:00:00 | |
| SONDE2-12 | 2026-08-30 16:56:47 | 52.22376 | 14.24208 | 80° | 58km/h | 4184m | 3.9m/s | -1.4°C | 11.5% | 612.8hPa | 3V | 00:00:00 | 00:00:00 | 00:00:00 | |
| 13BRC | 2026-08-30 16:56:44 | 52.22369 | 14.24135 | 81° | 60km/h | 4170m | 3.4m/s | -1.3°C | 11.7% | 613.8hPa | 3V | 00:00:00 | 00:00:00 | 00:00:00 | |
| DAC517 | 2026-08-30 16:56:43 | 52.22369 | 14.24135 | 81° | 60km/h | 4170m | 3.4m/s | -1.3°C | 11.7% | 613.8hPa | 3V | 00:00:00 | 00:00:00 | 00:00:00 | |
| DB0DAN | 2026-08-30 16:56:40 | 52.22360 | 14.24038 | 84° | 57km/h | 4153m | 5m/s | -1.3°C | 11.5% | 615.12hPa | 3V | 00:00:00 | 00:00:00 | 00:00:00 | |
| SP3BTT-10 | 2026-08-30 16:56:40 | 52.22360 | 14.24038 | 84° | 58km/h | 4153m | 4.9m/s | -1.2°C | 11.7% | 615.1hPa | 3V | 00:00:00 | 00:00:00 | 00:00:00 | |
| EDDB2-12 | 2026-08-30 16:56:38 | 52.22357 | 14.23965 | 86° | 57km/h | 4141m | 3.6m/s | -1.2°C | 11.9% | 616.1hPa | 3V | 00:00:00 | 00:00:00 | 00:00:00 | |
| DL2RXE-15 | 2026-08-30 16:56:32 | 52.22353 | 14.23871 | 87° | 57km/h | 4125m | 5.3m/s | 0°C | 0% | 617.3hPa | 3V | 00:00:00 | 00:00:00 | 00:00:00 | |
| EDDB2-11 | 2026-08-30 16:56:31 | 52.22350 | 14.23824 | 83° | 57km/h | 4115m | 4.3m/s | -1.0°C | 12.5% | 618.0hPa | 3V | 00:00:00 | 00:00:00 | 00:00:00 | |
| DB0DAN | 2026-08-30 16:56:25 | 52.22342 | 14.23678 | 86° | 57km/h | 4090m | 4.7m/s | -0.8°C | 12.9% | 619.97hPa | 3V | 00:00:00 | 00:00:00 | 00:00:00 | |
| SONDE2-12 | 2026-08-30 16:56:16 | 52.22337 | 14.23464 | 85° | 55km/h | 4052m | 6.3m/s | -0.5°C | 12.7% | 623.2hPa | 3V | 00:00:00 | 00:00:00 | 00:00:00 | |
| DB0DAN | 2026-08-30 16:56:10 | 52.22328 | 14.23321 | 83° | 57km/h | 4025m | 3.5m/s | -0.3°C | 13% | 625.29hPa | 3V | 00:00:00 | 00:00:00 | 00:00:00 | |
| EDDB2-12 | 2026-08-30 16:56:06 | 52.22323 | 14.23227 | 84° | 55km/h | 4004m | 5.5m/s | -0.1°C | 12.6% | 626.9hPa | 3V | 00:00:00 | 00:00:00 | 00:00:00 | |
| EDDB2-11 | 2026-08-30 16:56:00 | 52.22314 | 14.23084 | 86° | 58km/h | 3979m | 4.4m/s | 0.1°C | 12.0% | 628.9hPa | 3V | 00:00:00 | 00:00:00 | 00:00:00 | |
| DB0DAN | 2026-08-30 16:55:55 | 52.22309 | 14.22964 | 85° | 53km/h | 3958m | 3.5m/s | 0.3°C | 11.9% | 630.6hPa | 3V | 00:00:00 | 00:00:00 | 00:00:00 | |
| SONDE2-12 | 2026-08-30 16:55:45 | 52.22294 | 14.22734 | 83° | 57km/h | 3914m | 3.3m/s | 0.5°C | 10.1% | 633.8hPa | 3V | 00:00:00 | 00:00:00 | 00:00:00 | |
| 13BRC | 2026-08-30 16:55:42 | 52.22291 | 14.22687 | 86° | 57km/h | 3906m | 3.7m/s | 0.5°C | 9.9% | 634.5hPa | 3V | 00:00:00 | 00:00:00 | 00:00:00 | |
| DB0DAN | 2026-08-30 16:55:40 | 52.22289 | 14.22618 | 90° | 55km/h | 3894m | 3m/s | 0.5°C | 10.8% | 635.61hPa | 3V | 00:00:00 | 00:00:00 | 00:00:00 | |
| DL2RXE-15 | 2026-08-30 16:55:39 | 52.22289 | 14.22618 | 91° | 57km/h | 3894m | 3.0m/s | 0°C | 0% | 0hPa | 3V | 00:00:00 | 00:00:00 | 00:00:00 | |
| EDDB2-12 | 2026-08-30 16:55:35 | 52.22288 | 14.22501 | 86° | 55km/h | 3874m | 4.2m/s | 0.5°C | 13.1% | 637.1hPa | 3V | 00:00:00 | 00:00:00 | 00:00:00 | |
| SONDE2-12 | 2026-08-30 16:55:14 | 52.22271 | 14.22005 | 88° | 57km/h | 3784m | 4.6m/s | 1.1°C | 11.5% | 644.3hPa | 3V | 00:00:00 | 00:00:00 | 00:00:00 | |
| DB0DAN | 2026-08-30 16:55:10 | 52.22270 | 14.21912 | 87° | 51km/h | 3766m | 4m/s | 1.1°C | 11.5% | 645.61hPa | 3V | 00:00:00 | 00:00:00 | 00:00:00 | |
| SP3BTT-10 | 2026-08-30 16:55:10 | 52.22270 | 14.21912 | 88° | 57km/h | 3766m | 4.0m/s | 1.1°C | 11.7% | 645.6hPa | 3.0V | 00:00:00 | 00:00:00 | 00:00:00 | |
| S3001 | 2026-08-30 16:55:05 | 52.22262 | 14.21799 | 82° | 57km/h | 3744m | 2.9m/s | 1.2°C | 11.3% | 647.4hPa | 3V | 00:00:00 | 00:00:00 | 00:00:00 | |
| EDDB2-12 | 2026-08-30 16:55:04 | 52.22260 | 14.21775 | 84° | 57km/h | 3740m | 4.3m/s | 1.3°C | 11.4% | 647.6hPa | 3V | 00:00:00 | 00:00:00 | 00:00:00 | |
| EDDB2-11 | 2026-08-30 16:54:58 | 52.22252 | 14.21610 | 86° | 58km/h | 3711m | 4.2m/s | 1.4°C | 11.2% | 650.0hPa | 3V | 00:00:00 | 00:00:00 | 00:00:00 | |
| DB0DAN | 2026-08-30 16:54:55 | 52.22251 | 14.21563 | 88° | 53km/h | 3702m | 4.1m/s | 1.3°C | 11% | 650.83hPa | 3V | 00:00:00 | 00:00:00 | 00:00:00 | |
| SONDE2-11 | 2026-08-30 16:54:47 | 52.22241 | 14.21357 | 84° | 55km/h | 3660m | 5.8m/s | 1.4°C | 13.8% | 654.1hPa | 3V | 00:00:00 | 00:00:00 | 00:00:00 | |
| SONDE2-12 | 2026-08-30 16:54:43 | 52.22238 | 14.21285 | 85° | 58km/h | 3647m | 3.2m/s | 1.5°C | 14.5% | 655.3hPa | 3V | 00:00:00 | 00:00:00 | 00:00:00 | |
| DB0DAN | 2026-08-30 16:54:40 | 52.22235 | 14.21213 | 85° | 51km/h | 3635m | 3.1m/s | 1.6°C | 14.9% | 656.33hPa | 3V | 00:00:00 | 00:00:00 | 00:00:00 | |
| S3001 | 2026-08-30 16:54:34 | 52.22225 | 14.21080 | 84° | 53km/h | 3609m | 4.4m/s | 1.8°C | 15.5% | -1.0hPa | 3V | 00:00:00 | 00:00:00 | 00:00:00 | |
| EDDB2-12 | 2026-08-30 16:54:33 | 52.22223 | 14.21057 | 82° | 55km/h | 3605m | 3.3m/s | 1.8°C | 15.6% | 658.8hPa | 3V | 00:00:00 | 00:00:00 | 00:00:00 | |
| DB0DAN | 2026-08-30 16:54:25 | 52.22205 | 14.20875 | 80° | 51km/h | 3569m | 5.2m/s | 2.1°C | 16.2% | 661.88hPa | 3V | 00:00:00 | 00:00:00 | 00:00:00 | |
| SONDE2-12 | 2026-08-30 16:54:12 | 52.22169 | 14.20574 | 80° | 57km/h | 3503m | 2.1m/s | 2.7°C | 16.3% | 667.0hPa | 3V | 00:00:00 | 00:00:00 | 00:00:00 | |
| DB0DAN | 2026-08-30 16:54:10 | 52.22164 | 14.20528 | 79° | 55km/h | 3495m | 4.7m/s | 2.7°C | 15.9% | 667.79hPa | 3V | 00:00:00 | 00:00:00 | 00:00:00 | |
| EDDB2-11 | 2026-08-30 16:53:56 | 52.22122 | 14.20173 | 80° | 57km/h | 3431m | 4.9m/s | 2.8°C | 16.7% | 673.0hPa | 3V | 00:00:00 | 00:00:00 | 00:00:00 | |
| DB0DAN | 2026-08-30 16:53:55 | 52.22122 | 14.20173 | 81° | 55km/h | 3431m | 4.9m/s | 2.8°C | 16.7% | 673.05hPa | 3V | 00:00:00 | 00:00:00 | 00:00:00 | |
| SONDE2-12 | 2026-08-30 16:53:41 | 52.22100 | 14.19835 | 83° | 55km/h | 3369m | 4.9m/s | 3.1°C | 14.7% | 678.2hPa | 3V | 00:00:00 | 00:00:00 | 00:00:00 | |
| DB0DAN | 2026-08-30 16:53:40 | 52.22098 | 14.19813 | 83° | 53km/h | 3365m | 3.4m/s | 3.1°C | 14.6% | 678.39hPa | 3V | 00:00:00 | 00:00:00 | 00:00:00 | |
| SP3BTT-10 | 2026-08-30 16:53:40 | 52.22098 | 14.19812 | 83° | 55km/h | 3365m | 3.3m/s | 0°C | 0% | 0hPa | 3V | 00:00:00 | 00:00:00 | 00:00:00 | |
| 13BRC | 2026-08-30 16:53:37 | 52.22094 | 14.19766 | 84° | 58km/h | 3357m | 3.7m/s | 3.1°C | 16.9% | 679.0hPa | 3V | 00:00:00 | 00:00:00 | 00:00:00 | |
| EDDB2-12 | 2026-08-30 16:53:31 | 52.22085 | 14.19603 | 83° | 53km/h | 3329m | 3.8m/s | 3.2°C | 16.6% | 681.5hPa | 3V | 00:00:00 | 00:00:00 | 00:00:00 | |
| DB0DAN | 2026-08-30 16:53:25 | 52.22072 | 14.19470 | 82° | 58km/h | 3303m | 4.4m/s | 3.3°C | 11.1% | 683.65hPa | 3V | 00:00:00 | 00:00:00 | 00:00:00 | |
| EDDB2-11 | 2026-08-30 16:53:25 | 52.22070 | 14.19445 | 85° | 60km/h | 3299m | 2.3m/s | 3.3°C | 10.7% | 684.0hPa | 3V | 00:00:00 | 00:00:00 | 00:00:00 | |
| 13BRC | 2026-08-30 16:53:17 | 52.22065 | 14.19302 | 88° | 47km/h | 3271m | 5.5m/s | 3.2°C | 12.7% | 686.3hPa | 3V | 00:00:00 | 00:00:00 | 00:00:00 | |
| DL2RXE-15 | 2026-08-30 16:53:14 | 52.22062 | 14.19239 | 85° | 57km/h | 3254m | 2.1m/s | 0°C | 0% | 0hPa | 3V | 00:00:00 | 00:00:00 | 00:00:00 | |
| SONDE2-11 | 2026-08-30 16:53:13 | 52.22058 | 14.19193 | 81° | 55km/h | 3242m | 5.5m/s | 3.3°C | 15.8% | 688.8hPa | 3V | 00:00:00 | 00:00:00 | 00:00:00 | |
| DB0DAN | 2026-08-30 16:53:10 | 52.22054 | 14.19124 | 86° | 53km/h | 3228m | 3.3m/s | 3.3°C | 17.5% | 690.04hPa | 3V | 00:00:00 | 00:00:00 | 00:00:00 | |
| SONDE2-12 | 2026-08-30 16:53:10 | 52.22054 | 14.19124 | 85° | 55km/h | 3228m | 3.3m/s | 3.3°C | 17.6% | 690.0hPa | 3V | 00:00:00 | 00:00:00 | 00:00:00 | |
| DAC517 | 2026-08-30 16:53:05 | 52.22051 | 14.18993 | 88° | 49km/h | 3202m | 6.5m/s | 3.4°C | 0% | 0hPa | 3V | 00:00:00 | 00:00:00 | 00:00:00 | |
| EDDB2-12 | 2026-08-30 16:53:00 | 52.22047 | 14.18909 | 84° | 57km/h | 3182m | 2.7m/s | 3.5°C | 20.5% | 693.9hPa | 3V | 00:00:00 | 00:00:00 | 00:00:00 | |
| 13BRC | 2026-08-30 16:52:57 | 52.22043 | 14.18862 | 83° | 55km/h | 3169m | 8.4m/s | 3.5°C | 0% | 0hPa | 3V | 00:00:00 | 00:00:00 | 00:00:00 | |
| DB0DAN | 2026-08-30 16:52:55 | 52.22038 | 14.18795 | 81° | 51km/h | 3149m | 6.4m/s | 3.5°C | 19.6% | 696.7hPa | 3V | 00:00:00 | 00:00:00 | 00:00:00 | |
| EDDB2-11 | 2026-08-30 16:52:54 | 52.22035 | 14.18748 | 84° | 58km/h | 3135m | 8.2m/s | 3.5°C | 19.6% | 697.9hPa | 3V | 00:00:00 | 00:00:00 | 00:00:00 | |
| DB0DAN | 2026-08-30 16:52:40 | 52.22018 | 14.18459 | 86° | 44km/h | 3049m | 6.7m/s | 3°C | 32% | 705.37hPa | 3V | 00:00:00 | 00:00:00 | 00:00:00 | |
| SONDE2-12 | 2026-08-30 16:52:39 | 52.22017 | 14.18441 | 80° | 44km/h | 3042m | 7.1m/s | 2.8°C | 36.0% | 705.9hPa | 3V | 00:00:00 | 00:00:00 | 00:00:00 | |
| 13BRC | 2026-08-30 16:52:36 | 52.22014 | 14.18404 | 85° | 46km/h | 3029m | 7.0m/s | 0°C | 0% | 0hPa | 3V | 00:00:00 | 00:00:00 | 00:00:00 | |
| EDDB2-12 | 2026-08-30 16:52:29 | 52.22014 | 14.18261 | 88° | 47km/h | 2975m | 7.3m/s | 2.7°C | 45.1% | 711.9hPa | 3V | 00:00:00 | 00:00:00 | 00:00:00 | |
| DB0DAN | 2026-08-30 16:52:25 | 52.22014 | 14.18182 | 87° | 46km/h | 2948m | 6.1m/s | 2.4°C | 51.2% | 714.21hPa | 3V | 00:00:00 | 00:00:00 | 00:00:00 | |
| EDDB2-11 | 2026-08-30 16:52:23 | 52.22011 | 14.18125 | 84° | 40km/h | 2926m | 7.6m/s | 2.6°C | 50.5% | 716.1hPa | 3V | 00:00:00 | 00:00:00 | 00:00:00 | |
| DL2RXE-15 | 2026-08-30 16:52:19 | 52.22008 | 14.18092 | 77° | 44km/h | 2912m | 7.5m/s | 0°C | 0% | 0hPa | 3V | 00:00:00 | 00:00:00 | 00:00:00 | |
| 13BRC | 2026-08-30 16:52:16 | 52.22000 | 14.18042 | 74° | 40km/h | 2890m | 6.7m/s | 0°C | 0% | 0hPa | 3V | 00:00:00 | 00:00:00 | 00:00:00 | |
| DB0DAN | 2026-08-30 16:52:10 | 52.21984 | 14.17926 | 78° | 40km/h | 2839m | 8.1m/s | 2.5°C | 59.4% | 723.74hPa | 3V | 00:00:00 | 00:00:00 | 00:00:00 | |
| SONDE2-12 | 2026-08-30 16:52:08 | 52.21979 | 14.17894 | 72° | 38km/h | 2824m | 8.2m/s | 2.4°C | 64.9% | 725.0hPa | 3V | 00:00:00 | 00:00:00 | 00:00:00 | |
| EDDB2-12 | 2026-08-30 16:51:58 | 52.21950 | 14.17735 | 69° | 42km/h | 2744m | 7.4m/s | 3.0°C | 61.1% | 732.1hPa | 3V | 00:00:00 | 00:00:00 | 00:00:00 | |
| DB0DAN | 2026-08-30 16:51:55 | 52.21940 | 14.17689 | 62° | 37km/h | 2723m | 7.9m/s | 3.2°C | 60.3% | 734.04hPa | 3V | 00:00:00 | 00:00:00 | 00:00:00 | |
| EDDB2-11 | 2026-08-30 16:51:52 | 52.21923 | 14.17631 | 62° | 37km/h | 2692m | 9.7m/s | 3.4°C | 60.9% | 736.7hPa | 3V | 00:00:00 | 00:00:00 | 00:00:00 | |
| DB0DAN | 2026-08-30 16:51:40 | 52.21882 | 14.17456 | 71° | 44km/h | 2614m | 7.5m/s | 0°C | 0% | 743.99hPa | 3V | 00:00:00 | 00:00:00 | 00:00:00 | |
| SONDE2-12 | 2026-08-30 16:51:37 | 52.21871 | 14.17406 | 69° | 44km/h | 2596m | 6.5m/s | 3.8°C | 73.1% | 745.7hPa | 3V | 00:00:00 | 00:00:00 | 00:00:00 | |
| DB0DAN | 2026-08-30 16:51:25 | 52.21828 | 14.17200 | 80° | 40km/h | 2508m | 7.4m/s | 0°C | 0% | 0hPa | 3V | 00:00:00 | 00:00:00 | 00:00:00 | |
| SP3BTT-10 | 2026-08-30 16:51:25 | 52.21827 | 14.17200 | 81° | 44km/h | 2508m | 7.4m/s | 0°C | 0% | 0hPa | 3V | 00:00:00 | 00:00:00 | 00:00:00 | |
| DL2RXE-15 | 2026-08-30 16:51:22 | 52.21824 | 14.17165 | 79° | 44km/h | 2493m | 7.6m/s | 0°C | 0% | 0hPa | 3V | 00:00:00 | 00:00:00 | 00:00:00 | |
| EDDB2-11 | 2026-08-30 16:51:21 | 52.21817 | 14.17119 | 76° | 37km/h | 2472m | 6.7m/s | 4.2°C | 84.0% | 757.0hPa | 3V | 00:00:00 | 00:00:00 | 00:00:00 | |
| DB0DAN | 2026-08-30 16:51:10 | 52.21803 | 14.16953 | 82° | 42km/h | 2404m | 5.4m/s | 0°C | 0% | 0hPa | 3V | 00:00:00 | 00:00:00 | 00:00:00 | |
| SONDE2-12 | 2026-08-30 16:51:06 | 52.21798 | 14.16862 | 78° | 44km/h | 2371m | 5.7m/s | 5.0°C | 84.4% | 766.5hPa | 0V | 00:00:00 | 00:00:00 | 00:00:00 | |
| EDDB2-12 | 2026-08-30 16:50:56 | 52.21779 | 14.16711 | 78° | 40km/h | 2309m | 6.2m/s | 5.5°C | 81.9% | 772.3hPa | 0V | 00:00:00 | 00:00:00 | 00:00:00 | |
| EDDB2-11 | 2026-08-30 16:50:49 | 52.21766 | 14.16584 | 80° | 47km/h | 2267m | 7.2m/s | 5.8°C | 82.6% | 776.4hPa | 0V | 00:00:00 | 00:00:00 | 00:00:00 | |
| SONDE2-12 | 2026-08-30 16:50:35 | 52.21734 | 14.16322 | 74° | 44km/h | 2169m | 6.0m/s | 6.4°C | 81.3% | 785.5hPa | 0V | 00:00:00 | 00:00:00 | 00:00:00 | |
| EDDB2-12 | 2026-08-30 16:50:25 | 52.21712 | 14.16160 | 73° | 46km/h | 2115m | 6.3m/s | 6.8°C | 80.7% | 790.8hPa | 0V | 00:00:00 | 00:00:00 | 00:00:00 | |
| SONDE2-12 | 2026-08-30 16:50:04 | 52.21653 | 14.15780 | 74° | 44km/h | 1979m | 5.5m/s | 7.9°C | 83.6% | 804.0hPa | 0V | 00:00:00 | 00:00:00 | 00:00:00 | |
| EDDB2-12 | 2026-08-30 16:49:54 | 52.21624 | 14.15628 | 64° | 40km/h | 1923m | 5.2m/s | 8.3°C | 84.0% | 809.2hPa | 0V | 00:00:00 | 00:00:00 | 00:00:00 | |
| EDDB2-11 | 2026-08-30 16:49:47 | 52.21598 | 14.15531 | 62° | 33km/h | 1879m | 8.0m/s | 8.5°C | 87.5% | 813.4hPa | 0V | 00:00:00 | 00:00:00 | 00:00:00 | |
| SONDE2-12 | 2026-08-30 16:49:33 | 52.21551 | 14.15304 | 68° | 33km/h | 1789m | 5.4m/s | 9.3°C | 85.8% | 822.4hPa | 0V | 00:00:00 | 00:00:00 | 00:00:00 | |
| EDDB2-12 | 2026-08-30 16:49:23 | 52.21520 | 14.15172 | 67° | 40km/h | 1735m | 4.8m/s | 9.9°C | 83.0% | 828.1hPa | 0V | 00:00:00 | 00:00:00 | 00:00:00 | |
| SONDE2-12 | 2026-08-30 16:49:02 | 52.21452 | 14.14835 | 76° | 37km/h | 1608m | 5.7m/s | 11.1°C | 78.6% | 841.0hPa | 0V | 00:00:00 | 00:00:00 | 00:00:00 | |
| EDDB2-12 | 2026-08-30 16:48:52 | 52.21425 | 14.14705 | 65° | 35km/h | 1552m | 4.9m/s | 11.6°C | 76.4% | 846.5hPa | 0V | 00:00:00 | 00:00:00 | 00:00:00 | |
| EDDB2-11 | 2026-08-30 16:48:45 | 52.21401 | 14.14607 | 78° | 35km/h | 1508m | 7.9m/s | 12.1°C | 74.5% | 851.1hPa | 0V | 00:00:00 | 00:00:00 | 00:00:00 | |
| SONDE2-12 | 2026-08-30 16:48:31 | 52.21368 | 14.14405 | 69° | 29km/h | 1410m | 6.1m/s | 13.0°C | 71.5% | 861.0hPa | 0V | 00:00:00 | 00:00:00 | 00:00:00 | |
| EDDB2-12 | 2026-08-30 16:48:21 | 52.21339 | 14.14292 | 63° | 33km/h | 1357m | 8.4m/s | 13.5°C | 69.6% | 866.2hPa | 0V | 00:00:00 | 00:00:00 | 00:00:00 | |
| SONDE2-12 | 2026-08-30 16:48:00 | 52.21253 | 14.13974 | 66° | 44km/h | 1221m | 6.3m/s | 14.8°C | 65.0% | 881.0hPa | 0V | 00:00:00 | 00:00:00 | 00:00:00 | |
| EDDB2-12 | 2026-08-30 16:47:50 | 52.21214 | 14.13841 | 62° | 37km/h | 1162m | 8.0m/s | 15.4°C | 62.8% | 887.0hPa | 0V | 00:00:00 | 00:00:00 | 00:00:00 | |
| SONDE2-12 | 2026-08-30 16:47:29 | 52.21134 | 14.13518 | 79° | 35km/h | 1039m | 4.4m/s | 16.6°C | 59.1% | 899.7hPa | 0V | 00:00:00 | 00:00:00 | 00:00:00 | |
| EDDB2-12 | 2026-08-30 16:47:19 | 52.21119 | 14.13418 | 76° | 29km/h | 992m | 5.2m/s | 17.0°C | 57.7% | 904.6hPa | 0V | 00:00:00 | 00:00:00 | 00:00:00 | |
| EDDB2-11 | 2026-08-30 16:47:12 | 52.21112 | 14.13333 | 81° | 31km/h | 948m | 7.2m/s | 17.5°C | 56.5% | 909.2hPa | 0V | 00:00:00 | 00:00:00 | 00:00:00 | |
| SONDE2-11 | 2026-08-30 16:47:01 | 52.21105 | 14.13205 | 92° | 27km/h | 876m | 5.4m/s | 18.2°C | 54.8% | 916.9hPa | 0V | 00:00:00 | 00:00:00 | 00:00:00 | |
| SONDE2-12 | 2026-08-30 16:46:58 | 52.21104 | 14.13160 | 85° | 29km/h | 855m | 7.0m/s | 18.4°C | -1.0% | -1.0hPa | 0V | 00:00:00 | 00:00:00 | 00:00:00 | |
| EDDB2-12 | 2026-08-30 16:46:48 | 52.21092 | 14.13067 | 79° | 22km/h | 804m | 7.7m/s | 18.9°C | 52.4% | 925.1hPa | 0V | 00:00:00 | 00:00:00 | 00:00:00 | |
| EDDB2-11 | 2026-08-30 16:46:41 | 52.21076 | 14.13001 | 71° | 29km/h | 757m | 6.0m/s | 19.3°C | 51.5% | 930.0hPa | 0V | 00:00:00 | 00:00:00 | 00:00:00 | |
| SONDE2-11 | 2026-08-30 16:46:30 | 52.21058 | 14.12887 | 74° | 20km/h | 689m | 8.1m/s | 20.0°C | 49.7% | 937.7hPa | 0V | 00:00:00 | 00:00:00 | 00:00:00 | |
| SONDE2-12 | 2026-08-30 16:46:26 | 52.21045 | 14.12827 | 69° | 29km/h | 652m | 6.0m/s | 0°C | -1.0% | -1.0hPa | 0V | 00:00:00 | 00:00:00 | 00:00:00 | |
| EDDB2-12 | 2026-08-30 16:46:17 | 52.21030 | 14.12739 | 75° | 24km/h | 599m | 6.3m/s | 20.9°C | 48.6% | 947.5hPa | 0V | 00:00:00 | 00:00:00 | 00:00:00 | |
| EDDB2-11 | 2026-08-30 16:46:10 | 52.21026 | 14.12675 | 70° | 29km/h | 559m | 8.0m/s | 21.3°C | 47.1% | -1.0hPa | 0V | 00:00:00 | 00:00:00 | 00:00:00 | |
| SONDE2-11 | 2026-08-30 16:45:59 | 52.21020 | 14.12545 | 65° | 18km/h | 475m | 6.4m/s | 22.1°C | -1.0% | 961.4hPa | 0V | 00:00:00 | 00:00:00 | 00:00:00 | |
| EDDB2-12 | 2026-08-30 16:45:46 | 52.21014 | 14.12393 | 69° | 35km/h | 382m | 6.1m/s | 0°C | -1.0% | 972.1hPa | 0V | 00:00:00 | 00:00:00 | 00:00:00 | |
| EDDB2-11 | 2026-08-30 16:45:41 | 52.20998 | 14.12309 | 133° | 24km/h | 324m | 6.7m/s | 0°C | -1.0% | -1.0hPa | 0V | 00:00:00 | 00:00:00 | 00:00:00 | |
| SONDE2-11 | 2026-08-30 16:45:28 | 52.20974 | 14.12186 | 100° | 46km/h | 254m | 6.1m/s | 0°C | -1.0% | -1.0hPa | 0V | 00:00:00 | 00:00:00 | 00:00:00 |